<?xml version="1.0" encoding="UTF-8" standalone="no" ?>
<gpx xmlns="http://www.topografix.com/GPX/1/1" xmlns:xsi="http://www.w3.org/2001/XMLSchema-instance" xsi:schemaLocation="http://www.topografix.com/GPX/1/1 http://www.topografix.com/GPX/1/1/gpx.xsd" version="1.1" creator="VisuGPX - https://www.visugpx.com">
  <metadata>
    <name>Nord Toulousain - Testé ok 29 juillet 2022</name>
  </metadata>
  <trk>
    <name><![CDATA[Nord Toulousain - Testé ok 29 juillet 2022]]></name>
    <extensions>
      <line xmlns="http://www.topografix.com/GPX/gpx_style/0/2">
        <color>0000FF</color>
        <width>4</width>
      </line>
    </extensions>
    <trkseg>
      <trkpt lat="43.65596" lon="1.44618">
        <ele>134</ele>
        <time>2022-07-29T13:12:30.806Z</time>
      </trkpt>
      <trkpt lat="43.65601" lon="1.44637">
        <ele>186.588485</ele>
        <time>2022-07-29T13:12:33.785Z</time>
      </trkpt>
      <trkpt lat="43.65608" lon="1.44644">
        <ele>186.588485</ele>
        <time>2022-07-29T13:12:35.809Z</time>
      </trkpt>
      <trkpt lat="43.65611" lon="1.44657">
        <ele>186.588485</ele>
        <time>2022-07-29T13:12:37.818Z</time>
      </trkpt>
      <trkpt lat="43.65607" lon="1.44669">
        <ele>186.584012</ele>
        <time>2022-07-29T13:12:39.803Z</time>
      </trkpt>
      <trkpt lat="43.65601" lon="1.4468">
        <ele>186.578548</ele>
        <time>2022-07-29T13:12:41.791Z</time>
      </trkpt>
      <trkpt lat="43.65596" lon="1.44691">
        <ele>186.573313</ele>
        <time>2022-07-29T13:12:43.812Z</time>
      </trkpt>
      <trkpt lat="43.6559" lon="1.44701">
        <ele>186.568011</ele>
        <time>2022-07-29T13:12:45.801Z</time>
      </trkpt>
      <trkpt lat="43.65585" lon="1.44713">
        <ele>186.562381</ele>
        <time>2022-07-29T13:12:47.809Z</time>
      </trkpt>
      <trkpt lat="43.65579" lon="1.44725">
        <ele>186.556625</ele>
        <time>2022-07-29T13:12:49.813Z</time>
      </trkpt>
      <trkpt lat="43.65573" lon="1.44737">
        <ele>186.550739</ele>
        <time>2022-07-29T13:12:51.838Z</time>
      </trkpt>
      <trkpt lat="43.65566" lon="1.44749">
        <ele>186.544854</ele>
        <time>2022-07-29T13:12:53.805Z</time>
      </trkpt>
      <trkpt lat="43.65559" lon="1.44759">
        <ele>186.539056</ele>
        <time>2022-07-29T13:12:55.809Z</time>
      </trkpt>
      <trkpt lat="43.65553" lon="1.44771">
        <ele>186.533202</ele>
        <time>2022-07-29T13:12:57.801Z</time>
      </trkpt>
      <trkpt lat="43.65547" lon="1.44783">
        <ele>186.527349</ele>
        <time>2022-07-29T13:12:59.809Z</time>
      </trkpt>
      <trkpt lat="43.65541" lon="1.44795">
        <ele>186.521496</ele>
        <time>2022-07-29T13:13:01.821Z</time>
      </trkpt>
      <trkpt lat="43.65534" lon="1.44806">
        <ele>186.515603</ele>
        <time>2022-07-29T13:13:03.821Z</time>
      </trkpt>
      <trkpt lat="43.65526" lon="1.44816">
        <ele>186.509891</ele>
        <time>2022-07-29T13:13:05.825Z</time>
      </trkpt>
      <trkpt lat="43.6552" lon="1.44826">
        <ele>186.504303</ele>
        <time>2022-07-29T13:13:07.837Z</time>
      </trkpt>
      <trkpt lat="43.65514" lon="1.44837">
        <ele>186.498894</ele>
        <time>2022-07-29T13:13:09.826Z</time>
      </trkpt>
      <trkpt lat="43.6551" lon="1.44852">
        <ele>186.492477</ele>
        <time>2022-07-29T13:13:12.826Z</time>
      </trkpt>
      <trkpt lat="43.65504" lon="1.44869">
        <ele>186.459756</ele>
        <time>2022-07-29T13:13:15.818Z</time>
      </trkpt>
      <trkpt lat="43.65498" lon="1.4488">
        <ele>186.419638</ele>
        <time>2022-07-29T13:13:17.824Z</time>
      </trkpt>
      <trkpt lat="43.65492" lon="1.44892">
        <ele>186.376918</ele>
        <time>2022-07-29T13:13:19.838Z</time>
      </trkpt>
      <trkpt lat="43.65486" lon="1.44904">
        <ele>186.333957</ele>
        <time>2022-07-29T13:13:21.840Z</time>
      </trkpt>
      <trkpt lat="43.65481" lon="1.44919">
        <ele>186.286548</ele>
        <time>2022-07-29T13:13:23.813Z</time>
      </trkpt>
      <trkpt lat="43.65478" lon="1.44935">
        <ele>186.237466</ele>
        <time>2022-07-29T13:13:25.875Z</time>
      </trkpt>
      <trkpt lat="43.65482" lon="1.44949">
        <ele>186.194253</ele>
        <time>2022-07-29T13:13:27.800Z</time>
      </trkpt>
      <trkpt lat="43.65489" lon="1.4496">
        <ele>186.147444</ele>
        <time>2022-07-29T13:13:29.818Z</time>
      </trkpt>
      <trkpt lat="43.65497" lon="1.44972">
        <ele>186.101933</ele>
        <time>2022-07-29T13:13:31.836Z</time>
      </trkpt>
      <trkpt lat="43.65505" lon="1.44983">
        <ele>186.05731</ele>
        <time>2022-07-29T13:13:33.820Z</time>
      </trkpt>
      <trkpt lat="43.65513" lon="1.44994">
        <ele>186.011654</ele>
        <time>2022-07-29T13:13:35.818Z</time>
      </trkpt>
      <trkpt lat="43.65521" lon="1.45004">
        <ele>185.964945</ele>
        <time>2022-07-29T13:13:37.849Z</time>
      </trkpt>
      <trkpt lat="43.65528" lon="1.45016">
        <ele>185.920991</ele>
        <time>2022-07-29T13:13:39.804Z</time>
      </trkpt>
      <trkpt lat="43.65536" lon="1.45027">
        <ele>185.874376</ele>
        <time>2022-07-29T13:13:41.832Z</time>
      </trkpt>
      <trkpt lat="43.65544" lon="1.45038">
        <ele>185.827439</ele>
        <time>2022-07-29T13:13:43.839Z</time>
      </trkpt>
      <trkpt lat="43.65552" lon="1.4505">
        <ele>185.779243</ele>
        <time>2022-07-29T13:13:45.834Z</time>
      </trkpt>
      <trkpt lat="43.65561" lon="1.45062">
        <ele>185.735165</ele>
        <time>2022-07-29T13:13:47.835Z</time>
      </trkpt>
      <trkpt lat="43.65566" lon="1.45073">
        <ele>185.704306</ele>
        <time>2022-07-29T13:13:49.833Z</time>
      </trkpt>
      <trkpt lat="43.65575" lon="1.45083">
        <ele>185.664647</ele>
        <time>2022-07-29T13:13:52.824Z</time>
      </trkpt>
      <trkpt lat="43.65583" lon="1.45093">
        <ele>185.629897</ele>
        <time>2022-07-29T13:13:54.829Z</time>
      </trkpt>
      <trkpt lat="43.65591" lon="1.45104">
        <ele>185.59306</ele>
        <time>2022-07-29T13:13:56.816Z</time>
      </trkpt>
      <trkpt lat="43.65599" lon="1.45115">
        <ele>185.554695</ele>
        <time>2022-07-29T13:13:58.823Z</time>
      </trkpt>
      <trkpt lat="43.65604" lon="1.4513">
        <ele>185.515156</ele>
        <time>2022-07-29T13:14:00.828Z</time>
      </trkpt>
      <trkpt lat="43.65603" lon="1.45147">
        <ele>185.47586</ele>
        <time>2022-07-29T13:14:02.816Z</time>
      </trkpt>
      <trkpt lat="43.65598" lon="1.4516">
        <ele>185.438822</ele>
        <time>2022-07-29T13:14:04.821Z</time>
      </trkpt>
      <trkpt lat="43.65589" lon="1.4517">
        <ele>185.39974</ele>
        <time>2022-07-29T13:14:06.805Z</time>
      </trkpt>
      <trkpt lat="43.6558" lon="1.45181">
        <ele>185.36267</ele>
        <time>2022-07-29T13:14:08.806Z</time>
      </trkpt>
      <trkpt lat="43.65571" lon="1.45191">
        <ele>185.322528</ele>
        <time>2022-07-29T13:14:10.809Z</time>
      </trkpt>
      <trkpt lat="43.65562" lon="1.45202">
        <ele>185.282536</ele>
        <time>2022-07-29T13:14:12.830Z</time>
      </trkpt>
      <trkpt lat="43.65552" lon="1.45212">
        <ele>185.242843</ele>
        <time>2022-07-29T13:14:14.808Z</time>
      </trkpt>
      <trkpt lat="43.65543" lon="1.45222">
        <ele>185.203446</ele>
        <time>2022-07-29T13:14:16.829Z</time>
      </trkpt>
      <trkpt lat="43.65534" lon="1.45232">
        <ele>185.16442</ele>
        <time>2022-07-29T13:14:18.814Z</time>
      </trkpt>
      <trkpt lat="43.65525" lon="1.45243">
        <ele>185.218531</ele>
        <time>2022-07-29T13:14:20.832Z</time>
      </trkpt>
      <trkpt lat="43.65518" lon="1.45256">
        <ele>185.280984</ele>
        <time>2022-07-29T13:14:22.822Z</time>
      </trkpt>
      <trkpt lat="43.65511" lon="1.45268">
        <ele>185.3413</ele>
        <time>2022-07-29T13:14:24.834Z</time>
      </trkpt>
      <trkpt lat="43.65502" lon="1.4528">
        <ele>185.404323</ele>
        <time>2022-07-29T13:14:26.841Z</time>
      </trkpt>
      <trkpt lat="43.65494" lon="1.4529">
        <ele>185.465903</ele>
        <time>2022-07-29T13:14:28.822Z</time>
      </trkpt>
      <trkpt lat="43.65484" lon="1.453">
        <ele>185.528016</ele>
        <time>2022-07-29T13:14:30.818Z</time>
      </trkpt>
      <trkpt lat="43.65475" lon="1.45309">
        <ele>185.58881</ele>
        <time>2022-07-29T13:14:32.794Z</time>
      </trkpt>
      <trkpt lat="43.65467" lon="1.45318">
        <ele>185.645645</ele>
        <time>2022-07-29T13:14:34.804Z</time>
      </trkpt>
      <trkpt lat="43.65458" lon="1.45327">
        <ele>185.70465</ele>
        <time>2022-07-29T13:14:36.828Z</time>
      </trkpt>
      <trkpt lat="43.65449" lon="1.45337">
        <ele>185.7655</ele>
        <time>2022-07-29T13:14:38.816Z</time>
      </trkpt>
      <trkpt lat="43.65442" lon="1.45347">
        <ele>185.819641</ele>
        <time>2022-07-29T13:14:40.839Z</time>
      </trkpt>
      <trkpt lat="43.65442" lon="1.45364">
        <ele>185.886197</ele>
        <time>2022-07-29T13:14:43.822Z</time>
      </trkpt>
      <trkpt lat="43.65451" lon="1.4537">
        <ele>185.937369</ele>
        <time>2022-07-29T13:14:45.809Z</time>
      </trkpt>
      <trkpt lat="43.65462" lon="1.45373">
        <ele>185.997481</ele>
        <time>2022-07-29T13:14:47.813Z</time>
      </trkpt>
      <trkpt lat="43.65474" lon="1.45377">
        <ele>186.063491</ele>
        <time>2022-07-29T13:14:49.817Z</time>
      </trkpt>
      <trkpt lat="43.65485" lon="1.45381">
        <ele>186.124597</ele>
        <time>2022-07-29T13:14:51.816Z</time>
      </trkpt>
      <trkpt lat="43.65497" lon="1.45385">
        <ele>186.147423</ele>
        <time>2022-07-29T13:14:53.807Z</time>
      </trkpt>
      <trkpt lat="43.65508" lon="1.4539">
        <ele>186.169986</ele>
        <time>2022-07-29T13:14:55.813Z</time>
      </trkpt>
      <trkpt lat="43.65519" lon="1.45394">
        <ele>186.192254</ele>
        <time>2022-07-29T13:14:57.817Z</time>
      </trkpt>
      <trkpt lat="43.65529" lon="1.45397">
        <ele>186.212762</ele>
        <time>2022-07-29T13:14:59.812Z</time>
      </trkpt>
      <trkpt lat="43.65538" lon="1.454">
        <ele>186.230436</ele>
        <time>2022-07-29T13:15:01.812Z</time>
      </trkpt>
      <trkpt lat="43.65549" lon="1.45404">
        <ele>186.251669</ele>
        <time>2022-07-29T13:15:03.814Z</time>
      </trkpt>
      <trkpt lat="43.6556" lon="1.45408">
        <ele>186.273833</ele>
        <time>2022-07-29T13:15:05.815Z</time>
      </trkpt>
      <trkpt lat="43.65572" lon="1.45412">
        <ele>186.296545</ele>
        <time>2022-07-29T13:15:07.830Z</time>
      </trkpt>
      <trkpt lat="43.65583" lon="1.45416">
        <ele>186.318645</ele>
        <time>2022-07-29T13:15:09.803Z</time>
      </trkpt>
      <trkpt lat="43.65594" lon="1.4542">
        <ele>186.341029</ele>
        <time>2022-07-29T13:15:11.795Z</time>
      </trkpt>
      <trkpt lat="43.65605" lon="1.45424">
        <ele>186.363223</ele>
        <time>2022-07-29T13:15:13.818Z</time>
      </trkpt>
      <trkpt lat="43.65616" lon="1.45428">
        <ele>186.38549</ele>
        <time>2022-07-29T13:15:15.810Z</time>
      </trkpt>
      <trkpt lat="43.65628" lon="1.45433">
        <ele>186.407885</ele>
        <time>2022-07-29T13:15:17.809Z</time>
      </trkpt>
      <trkpt lat="43.65638" lon="1.45438">
        <ele>186.429689</ele>
        <time>2022-07-29T13:15:19.827Z</time>
      </trkpt>
      <trkpt lat="43.65649" lon="1.45443">
        <ele>186.451225</ele>
        <time>2022-07-29T13:15:21.815Z</time>
      </trkpt>
      <trkpt lat="43.6566" lon="1.45447">
        <ele>186.480396</ele>
        <time>2022-07-29T13:15:23.816Z</time>
      </trkpt>
      <trkpt lat="43.6567" lon="1.45451">
        <ele>186.541446</ele>
        <time>2022-07-29T13:15:25.811Z</time>
      </trkpt>
      <trkpt lat="43.65681" lon="1.45456">
        <ele>186.602497</ele>
        <time>2022-07-29T13:15:27.822Z</time>
      </trkpt>
      <trkpt lat="43.65692" lon="1.4546">
        <ele>186.663659</ele>
        <time>2022-07-29T13:15:29.807Z</time>
      </trkpt>
      <trkpt lat="43.65702" lon="1.45464">
        <ele>186.725581</ele>
        <time>2022-07-29T13:15:31.811Z</time>
      </trkpt>
      <trkpt lat="43.65713" lon="1.45469">
        <ele>186.78839</ele>
        <time>2022-07-29T13:15:33.802Z</time>
      </trkpt>
      <trkpt lat="43.65724" lon="1.45473">
        <ele>186.851038</ele>
        <time>2022-07-29T13:15:35.847Z</time>
      </trkpt>
      <trkpt lat="43.65734" lon="1.45477">
        <ele>186.909668</ele>
        <time>2022-07-29T13:15:37.807Z</time>
      </trkpt>
      <trkpt lat="43.65744" lon="1.45476">
        <ele>186.965056</ele>
        <time>2022-07-29T13:15:39.802Z</time>
      </trkpt>
      <trkpt lat="43.65755" lon="1.45479">
        <ele>187.024261</ele>
        <time>2022-07-29T13:15:41.809Z</time>
      </trkpt>
      <trkpt lat="43.65765" lon="1.45482">
        <ele>187.083</ele>
        <time>2022-07-29T13:15:43.820Z</time>
      </trkpt>
      <trkpt lat="43.65776" lon="1.45485">
        <ele>187.142749</ele>
        <time>2022-07-29T13:15:45.805Z</time>
      </trkpt>
      <trkpt lat="43.65786" lon="1.45489">
        <ele>187.204442</ele>
        <time>2022-07-29T13:15:47.813Z</time>
      </trkpt>
      <trkpt lat="43.65797" lon="1.45494">
        <ele>187.265672</ele>
        <time>2022-07-29T13:15:49.803Z</time>
      </trkpt>
      <trkpt lat="43.65808" lon="1.45496">
        <ele>187.325899</ele>
        <time>2022-07-29T13:15:51.814Z</time>
      </trkpt>
      <trkpt lat="43.65819" lon="1.45493">
        <ele>187.386811</ele>
        <time>2022-07-29T13:15:53.806Z</time>
      </trkpt>
      <trkpt lat="43.6583" lon="1.45489">
        <ele>187.450474</ele>
        <time>2022-07-29T13:15:55.802Z</time>
      </trkpt>
      <trkpt lat="43.65841" lon="1.45486">
        <ele>187.359108</ele>
        <time>2022-07-29T13:15:57.820Z</time>
      </trkpt>
      <trkpt lat="43.65852" lon="1.45482">
        <ele>187.222412</ele>
        <time>2022-07-29T13:15:59.805Z</time>
      </trkpt>
      <trkpt lat="43.65864" lon="1.45478">
        <ele>187.084583</ele>
        <time>2022-07-29T13:16:01.808Z</time>
      </trkpt>
      <trkpt lat="43.65876" lon="1.45476">
        <ele>186.948515</ele>
        <time>2022-07-29T13:16:03.803Z</time>
      </trkpt>
      <trkpt lat="43.65885" lon="1.45476">
        <ele>186.835244</ele>
        <time>2022-07-29T13:16:05.818Z</time>
      </trkpt>
      <trkpt lat="43.65894" lon="1.45479">
        <ele>186.725792</ele>
        <time>2022-07-29T13:16:10.806Z</time>
      </trkpt>
      <trkpt lat="43.65903" lon="1.45485">
        <ele>186.613898</ele>
        <time>2022-07-29T13:16:13.839Z</time>
      </trkpt>
      <trkpt lat="43.65912" lon="1.45489">
        <ele>186.502335</ele>
        <time>2022-07-29T13:16:15.796Z</time>
      </trkpt>
      <trkpt lat="43.65921" lon="1.45492">
        <ele>186.39175</ele>
        <time>2022-07-29T13:16:17.809Z</time>
      </trkpt>
      <trkpt lat="43.6593" lon="1.45497">
        <ele>186.280187</ele>
        <time>2022-07-29T13:16:19.799Z</time>
      </trkpt>
      <trkpt lat="43.65938" lon="1.45507">
        <ele>186.155601</ele>
        <time>2022-07-29T13:16:21.809Z</time>
      </trkpt>
      <trkpt lat="43.65948" lon="1.45516">
        <ele>186.017025</ele>
        <time>2022-07-29T13:16:23.812Z</time>
      </trkpt>
      <trkpt lat="43.6596" lon="1.45518">
        <ele>185.877289</ele>
        <time>2022-07-29T13:16:25.803Z</time>
      </trkpt>
      <trkpt lat="43.6597" lon="1.45512">
        <ele>185.741608</ele>
        <time>2022-07-29T13:16:27.809Z</time>
      </trkpt>
      <trkpt lat="43.6598" lon="1.45503">
        <ele>185.602544</ele>
        <time>2022-07-29T13:16:29.813Z</time>
      </trkpt>
      <trkpt lat="43.65992" lon="1.45497">
        <ele>185.452959</ele>
        <time>2022-07-29T13:16:31.823Z</time>
      </trkpt>
      <trkpt lat="43.66006" lon="1.45496">
        <ele>185.324873</ele>
        <time>2022-07-29T13:16:33.810Z</time>
      </trkpt>
      <trkpt lat="43.66016" lon="1.45501">
        <ele>185.246616</ele>
        <time>2022-07-29T13:16:40.816Z</time>
      </trkpt>
      <trkpt lat="43.66026" lon="1.45503">
        <ele>185.180839</ele>
        <time>2022-07-29T13:16:44.830Z</time>
      </trkpt>
      <trkpt lat="43.66036" lon="1.45514">
        <ele>185.090374</ele>
        <time>2022-07-29T13:16:47.821Z</time>
      </trkpt>
      <trkpt lat="43.66044" lon="1.4552">
        <ele>185.021783</ele>
        <time>2022-07-29T13:16:49.805Z</time>
      </trkpt>
      <trkpt lat="43.66054" lon="1.45528">
        <ele>184.941</ele>
        <time>2022-07-29T13:16:51.816Z</time>
      </trkpt>
      <trkpt lat="43.66065" lon="1.45534">
        <ele>184.859483</ele>
        <time>2022-07-29T13:16:53.799Z</time>
      </trkpt>
      <trkpt lat="43.66075" lon="1.45536">
        <ele>184.78726</ele>
        <time>2022-07-29T13:16:55.824Z</time>
      </trkpt>
      <trkpt lat="43.66086" lon="1.45532">
        <ele>184.710897</ele>
        <time>2022-07-29T13:16:57.816Z</time>
      </trkpt>
      <trkpt lat="43.66097" lon="1.45535">
        <ele>184.629641</ele>
        <time>2022-07-29T13:16:59.809Z</time>
      </trkpt>
      <trkpt lat="43.66108" lon="1.45541">
        <ele>184.549509</ele>
        <time>2022-07-29T13:17:01.809Z</time>
      </trkpt>
      <trkpt lat="43.66116" lon="1.45547">
        <ele>184.482591</ele>
        <time>2022-07-29T13:17:03.812Z</time>
      </trkpt>
      <trkpt lat="43.66124" lon="1.45553">
        <ele>184.418927</ele>
        <time>2022-07-29T13:17:05.807Z</time>
      </trkpt>
      <trkpt lat="43.66132" lon="1.4556">
        <ele>184.350696</ele>
        <time>2022-07-29T13:17:07.797Z</time>
      </trkpt>
      <trkpt lat="43.66141" lon="1.45568">
        <ele>184.280651</ele>
        <time>2022-07-29T13:17:09.808Z</time>
      </trkpt>
      <trkpt lat="43.66149" lon="1.45575">
        <ele>184.209739</ele>
        <time>2022-07-29T13:17:11.796Z</time>
      </trkpt>
      <trkpt lat="43.66159" lon="1.45584">
        <ele>184.127204</ele>
        <time>2022-07-29T13:17:14.808Z</time>
      </trkpt>
      <trkpt lat="43.66167" lon="1.45592">
        <ele>184.087954</ele>
        <time>2022-07-29T13:17:16.817Z</time>
      </trkpt>
      <trkpt lat="43.66174" lon="1.45604">
        <ele>184.062138</ele>
        <time>2022-07-29T13:17:18.816Z</time>
      </trkpt>
      <trkpt lat="43.66183" lon="1.45615">
        <ele>184.033735</ele>
        <time>2022-07-29T13:17:20.813Z</time>
      </trkpt>
      <trkpt lat="43.66192" lon="1.45627">
        <ele>184.006291</ele>
        <time>2022-07-29T13:17:22.814Z</time>
      </trkpt>
      <trkpt lat="43.66203" lon="1.45632">
        <ele>183.98081</ele>
        <time>2022-07-29T13:17:24.812Z</time>
      </trkpt>
      <trkpt lat="43.66212" lon="1.45624">
        <ele>183.955295</ele>
        <time>2022-07-29T13:17:26.823Z</time>
      </trkpt>
      <trkpt lat="43.66216" lon="1.45609">
        <ele>183.928707</ele>
        <time>2022-07-29T13:17:28.813Z</time>
      </trkpt>
      <trkpt lat="43.6622" lon="1.45593">
        <ele>183.901475</ele>
        <time>2022-07-29T13:17:30.819Z</time>
      </trkpt>
      <trkpt lat="43.66224" lon="1.45578">
        <ele>183.87438</ele>
        <time>2022-07-29T13:17:32.812Z</time>
      </trkpt>
      <trkpt lat="43.66229" lon="1.45563">
        <ele>183.847285</ele>
        <time>2022-07-29T13:17:34.812Z</time>
      </trkpt>
      <trkpt lat="43.66233" lon="1.45548">
        <ele>183.819731</ele>
        <time>2022-07-29T13:17:36.816Z</time>
      </trkpt>
      <trkpt lat="43.66238" lon="1.45533">
        <ele>183.792588</ele>
        <time>2022-07-29T13:17:38.804Z</time>
      </trkpt>
      <trkpt lat="43.66241" lon="1.45519">
        <ele>183.767253</ele>
        <time>2022-07-29T13:17:40.802Z</time>
      </trkpt>
      <trkpt lat="43.66245" lon="1.45504">
        <ele>183.74051</ele>
        <time>2022-07-29T13:17:42.819Z</time>
      </trkpt>
      <trkpt lat="43.66249" lon="1.45489">
        <ele>183.715095</ele>
        <time>2022-07-29T13:17:44.815Z</time>
      </trkpt>
      <trkpt lat="43.66254" lon="1.45475">
        <ele>183.688634</ele>
        <time>2022-07-29T13:17:46.816Z</time>
      </trkpt>
      <trkpt lat="43.66258" lon="1.4546">
        <ele>183.655212</ele>
        <time>2022-07-29T13:17:48.837Z</time>
      </trkpt>
      <trkpt lat="43.66261" lon="1.45445">
        <ele>183.621592</ele>
        <time>2022-07-29T13:17:50.802Z</time>
      </trkpt>
      <trkpt lat="43.66265" lon="1.4543">
        <ele>183.585916</ele>
        <time>2022-07-29T13:17:52.812Z</time>
      </trkpt>
      <trkpt lat="43.66269" lon="1.45414">
        <ele>183.54946</ele>
        <time>2022-07-29T13:17:54.826Z</time>
      </trkpt>
      <trkpt lat="43.66274" lon="1.45398">
        <ele>183.513544</ele>
        <time>2022-07-29T13:17:56.799Z</time>
      </trkpt>
      <trkpt lat="43.66279" lon="1.45384">
        <ele>183.479322</ele>
        <time>2022-07-29T13:17:58.811Z</time>
      </trkpt>
      <trkpt lat="43.66284" lon="1.45369">
        <ele>183.444233</ele>
        <time>2022-07-29T13:18:00.819Z</time>
      </trkpt>
      <trkpt lat="43.66289" lon="1.45356">
        <ele>183.410865</ele>
        <time>2022-07-29T13:18:02.806Z</time>
      </trkpt>
      <trkpt lat="43.66294" lon="1.45342">
        <ele>183.377239</ele>
        <time>2022-07-29T13:18:04.820Z</time>
      </trkpt>
      <trkpt lat="43.663" lon="1.45328">
        <ele>183.343298</ele>
        <time>2022-07-29T13:18:06.808Z</time>
      </trkpt>
      <trkpt lat="43.66307" lon="1.45315">
        <ele>183.309584</ele>
        <time>2022-07-29T13:18:08.824Z</time>
      </trkpt>
      <trkpt lat="43.66313" lon="1.45302">
        <ele>183.275165</ele>
        <time>2022-07-29T13:18:10.825Z</time>
      </trkpt>
      <trkpt lat="43.6632" lon="1.45288">
        <ele>183.240251</ele>
        <time>2022-07-29T13:18:12.815Z</time>
      </trkpt>
      <trkpt lat="43.66326" lon="1.45275">
        <ele>183.204802</ele>
        <time>2022-07-29T13:18:14.824Z</time>
      </trkpt>
      <trkpt lat="43.66332" lon="1.45261">
        <ele>183.169234</ele>
        <time>2022-07-29T13:18:16.830Z</time>
      </trkpt>
      <trkpt lat="43.66339" lon="1.45247">
        <ele>183.154014</ele>
        <time>2022-07-29T13:18:18.825Z</time>
      </trkpt>
      <trkpt lat="43.66347" lon="1.45233">
        <ele>183.154936</ele>
        <time>2022-07-29T13:18:20.816Z</time>
      </trkpt>
      <trkpt lat="43.66352" lon="1.45215">
        <ele>183.155901</ele>
        <time>2022-07-29T13:18:22.828Z</time>
      </trkpt>
      <trkpt lat="43.66357" lon="1.45199">
        <ele>183.156786</ele>
        <time>2022-07-29T13:18:24.821Z</time>
      </trkpt>
      <trkpt lat="43.66363" lon="1.45184">
        <ele>183.157684</ele>
        <time>2022-07-29T13:18:26.820Z</time>
      </trkpt>
      <trkpt lat="43.66365" lon="1.45171">
        <ele>183.158361</ele>
        <time>2022-07-29T13:18:28.821Z</time>
      </trkpt>
      <trkpt lat="43.66365" lon="1.45155">
        <ele>183.159143</ele>
        <time>2022-07-29T13:18:32.825Z</time>
      </trkpt>
      <trkpt lat="43.66372" lon="1.4514">
        <ele>183.160086</ele>
        <time>2022-07-29T13:18:35.809Z</time>
      </trkpt>
      <trkpt lat="43.66377" lon="1.45124">
        <ele>183.160931</ele>
        <time>2022-07-29T13:18:37.811Z</time>
      </trkpt>
      <trkpt lat="43.66384" lon="1.45109">
        <ele>183.161847</ele>
        <time>2022-07-29T13:18:39.817Z</time>
      </trkpt>
      <trkpt lat="43.6639" lon="1.45095">
        <ele>183.16272</ele>
        <time>2022-07-29T13:18:41.823Z</time>
      </trkpt>
      <trkpt lat="43.66394" lon="1.45078">
        <ele>183.163573</ele>
        <time>2022-07-29T13:18:43.818Z</time>
      </trkpt>
      <trkpt lat="43.66398" lon="1.45063">
        <ele>183.164432</ele>
        <time>2022-07-29T13:18:45.831Z</time>
      </trkpt>
      <trkpt lat="43.66403" lon="1.45048">
        <ele>183.165258</ele>
        <time>2022-07-29T13:18:47.824Z</time>
      </trkpt>
      <trkpt lat="43.66409" lon="1.45032">
        <ele>183.166142</ele>
        <time>2022-07-29T13:18:49.855Z</time>
      </trkpt>
      <trkpt lat="43.66413" lon="1.45016">
        <ele>183.14663</ele>
        <time>2022-07-29T13:18:51.831Z</time>
      </trkpt>
      <trkpt lat="43.66414" lon="1.45">
        <ele>183.12691</ele>
        <time>2022-07-29T13:18:53.838Z</time>
      </trkpt>
      <trkpt lat="43.66416" lon="1.44983">
        <ele>183.105934</ele>
        <time>2022-07-29T13:18:55.842Z</time>
      </trkpt>
      <trkpt lat="43.66421" lon="1.44967">
        <ele>183.08532</ele>
        <time>2022-07-29T13:18:57.842Z</time>
      </trkpt>
      <trkpt lat="43.66426" lon="1.44952">
        <ele>183.064513</ele>
        <time>2022-07-29T13:18:59.847Z</time>
      </trkpt>
      <trkpt lat="43.66431" lon="1.44937">
        <ele>183.043733</ele>
        <time>2022-07-29T13:19:01.836Z</time>
      </trkpt>
      <trkpt lat="43.66434" lon="1.4492">
        <ele>183.022839</ele>
        <time>2022-07-29T13:19:03.826Z</time>
      </trkpt>
      <trkpt lat="43.66442" lon="1.44906">
        <ele>183.002214</ele>
        <time>2022-07-29T13:19:05.855Z</time>
      </trkpt>
      <trkpt lat="43.66448" lon="1.44892">
        <ele>182.981929</ele>
        <time>2022-07-29T13:19:07.836Z</time>
      </trkpt>
      <trkpt lat="43.66452" lon="1.44877">
        <ele>182.962287</ele>
        <time>2022-07-29T13:19:09.834Z</time>
      </trkpt>
      <trkpt lat="43.66455" lon="1.44862">
        <ele>182.943076</ele>
        <time>2022-07-29T13:19:11.830Z</time>
      </trkpt>
      <trkpt lat="43.66459" lon="1.44847">
        <ele>182.923714</ele>
        <time>2022-07-29T13:19:13.824Z</time>
      </trkpt>
      <trkpt lat="43.66463" lon="1.44833">
        <ele>182.905285</ele>
        <time>2022-07-29T13:19:15.834Z</time>
      </trkpt>
      <trkpt lat="43.66468" lon="1.44819">
        <ele>182.886195</ele>
        <time>2022-07-29T13:19:17.814Z</time>
      </trkpt>
      <trkpt lat="43.66474" lon="1.44805">
        <ele>182.866947</ele>
        <time>2022-07-29T13:19:19.833Z</time>
      </trkpt>
      <trkpt lat="43.6648" lon="1.44792">
        <ele>182.824105</ele>
        <time>2022-07-29T13:19:21.830Z</time>
      </trkpt>
      <trkpt lat="43.66486" lon="1.44778">
        <ele>182.773598</ele>
        <time>2022-07-29T13:19:23.822Z</time>
      </trkpt>
      <trkpt lat="43.66492" lon="1.44764">
        <ele>182.72282</ele>
        <time>2022-07-29T13:19:25.835Z</time>
      </trkpt>
      <trkpt lat="43.66498" lon="1.4475">
        <ele>182.670949</ele>
        <time>2022-07-29T13:19:27.831Z</time>
      </trkpt>
      <trkpt lat="43.66503" lon="1.44735">
        <ele>182.62009</ele>
        <time>2022-07-29T13:19:29.841Z</time>
      </trkpt>
      <trkpt lat="43.66508" lon="1.4472">
        <ele>182.568629</ele>
        <time>2022-07-29T13:19:31.836Z</time>
      </trkpt>
      <trkpt lat="43.66513" lon="1.4471">
        <ele>182.529564</ele>
        <time>2022-07-29T13:19:33.814Z</time>
      </trkpt>
      <trkpt lat="43.66523" lon="1.44715">
        <ele>182.485285</ele>
        <time>2022-07-29T13:19:37.823Z</time>
      </trkpt>
      <trkpt lat="43.66535" lon="1.44722">
        <ele>182.427769</ele>
        <time>2022-07-29T13:19:40.832Z</time>
      </trkpt>
      <trkpt lat="43.66546" lon="1.44729">
        <ele>182.376405</ele>
        <time>2022-07-29T13:19:42.829Z</time>
      </trkpt>
      <trkpt lat="43.66556" lon="1.4474">
        <ele>182.319267</ele>
        <time>2022-07-29T13:19:44.834Z</time>
      </trkpt>
      <trkpt lat="43.66566" lon="1.44753">
        <ele>182.259646</ele>
        <time>2022-07-29T13:19:46.830Z</time>
      </trkpt>
      <trkpt lat="43.66577" lon="1.44767">
        <ele>182.197662</ele>
        <time>2022-07-29T13:19:48.814Z</time>
      </trkpt>
      <trkpt lat="43.66586" lon="1.44781">
        <ele>182.137045</ele>
        <time>2022-07-29T13:19:50.819Z</time>
      </trkpt>
      <trkpt lat="43.66596" lon="1.44795">
        <ele>182.079143</ele>
        <time>2022-07-29T13:19:52.822Z</time>
      </trkpt>
      <trkpt lat="43.66605" lon="1.44811">
        <ele>182.042314</ele>
        <time>2022-07-29T13:19:54.819Z</time>
      </trkpt>
      <trkpt lat="43.66614" lon="1.44826">
        <ele>182.006209</ele>
        <time>2022-07-29T13:19:56.838Z</time>
      </trkpt>
      <trkpt lat="43.66624" lon="1.4484">
        <ele>181.971378</ele>
        <time>2022-07-29T13:19:58.804Z</time>
      </trkpt>
      <trkpt lat="43.66634" lon="1.44851">
        <ele>181.937759</ele>
        <time>2022-07-29T13:20:00.821Z</time>
      </trkpt>
      <trkpt lat="43.66647" lon="1.44857">
        <ele>181.904067</ele>
        <time>2022-07-29T13:20:02.833Z</time>
      </trkpt>
      <trkpt lat="43.6666" lon="1.4486">
        <ele>181.86897</ele>
        <time>2022-07-29T13:20:04.811Z</time>
      </trkpt>
      <trkpt lat="43.66674" lon="1.4486">
        <ele>181.834081</ele>
        <time>2022-07-29T13:20:06.819Z</time>
      </trkpt>
      <trkpt lat="43.66688" lon="1.44857">
        <ele>181.797646</ele>
        <time>2022-07-29T13:20:08.818Z</time>
      </trkpt>
      <trkpt lat="43.66701" lon="1.44849">
        <ele>181.762281</ele>
        <time>2022-07-29T13:20:10.818Z</time>
      </trkpt>
      <trkpt lat="43.66714" lon="1.44839">
        <ele>181.726019</ele>
        <time>2022-07-29T13:20:12.820Z</time>
      </trkpt>
      <trkpt lat="43.66725" lon="1.44828">
        <ele>181.689931</ele>
        <time>2022-07-29T13:20:14.829Z</time>
      </trkpt>
      <trkpt lat="43.66738" lon="1.44822">
        <ele>181.655579</ele>
        <time>2022-07-29T13:20:16.793Z</time>
      </trkpt>
      <trkpt lat="43.66751" lon="1.44826">
        <ele>181.631725</ele>
        <time>2022-07-29T13:20:18.802Z</time>
      </trkpt>
      <trkpt lat="43.66758" lon="1.44841">
        <ele>181.637747</ele>
        <time>2022-07-29T13:20:20.804Z</time>
      </trkpt>
      <trkpt lat="43.66759" lon="1.44858">
        <ele>181.643872</ele>
        <time>2022-07-29T13:20:22.814Z</time>
      </trkpt>
      <trkpt lat="43.66764" lon="1.44874">
        <ele>181.649934</ele>
        <time>2022-07-29T13:20:24.804Z</time>
      </trkpt>
      <trkpt lat="43.66773" lon="1.44886">
        <ele>181.656079</ele>
        <time>2022-07-29T13:20:26.810Z</time>
      </trkpt>
      <trkpt lat="43.66784" lon="1.44896">
        <ele>181.662209</ele>
        <time>2022-07-29T13:20:28.813Z</time>
      </trkpt>
      <trkpt lat="43.66795" lon="1.44904">
        <ele>181.6682</ele>
        <time>2022-07-29T13:20:30.814Z</time>
      </trkpt>
      <trkpt lat="43.66806" lon="1.44911">
        <ele>181.673984</ele>
        <time>2022-07-29T13:20:32.796Z</time>
      </trkpt>
      <trkpt lat="43.66817" lon="1.44916">
        <ele>181.67977</ele>
        <time>2022-07-29T13:20:34.816Z</time>
      </trkpt>
      <trkpt lat="43.66829" lon="1.4492">
        <ele>181.685691</ele>
        <time>2022-07-29T13:20:36.808Z</time>
      </trkpt>
      <trkpt lat="43.66841" lon="1.44924">
        <ele>181.69157</ele>
        <time>2022-07-29T13:20:38.811Z</time>
      </trkpt>
      <trkpt lat="43.66853" lon="1.44927">
        <ele>181.697455</ele>
        <time>2022-07-29T13:20:40.808Z</time>
      </trkpt>
      <trkpt lat="43.66865" lon="1.4493">
        <ele>181.703393</ele>
        <time>2022-07-29T13:20:42.804Z</time>
      </trkpt>
      <trkpt lat="43.66877" lon="1.44932">
        <ele>181.709195</ele>
        <time>2022-07-29T13:20:44.817Z</time>
      </trkpt>
      <trkpt lat="43.66889" lon="1.44935">
        <ele>181.715246</ele>
        <time>2022-07-29T13:20:46.796Z</time>
      </trkpt>
      <trkpt lat="43.66902" lon="1.44938">
        <ele>181.706451</ele>
        <time>2022-07-29T13:20:48.811Z</time>
      </trkpt>
      <trkpt lat="43.66913" lon="1.44942">
        <ele>181.692149</ele>
        <time>2022-07-29T13:20:50.801Z</time>
      </trkpt>
      <trkpt lat="43.66924" lon="1.44951">
        <ele>181.677416</ele>
        <time>2022-07-29T13:20:52.798Z</time>
      </trkpt>
      <trkpt lat="43.66933" lon="1.44962">
        <ele>181.662611</ele>
        <time>2022-07-29T13:20:54.796Z</time>
      </trkpt>
      <trkpt lat="43.66939" lon="1.44978">
        <ele>181.647548</ele>
        <time>2022-07-29T13:20:56.823Z</time>
      </trkpt>
      <trkpt lat="43.66945" lon="1.44993">
        <ele>181.632448</ele>
        <time>2022-07-29T13:20:58.802Z</time>
      </trkpt>
      <trkpt lat="43.66951" lon="1.45009">
        <ele>181.617807</ele>
        <time>2022-07-29T13:21:00.826Z</time>
      </trkpt>
      <trkpt lat="43.66956" lon="1.45024">
        <ele>181.603166</ele>
        <time>2022-07-29T13:21:02.819Z</time>
      </trkpt>
      <trkpt lat="43.66961" lon="1.45039">
        <ele>181.588654</ele>
        <time>2022-07-29T13:21:04.809Z</time>
      </trkpt>
      <trkpt lat="43.66967" lon="1.45054">
        <ele>181.574079</ele>
        <time>2022-07-29T13:21:06.811Z</time>
      </trkpt>
      <trkpt lat="43.66975" lon="1.45067">
        <ele>181.559649</ele>
        <time>2022-07-29T13:21:08.818Z</time>
      </trkpt>
      <trkpt lat="43.66982" lon="1.4508">
        <ele>181.545473</ele>
        <time>2022-07-29T13:21:10.820Z</time>
      </trkpt>
      <trkpt lat="43.6699" lon="1.45093">
        <ele>181.530979</ele>
        <time>2022-07-29T13:21:12.815Z</time>
      </trkpt>
      <trkpt lat="43.66997" lon="1.45107">
        <ele>181.516415</ele>
        <time>2022-07-29T13:21:14.820Z</time>
      </trkpt>
      <trkpt lat="43.67003" lon="1.45121">
        <ele>181.508322</ele>
        <time>2022-07-29T13:21:16.809Z</time>
      </trkpt>
      <trkpt lat="43.67009" lon="1.45136">
        <ele>181.589914</ele>
        <time>2022-07-29T13:21:18.810Z</time>
      </trkpt>
      <trkpt lat="43.67014" lon="1.45151">
        <ele>181.667917</ele>
        <time>2022-07-29T13:21:20.819Z</time>
      </trkpt>
      <trkpt lat="43.67022" lon="1.45163">
        <ele>181.745871</ele>
        <time>2022-07-29T13:21:22.823Z</time>
      </trkpt>
      <trkpt lat="43.67033" lon="1.45158">
        <ele>181.823562</ele>
        <time>2022-07-29T13:21:24.812Z</time>
      </trkpt>
      <trkpt lat="43.67044" lon="1.45151">
        <ele>181.905598</ele>
        <time>2022-07-29T13:21:26.826Z</time>
      </trkpt>
      <trkpt lat="43.67055" lon="1.45143">
        <ele>181.985581</ele>
        <time>2022-07-29T13:21:28.815Z</time>
      </trkpt>
      <trkpt lat="43.67067" lon="1.45142">
        <ele>182.066321</ele>
        <time>2022-07-29T13:21:30.807Z</time>
      </trkpt>
      <trkpt lat="43.67076" lon="1.45149">
        <ele>182.136367</ele>
        <time>2022-07-29T13:21:32.814Z</time>
      </trkpt>
      <trkpt lat="43.67083" lon="1.4516">
        <ele>182.204244</ele>
        <time>2022-07-29T13:21:34.809Z</time>
      </trkpt>
      <trkpt lat="43.67094" lon="1.4516">
        <ele>182.272107</ele>
        <time>2022-07-29T13:21:36.816Z</time>
      </trkpt>
      <trkpt lat="43.67103" lon="1.45155">
        <ele>182.340294</ele>
        <time>2022-07-29T13:21:38.828Z</time>
      </trkpt>
      <trkpt lat="43.67114" lon="1.45148">
        <ele>182.415967</ele>
        <time>2022-07-29T13:21:40.811Z</time>
      </trkpt>
      <trkpt lat="43.67124" lon="1.45141">
        <ele>182.494155</ele>
        <time>2022-07-29T13:21:42.821Z</time>
      </trkpt>
      <trkpt lat="43.67135" lon="1.45136">
        <ele>182.57015</ele>
        <time>2022-07-29T13:21:44.823Z</time>
      </trkpt>
      <trkpt lat="43.67146" lon="1.45137">
        <ele>182.641058</ele>
        <time>2022-07-29T13:21:46.810Z</time>
      </trkpt>
      <trkpt lat="43.67152" lon="1.45149">
        <ele>182.71486</ele>
        <time>2022-07-29T13:21:48.811Z</time>
      </trkpt>
      <trkpt lat="43.67163" lon="1.45147">
        <ele>182.792891</ele>
        <time>2022-07-29T13:21:50.791Z</time>
      </trkpt>
      <trkpt lat="43.67174" lon="1.45141">
        <ele>182.880873</ele>
        <time>2022-07-29T13:21:52.836Z</time>
      </trkpt>
      <trkpt lat="43.67185" lon="1.45134">
        <ele>182.970199</ele>
        <time>2022-07-29T13:21:54.824Z</time>
      </trkpt>
      <trkpt lat="43.67195" lon="1.45126">
        <ele>183.059419</ele>
        <time>2022-07-29T13:21:56.824Z</time>
      </trkpt>
      <trkpt lat="43.67205" lon="1.4512">
        <ele>183.138598</ele>
        <time>2022-07-29T13:21:58.801Z</time>
      </trkpt>
      <trkpt lat="43.67216" lon="1.45126">
        <ele>183.227315</ele>
        <time>2022-07-29T13:22:01.798Z</time>
      </trkpt>
      <trkpt lat="43.67218" lon="1.4514">
        <ele>183.30417</ele>
        <time>2022-07-29T13:22:03.804Z</time>
      </trkpt>
      <trkpt lat="43.67222" lon="1.45155">
        <ele>183.390139</ele>
        <time>2022-07-29T13:22:05.827Z</time>
      </trkpt>
      <trkpt lat="43.67225" lon="1.45171">
        <ele>183.481259</ele>
        <time>2022-07-29T13:22:07.805Z</time>
      </trkpt>
      <trkpt lat="43.67229" lon="1.45187">
        <ele>183.57208</ele>
        <time>2022-07-29T13:22:09.836Z</time>
      </trkpt>
      <trkpt lat="43.67235" lon="1.45202">
        <ele>183.661742</ele>
        <time>2022-07-29T13:22:11.791Z</time>
      </trkpt>
      <trkpt lat="43.67241" lon="1.45217">
        <ele>183.755136</ele>
        <time>2022-07-29T13:22:13.790Z</time>
      </trkpt>
      <trkpt lat="43.67246" lon="1.45232">
        <ele>183.845218</ele>
        <time>2022-07-29T13:22:15.823Z</time>
      </trkpt>
      <trkpt lat="43.6725" lon="1.45248">
        <ele>183.933152</ele>
        <time>2022-07-29T13:22:17.800Z</time>
      </trkpt>
      <trkpt lat="43.67254" lon="1.45263">
        <ele>184.021852</ele>
        <time>2022-07-29T13:22:19.798Z</time>
      </trkpt>
      <trkpt lat="43.67258" lon="1.45278">
        <ele>184.023216</ele>
        <time>2022-07-29T13:22:21.812Z</time>
      </trkpt>
      <trkpt lat="43.67264" lon="1.45295">
        <ele>184.016583</ele>
        <time>2022-07-29T13:22:24.804Z</time>
      </trkpt>
      <trkpt lat="43.67267" lon="1.45307">
        <ele>184.012018</ele>
        <time>2022-07-29T13:22:26.820Z</time>
      </trkpt>
      <trkpt lat="43.67279" lon="1.45314">
        <ele>184.005679</ele>
        <time>2022-07-29T13:22:29.803Z</time>
      </trkpt>
      <trkpt lat="43.67289" lon="1.45308">
        <ele>184.000574</ele>
        <time>2022-07-29T13:22:31.793Z</time>
      </trkpt>
      <trkpt lat="43.673" lon="1.45302">
        <ele>183.99508</ele>
        <time>2022-07-29T13:22:33.809Z</time>
      </trkpt>
      <trkpt lat="43.67311" lon="1.45296">
        <ele>183.989399</ele>
        <time>2022-07-29T13:22:35.841Z</time>
      </trkpt>
      <trkpt lat="43.67322" lon="1.45293">
        <ele>183.983625</ele>
        <time>2022-07-29T13:22:37.795Z</time>
      </trkpt>
      <trkpt lat="43.67334" lon="1.45295">
        <ele>183.977852</ele>
        <time>2022-07-29T13:22:39.806Z</time>
      </trkpt>
      <trkpt lat="43.67345" lon="1.45298">
        <ele>183.972208</ele>
        <time>2022-07-29T13:22:41.821Z</time>
      </trkpt>
      <trkpt lat="43.67357" lon="1.45301">
        <ele>183.966672</ele>
        <time>2022-07-29T13:22:43.805Z</time>
      </trkpt>
      <trkpt lat="43.67367" lon="1.45303">
        <ele>183.961657</ele>
        <time>2022-07-29T13:22:45.797Z</time>
      </trkpt>
      <trkpt lat="43.67378" lon="1.45305">
        <ele>183.955953</ele>
        <time>2022-07-29T13:22:50.815Z</time>
      </trkpt>
      <trkpt lat="43.67391" lon="1.45304">
        <ele>183.94987</ele>
        <time>2022-07-29T13:22:53.827Z</time>
      </trkpt>
      <trkpt lat="43.67401" lon="1.453">
        <ele>183.944467</ele>
        <time>2022-07-29T13:22:55.816Z</time>
      </trkpt>
      <trkpt lat="43.67412" lon="1.45293">
        <ele>183.949327</ele>
        <time>2022-07-29T13:22:57.796Z</time>
      </trkpt>
      <trkpt lat="43.67423" lon="1.45286">
        <ele>183.971433</ele>
        <time>2022-07-29T13:22:59.815Z</time>
      </trkpt>
      <trkpt lat="43.67434" lon="1.45289">
        <ele>183.991817</ele>
        <time>2022-07-29T13:23:01.818Z</time>
      </trkpt>
      <trkpt lat="43.67441" lon="1.45302">
        <ele>184.013891</ele>
        <time>2022-07-29T13:23:03.813Z</time>
      </trkpt>
      <trkpt lat="43.67447" lon="1.45317">
        <ele>184.036347</ele>
        <time>2022-07-29T13:23:05.802Z</time>
      </trkpt>
      <trkpt lat="43.67452" lon="1.45332">
        <ele>184.059148</ele>
        <time>2022-07-29T13:23:07.801Z</time>
      </trkpt>
      <trkpt lat="43.67457" lon="1.45346">
        <ele>184.081292</ele>
        <time>2022-07-29T13:23:09.809Z</time>
      </trkpt>
      <trkpt lat="43.67464" lon="1.45358">
        <ele>184.10277</ele>
        <time>2022-07-29T13:23:11.801Z</time>
      </trkpt>
      <trkpt lat="43.67472" lon="1.45369">
        <ele>184.123997</ele>
        <time>2022-07-29T13:23:13.810Z</time>
      </trkpt>
      <trkpt lat="43.67481" lon="1.45379">
        <ele>184.145217</ele>
        <time>2022-07-29T13:23:15.820Z</time>
      </trkpt>
      <trkpt lat="43.67491" lon="1.45387">
        <ele>184.166328</ele>
        <time>2022-07-29T13:23:17.817Z</time>
      </trkpt>
      <trkpt lat="43.67501" lon="1.45386">
        <ele>184.185708</ele>
        <time>2022-07-29T13:23:19.791Z</time>
      </trkpt>
      <trkpt lat="43.67511" lon="1.45377">
        <ele>184.207311</ele>
        <time>2022-07-29T13:23:21.835Z</time>
      </trkpt>
      <trkpt lat="43.67519" lon="1.45366">
        <ele>184.229226</ele>
        <time>2022-07-29T13:23:23.826Z</time>
      </trkpt>
      <trkpt lat="43.67528" lon="1.45355">
        <ele>184.250811</ele>
        <time>2022-07-29T13:23:25.834Z</time>
      </trkpt>
      <trkpt lat="43.67537" lon="1.45347">
        <ele>184.271786</ele>
        <time>2022-07-29T13:23:27.833Z</time>
      </trkpt>
      <trkpt lat="43.67547" lon="1.45341">
        <ele>184.26667</ele>
        <time>2022-07-29T13:23:29.800Z</time>
      </trkpt>
      <trkpt lat="43.67558" lon="1.45335">
        <ele>184.246727</ele>
        <time>2022-07-29T13:23:31.832Z</time>
      </trkpt>
      <trkpt lat="43.67569" lon="1.45328">
        <ele>184.225894</ele>
        <time>2022-07-29T13:23:33.828Z</time>
      </trkpt>
      <trkpt lat="43.6758" lon="1.45322">
        <ele>184.204795</ele>
        <time>2022-07-29T13:23:35.834Z</time>
      </trkpt>
      <trkpt lat="43.67591" lon="1.45316">
        <ele>184.184202</ele>
        <time>2022-07-29T13:23:37.830Z</time>
      </trkpt>
      <trkpt lat="43.67601" lon="1.4531">
        <ele>184.164208</ele>
        <time>2022-07-29T13:23:39.811Z</time>
      </trkpt>
      <trkpt lat="43.67611" lon="1.4531">
        <ele>184.147006</ele>
        <time>2022-07-29T13:23:41.810Z</time>
      </trkpt>
      <trkpt lat="43.67621" lon="1.45314">
        <ele>184.128959</ele>
        <time>2022-07-29T13:23:44.810Z</time>
      </trkpt>
      <trkpt lat="43.67634" lon="1.45314">
        <ele>184.106661</ele>
        <time>2022-07-29T13:23:47.831Z</time>
      </trkpt>
      <trkpt lat="43.67646" lon="1.45308">
        <ele>184.084181</ele>
        <time>2022-07-29T13:23:50.848Z</time>
      </trkpt>
      <trkpt lat="43.67656" lon="1.45311">
        <ele>184.066272</ele>
        <time>2022-07-29T13:23:52.820Z</time>
      </trkpt>
      <trkpt lat="43.67667" lon="1.45316">
        <ele>184.045905</ele>
        <time>2022-07-29T13:23:54.823Z</time>
      </trkpt>
      <trkpt lat="43.67678" lon="1.45319">
        <ele>184.025471</ele>
        <time>2022-07-29T13:23:56.809Z</time>
      </trkpt>
      <trkpt lat="43.67689" lon="1.45322">
        <ele>184.005</ele>
        <time>2022-07-29T13:23:58.815Z</time>
      </trkpt>
      <trkpt lat="43.67701" lon="1.45327">
        <ele>183.984597</ele>
        <time>2022-07-29T13:24:00.841Z</time>
      </trkpt>
      <trkpt lat="43.67711" lon="1.4533">
        <ele>183.965553</ele>
        <time>2022-07-29T13:24:02.830Z</time>
      </trkpt>
      <trkpt lat="43.67722" lon="1.45336">
        <ele>184.025716</ele>
        <time>2022-07-29T13:24:04.826Z</time>
      </trkpt>
      <trkpt lat="43.67732" lon="1.45344">
        <ele>184.09724</ele>
        <time>2022-07-29T13:24:06.817Z</time>
      </trkpt>
      <trkpt lat="43.67741" lon="1.45352">
        <ele>184.168225</ele>
        <time>2022-07-29T13:24:08.829Z</time>
      </trkpt>
      <trkpt lat="43.67751" lon="1.4536">
        <ele>184.239594</ele>
        <time>2022-07-29T13:24:10.826Z</time>
      </trkpt>
      <trkpt lat="43.6776" lon="1.45369">
        <ele>184.307396</ele>
        <time>2022-07-29T13:24:12.831Z</time>
      </trkpt>
      <trkpt lat="43.67769" lon="1.45377">
        <ele>184.376545</ele>
        <time>2022-07-29T13:24:14.822Z</time>
      </trkpt>
      <trkpt lat="43.67779" lon="1.45383">
        <ele>184.444224</ele>
        <time>2022-07-29T13:24:16.848Z</time>
      </trkpt>
      <trkpt lat="43.67789" lon="1.45389">
        <ele>184.509992</ele>
        <time>2022-07-29T13:24:18.847Z</time>
      </trkpt>
      <trkpt lat="43.67799" lon="1.45395">
        <ele>184.575039</ele>
        <time>2022-07-29T13:24:20.833Z</time>
      </trkpt>
      <trkpt lat="43.67808" lon="1.45399">
        <ele>184.638435</ele>
        <time>2022-07-29T13:24:22.832Z</time>
      </trkpt>
      <trkpt lat="43.67817" lon="1.45408">
        <ele>184.7028</ele>
        <time>2022-07-29T13:24:24.824Z</time>
      </trkpt>
      <trkpt lat="43.67825" lon="1.45417">
        <ele>184.768948</ele>
        <time>2022-07-29T13:24:26.822Z</time>
      </trkpt>
      <trkpt lat="43.67835" lon="1.45425">
        <ele>184.838408</ele>
        <time>2022-07-29T13:24:28.831Z</time>
      </trkpt>
      <trkpt lat="43.67845" lon="1.45432">
        <ele>184.908085</ele>
        <time>2022-07-29T13:24:30.829Z</time>
      </trkpt>
      <trkpt lat="43.67855" lon="1.45435">
        <ele>184.973039</ele>
        <time>2022-07-29T13:24:32.824Z</time>
      </trkpt>
      <trkpt lat="43.67865" lon="1.45431">
        <ele>185.036298</ele>
        <time>2022-07-29T13:24:34.843Z</time>
      </trkpt>
      <trkpt lat="43.67874" lon="1.45424">
        <ele>185.093551</ele>
        <time>2022-07-29T13:24:36.813Z</time>
      </trkpt>
      <trkpt lat="43.67883" lon="1.45416">
        <ele>185.131394</ele>
        <time>2022-07-29T13:24:38.827Z</time>
      </trkpt>
      <trkpt lat="43.67893" lon="1.45407">
        <ele>185.169084</ele>
        <time>2022-07-29T13:24:40.844Z</time>
      </trkpt>
      <trkpt lat="43.67902" lon="1.454">
        <ele>185.206865</ele>
        <time>2022-07-29T13:24:42.817Z</time>
      </trkpt>
      <trkpt lat="43.67912" lon="1.45392">
        <ele>185.244454</ele>
        <time>2022-07-29T13:24:44.820Z</time>
      </trkpt>
      <trkpt lat="43.67921" lon="1.45386">
        <ele>185.279065</ele>
        <time>2022-07-29T13:24:46.824Z</time>
      </trkpt>
      <trkpt lat="43.67929" lon="1.45381">
        <ele>185.310432</ele>
        <time>2022-07-29T13:24:48.814Z</time>
      </trkpt>
      <trkpt lat="43.6794" lon="1.45373">
        <ele>185.353346</ele>
        <time>2022-07-29T13:24:51.845Z</time>
      </trkpt>
      <trkpt lat="43.6795" lon="1.45365">
        <ele>185.391971</ele>
        <time>2022-07-29T13:24:54.843Z</time>
      </trkpt>
      <trkpt lat="43.67959" lon="1.4536">
        <ele>185.424792</ele>
        <time>2022-07-29T13:24:57.810Z</time>
      </trkpt>
      <trkpt lat="43.67971" lon="1.45362">
        <ele>185.469016</ele>
        <time>2022-07-29T13:25:01.838Z</time>
      </trkpt>
      <trkpt lat="43.67981" lon="1.45358">
        <ele>185.503161</ele>
        <time>2022-07-29T13:25:03.867Z</time>
      </trkpt>
      <trkpt lat="43.67991" lon="1.4535">
        <ele>185.543033</ele>
        <time>2022-07-29T13:25:05.829Z</time>
      </trkpt>
      <trkpt lat="43.68002" lon="1.45342">
        <ele>185.583886</ele>
        <time>2022-07-29T13:25:07.841Z</time>
      </trkpt>
      <trkpt lat="43.68012" lon="1.45335">
        <ele>185.624405</ele>
        <time>2022-07-29T13:25:09.826Z</time>
      </trkpt>
      <trkpt lat="43.68023" lon="1.45327">
        <ele>185.665183</ele>
        <time>2022-07-29T13:25:11.840Z</time>
      </trkpt>
      <trkpt lat="43.68033" lon="1.45318">
        <ele>185.697149</ele>
        <time>2022-07-29T13:25:13.821Z</time>
      </trkpt>
      <trkpt lat="43.68044" lon="1.45309">
        <ele>185.695224</ele>
        <time>2022-07-29T13:25:15.856Z</time>
      </trkpt>
      <trkpt lat="43.68055" lon="1.453">
        <ele>185.693293</ele>
        <time>2022-07-29T13:25:17.807Z</time>
      </trkpt>
      <trkpt lat="43.68066" lon="1.45291">
        <ele>185.691402</ele>
        <time>2022-07-29T13:25:19.826Z</time>
      </trkpt>
      <trkpt lat="43.68076" lon="1.45282">
        <ele>185.689462</ele>
        <time>2022-07-29T13:25:21.818Z</time>
      </trkpt>
      <trkpt lat="43.68086" lon="1.45272">
        <ele>185.687548</ele>
        <time>2022-07-29T13:25:23.833Z</time>
      </trkpt>
      <trkpt lat="43.68097" lon="1.45263">
        <ele>185.685658</ele>
        <time>2022-07-29T13:25:25.828Z</time>
      </trkpt>
      <trkpt lat="43.68107" lon="1.45253">
        <ele>185.68375</ele>
        <time>2022-07-29T13:25:27.823Z</time>
      </trkpt>
      <trkpt lat="43.68118" lon="1.45244">
        <ele>185.681829</ele>
        <time>2022-07-29T13:25:29.827Z</time>
      </trkpt>
      <trkpt lat="43.68128" lon="1.45234">
        <ele>185.67994</ele>
        <time>2022-07-29T13:25:31.835Z</time>
      </trkpt>
      <trkpt lat="43.68138" lon="1.45225">
        <ele>185.678076</ele>
        <time>2022-07-29T13:25:33.835Z</time>
      </trkpt>
      <trkpt lat="43.68148" lon="1.45216">
        <ele>185.676313</ele>
        <time>2022-07-29T13:25:35.852Z</time>
      </trkpt>
      <trkpt lat="43.68157" lon="1.45207">
        <ele>185.674543</ele>
        <time>2022-07-29T13:25:37.832Z</time>
      </trkpt>
      <trkpt lat="43.68166" lon="1.45208">
        <ele>185.673136</ele>
        <time>2022-07-29T13:25:39.819Z</time>
      </trkpt>
      <trkpt lat="43.6817" lon="1.45222">
        <ele>185.671507</ele>
        <time>2022-07-29T13:25:41.818Z</time>
      </trkpt>
      <trkpt lat="43.68173" lon="1.45237">
        <ele>185.684373</ele>
        <time>2022-07-29T13:25:43.830Z</time>
      </trkpt>
      <trkpt lat="43.68177" lon="1.45251">
        <ele>185.777265</ele>
        <time>2022-07-29T13:25:45.825Z</time>
      </trkpt>
      <trkpt lat="43.68181" lon="1.45265">
        <ele>185.867857</ele>
        <time>2022-07-29T13:25:47.813Z</time>
      </trkpt>
      <trkpt lat="43.68184" lon="1.45279">
        <ele>185.96058</ele>
        <time>2022-07-29T13:25:49.816Z</time>
      </trkpt>
      <trkpt lat="43.68188" lon="1.45294">
        <ele>186.058673</ele>
        <time>2022-07-29T13:25:51.816Z</time>
      </trkpt>
      <trkpt lat="43.68192" lon="1.4531">
        <ele>186.157894</ele>
        <time>2022-07-29T13:25:53.809Z</time>
      </trkpt>
      <trkpt lat="43.68195" lon="1.45325">
        <ele>186.254527</ele>
        <time>2022-07-29T13:25:55.800Z</time>
      </trkpt>
      <trkpt lat="43.68199" lon="1.4534">
        <ele>186.354033</ele>
        <time>2022-07-29T13:25:57.807Z</time>
      </trkpt>
      <trkpt lat="43.68204" lon="1.45355">
        <ele>186.454171</ele>
        <time>2022-07-29T13:25:59.802Z</time>
      </trkpt>
      <trkpt lat="43.68208" lon="1.45368">
        <ele>186.541328</ele>
        <time>2022-07-29T13:26:01.805Z</time>
      </trkpt>
      <trkpt lat="43.68211" lon="1.45382">
        <ele>186.631948</ele>
        <time>2022-07-29T13:26:03.802Z</time>
      </trkpt>
      <trkpt lat="43.68215" lon="1.45397">
        <ele>186.728303</ele>
        <time>2022-07-29T13:26:05.805Z</time>
      </trkpt>
      <trkpt lat="43.68219" lon="1.45411">
        <ele>186.819209</ele>
        <time>2022-07-29T13:26:07.822Z</time>
      </trkpt>
      <trkpt lat="43.68222" lon="1.45425">
        <ele>186.909809</ele>
        <time>2022-07-29T13:26:09.814Z</time>
      </trkpt>
      <trkpt lat="43.68227" lon="1.4544">
        <ele>187.005753</ele>
        <time>2022-07-29T13:26:11.812Z</time>
      </trkpt>
      <trkpt lat="43.68232" lon="1.45454">
        <ele>187.103103</ele>
        <time>2022-07-29T13:26:13.819Z</time>
      </trkpt>
      <trkpt lat="43.68236" lon="1.45469">
        <ele>187.204044</ele>
        <time>2022-07-29T13:26:15.815Z</time>
      </trkpt>
      <trkpt lat="43.68241" lon="1.45484">
        <ele>187.324994</ele>
        <time>2022-07-29T13:26:17.805Z</time>
      </trkpt>
      <trkpt lat="43.68245" lon="1.45499">
        <ele>187.443783</ele>
        <time>2022-07-29T13:26:19.810Z</time>
      </trkpt>
      <trkpt lat="43.68249" lon="1.45514">
        <ele>187.567716</ele>
        <time>2022-07-29T13:26:21.825Z</time>
      </trkpt>
      <trkpt lat="43.68253" lon="1.4553">
        <ele>187.692329</ele>
        <time>2022-07-29T13:26:23.821Z</time>
      </trkpt>
      <trkpt lat="43.68257" lon="1.45546">
        <ele>187.816599</ele>
        <time>2022-07-29T13:26:25.820Z</time>
      </trkpt>
      <trkpt lat="43.68261" lon="1.45562">
        <ele>187.940205</ele>
        <time>2022-07-29T13:26:27.824Z</time>
      </trkpt>
      <trkpt lat="43.68265" lon="1.45577">
        <ele>188.062875</ele>
        <time>2022-07-29T13:26:29.815Z</time>
      </trkpt>
      <trkpt lat="43.68268" lon="1.45593">
        <ele>188.18596</ele>
        <time>2022-07-29T13:26:31.826Z</time>
      </trkpt>
      <trkpt lat="43.68272" lon="1.4561">
        <ele>188.3139</ele>
        <time>2022-07-29T13:26:33.829Z</time>
      </trkpt>
      <trkpt lat="43.68275" lon="1.45626">
        <ele>188.437581</ele>
        <time>2022-07-29T13:26:35.818Z</time>
      </trkpt>
      <trkpt lat="43.68277" lon="1.45642">
        <ele>188.561219</ele>
        <time>2022-07-29T13:26:37.832Z</time>
      </trkpt>
      <trkpt lat="43.68279" lon="1.45659">
        <ele>188.687009</ele>
        <time>2022-07-29T13:26:39.826Z</time>
      </trkpt>
      <trkpt lat="43.6828" lon="1.45676">
        <ele>188.809723</ele>
        <time>2022-07-29T13:26:41.818Z</time>
      </trkpt>
      <trkpt lat="43.6828" lon="1.45692">
        <ele>188.932214</ele>
        <time>2022-07-29T13:26:43.823Z</time>
      </trkpt>
      <trkpt lat="43.6828" lon="1.45709">
        <ele>189.091464</ele>
        <time>2022-07-29T13:26:45.821Z</time>
      </trkpt>
      <trkpt lat="43.68279" lon="1.45725">
        <ele>189.430034</ele>
        <time>2022-07-29T13:26:47.834Z</time>
      </trkpt>
      <trkpt lat="43.68278" lon="1.45742">
        <ele>189.76986</ele>
        <time>2022-07-29T13:26:49.830Z</time>
      </trkpt>
      <trkpt lat="43.68277" lon="1.45758">
        <ele>190.104526</ele>
        <time>2022-07-29T13:26:51.835Z</time>
      </trkpt>
      <trkpt lat="43.68276" lon="1.45774">
        <ele>190.435318</ele>
        <time>2022-07-29T13:26:53.831Z</time>
      </trkpt>
      <trkpt lat="43.68275" lon="1.4579">
        <ele>190.768162</ele>
        <time>2022-07-29T13:26:55.828Z</time>
      </trkpt>
      <trkpt lat="43.68274" lon="1.45806">
        <ele>191.100567</ele>
        <time>2022-07-29T13:26:57.829Z</time>
      </trkpt>
      <trkpt lat="43.68273" lon="1.45823">
        <ele>191.443921</ele>
        <time>2022-07-29T13:26:59.830Z</time>
      </trkpt>
      <trkpt lat="43.68272" lon="1.45839">
        <ele>191.784547</ele>
        <time>2022-07-29T13:27:01.821Z</time>
      </trkpt>
      <trkpt lat="43.68271" lon="1.45855">
        <ele>192.117159</ele>
        <time>2022-07-29T13:27:03.825Z</time>
      </trkpt>
      <trkpt lat="43.6827" lon="1.45871">
        <ele>192.43564</ele>
        <time>2022-07-29T13:27:05.820Z</time>
      </trkpt>
      <trkpt lat="43.68269" lon="1.45884">
        <ele>192.720587</ele>
        <time>2022-07-29T13:27:07.820Z</time>
      </trkpt>
      <trkpt lat="43.68269" lon="1.459">
        <ele>193.050594</ele>
        <time>2022-07-29T13:27:18.833Z</time>
      </trkpt>
      <trkpt lat="43.68267" lon="1.45919">
        <ele>193.434039</ele>
        <time>2022-07-29T13:27:21.815Z</time>
      </trkpt>
      <trkpt lat="43.68266" lon="1.45933">
        <ele>193.734993</ele>
        <time>2022-07-29T13:27:23.843Z</time>
      </trkpt>
      <trkpt lat="43.68265" lon="1.45949">
        <ele>194.056082</ele>
        <time>2022-07-29T13:27:25.836Z</time>
      </trkpt>
      <trkpt lat="43.68264" lon="1.45965">
        <ele>194.418824</ele>
        <time>2022-07-29T13:27:27.840Z</time>
      </trkpt>
      <trkpt lat="43.68264" lon="1.45981">
        <ele>194.811985</ele>
        <time>2022-07-29T13:27:29.852Z</time>
      </trkpt>
      <trkpt lat="43.68266" lon="1.45996">
        <ele>195.186111</ele>
        <time>2022-07-29T13:27:31.829Z</time>
      </trkpt>
      <trkpt lat="43.68268" lon="1.4601">
        <ele>195.537606</ele>
        <time>2022-07-29T13:27:33.817Z</time>
      </trkpt>
      <trkpt lat="43.68271" lon="1.46023">
        <ele>195.871702</ele>
        <time>2022-07-29T13:27:35.820Z</time>
      </trkpt>
      <trkpt lat="43.68275" lon="1.46035">
        <ele>196.203743</ele>
        <time>2022-07-29T13:27:37.828Z</time>
      </trkpt>
      <trkpt lat="43.68278" lon="1.46049">
        <ele>196.542919</ele>
        <time>2022-07-29T13:27:39.841Z</time>
      </trkpt>
      <trkpt lat="43.68279" lon="1.46063">
        <ele>196.894348</ele>
        <time>2022-07-29T13:27:41.839Z</time>
      </trkpt>
      <trkpt lat="43.6828" lon="1.46078">
        <ele>197.256984</ele>
        <time>2022-07-29T13:27:43.823Z</time>
      </trkpt>
      <trkpt lat="43.68281" lon="1.46093">
        <ele>197.628664</ele>
        <time>2022-07-29T13:27:45.822Z</time>
      </trkpt>
      <trkpt lat="43.68282" lon="1.46109">
        <ele>198.015915</ele>
        <time>2022-07-29T13:27:47.839Z</time>
      </trkpt>
      <trkpt lat="43.68284" lon="1.46124">
        <ele>198.388632</ele>
        <time>2022-07-29T13:27:49.843Z</time>
      </trkpt>
      <trkpt lat="43.68292" lon="1.46135">
        <ele>198.781889</ele>
        <time>2022-07-29T13:27:52.819Z</time>
      </trkpt>
      <trkpt lat="43.68301" lon="1.46147">
        <ele>199.197456</ele>
        <time>2022-07-29T13:27:58.832Z</time>
      </trkpt>
      <trkpt lat="43.68307" lon="1.46159">
        <ele>199.553661</ele>
        <time>2022-07-29T13:28:00.824Z</time>
      </trkpt>
      <trkpt lat="43.68315" lon="1.46173">
        <ele>199.985167</ele>
        <time>2022-07-29T13:28:02.832Z</time>
      </trkpt>
      <trkpt lat="43.68324" lon="1.46188">
        <ele>200.146343</ele>
        <time>2022-07-29T13:28:04.828Z</time>
      </trkpt>
      <trkpt lat="43.68333" lon="1.46204">
        <ele>199.953286</ele>
        <time>2022-07-29T13:28:06.836Z</time>
      </trkpt>
      <trkpt lat="43.68343" lon="1.46221">
        <ele>199.745383</ele>
        <time>2022-07-29T13:28:08.811Z</time>
      </trkpt>
      <trkpt lat="43.68354" lon="1.46236">
        <ele>199.552328</ele>
        <time>2022-07-29T13:28:10.817Z</time>
      </trkpt>
      <trkpt lat="43.68362" lon="1.46248">
        <ele>199.398857</ele>
        <time>2022-07-29T13:28:12.805Z</time>
      </trkpt>
      <trkpt lat="43.68372" lon="1.46244">
        <ele>199.270186</ele>
        <time>2022-07-29T13:28:20.844Z</time>
      </trkpt>
      <trkpt lat="43.6839" lon="1.4624">
        <ele>199.030682</ele>
        <time>2022-07-29T13:28:47.831Z</time>
      </trkpt>
      <trkpt lat="43.68399" lon="1.46246">
        <ele>198.904361</ele>
        <time>2022-07-29T13:28:50.812Z</time>
      </trkpt>
      <trkpt lat="43.68409" lon="1.46247">
        <ele>198.768474</ele>
        <time>2022-07-29T13:28:55.816Z</time>
      </trkpt>
      <trkpt lat="43.68418" lon="1.4625">
        <ele>198.64811</ele>
        <time>2022-07-29T13:28:59.824Z</time>
      </trkpt>
      <trkpt lat="43.68428" lon="1.46256">
        <ele>198.509654</ele>
        <time>2022-07-29T13:29:02.827Z</time>
      </trkpt>
      <trkpt lat="43.68439" lon="1.46253">
        <ele>198.370323</ele>
        <time>2022-07-29T13:29:06.815Z</time>
      </trkpt>
      <trkpt lat="43.68457" lon="1.46238">
        <ele>198.092151</ele>
        <time>2022-07-29T13:29:21.819Z</time>
      </trkpt>
      <trkpt lat="43.68466" lon="1.4625">
        <ele>197.929939</ele>
        <time>2022-07-29T13:29:24.850Z</time>
      </trkpt>
      <trkpt lat="43.68475" lon="1.46261">
        <ele>198.021996</ele>
        <time>2022-07-29T13:29:27.848Z</time>
      </trkpt>
      <trkpt lat="43.68484" lon="1.46272">
        <ele>198.149416</ele>
        <time>2022-07-29T13:29:30.816Z</time>
      </trkpt>
      <trkpt lat="43.68493" lon="1.46274">
        <ele>198.252168</ele>
        <time>2022-07-29T13:29:32.830Z</time>
      </trkpt>
      <trkpt lat="43.68504" lon="1.46276">
        <ele>198.367202</ele>
        <time>2022-07-29T13:29:34.848Z</time>
      </trkpt>
      <trkpt lat="43.68515" lon="1.46276">
        <ele>198.484487</ele>
        <time>2022-07-29T13:29:36.825Z</time>
      </trkpt>
      <trkpt lat="43.68526" lon="1.46272">
        <ele>198.603216</ele>
        <time>2022-07-29T13:29:38.813Z</time>
      </trkpt>
      <trkpt lat="43.68537" lon="1.46267">
        <ele>198.726106</ele>
        <time>2022-07-29T13:29:40.830Z</time>
      </trkpt>
      <trkpt lat="43.68548" lon="1.46265">
        <ele>198.846234</ele>
        <time>2022-07-29T13:29:42.827Z</time>
      </trkpt>
      <trkpt lat="43.68559" lon="1.46268">
        <ele>198.963592</ele>
        <time>2022-07-29T13:29:44.842Z</time>
      </trkpt>
      <trkpt lat="43.6857" lon="1.46263">
        <ele>199.088746</ele>
        <time>2022-07-29T13:29:46.830Z</time>
      </trkpt>
      <trkpt lat="43.68579" lon="1.4626">
        <ele>199.186255</ele>
        <time>2022-07-29T13:29:48.823Z</time>
      </trkpt>
      <trkpt lat="43.68588" lon="1.46266">
        <ele>199.291408</ele>
        <time>2022-07-29T13:29:50.817Z</time>
      </trkpt>
      <trkpt lat="43.68597" lon="1.46273">
        <ele>199.398645</ele>
        <time>2022-07-29T13:29:52.817Z</time>
      </trkpt>
      <trkpt lat="43.68607" lon="1.46278">
        <ele>199.514201</ele>
        <time>2022-07-29T13:29:54.862Z</time>
      </trkpt>
      <trkpt lat="43.68617" lon="1.4628">
        <ele>199.62789</ele>
        <time>2022-07-29T13:29:56.841Z</time>
      </trkpt>
      <trkpt lat="43.68628" lon="1.4628">
        <ele>199.742976</ele>
        <time>2022-07-29T13:29:58.828Z</time>
      </trkpt>
      <trkpt lat="43.68638" lon="1.46287">
        <ele>199.878528</ele>
        <time>2022-07-29T13:30:00.809Z</time>
      </trkpt>
      <trkpt lat="43.68647" lon="1.46296">
        <ele>200.103148</ele>
        <time>2022-07-29T13:30:03.826Z</time>
      </trkpt>
      <trkpt lat="43.68656" lon="1.46302">
        <ele>200.304776</ele>
        <time>2022-07-29T13:30:17.822Z</time>
      </trkpt>
      <trkpt lat="43.68669" lon="1.46307">
        <ele>200.569148</ele>
        <time>2022-07-29T13:30:20.834Z</time>
      </trkpt>
      <trkpt lat="43.68678" lon="1.4631">
        <ele>200.750845</ele>
        <time>2022-07-29T13:30:22.845Z</time>
      </trkpt>
      <trkpt lat="43.68687" lon="1.4632">
        <ele>200.985806</ele>
        <time>2022-07-29T13:30:25.833Z</time>
      </trkpt>
      <trkpt lat="43.68699" lon="1.46329">
        <ele>201.257819</ele>
        <time>2022-07-29T13:30:28.822Z</time>
      </trkpt>
      <trkpt lat="43.68709" lon="1.46331">
        <ele>201.443204</ele>
        <time>2022-07-29T13:30:30.835Z</time>
      </trkpt>
      <trkpt lat="43.68719" lon="1.46332">
        <ele>201.648972</ele>
        <time>2022-07-29T13:30:32.815Z</time>
      </trkpt>
      <trkpt lat="43.68729" lon="1.46335">
        <ele>201.849728</ele>
        <time>2022-07-29T13:30:34.850Z</time>
      </trkpt>
      <trkpt lat="43.68739" lon="1.4634">
        <ele>202.056156</ele>
        <time>2022-07-29T13:30:36.837Z</time>
      </trkpt>
      <trkpt lat="43.68749" lon="1.46344">
        <ele>202.264915</ele>
        <time>2022-07-29T13:30:38.825Z</time>
      </trkpt>
      <trkpt lat="43.68759" lon="1.46348">
        <ele>202.471034</ele>
        <time>2022-07-29T13:30:40.820Z</time>
      </trkpt>
      <trkpt lat="43.68769" lon="1.46352">
        <ele>202.675605</ele>
        <time>2022-07-29T13:30:42.833Z</time>
      </trkpt>
      <trkpt lat="43.6878" lon="1.46357">
        <ele>202.902074</ele>
        <time>2022-07-29T13:30:44.837Z</time>
      </trkpt>
      <trkpt lat="43.6879" lon="1.46361">
        <ele>203.117688</ele>
        <time>2022-07-29T13:30:46.812Z</time>
      </trkpt>
      <trkpt lat="43.688" lon="1.46364">
        <ele>203.323113</ele>
        <time>2022-07-29T13:30:48.823Z</time>
      </trkpt>
      <trkpt lat="43.68811" lon="1.46366">
        <ele>203.694909</ele>
        <time>2022-07-29T13:30:50.798Z</time>
      </trkpt>
      <trkpt lat="43.68822" lon="1.46364">
        <ele>204.132168</ele>
        <time>2022-07-29T13:30:52.809Z</time>
      </trkpt>
      <trkpt lat="43.68834" lon="1.46366">
        <ele>204.586691</ele>
        <time>2022-07-29T13:30:54.813Z</time>
      </trkpt>
      <trkpt lat="43.68843" lon="1.46374">
        <ele>205.018681</ele>
        <time>2022-07-29T13:30:56.813Z</time>
      </trkpt>
      <trkpt lat="43.68852" lon="1.4638">
        <ele>205.411338</ele>
        <time>2022-07-29T13:30:58.807Z</time>
      </trkpt>
      <trkpt lat="43.68865" lon="1.46385">
        <ele>205.924609</ele>
        <time>2022-07-29T13:31:01.814Z</time>
      </trkpt>
      <trkpt lat="43.68874" lon="1.46388">
        <ele>206.304795</ele>
        <time>2022-07-29T13:31:04.818Z</time>
      </trkpt>
      <trkpt lat="43.68877" lon="1.464">
        <ele>206.658981</ele>
        <time>2022-07-29T13:31:11.820Z</time>
      </trkpt>
      <trkpt lat="43.6888" lon="1.46412">
        <ele>207.026228</ele>
        <time>2022-07-29T13:31:18.820Z</time>
      </trkpt>
      <trkpt lat="43.6889" lon="1.46412">
        <ele>207.399494</ele>
        <time>2022-07-29T13:31:25.800Z</time>
      </trkpt>
      <trkpt lat="43.689" lon="1.46416">
        <ele>207.84087</ele>
        <time>2022-07-29T13:31:31.827Z</time>
      </trkpt>
      <trkpt lat="43.6891" lon="1.4642">
        <ele>208.22393</ele>
        <time>2022-07-29T13:31:36.803Z</time>
      </trkpt>
      <trkpt lat="43.68918" lon="1.46428">
        <ele>208.616445</ele>
        <time>2022-07-29T13:31:41.820Z</time>
      </trkpt>
      <trkpt lat="43.68924" lon="1.4644">
        <ele>209.044568</ele>
        <time>2022-07-29T13:31:45.804Z</time>
      </trkpt>
      <trkpt lat="43.6893" lon="1.4645">
        <ele>209.408889</ele>
        <time>2022-07-29T13:31:48.807Z</time>
      </trkpt>
      <trkpt lat="43.68938" lon="1.46462">
        <ele>209.864494</ele>
        <time>2022-07-29T13:31:52.814Z</time>
      </trkpt>
      <trkpt lat="43.68948" lon="1.46462">
        <ele>210.276899</ele>
        <time>2022-07-29T13:31:56.807Z</time>
      </trkpt>
      <trkpt lat="43.68959" lon="1.46465">
        <ele>210.870844</ele>
        <time>2022-07-29T13:32:01.817Z</time>
      </trkpt>
      <trkpt lat="43.68969" lon="1.46467">
        <ele>211.417473</ele>
        <time>2022-07-29T13:32:03.812Z</time>
      </trkpt>
      <trkpt lat="43.68982" lon="1.46475">
        <ele>212.274445</ele>
        <time>2022-07-29T13:32:06.824Z</time>
      </trkpt>
      <trkpt lat="43.68992" lon="1.46483">
        <ele>212.997453</ele>
        <time>2022-07-29T13:32:09.812Z</time>
      </trkpt>
      <trkpt lat="43.69003" lon="1.46487">
        <ele>213.658064</ele>
        <time>2022-07-29T13:32:12.816Z</time>
      </trkpt>
      <trkpt lat="43.69013" lon="1.46495">
        <ele>214.340435</ele>
        <time>2022-07-29T13:32:15.822Z</time>
      </trkpt>
      <trkpt lat="43.69017" lon="1.46507">
        <ele>214.946355</ele>
        <time>2022-07-29T13:32:18.810Z</time>
      </trkpt>
      <trkpt lat="43.6901" lon="1.46521">
        <ele>215.660602</ele>
        <time>2022-07-29T13:32:22.801Z</time>
      </trkpt>
      <trkpt lat="43.69002" lon="1.46535">
        <ele>216.445933</ele>
        <time>2022-07-29T13:32:25.802Z</time>
      </trkpt>
      <trkpt lat="43.68996" lon="1.4655">
        <ele>217.15373</ele>
        <time>2022-07-29T13:32:28.830Z</time>
      </trkpt>
      <trkpt lat="43.68991" lon="1.46561">
        <ele>217.753958</ele>
        <time>2022-07-29T13:32:30.810Z</time>
      </trkpt>
      <trkpt lat="43.68986" lon="1.46573">
        <ele>218.31</ele>
        <time>2022-07-29T13:32:32.809Z</time>
      </trkpt>
      <trkpt lat="43.68982" lon="1.46584">
        <ele>218.869801</ele>
        <time>2022-07-29T13:32:34.815Z</time>
      </trkpt>
      <trkpt lat="43.6897" lon="1.46589">
        <ele>219.623182</ele>
        <time>2022-07-29T13:32:37.807Z</time>
      </trkpt>
      <trkpt lat="43.68961" lon="1.46585">
        <ele>220.202949</ele>
        <time>2022-07-29T13:32:40.806Z</time>
      </trkpt>
      <trkpt lat="43.68949" lon="1.46594">
        <ele>220.977175</ele>
        <time>2022-07-29T13:32:43.812Z</time>
      </trkpt>
      <trkpt lat="43.68949" lon="1.46607">
        <ele>220.912708</ele>
        <time>2022-07-29T13:32:46.809Z</time>
      </trkpt>
      <trkpt lat="43.6895" lon="1.46623">
        <ele>220.343352</ele>
        <time>2022-07-29T13:32:49.827Z</time>
      </trkpt>
      <trkpt lat="43.68954" lon="1.46637">
        <ele>219.870067</ele>
        <time>2022-07-29T13:32:51.829Z</time>
      </trkpt>
      <trkpt lat="43.68961" lon="1.46646">
        <ele>219.414459</ele>
        <time>2022-07-29T13:32:54.823Z</time>
      </trkpt>
      <trkpt lat="43.6897" lon="1.46649">
        <ele>218.968391</ele>
        <time>2022-07-29T13:32:56.804Z</time>
      </trkpt>
      <trkpt lat="43.6898" lon="1.46643">
        <ele>218.460555</ele>
        <time>2022-07-29T13:32:59.795Z</time>
      </trkpt>
      <trkpt lat="43.6899" lon="1.46637">
        <ele>217.973876</ele>
        <time>2022-07-29T13:33:02.834Z</time>
      </trkpt>
      <trkpt lat="43.69" lon="1.46628">
        <ele>217.381759</ele>
        <time>2022-07-29T13:33:05.820Z</time>
      </trkpt>
      <trkpt lat="43.6901" lon="1.46617">
        <ele>216.797953</ele>
        <time>2022-07-29T13:33:07.828Z</time>
      </trkpt>
      <trkpt lat="43.6902" lon="1.46603">
        <ele>216.141373</ele>
        <time>2022-07-29T13:33:09.827Z</time>
      </trkpt>
      <trkpt lat="43.69031" lon="1.46589">
        <ele>215.435916</ele>
        <time>2022-07-29T13:33:11.817Z</time>
      </trkpt>
      <trkpt lat="43.69043" lon="1.46576">
        <ele>214.72601</ele>
        <time>2022-07-29T13:33:13.804Z</time>
      </trkpt>
      <trkpt lat="43.69049" lon="1.46566">
        <ele>214.297247</ele>
        <time>2022-07-29T13:33:14.807Z</time>
      </trkpt>
      <trkpt lat="43.69057" lon="1.46557">
        <ele>213.820579</ele>
        <time>2022-07-29T13:33:16.820Z</time>
      </trkpt>
      <trkpt lat="43.69066" lon="1.46564">
        <ele>213.347867</ele>
        <time>2022-07-29T13:33:20.813Z</time>
      </trkpt>
      <trkpt lat="43.69074" lon="1.46576">
        <ele>212.802234</ele>
        <time>2022-07-29T13:33:23.798Z</time>
      </trkpt>
      <trkpt lat="43.69084" lon="1.46576">
        <ele>212.551294</ele>
        <time>2022-07-29T13:33:28.822Z</time>
      </trkpt>
      <trkpt lat="43.69096" lon="1.4658">
        <ele>212.246407</ele>
        <time>2022-07-29T13:33:31.810Z</time>
      </trkpt>
      <trkpt lat="43.69105" lon="1.46588">
        <ele>211.983002</ele>
        <time>2022-07-29T13:33:34.808Z</time>
      </trkpt>
      <trkpt lat="43.6912" lon="1.46586">
        <ele>211.607663</ele>
        <time>2022-07-29T13:33:37.815Z</time>
      </trkpt>
      <trkpt lat="43.69127" lon="1.46597">
        <ele>211.355575</ele>
        <time>2022-07-29T13:33:39.826Z</time>
      </trkpt>
      <trkpt lat="43.69131" lon="1.46612">
        <ele>211.073175</ele>
        <time>2022-07-29T13:33:41.820Z</time>
      </trkpt>
      <trkpt lat="43.69136" lon="1.46627">
        <ele>210.782485</ele>
        <time>2022-07-29T13:33:43.817Z</time>
      </trkpt>
      <trkpt lat="43.6914" lon="1.4664">
        <ele>210.528898</ele>
        <time>2022-07-29T13:33:45.816Z</time>
      </trkpt>
      <trkpt lat="43.69144" lon="1.46656">
        <ele>210.215582</ele>
        <time>2022-07-29T13:33:47.824Z</time>
      </trkpt>
      <trkpt lat="43.69148" lon="1.46672">
        <ele>209.918104</ele>
        <time>2022-07-29T13:33:49.817Z</time>
      </trkpt>
      <trkpt lat="43.69151" lon="1.46688">
        <ele>209.623242</ele>
        <time>2022-07-29T13:33:51.838Z</time>
      </trkpt>
      <trkpt lat="43.69155" lon="1.46703">
        <ele>209.332637</ele>
        <time>2022-07-29T13:33:53.812Z</time>
      </trkpt>
      <trkpt lat="43.69159" lon="1.46719">
        <ele>209.042032</ele>
        <time>2022-07-29T13:33:55.844Z</time>
      </trkpt>
      <trkpt lat="43.69161" lon="1.46735">
        <ele>208.757218</ele>
        <time>2022-07-29T13:33:57.846Z</time>
      </trkpt>
      <trkpt lat="43.69163" lon="1.4675">
        <ele>208.471315</ele>
        <time>2022-07-29T13:33:59.827Z</time>
      </trkpt>
      <trkpt lat="43.69164" lon="1.46766">
        <ele>208.432682</ele>
        <time>2022-07-29T13:34:01.848Z</time>
      </trkpt>
      <trkpt lat="43.69163" lon="1.46782">
        <ele>208.574721</ele>
        <time>2022-07-29T13:34:03.821Z</time>
      </trkpt>
      <trkpt lat="43.69163" lon="1.46798">
        <ele>208.718048</ele>
        <time>2022-07-29T13:34:05.814Z</time>
      </trkpt>
      <trkpt lat="43.69162" lon="1.46815">
        <ele>208.861584</ele>
        <time>2022-07-29T13:34:07.813Z</time>
      </trkpt>
      <trkpt lat="43.69161" lon="1.4683">
        <ele>209.000471</ele>
        <time>2022-07-29T13:34:09.802Z</time>
      </trkpt>
      <trkpt lat="43.69158" lon="1.46846">
        <ele>209.138208</ele>
        <time>2022-07-29T13:34:11.806Z</time>
      </trkpt>
      <trkpt lat="43.69154" lon="1.46861">
        <ele>209.2813</ele>
        <time>2022-07-29T13:34:13.828Z</time>
      </trkpt>
      <trkpt lat="43.69149" lon="1.46876">
        <ele>209.4293</ele>
        <time>2022-07-29T13:34:15.836Z</time>
      </trkpt>
      <trkpt lat="43.69144" lon="1.46891">
        <ele>209.579348</ele>
        <time>2022-07-29T13:34:17.805Z</time>
      </trkpt>
      <trkpt lat="43.69138" lon="1.46906">
        <ele>209.730788</ele>
        <time>2022-07-29T13:34:19.823Z</time>
      </trkpt>
      <trkpt lat="43.69134" lon="1.46922">
        <ele>209.876524</ele>
        <time>2022-07-29T13:34:21.835Z</time>
      </trkpt>
      <trkpt lat="43.69131" lon="1.46937">
        <ele>210.013852</ele>
        <time>2022-07-29T13:34:23.813Z</time>
      </trkpt>
      <trkpt lat="43.69129" lon="1.46952">
        <ele>210.149222</ele>
        <time>2022-07-29T13:34:25.827Z</time>
      </trkpt>
      <trkpt lat="43.69127" lon="1.46967">
        <ele>210.291306</ele>
        <time>2022-07-29T13:34:27.813Z</time>
      </trkpt>
      <trkpt lat="43.69124" lon="1.46983">
        <ele>210.434038</ele>
        <time>2022-07-29T13:34:29.823Z</time>
      </trkpt>
      <trkpt lat="43.69121" lon="1.46998">
        <ele>210.584558</ele>
        <time>2022-07-29T13:34:31.830Z</time>
      </trkpt>
      <trkpt lat="43.69118" lon="1.47014">
        <ele>210.80732</ele>
        <time>2022-07-29T13:34:33.820Z</time>
      </trkpt>
      <trkpt lat="43.69116" lon="1.4703">
        <ele>211.019459</ele>
        <time>2022-07-29T13:34:35.804Z</time>
      </trkpt>
      <trkpt lat="43.69114" lon="1.47045">
        <ele>211.232933</ele>
        <time>2022-07-29T13:34:37.829Z</time>
      </trkpt>
      <trkpt lat="43.69112" lon="1.4706">
        <ele>211.441227</ele>
        <time>2022-07-29T13:34:39.845Z</time>
      </trkpt>
      <trkpt lat="43.69109" lon="1.47075">
        <ele>211.651269</ele>
        <time>2022-07-29T13:34:41.836Z</time>
      </trkpt>
      <trkpt lat="43.69107" lon="1.4709">
        <ele>211.857741</ele>
        <time>2022-07-29T13:34:43.812Z</time>
      </trkpt>
      <trkpt lat="43.69106" lon="1.47104">
        <ele>212.05118</ele>
        <time>2022-07-29T13:34:45.829Z</time>
      </trkpt>
      <trkpt lat="43.69104" lon="1.4712">
        <ele>212.272358</ele>
        <time>2022-07-29T13:34:47.839Z</time>
      </trkpt>
      <trkpt lat="43.69099" lon="1.47135">
        <ele>212.498332</ele>
        <time>2022-07-29T13:34:49.837Z</time>
      </trkpt>
      <trkpt lat="43.69093" lon="1.4715">
        <ele>212.727215</ele>
        <time>2022-07-29T13:34:51.858Z</time>
      </trkpt>
      <trkpt lat="43.69087" lon="1.47165">
        <ele>212.953372</ele>
        <time>2022-07-29T13:34:53.839Z</time>
      </trkpt>
      <trkpt lat="43.69081" lon="1.47179">
        <ele>213.177811</ele>
        <time>2022-07-29T13:34:55.828Z</time>
      </trkpt>
      <trkpt lat="43.69075" lon="1.47194">
        <ele>213.405501</ele>
        <time>2022-07-29T13:34:57.834Z</time>
      </trkpt>
      <trkpt lat="43.69069" lon="1.47208">
        <ele>213.626377</ele>
        <time>2022-07-29T13:34:59.833Z</time>
      </trkpt>
      <trkpt lat="43.69064" lon="1.47222">
        <ele>213.839303</ele>
        <time>2022-07-29T13:35:01.813Z</time>
      </trkpt>
      <trkpt lat="43.6906" lon="1.47238">
        <ele>213.975125</ele>
        <time>2022-07-29T13:35:03.837Z</time>
      </trkpt>
      <trkpt lat="43.69059" lon="1.47254">
        <ele>214.05273</ele>
        <time>2022-07-29T13:35:05.816Z</time>
      </trkpt>
      <trkpt lat="43.69059" lon="1.4727">
        <ele>214.129993</ele>
        <time>2022-07-29T13:35:07.846Z</time>
      </trkpt>
      <trkpt lat="43.69059" lon="1.47286">
        <ele>214.207678</ele>
        <time>2022-07-29T13:35:09.825Z</time>
      </trkpt>
      <trkpt lat="43.69059" lon="1.47302">
        <ele>214.286341</ele>
        <time>2022-07-29T13:35:11.824Z</time>
      </trkpt>
      <trkpt lat="43.69059" lon="1.47319">
        <ele>214.365473</ele>
        <time>2022-07-29T13:35:13.828Z</time>
      </trkpt>
      <trkpt lat="43.6906" lon="1.47335">
        <ele>214.442897</ele>
        <time>2022-07-29T13:35:15.828Z</time>
      </trkpt>
      <trkpt lat="43.69061" lon="1.4735">
        <ele>214.519414</ele>
        <time>2022-07-29T13:35:17.844Z</time>
      </trkpt>
      <trkpt lat="43.69062" lon="1.47364">
        <ele>214.586394</ele>
        <time>2022-07-29T13:35:19.817Z</time>
      </trkpt>
      <trkpt lat="43.69063" lon="1.47378">
        <ele>214.650563</ele>
        <time>2022-07-29T13:35:22.820Z</time>
      </trkpt>
      <trkpt lat="43.69066" lon="1.47395">
        <ele>214.739682</ele>
        <time>2022-07-29T13:35:25.810Z</time>
      </trkpt>
      <trkpt lat="43.69065" lon="1.47412">
        <ele>214.820236</ele>
        <time>2022-07-29T13:35:28.840Z</time>
      </trkpt>
      <trkpt lat="43.69068" lon="1.47424">
        <ele>214.881953</ele>
        <time>2022-07-29T13:35:31.839Z</time>
      </trkpt>
      <trkpt lat="43.69075" lon="1.47436">
        <ele>214.957439</ele>
        <time>2022-07-29T13:35:34.845Z</time>
      </trkpt>
      <trkpt lat="43.69081" lon="1.47452">
        <ele>215.040312</ele>
        <time>2022-07-29T13:35:37.846Z</time>
      </trkpt>
      <trkpt lat="43.69085" lon="1.47464">
        <ele>215.104196</ele>
        <time>2022-07-29T13:35:40.834Z</time>
      </trkpt>
      <trkpt lat="43.69083" lon="1.47477">
        <ele>215.350894</ele>
        <time>2022-07-29T13:35:42.844Z</time>
      </trkpt>
      <trkpt lat="43.69081" lon="1.47492">
        <ele>215.714912</ele>
        <time>2022-07-29T13:35:45.817Z</time>
      </trkpt>
      <trkpt lat="43.69083" lon="1.47504">
        <ele>216.015182</ele>
        <time>2022-07-29T13:35:47.832Z</time>
      </trkpt>
      <trkpt lat="43.69085" lon="1.47517">
        <ele>216.329212</ele>
        <time>2022-07-29T13:35:49.832Z</time>
      </trkpt>
      <trkpt lat="43.69081" lon="1.47532">
        <ele>216.719283</ele>
        <time>2022-07-29T13:35:52.825Z</time>
      </trkpt>
      <trkpt lat="43.69075" lon="1.47544">
        <ele>217.041402</ele>
        <time>2022-07-29T13:35:54.848Z</time>
      </trkpt>
      <trkpt lat="43.69075" lon="1.47557">
        <ele>217.358644</ele>
        <time>2022-07-29T13:35:56.826Z</time>
      </trkpt>
      <trkpt lat="43.69074" lon="1.47575">
        <ele>217.781837</ele>
        <time>2022-07-29T13:35:59.846Z</time>
      </trkpt>
      <trkpt lat="43.69074" lon="1.4759">
        <ele>218.131334</ele>
        <time>2022-07-29T13:36:04.825Z</time>
      </trkpt>
      <trkpt lat="43.69068" lon="1.476">
        <ele>218.439938</ele>
        <time>2022-07-29T13:36:07.827Z</time>
      </trkpt>
      <trkpt lat="43.69064" lon="1.47612">
        <ele>218.764574</ele>
        <time>2022-07-29T13:36:11.845Z</time>
      </trkpt>
      <trkpt lat="43.69065" lon="1.47629">
        <ele>219.171015</ele>
        <time>2022-07-29T13:36:15.833Z</time>
      </trkpt>
      <trkpt lat="43.69062" lon="1.47643">
        <ele>219.506579</ele>
        <time>2022-07-29T13:36:18.799Z</time>
      </trkpt>
      <trkpt lat="43.69063" lon="1.47656">
        <ele>219.827461</ele>
        <time>2022-07-29T13:36:21.798Z</time>
      </trkpt>
      <trkpt lat="43.69063" lon="1.4767">
        <ele>220.141379</ele>
        <time>2022-07-29T13:36:24.810Z</time>
      </trkpt>
      <trkpt lat="43.69067" lon="1.47682">
        <ele>220.468758</ele>
        <time>2022-07-29T13:36:27.802Z</time>
      </trkpt>
      <trkpt lat="43.69069" lon="1.47698">
        <ele>220.837438</ele>
        <time>2022-07-29T13:36:30.809Z</time>
      </trkpt>
      <trkpt lat="43.69074" lon="1.47709">
        <ele>221.081983</ele>
        <time>2022-07-29T13:36:32.802Z</time>
      </trkpt>
      <trkpt lat="43.6908" lon="1.47723">
        <ele>221.241181</ele>
        <time>2022-07-29T13:36:35.819Z</time>
      </trkpt>
      <trkpt lat="43.69078" lon="1.47736">
        <ele>221.366109</ele>
        <time>2022-07-29T13:36:39.826Z</time>
      </trkpt>
      <trkpt lat="43.69076" lon="1.47749">
        <ele>221.490438</ele>
        <time>2022-07-29T13:36:42.821Z</time>
      </trkpt>
      <trkpt lat="43.69076" lon="1.47764">
        <ele>221.641764</ele>
        <time>2022-07-29T13:36:46.805Z</time>
      </trkpt>
      <trkpt lat="43.69077" lon="1.4778">
        <ele>221.793582</ele>
        <time>2022-07-29T13:36:49.808Z</time>
      </trkpt>
      <trkpt lat="43.69074" lon="1.47793">
        <ele>221.929939</ele>
        <time>2022-07-29T13:36:52.812Z</time>
      </trkpt>
      <trkpt lat="43.69067" lon="1.47808">
        <ele>222.098388</ele>
        <time>2022-07-29T13:36:55.814Z</time>
      </trkpt>
      <trkpt lat="43.69065" lon="1.47821">
        <ele>222.227966</ele>
        <time>2022-07-29T13:36:57.800Z</time>
      </trkpt>
      <trkpt lat="43.69061" lon="1.47837">
        <ele>222.387853</ele>
        <time>2022-07-29T13:37:00.827Z</time>
      </trkpt>
      <trkpt lat="43.6906" lon="1.47854">
        <ele>222.546931</ele>
        <time>2022-07-29T13:37:03.809Z</time>
      </trkpt>
      <trkpt lat="43.69055" lon="1.47866">
        <ele>222.686679</ele>
        <time>2022-07-29T13:37:06.799Z</time>
      </trkpt>
      <trkpt lat="43.69051" lon="1.47879">
        <ele>222.822152</ele>
        <time>2022-07-29T13:37:09.803Z</time>
      </trkpt>
      <trkpt lat="43.69046" lon="1.47893">
        <ele>222.967795</ele>
        <time>2022-07-29T13:37:12.822Z</time>
      </trkpt>
      <trkpt lat="43.69042" lon="1.47905">
        <ele>223.095753</ele>
        <time>2022-07-29T13:37:16.809Z</time>
      </trkpt>
      <trkpt lat="43.69047" lon="1.47919">
        <ele>223.243334</ele>
        <time>2022-07-29T13:37:20.810Z</time>
      </trkpt>
      <trkpt lat="43.69052" lon="1.47937">
        <ele>223.450093</ele>
        <time>2022-07-29T13:37:26.805Z</time>
      </trkpt>
      <trkpt lat="43.69051" lon="1.4795">
        <ele>223.711393</ele>
        <time>2022-07-29T13:37:32.808Z</time>
      </trkpt>
      <trkpt lat="43.69047" lon="1.47962">
        <ele>223.966795</ele>
        <time>2022-07-29T13:37:40.795Z</time>
      </trkpt>
      <trkpt lat="43.69043" lon="1.47976">
        <ele>224.262371</ele>
        <time>2022-07-29T13:37:48.808Z</time>
      </trkpt>
      <trkpt lat="43.69039" lon="1.47989">
        <ele>224.545077</ele>
        <time>2022-07-29T13:37:53.804Z</time>
      </trkpt>
      <trkpt lat="43.69036" lon="1.48003">
        <ele>224.832099</ele>
        <time>2022-07-29T13:37:57.807Z</time>
      </trkpt>
      <trkpt lat="43.69031" lon="1.48018">
        <ele>225.15659</ele>
        <time>2022-07-29T13:38:01.806Z</time>
      </trkpt>
      <trkpt lat="43.69027" lon="1.48029">
        <ele>225.405654</ele>
        <time>2022-07-29T13:38:08.790Z</time>
      </trkpt>
      <trkpt lat="43.69039" lon="1.48016">
        <ele>225.822322</ele>
        <time>2022-07-29T13:38:27.815Z</time>
      </trkpt>
      <trkpt lat="43.69049" lon="1.48007">
        <ele>226.154838</ele>
        <time>2022-07-29T13:38:30.801Z</time>
      </trkpt>
      <trkpt lat="43.69059" lon="1.48004">
        <ele>226.432667</ele>
        <time>2022-07-29T13:38:32.806Z</time>
      </trkpt>
      <trkpt lat="43.69068" lon="1.48003">
        <ele>226.682413</ele>
        <time>2022-07-29T13:38:34.806Z</time>
      </trkpt>
      <trkpt lat="43.69081" lon="1.47998">
        <ele>227.036091</ele>
        <time>2022-07-29T13:38:37.810Z</time>
      </trkpt>
      <trkpt lat="43.69092" lon="1.47994">
        <ele>227.360976</ele>
        <time>2022-07-29T13:38:40.824Z</time>
      </trkpt>
      <trkpt lat="43.69103" lon="1.47989">
        <ele>227.679957</ele>
        <time>2022-07-29T13:38:43.787Z</time>
      </trkpt>
      <trkpt lat="43.69117" lon="1.47984">
        <ele>228.062231</ele>
        <time>2022-07-29T13:38:46.818Z</time>
      </trkpt>
      <trkpt lat="43.69128" lon="1.47988">
        <ele>228.373893</ele>
        <time>2022-07-29T13:38:49.823Z</time>
      </trkpt>
      <trkpt lat="43.69135" lon="1.47996">
        <ele>228.581639</ele>
        <time>2022-07-29T13:38:51.807Z</time>
      </trkpt>
      <trkpt lat="43.69143" lon="1.48005">
        <ele>228.824163</ele>
        <time>2022-07-29T13:38:53.813Z</time>
      </trkpt>
      <trkpt lat="43.69151" lon="1.48011">
        <ele>229.045629</ele>
        <time>2022-07-29T13:38:55.826Z</time>
      </trkpt>
      <trkpt lat="43.69162" lon="1.48002">
        <ele>229.341136</ele>
        <time>2022-07-29T13:38:58.834Z</time>
      </trkpt>
      <trkpt lat="43.6917" lon="1.47992">
        <ele>229.580928</ele>
        <time>2022-07-29T13:39:00.825Z</time>
      </trkpt>
      <trkpt lat="43.69182" lon="1.47986">
        <ele>229.872312</ele>
        <time>2022-07-29T13:39:03.812Z</time>
      </trkpt>
      <trkpt lat="43.69194" lon="1.47991">
        <ele>230.162879</ele>
        <time>2022-07-29T13:39:06.829Z</time>
      </trkpt>
      <trkpt lat="43.69205" lon="1.47996">
        <ele>230.435978</ele>
        <time>2022-07-29T13:39:09.822Z</time>
      </trkpt>
      <trkpt lat="43.69218" lon="1.48">
        <ele>230.733413</ele>
        <time>2022-07-29T13:39:12.832Z</time>
      </trkpt>
      <trkpt lat="43.69231" lon="1.48003">
        <ele>231.030868</ele>
        <time>2022-07-29T13:39:15.832Z</time>
      </trkpt>
      <trkpt lat="43.69241" lon="1.48">
        <ele>231.272815</ele>
        <time>2022-07-29T13:39:17.826Z</time>
      </trkpt>
      <trkpt lat="43.69253" lon="1.47994">
        <ele>231.571365</ele>
        <time>2022-07-29T13:39:19.837Z</time>
      </trkpt>
      <trkpt lat="43.69266" lon="1.47986">
        <ele>231.899979</ele>
        <time>2022-07-29T13:39:21.833Z</time>
      </trkpt>
      <trkpt lat="43.69274" lon="1.47972">
        <ele>232.193316</ele>
        <time>2022-07-29T13:39:23.823Z</time>
      </trkpt>
      <trkpt lat="43.69278" lon="1.47954">
        <ele>232.54152</ele>
        <time>2022-07-29T13:39:25.827Z</time>
      </trkpt>
      <trkpt lat="43.69279" lon="1.47935">
        <ele>233.289985</ele>
        <time>2022-07-29T13:39:27.815Z</time>
      </trkpt>
      <trkpt lat="43.6928" lon="1.47918">
        <ele>233.970293</ele>
        <time>2022-07-29T13:39:29.833Z</time>
      </trkpt>
      <trkpt lat="43.69283" lon="1.47903">
        <ele>234.59702</ele>
        <time>2022-07-29T13:39:31.813Z</time>
      </trkpt>
      <trkpt lat="43.69287" lon="1.47889">
        <ele>235.174163</ele>
        <time>2022-07-29T13:39:33.816Z</time>
      </trkpt>
      <trkpt lat="43.69292" lon="1.47878">
        <ele>235.693785</ele>
        <time>2022-07-29T13:39:35.821Z</time>
      </trkpt>
      <trkpt lat="43.69297" lon="1.47868">
        <ele>236.192616</ele>
        <time>2022-07-29T13:39:37.803Z</time>
      </trkpt>
      <trkpt lat="43.69305" lon="1.47854">
        <ele>236.931533</ele>
        <time>2022-07-29T13:39:40.820Z</time>
      </trkpt>
      <trkpt lat="43.69313" lon="1.47839">
        <ele>237.653637</ele>
        <time>2022-07-29T13:39:43.814Z</time>
      </trkpt>
      <trkpt lat="43.69321" lon="1.47825">
        <ele>238.366147</ele>
        <time>2022-07-29T13:39:46.815Z</time>
      </trkpt>
      <trkpt lat="43.69328" lon="1.4781">
        <ele>239.095524</ele>
        <time>2022-07-29T13:39:49.836Z</time>
      </trkpt>
      <trkpt lat="43.69335" lon="1.47796">
        <ele>239.794907</ele>
        <time>2022-07-29T13:39:52.833Z</time>
      </trkpt>
      <trkpt lat="43.69342" lon="1.47782">
        <ele>240.446594</ele>
        <time>2022-07-29T13:39:55.821Z</time>
      </trkpt>
      <trkpt lat="43.69354" lon="1.47777">
        <ele>241.169058</ele>
        <time>2022-07-29T13:39:58.803Z</time>
      </trkpt>
      <trkpt lat="43.69365" lon="1.47777">
        <ele>241.74933</ele>
        <time>2022-07-29T13:40:00.823Z</time>
      </trkpt>
      <trkpt lat="43.69376" lon="1.47777">
        <ele>242.362714</ele>
        <time>2022-07-29T13:40:02.832Z</time>
      </trkpt>
      <trkpt lat="43.69387" lon="1.47776">
        <ele>242.733569</ele>
        <time>2022-07-29T13:40:04.825Z</time>
      </trkpt>
      <trkpt lat="43.69399" lon="1.47776">
        <ele>243.090268</ele>
        <time>2022-07-29T13:40:06.810Z</time>
      </trkpt>
      <trkpt lat="43.69411" lon="1.47776">
        <ele>243.446862</ele>
        <time>2022-07-29T13:40:08.793Z</time>
      </trkpt>
      <trkpt lat="43.69423" lon="1.47776">
        <ele>243.800466</ele>
        <time>2022-07-29T13:40:10.817Z</time>
      </trkpt>
      <trkpt lat="43.69435" lon="1.47774">
        <ele>244.156452</ele>
        <time>2022-07-29T13:40:12.811Z</time>
      </trkpt>
      <trkpt lat="43.69443" lon="1.47764">
        <ele>244.502459</ele>
        <time>2022-07-29T13:40:14.828Z</time>
      </trkpt>
      <trkpt lat="43.6945" lon="1.4775">
        <ele>244.848483</ele>
        <time>2022-07-29T13:40:16.825Z</time>
      </trkpt>
      <trkpt lat="43.69455" lon="1.47737">
        <ele>245.187997</ele>
        <time>2022-07-29T13:40:18.816Z</time>
      </trkpt>
      <trkpt lat="43.69461" lon="1.47723">
        <ele>245.528585</ele>
        <time>2022-07-29T13:40:20.825Z</time>
      </trkpt>
      <trkpt lat="43.69467" lon="1.4771">
        <ele>245.86696</ele>
        <time>2022-07-29T13:40:22.824Z</time>
      </trkpt>
      <trkpt lat="43.69472" lon="1.47697">
        <ele>246.18059</ele>
        <time>2022-07-29T13:40:24.828Z</time>
      </trkpt>
      <trkpt lat="43.69478" lon="1.47686">
        <ele>246.493116</ele>
        <time>2022-07-29T13:40:26.828Z</time>
      </trkpt>
      <trkpt lat="43.69483" lon="1.47673">
        <ele>246.796955</ele>
        <time>2022-07-29T13:40:28.834Z</time>
      </trkpt>
      <trkpt lat="43.69487" lon="1.4766">
        <ele>247.099562</ele>
        <time>2022-07-29T13:40:30.832Z</time>
      </trkpt>
      <trkpt lat="43.69489" lon="1.47644">
        <ele>247.463638</ele>
        <time>2022-07-29T13:40:32.834Z</time>
      </trkpt>
      <trkpt lat="43.69491" lon="1.47628">
        <ele>247.804341</ele>
        <time>2022-07-29T13:40:34.839Z</time>
      </trkpt>
      <trkpt lat="43.69492" lon="1.47613">
        <ele>248.239209</ele>
        <time>2022-07-29T13:40:36.822Z</time>
      </trkpt>
      <trkpt lat="43.69495" lon="1.47599">
        <ele>248.656742</ele>
        <time>2022-07-29T13:40:38.848Z</time>
      </trkpt>
      <trkpt lat="43.69499" lon="1.47587">
        <ele>249.036587</ele>
        <time>2022-07-29T13:40:40.840Z</time>
      </trkpt>
      <trkpt lat="43.69504" lon="1.47572">
        <ele>249.49816</ele>
        <time>2022-07-29T13:40:42.823Z</time>
      </trkpt>
      <trkpt lat="43.6951" lon="1.47562">
        <ele>249.903803</ele>
        <time>2022-07-29T13:40:44.848Z</time>
      </trkpt>
      <trkpt lat="43.69518" lon="1.4755">
        <ele>250.328036</ele>
        <time>2022-07-29T13:40:46.841Z</time>
      </trkpt>
      <trkpt lat="43.69525" lon="1.47539">
        <ele>250.766582</ele>
        <time>2022-07-29T13:40:48.861Z</time>
      </trkpt>
      <trkpt lat="43.69533" lon="1.47528">
        <ele>251.203546</ele>
        <time>2022-07-29T13:40:50.822Z</time>
      </trkpt>
      <trkpt lat="43.69539" lon="1.47519">
        <ele>251.562982</ele>
        <time>2022-07-29T13:40:52.836Z</time>
      </trkpt>
      <trkpt lat="43.69551" lon="1.47524">
        <ele>252.055982</ele>
        <time>2022-07-29T13:40:56.838Z</time>
      </trkpt>
      <trkpt lat="43.6956" lon="1.47532">
        <ele>252.472904</ele>
        <time>2022-07-29T13:40:58.819Z</time>
      </trkpt>
      <trkpt lat="43.69569" lon="1.47541">
        <ele>252.93552</ele>
        <time>2022-07-29T13:41:00.830Z</time>
      </trkpt>
      <trkpt lat="43.69576" lon="1.47554">
        <ele>253.390316</ele>
        <time>2022-07-29T13:41:02.843Z</time>
      </trkpt>
      <trkpt lat="43.69579" lon="1.4757">
        <ele>253.855585</ele>
        <time>2022-07-29T13:41:04.854Z</time>
      </trkpt>
      <trkpt lat="43.69581" lon="1.47586">
        <ele>254.312839</ele>
        <time>2022-07-29T13:41:06.822Z</time>
      </trkpt>
      <trkpt lat="43.69583" lon="1.47602">
        <ele>254.78059</ele>
        <time>2022-07-29T13:41:08.845Z</time>
      </trkpt>
      <trkpt lat="43.69588" lon="1.47617">
        <ele>255.046588</ele>
        <time>2022-07-29T13:41:10.847Z</time>
      </trkpt>
      <trkpt lat="43.69594" lon="1.47632">
        <ele>255.212314</ele>
        <time>2022-07-29T13:41:12.827Z</time>
      </trkpt>
      <trkpt lat="43.69599" lon="1.47647">
        <ele>255.372011</ele>
        <time>2022-07-29T13:41:14.867Z</time>
      </trkpt>
      <trkpt lat="43.69605" lon="1.47661">
        <ele>255.532862</ele>
        <time>2022-07-29T13:41:16.848Z</time>
      </trkpt>
      <trkpt lat="43.69612" lon="1.47676">
        <ele>255.700827</ele>
        <time>2022-07-29T13:41:18.825Z</time>
      </trkpt>
      <trkpt lat="43.69618" lon="1.4769">
        <ele>255.866586</ele>
        <time>2022-07-29T13:41:20.831Z</time>
      </trkpt>
      <trkpt lat="43.69624" lon="1.47705">
        <ele>256.030356</ele>
        <time>2022-07-29T13:41:22.834Z</time>
      </trkpt>
      <trkpt lat="43.6963" lon="1.47718">
        <ele>256.186464</ele>
        <time>2022-07-29T13:41:24.841Z</time>
      </trkpt>
      <trkpt lat="43.69636" lon="1.47732">
        <ele>256.337528</ele>
        <time>2022-07-29T13:41:26.833Z</time>
      </trkpt>
      <trkpt lat="43.6964" lon="1.47743">
        <ele>256.460684</ele>
        <time>2022-07-29T13:41:28.857Z</time>
      </trkpt>
      <trkpt lat="43.69643" lon="1.47757">
        <ele>256.60217</ele>
        <time>2022-07-29T13:41:32.813Z</time>
      </trkpt>
      <trkpt lat="43.69652" lon="1.47769">
        <ele>256.774441</ele>
        <time>2022-07-29T13:41:35.850Z</time>
      </trkpt>
      <trkpt lat="43.6966" lon="1.47778">
        <ele>256.917571</ele>
        <time>2022-07-29T13:41:37.838Z</time>
      </trkpt>
      <trkpt lat="43.69669" lon="1.47788">
        <ele>257.072876</ele>
        <time>2022-07-29T13:41:39.854Z</time>
      </trkpt>
      <trkpt lat="43.69678" lon="1.47799">
        <ele>257.230354</ele>
        <time>2022-07-29T13:41:41.832Z</time>
      </trkpt>
      <trkpt lat="43.69687" lon="1.47809">
        <ele>257.320554</ele>
        <time>2022-07-29T13:41:43.821Z</time>
      </trkpt>
      <trkpt lat="43.69696" lon="1.4782">
        <ele>257.042703</ele>
        <time>2022-07-29T13:41:45.863Z</time>
      </trkpt>
      <trkpt lat="43.69706" lon="1.47829">
        <ele>256.760752</ele>
        <time>2022-07-29T13:41:47.848Z</time>
      </trkpt>
      <trkpt lat="43.69718" lon="1.47836">
        <ele>256.479643</ele>
        <time>2022-07-29T13:41:49.836Z</time>
      </trkpt>
      <trkpt lat="43.6973" lon="1.47839">
        <ele>256.194271</ele>
        <time>2022-07-29T13:41:51.820Z</time>
      </trkpt>
      <trkpt lat="43.69742" lon="1.4784">
        <ele>255.90859</ele>
        <time>2022-07-29T13:41:53.845Z</time>
      </trkpt>
      <trkpt lat="43.69756" lon="1.47838">
        <ele>255.608385</ele>
        <time>2022-07-29T13:41:55.832Z</time>
      </trkpt>
      <trkpt lat="43.69769" lon="1.47835">
        <ele>255.30219</ele>
        <time>2022-07-29T13:41:57.841Z</time>
      </trkpt>
      <trkpt lat="43.69782" lon="1.47831">
        <ele>254.989347</ele>
        <time>2022-07-29T13:41:59.835Z</time>
      </trkpt>
      <trkpt lat="43.69795" lon="1.47825">
        <ele>254.677024</ele>
        <time>2022-07-29T13:42:01.826Z</time>
      </trkpt>
      <trkpt lat="43.69809" lon="1.4782">
        <ele>254.354189</ele>
        <time>2022-07-29T13:42:03.840Z</time>
      </trkpt>
      <trkpt lat="43.69822" lon="1.47815">
        <ele>254.030902</ele>
        <time>2022-07-29T13:42:05.810Z</time>
      </trkpt>
      <trkpt lat="43.69836" lon="1.47809">
        <ele>253.707155</ele>
        <time>2022-07-29T13:42:07.835Z</time>
      </trkpt>
      <trkpt lat="43.6985" lon="1.47804">
        <ele>253.383867</ele>
        <time>2022-07-29T13:42:09.840Z</time>
      </trkpt>
      <trkpt lat="43.69865" lon="1.478">
        <ele>252.800722</ele>
        <time>2022-07-29T13:42:11.828Z</time>
      </trkpt>
      <trkpt lat="43.69878" lon="1.47792">
        <ele>252.094761</ele>
        <time>2022-07-29T13:42:13.823Z</time>
      </trkpt>
      <trkpt lat="43.6989" lon="1.47778">
        <ele>251.354972</ele>
        <time>2022-07-29T13:42:15.843Z</time>
      </trkpt>
      <trkpt lat="43.69902" lon="1.47762">
        <ele>250.601188</ele>
        <time>2022-07-29T13:42:17.822Z</time>
      </trkpt>
      <trkpt lat="43.69913" lon="1.47745">
        <ele>249.81425</ele>
        <time>2022-07-29T13:42:19.830Z</time>
      </trkpt>
      <trkpt lat="43.69925" lon="1.47728">
        <ele>248.996312</ele>
        <time>2022-07-29T13:42:21.818Z</time>
      </trkpt>
      <trkpt lat="43.69938" lon="1.4771">
        <ele>248.142396</ele>
        <time>2022-07-29T13:42:23.797Z</time>
      </trkpt>
      <trkpt lat="43.69944" lon="1.47701">
        <ele>247.697807</ele>
        <time>2022-07-29T13:42:24.834Z</time>
      </trkpt>
      <trkpt lat="43.69951" lon="1.47691">
        <ele>247.24073</ele>
        <time>2022-07-29T13:42:25.829Z</time>
      </trkpt>
      <trkpt lat="43.69959" lon="1.47682">
        <ele>246.774486</ele>
        <time>2022-07-29T13:42:26.821Z</time>
      </trkpt>
      <trkpt lat="43.69966" lon="1.47672">
        <ele>246.303541</ele>
        <time>2022-07-29T13:42:27.829Z</time>
      </trkpt>
      <trkpt lat="43.69973" lon="1.47663">
        <ele>245.825772</ele>
        <time>2022-07-29T13:42:28.813Z</time>
      </trkpt>
      <trkpt lat="43.69981" lon="1.47654">
        <ele>245.350167</ele>
        <time>2022-07-29T13:42:29.823Z</time>
      </trkpt>
      <trkpt lat="43.69989" lon="1.47645">
        <ele>244.8725</ele>
        <time>2022-07-29T13:42:30.820Z</time>
      </trkpt>
      <trkpt lat="43.69997" lon="1.47637">
        <ele>244.553798</ele>
        <time>2022-07-29T13:42:31.821Z</time>
      </trkpt>
      <trkpt lat="43.70006" lon="1.47631">
        <ele>244.267923</ele>
        <time>2022-07-29T13:42:32.819Z</time>
      </trkpt>
      <trkpt lat="43.70015" lon="1.47626">
        <ele>243.981635</ele>
        <time>2022-07-29T13:42:33.823Z</time>
      </trkpt>
      <trkpt lat="43.70025" lon="1.47623">
        <ele>243.696453</ele>
        <time>2022-07-29T13:42:34.820Z</time>
      </trkpt>
      <trkpt lat="43.70035" lon="1.4762">
        <ele>243.41101</ele>
        <time>2022-07-29T13:42:35.818Z</time>
      </trkpt>
      <trkpt lat="43.70045" lon="1.4762">
        <ele>243.128256</ele>
        <time>2022-07-29T13:42:36.828Z</time>
      </trkpt>
      <trkpt lat="43.70054" lon="1.4762">
        <ele>242.851781</ele>
        <time>2022-07-29T13:42:37.824Z</time>
      </trkpt>
      <trkpt lat="43.70064" lon="1.47621">
        <ele>242.57667</ele>
        <time>2022-07-29T13:42:38.834Z</time>
      </trkpt>
      <trkpt lat="43.70074" lon="1.47622">
        <ele>242.304604</ele>
        <time>2022-07-29T13:42:39.824Z</time>
      </trkpt>
      <trkpt lat="43.70083" lon="1.47625">
        <ele>242.032901</ele>
        <time>2022-07-29T13:42:40.798Z</time>
      </trkpt>
      <trkpt lat="43.70092" lon="1.47627">
        <ele>241.764348</ele>
        <time>2022-07-29T13:42:41.837Z</time>
      </trkpt>
      <trkpt lat="43.70101" lon="1.47629">
        <ele>241.50175</ele>
        <time>2022-07-29T13:42:42.850Z</time>
      </trkpt>
      <trkpt lat="43.7011" lon="1.4763">
        <ele>241.241588</ele>
        <time>2022-07-29T13:42:43.821Z</time>
      </trkpt>
      <trkpt lat="43.7012" lon="1.4763">
        <ele>240.976471</ele>
        <time>2022-07-29T13:42:44.824Z</time>
      </trkpt>
      <trkpt lat="43.70137" lon="1.47627">
        <ele>240.474638</ele>
        <time>2022-07-29T13:42:46.810Z</time>
      </trkpt>
      <trkpt lat="43.70154" lon="1.4762">
        <ele>239.983753</ele>
        <time>2022-07-29T13:42:48.845Z</time>
      </trkpt>
      <trkpt lat="43.70168" lon="1.47612">
        <ele>239.660393</ele>
        <time>2022-07-29T13:42:50.810Z</time>
      </trkpt>
      <trkpt lat="43.70184" lon="1.47606">
        <ele>239.669718</ele>
        <time>2022-07-29T13:42:52.822Z</time>
      </trkpt>
      <trkpt lat="43.70198" lon="1.47607">
        <ele>239.678233</ele>
        <time>2022-07-29T13:42:54.832Z</time>
      </trkpt>
      <trkpt lat="43.7021" lon="1.47613">
        <ele>239.685909</ele>
        <time>2022-07-29T13:42:56.850Z</time>
      </trkpt>
      <trkpt lat="43.7022" lon="1.47621">
        <ele>239.692798</ele>
        <time>2022-07-29T13:42:58.837Z</time>
      </trkpt>
      <trkpt lat="43.7023" lon="1.47628">
        <ele>239.699632</ele>
        <time>2022-07-29T13:43:00.827Z</time>
      </trkpt>
      <trkpt lat="43.7024" lon="1.47637">
        <ele>239.706579</ele>
        <time>2022-07-29T13:43:02.851Z</time>
      </trkpt>
      <trkpt lat="43.7025" lon="1.47645">
        <ele>239.713621</ele>
        <time>2022-07-29T13:43:04.830Z</time>
      </trkpt>
      <trkpt lat="43.70261" lon="1.47653">
        <ele>239.721056</ele>
        <time>2022-07-29T13:43:06.840Z</time>
      </trkpt>
      <trkpt lat="43.70273" lon="1.47661">
        <ele>239.728518</ele>
        <time>2022-07-29T13:43:08.847Z</time>
      </trkpt>
      <trkpt lat="43.70284" lon="1.47668">
        <ele>239.73603</ele>
        <time>2022-07-29T13:43:10.825Z</time>
      </trkpt>
      <trkpt lat="43.70296" lon="1.47675">
        <ele>239.743598</ele>
        <time>2022-07-29T13:43:12.846Z</time>
      </trkpt>
      <trkpt lat="43.70308" lon="1.47682">
        <ele>239.751255</ele>
        <time>2022-07-29T13:43:14.849Z</time>
      </trkpt>
      <trkpt lat="43.70321" lon="1.4769">
        <ele>239.760016</ele>
        <time>2022-07-29T13:43:16.833Z</time>
      </trkpt>
      <trkpt lat="43.70336" lon="1.47697">
        <ele>239.576596</ele>
        <time>2022-07-29T13:43:18.849Z</time>
      </trkpt>
      <trkpt lat="43.70352" lon="1.47703">
        <ele>239.178821</ele>
        <time>2022-07-29T13:43:20.844Z</time>
      </trkpt>
      <trkpt lat="43.70368" lon="1.47712">
        <ele>238.77193</ele>
        <time>2022-07-29T13:43:22.819Z</time>
      </trkpt>
      <trkpt lat="43.70383" lon="1.47721">
        <ele>238.362796</ele>
        <time>2022-07-29T13:43:24.877Z</time>
      </trkpt>
      <trkpt lat="43.70399" lon="1.47729">
        <ele>237.951236</ele>
        <time>2022-07-29T13:43:26.864Z</time>
      </trkpt>
      <trkpt lat="43.70415" lon="1.47736">
        <ele>237.544289</ele>
        <time>2022-07-29T13:43:28.849Z</time>
      </trkpt>
      <trkpt lat="43.70431" lon="1.47744">
        <ele>237.137342</ele>
        <time>2022-07-29T13:43:30.834Z</time>
      </trkpt>
      <trkpt lat="43.70447" lon="1.47752">
        <ele>236.734964</ele>
        <time>2022-07-29T13:43:32.846Z</time>
      </trkpt>
      <trkpt lat="43.70462" lon="1.47759">
        <ele>236.338839</ele>
        <time>2022-07-29T13:43:34.853Z</time>
      </trkpt>
      <trkpt lat="43.70477" lon="1.47766">
        <ele>235.956798</ele>
        <time>2022-07-29T13:43:36.811Z</time>
      </trkpt>
      <trkpt lat="43.70492" lon="1.47769">
        <ele>235.591197</ele>
        <time>2022-07-29T13:43:38.849Z</time>
      </trkpt>
      <trkpt lat="43.70507" lon="1.47772">
        <ele>235.335942</ele>
        <time>2022-07-29T13:43:40.850Z</time>
      </trkpt>
      <trkpt lat="43.70521" lon="1.47775">
        <ele>235.181889</ele>
        <time>2022-07-29T13:43:42.849Z</time>
      </trkpt>
      <trkpt lat="43.70535" lon="1.47777">
        <ele>235.029231</ele>
        <time>2022-07-29T13:43:44.844Z</time>
      </trkpt>
      <trkpt lat="43.70549" lon="1.47778">
        <ele>234.880876</ele>
        <time>2022-07-29T13:43:46.848Z</time>
      </trkpt>
      <trkpt lat="43.70563" lon="1.4778">
        <ele>234.732595</ele>
        <time>2022-07-29T13:43:48.834Z</time>
      </trkpt>
      <trkpt lat="43.70577" lon="1.47782">
        <ele>234.586275</ele>
        <time>2022-07-29T13:43:50.839Z</time>
      </trkpt>
      <trkpt lat="43.70591" lon="1.47784">
        <ele>234.437006</ele>
        <time>2022-07-29T13:43:52.858Z</time>
      </trkpt>
      <trkpt lat="43.70604" lon="1.47786">
        <ele>234.291572</ele>
        <time>2022-07-29T13:43:54.842Z</time>
      </trkpt>
      <trkpt lat="43.70618" lon="1.47788">
        <ele>234.144029</ele>
        <time>2022-07-29T13:43:56.846Z</time>
      </trkpt>
      <trkpt lat="43.70632" lon="1.47791">
        <ele>233.997873</ele>
        <time>2022-07-29T13:43:58.851Z</time>
      </trkpt>
      <trkpt lat="43.70645" lon="1.47794">
        <ele>233.855207</ele>
        <time>2022-07-29T13:44:00.812Z</time>
      </trkpt>
      <trkpt lat="43.70658" lon="1.47797">
        <ele>233.715467</ele>
        <time>2022-07-29T13:44:02.837Z</time>
      </trkpt>
      <trkpt lat="43.70671" lon="1.47799">
        <ele>233.579324</ele>
        <time>2022-07-29T13:44:04.846Z</time>
      </trkpt>
      <trkpt lat="43.70683" lon="1.47801">
        <ele>233.423535</ele>
        <time>2022-07-29T13:44:06.835Z</time>
      </trkpt>
      <trkpt lat="43.70695" lon="1.47805">
        <ele>233.244919</ele>
        <time>2022-07-29T13:44:08.848Z</time>
      </trkpt>
      <trkpt lat="43.70707" lon="1.47808">
        <ele>233.068831</ele>
        <time>2022-07-29T13:44:10.815Z</time>
      </trkpt>
      <trkpt lat="43.70718" lon="1.47812">
        <ele>232.891894</ele>
        <time>2022-07-29T13:44:12.832Z</time>
      </trkpt>
      <trkpt lat="43.70729" lon="1.47817">
        <ele>232.716677</ele>
        <time>2022-07-29T13:44:14.819Z</time>
      </trkpt>
      <trkpt lat="43.7074" lon="1.47823">
        <ele>232.543808</ele>
        <time>2022-07-29T13:44:16.836Z</time>
      </trkpt>
      <trkpt lat="43.70751" lon="1.47829">
        <ele>232.36754</ele>
        <time>2022-07-29T13:44:18.834Z</time>
      </trkpt>
      <trkpt lat="43.70762" lon="1.47835">
        <ele>232.187536</ele>
        <time>2022-07-29T13:44:20.871Z</time>
      </trkpt>
      <trkpt lat="43.70774" lon="1.47841">
        <ele>232.002363</ele>
        <time>2022-07-29T13:44:22.832Z</time>
      </trkpt>
      <trkpt lat="43.70785" lon="1.47847">
        <ele>231.816173</ele>
        <time>2022-07-29T13:44:24.820Z</time>
      </trkpt>
      <trkpt lat="43.70797" lon="1.47853">
        <ele>231.632126</ele>
        <time>2022-07-29T13:44:26.859Z</time>
      </trkpt>
      <trkpt lat="43.70809" lon="1.47858">
        <ele>231.441429</ele>
        <time>2022-07-29T13:44:28.828Z</time>
      </trkpt>
      <trkpt lat="43.70822" lon="1.47862">
        <ele>231.24631</ele>
        <time>2022-07-29T13:44:30.827Z</time>
      </trkpt>
      <trkpt lat="43.70836" lon="1.4786">
        <ele>231.042346</ele>
        <time>2022-07-29T13:44:32.817Z</time>
      </trkpt>
      <trkpt lat="43.70848" lon="1.47852">
        <ele>230.842699</ele>
        <time>2022-07-29T13:44:34.827Z</time>
      </trkpt>
      <trkpt lat="43.70859" lon="1.47843">
        <ele>230.623022</ele>
        <time>2022-07-29T13:44:36.876Z</time>
      </trkpt>
      <trkpt lat="43.7087" lon="1.47831">
        <ele>230.394352</ele>
        <time>2022-07-29T13:44:38.833Z</time>
      </trkpt>
      <trkpt lat="43.70881" lon="1.47822">
        <ele>230.172695</ele>
        <time>2022-07-29T13:44:40.847Z</time>
      </trkpt>
      <trkpt lat="43.70892" lon="1.47813">
        <ele>229.958105</ele>
        <time>2022-07-29T13:44:42.824Z</time>
      </trkpt>
      <trkpt lat="43.70904" lon="1.47807">
        <ele>229.733413</ele>
        <time>2022-07-29T13:44:44.831Z</time>
      </trkpt>
      <trkpt lat="43.70917" lon="1.47802">
        <ele>229.49632</ele>
        <time>2022-07-29T13:44:46.837Z</time>
      </trkpt>
      <trkpt lat="43.70932" lon="1.47799">
        <ele>229.253164</ele>
        <time>2022-07-29T13:44:48.868Z</time>
      </trkpt>
      <trkpt lat="43.70946" lon="1.478">
        <ele>229.014103</ele>
        <time>2022-07-29T13:44:50.853Z</time>
      </trkpt>
      <trkpt lat="43.70959" lon="1.47802">
        <ele>228.780306</ele>
        <time>2022-07-29T13:44:52.831Z</time>
      </trkpt>
      <trkpt lat="43.70973" lon="1.47804">
        <ele>228.549309</ele>
        <time>2022-07-29T13:44:54.851Z</time>
      </trkpt>
      <trkpt lat="43.70986" lon="1.4781">
        <ele>228.312671</ele>
        <time>2022-07-29T13:44:56.855Z</time>
      </trkpt>
      <trkpt lat="43.70998" lon="1.4782">
        <ele>228.071854</ele>
        <time>2022-07-29T13:44:58.833Z</time>
      </trkpt>
      <trkpt lat="43.71011" lon="1.47828">
        <ele>227.831572</ele>
        <time>2022-07-29T13:45:00.846Z</time>
      </trkpt>
      <trkpt lat="43.71023" lon="1.47833">
        <ele>227.721347</ele>
        <time>2022-07-29T13:45:02.826Z</time>
      </trkpt>
      <trkpt lat="43.71034" lon="1.47839">
        <ele>227.671565</ele>
        <time>2022-07-29T13:45:04.826Z</time>
      </trkpt>
      <trkpt lat="43.71044" lon="1.47849">
        <ele>227.620334</ele>
        <time>2022-07-29T13:45:06.834Z</time>
      </trkpt>
      <trkpt lat="43.71054" lon="1.4786">
        <ele>227.567661</ele>
        <time>2022-07-29T13:45:08.837Z</time>
      </trkpt>
      <trkpt lat="43.71065" lon="1.4787">
        <ele>227.512333</ele>
        <time>2022-07-29T13:45:10.810Z</time>
      </trkpt>
      <trkpt lat="43.71075" lon="1.47882">
        <ele>227.458978</ele>
        <time>2022-07-29T13:45:12.824Z</time>
      </trkpt>
      <trkpt lat="43.71086" lon="1.47892">
        <ele>227.40622</ele>
        <time>2022-07-29T13:45:14.819Z</time>
      </trkpt>
      <trkpt lat="43.71097" lon="1.479">
        <ele>227.35291</ele>
        <time>2022-07-29T13:45:16.826Z</time>
      </trkpt>
      <trkpt lat="43.71108" lon="1.47908">
        <ele>227.300743</ele>
        <time>2022-07-29T13:45:18.839Z</time>
      </trkpt>
      <trkpt lat="43.71119" lon="1.47917">
        <ele>227.25048</ele>
        <time>2022-07-29T13:45:20.811Z</time>
      </trkpt>
      <trkpt lat="43.71129" lon="1.47925">
        <ele>227.199251</ele>
        <time>2022-07-29T13:45:22.818Z</time>
      </trkpt>
      <trkpt lat="43.71141" lon="1.47933">
        <ele>227.14671</ele>
        <time>2022-07-29T13:45:24.825Z</time>
      </trkpt>
      <trkpt lat="43.71153" lon="1.47939">
        <ele>227.092157</ele>
        <time>2022-07-29T13:45:26.826Z</time>
      </trkpt>
      <trkpt lat="43.71166" lon="1.47939">
        <ele>227.037311</ele>
        <time>2022-07-29T13:45:28.826Z</time>
      </trkpt>
      <trkpt lat="43.71179" lon="1.47933">
        <ele>226.839704</ele>
        <time>2022-07-29T13:45:30.865Z</time>
      </trkpt>
      <trkpt lat="43.71189" lon="1.47921">
        <ele>226.482491</ele>
        <time>2022-07-29T13:45:32.808Z</time>
      </trkpt>
      <trkpt lat="43.71198" lon="1.47908">
        <ele>226.125661</ele>
        <time>2022-07-29T13:45:34.819Z</time>
      </trkpt>
      <trkpt lat="43.71208" lon="1.47896">
        <ele>225.770032</ele>
        <time>2022-07-29T13:45:36.842Z</time>
      </trkpt>
      <trkpt lat="43.71216" lon="1.47881">
        <ele>225.416355</ele>
        <time>2022-07-29T13:45:38.817Z</time>
      </trkpt>
      <trkpt lat="43.71222" lon="1.47864">
        <ele>225.047987</ele>
        <time>2022-07-29T13:45:40.833Z</time>
      </trkpt>
      <trkpt lat="43.71227" lon="1.47847">
        <ele>224.686599</ele>
        <time>2022-07-29T13:45:42.795Z</time>
      </trkpt>
      <trkpt lat="43.71231" lon="1.47828">
        <ele>224.314238</ele>
        <time>2022-07-29T13:45:44.812Z</time>
      </trkpt>
      <trkpt lat="43.71237" lon="1.4781">
        <ele>223.933604</ele>
        <time>2022-07-29T13:45:46.828Z</time>
      </trkpt>
      <trkpt lat="43.71242" lon="1.47791">
        <ele>223.543543</ele>
        <time>2022-07-29T13:45:48.820Z</time>
      </trkpt>
      <trkpt lat="43.7125" lon="1.47774">
        <ele>223.15176</ele>
        <time>2022-07-29T13:45:50.824Z</time>
      </trkpt>
      <trkpt lat="43.71258" lon="1.47757">
        <ele>222.758639</ele>
        <time>2022-07-29T13:45:52.835Z</time>
      </trkpt>
      <trkpt lat="43.71266" lon="1.4774">
        <ele>222.359455</ele>
        <time>2022-07-29T13:45:54.813Z</time>
      </trkpt>
      <trkpt lat="43.71273" lon="1.47722">
        <ele>222.213549</ele>
        <time>2022-07-29T13:45:56.823Z</time>
      </trkpt>
      <trkpt lat="43.7128" lon="1.47705">
        <ele>222.227283</ele>
        <time>2022-07-29T13:45:58.810Z</time>
      </trkpt>
      <trkpt lat="43.71286" lon="1.47691">
        <ele>222.239443</ele>
        <time>2022-07-29T13:46:00.821Z</time>
      </trkpt>
      <trkpt lat="43.71295" lon="1.47683">
        <ele>222.249886</ele>
        <time>2022-07-29T13:46:04.831Z</time>
      </trkpt>
      <trkpt lat="43.71307" lon="1.47692">
        <ele>222.263533</ele>
        <time>2022-07-29T13:46:07.830Z</time>
      </trkpt>
      <trkpt lat="43.71317" lon="1.47694">
        <ele>222.274367</ele>
        <time>2022-07-29T13:46:09.824Z</time>
      </trkpt>
      <trkpt lat="43.71327" lon="1.47702">
        <ele>222.285933</ele>
        <time>2022-07-29T13:46:11.835Z</time>
      </trkpt>
      <trkpt lat="43.71338" lon="1.47713">
        <ele>222.298506</ele>
        <time>2022-07-29T13:46:13.841Z</time>
      </trkpt>
      <trkpt lat="43.71348" lon="1.47722">
        <ele>222.31112</ele>
        <time>2022-07-29T13:46:15.804Z</time>
      </trkpt>
      <trkpt lat="43.71359" lon="1.47732">
        <ele>222.323775</ele>
        <time>2022-07-29T13:46:17.821Z</time>
      </trkpt>
      <trkpt lat="43.71369" lon="1.47742">
        <ele>222.336265</ele>
        <time>2022-07-29T13:46:19.804Z</time>
      </trkpt>
      <trkpt lat="43.71379" lon="1.47752">
        <ele>222.348511</ele>
        <time>2022-07-29T13:46:21.819Z</time>
      </trkpt>
      <trkpt lat="43.71389" lon="1.47761">
        <ele>222.360469</ele>
        <time>2022-07-29T13:46:23.811Z</time>
      </trkpt>
      <trkpt lat="43.71399" lon="1.47771">
        <ele>222.373165</ele>
        <time>2022-07-29T13:46:25.827Z</time>
      </trkpt>
      <trkpt lat="43.71409" lon="1.47781">
        <ele>222.40082</ele>
        <time>2022-07-29T13:46:27.803Z</time>
      </trkpt>
      <trkpt lat="43.71419" lon="1.4779">
        <ele>222.543017</ele>
        <time>2022-07-29T13:46:29.822Z</time>
      </trkpt>
      <trkpt lat="43.71428" lon="1.47798">
        <ele>222.6868</ele>
        <time>2022-07-29T13:46:31.823Z</time>
      </trkpt>
      <trkpt lat="43.71437" lon="1.47807">
        <ele>222.832709</ele>
        <time>2022-07-29T13:46:33.806Z</time>
      </trkpt>
      <trkpt lat="43.71446" lon="1.47816">
        <ele>222.978589</ele>
        <time>2022-07-29T13:46:35.810Z</time>
      </trkpt>
      <trkpt lat="43.71456" lon="1.47825">
        <ele>223.121857</ele>
        <time>2022-07-29T13:46:37.809Z</time>
      </trkpt>
      <trkpt lat="43.71464" lon="1.47832">
        <ele>223.24145</ele>
        <time>2022-07-29T13:46:40.802Z</time>
      </trkpt>
      <trkpt lat="43.71474" lon="1.47842">
        <ele>223.403713</ele>
        <time>2022-07-29T13:46:43.794Z</time>
      </trkpt>
      <trkpt lat="43.71483" lon="1.47851">
        <ele>223.545961</ele>
        <time>2022-07-29T13:46:45.804Z</time>
      </trkpt>
      <trkpt lat="43.71493" lon="1.4786">
        <ele>223.698184</ele>
        <time>2022-07-29T13:46:47.820Z</time>
      </trkpt>
      <trkpt lat="43.71503" lon="1.47869">
        <ele>223.852032</ele>
        <time>2022-07-29T13:46:49.803Z</time>
      </trkpt>
      <trkpt lat="43.71512" lon="1.47879">
        <ele>224.005309</ele>
        <time>2022-07-29T13:46:51.812Z</time>
      </trkpt>
      <trkpt lat="43.71522" lon="1.47888">
        <ele>224.158605</ele>
        <time>2022-07-29T13:46:53.812Z</time>
      </trkpt>
      <trkpt lat="43.71531" lon="1.47898">
        <ele>224.30355</ele>
        <time>2022-07-29T13:46:55.804Z</time>
      </trkpt>
      <trkpt lat="43.7154" lon="1.47905">
        <ele>224.441279</ele>
        <time>2022-07-29T13:46:57.802Z</time>
      </trkpt>
      <trkpt lat="43.7155" lon="1.47903">
        <ele>224.564144</ele>
        <time>2022-07-29T13:46:59.805Z</time>
      </trkpt>
      <trkpt lat="43.71557" lon="1.47892">
        <ele>224.683429</ele>
        <time>2022-07-29T13:47:01.812Z</time>
      </trkpt>
      <trkpt lat="43.71566" lon="1.4788">
        <ele>224.423975</ele>
        <time>2022-07-29T13:47:03.802Z</time>
      </trkpt>
      <trkpt lat="43.71575" lon="1.47869">
        <ele>224.162037</ele>
        <time>2022-07-29T13:47:05.815Z</time>
      </trkpt>
      <trkpt lat="43.71583" lon="1.47856">
        <ele>223.890628</ele>
        <time>2022-07-29T13:47:07.835Z</time>
      </trkpt>
      <trkpt lat="43.71591" lon="1.47843">
        <ele>223.616023</ele>
        <time>2022-07-29T13:47:09.806Z</time>
      </trkpt>
      <trkpt lat="43.716" lon="1.4783">
        <ele>223.328779</ele>
        <time>2022-07-29T13:47:11.802Z</time>
      </trkpt>
      <trkpt lat="43.71609" lon="1.47815">
        <ele>223.028663</ele>
        <time>2022-07-29T13:47:13.801Z</time>
      </trkpt>
      <trkpt lat="43.71619" lon="1.478">
        <ele>222.716194</ele>
        <time>2022-07-29T13:47:15.808Z</time>
      </trkpt>
      <trkpt lat="43.71629" lon="1.47785">
        <ele>222.392115</ele>
        <time>2022-07-29T13:47:17.816Z</time>
      </trkpt>
      <trkpt lat="43.71639" lon="1.47769">
        <ele>222.063888</ele>
        <time>2022-07-29T13:47:19.804Z</time>
      </trkpt>
      <trkpt lat="43.71649" lon="1.47753">
        <ele>221.730465</ele>
        <time>2022-07-29T13:47:21.821Z</time>
      </trkpt>
      <trkpt lat="43.71659" lon="1.47736">
        <ele>221.386112</ele>
        <time>2022-07-29T13:47:23.820Z</time>
      </trkpt>
      <trkpt lat="43.71671" lon="1.4772">
        <ele>221.035851</ele>
        <time>2022-07-29T13:47:25.804Z</time>
      </trkpt>
      <trkpt lat="43.71681" lon="1.47703">
        <ele>220.721735</ele>
        <time>2022-07-29T13:47:27.793Z</time>
      </trkpt>
      <trkpt lat="43.71691" lon="1.47686">
        <ele>220.474167</ele>
        <time>2022-07-29T13:47:29.819Z</time>
      </trkpt>
      <trkpt lat="43.71701" lon="1.4767">
        <ele>220.233623</ele>
        <time>2022-07-29T13:47:31.799Z</time>
      </trkpt>
      <trkpt lat="43.7171" lon="1.47654">
        <ele>220.000895</ele>
        <time>2022-07-29T13:47:33.814Z</time>
      </trkpt>
      <trkpt lat="43.71719" lon="1.47639">
        <ele>219.777514</ele>
        <time>2022-07-29T13:47:35.806Z</time>
      </trkpt>
      <trkpt lat="43.71729" lon="1.47625">
        <ele>219.555761</ele>
        <time>2022-07-29T13:47:37.799Z</time>
      </trkpt>
      <trkpt lat="43.71738" lon="1.47611">
        <ele>219.337372</ele>
        <time>2022-07-29T13:47:39.819Z</time>
      </trkpt>
      <trkpt lat="43.71747" lon="1.47597">
        <ele>219.122463</ele>
        <time>2022-07-29T13:47:41.808Z</time>
      </trkpt>
      <trkpt lat="43.71756" lon="1.47583">
        <ele>218.913078</ele>
        <time>2022-07-29T13:47:43.825Z</time>
      </trkpt>
      <trkpt lat="43.71764" lon="1.4757">
        <ele>218.707118</ele>
        <time>2022-07-29T13:47:45.821Z</time>
      </trkpt>
      <trkpt lat="43.71773" lon="1.47557">
        <ele>218.502007</ele>
        <time>2022-07-29T13:47:47.842Z</time>
      </trkpt>
      <trkpt lat="43.71782" lon="1.47543">
        <ele>218.293659</ele>
        <time>2022-07-29T13:47:49.806Z</time>
      </trkpt>
      <trkpt lat="43.71791" lon="1.47529">
        <ele>218.082817</ele>
        <time>2022-07-29T13:47:51.802Z</time>
      </trkpt>
      <trkpt lat="43.71799" lon="1.47515">
        <ele>217.804753</ele>
        <time>2022-07-29T13:47:53.807Z</time>
      </trkpt>
      <trkpt lat="43.71808" lon="1.47501">
        <ele>217.435688</ele>
        <time>2022-07-29T13:47:55.791Z</time>
      </trkpt>
      <trkpt lat="43.71817" lon="1.47487">
        <ele>217.066268</ele>
        <time>2022-07-29T13:47:57.815Z</time>
      </trkpt>
      <trkpt lat="43.71826" lon="1.47473">
        <ele>216.694822</ele>
        <time>2022-07-29T13:47:59.796Z</time>
      </trkpt>
      <trkpt lat="43.71835" lon="1.47458">
        <ele>216.320654</ele>
        <time>2022-07-29T13:48:01.803Z</time>
      </trkpt>
      <trkpt lat="43.71845" lon="1.47444">
        <ele>215.937631</ele>
        <time>2022-07-29T13:48:03.807Z</time>
      </trkpt>
      <trkpt lat="43.71854" lon="1.47428">
        <ele>215.538823</ele>
        <time>2022-07-29T13:48:05.813Z</time>
      </trkpt>
      <trkpt lat="43.71864" lon="1.47413">
        <ele>215.131037</ele>
        <time>2022-07-29T13:48:07.807Z</time>
      </trkpt>
      <trkpt lat="43.71874" lon="1.47397">
        <ele>214.707837</ele>
        <time>2022-07-29T13:48:09.814Z</time>
      </trkpt>
      <trkpt lat="43.71885" lon="1.4738">
        <ele>214.267861</ele>
        <time>2022-07-29T13:48:11.822Z</time>
      </trkpt>
      <trkpt lat="43.71895" lon="1.47362">
        <ele>213.815085</ele>
        <time>2022-07-29T13:48:13.808Z</time>
      </trkpt>
      <trkpt lat="43.71906" lon="1.47345">
        <ele>213.364173</ele>
        <time>2022-07-29T13:48:15.819Z</time>
      </trkpt>
      <trkpt lat="43.71917" lon="1.47328">
        <ele>212.997334</ele>
        <time>2022-07-29T13:48:17.798Z</time>
      </trkpt>
      <trkpt lat="43.71928" lon="1.47311">
        <ele>212.807642</ele>
        <time>2022-07-29T13:48:19.785Z</time>
      </trkpt>
      <trkpt lat="43.71939" lon="1.47293">
        <ele>212.622292</ele>
        <time>2022-07-29T13:48:21.799Z</time>
      </trkpt>
      <trkpt lat="43.71949" lon="1.47277">
        <ele>212.442772</ele>
        <time>2022-07-29T13:48:23.809Z</time>
      </trkpt>
      <trkpt lat="43.7196" lon="1.47261">
        <ele>212.269057</ele>
        <time>2022-07-29T13:48:25.809Z</time>
      </trkpt>
      <trkpt lat="43.71969" lon="1.47245">
        <ele>212.101053</ele>
        <time>2022-07-29T13:48:27.815Z</time>
      </trkpt>
      <trkpt lat="43.71979" lon="1.4723">
        <ele>211.935532</ele>
        <time>2022-07-29T13:48:29.800Z</time>
      </trkpt>
      <trkpt lat="43.71989" lon="1.47217">
        <ele>211.771243</ele>
        <time>2022-07-29T13:48:31.803Z</time>
      </trkpt>
      <trkpt lat="43.71999" lon="1.47203">
        <ele>211.610839</ele>
        <time>2022-07-29T13:48:33.789Z</time>
      </trkpt>
      <trkpt lat="43.72009" lon="1.47188">
        <ele>211.445712</ele>
        <time>2022-07-29T13:48:35.809Z</time>
      </trkpt>
      <trkpt lat="43.7202" lon="1.47175">
        <ele>211.284183</ele>
        <time>2022-07-29T13:48:37.799Z</time>
      </trkpt>
      <trkpt lat="43.7203" lon="1.47161">
        <ele>211.121235</ele>
        <time>2022-07-29T13:48:39.787Z</time>
      </trkpt>
      <trkpt lat="43.72041" lon="1.47148">
        <ele>210.959237</ele>
        <time>2022-07-29T13:48:41.807Z</time>
      </trkpt>
      <trkpt lat="43.72051" lon="1.47135">
        <ele>210.784592</ele>
        <time>2022-07-29T13:48:43.806Z</time>
      </trkpt>
      <trkpt lat="43.7206" lon="1.47119">
        <ele>210.611316</ele>
        <time>2022-07-29T13:48:45.794Z</time>
      </trkpt>
      <trkpt lat="43.72067" lon="1.47105">
        <ele>210.454522</ele>
        <time>2022-07-29T13:48:47.792Z</time>
      </trkpt>
      <trkpt lat="43.72076" lon="1.47099">
        <ele>210.336665</ele>
        <time>2022-07-29T13:49:02.800Z</time>
      </trkpt>
      <trkpt lat="43.72085" lon="1.47095">
        <ele>210.218713</ele>
        <time>2022-07-29T13:49:07.814Z</time>
      </trkpt>
      <trkpt lat="43.72095" lon="1.47089">
        <ele>210.08684</ele>
        <time>2022-07-29T13:49:10.810Z</time>
      </trkpt>
      <trkpt lat="43.72104" lon="1.47077">
        <ele>209.933357</ele>
        <time>2022-07-29T13:49:12.808Z</time>
      </trkpt>
      <trkpt lat="43.72114" lon="1.47067">
        <ele>209.792551</ele>
        <time>2022-07-29T13:49:14.833Z</time>
      </trkpt>
      <trkpt lat="43.72123" lon="1.47057">
        <ele>209.650651</ele>
        <time>2022-07-29T13:49:16.796Z</time>
      </trkpt>
      <trkpt lat="43.72134" lon="1.47047">
        <ele>209.480475</ele>
        <time>2022-07-29T13:49:18.800Z</time>
      </trkpt>
      <trkpt lat="43.72147" lon="1.47036">
        <ele>209.298691</ele>
        <time>2022-07-29T13:49:20.813Z</time>
      </trkpt>
      <trkpt lat="43.72159" lon="1.47026">
        <ele>209.12576</ele>
        <time>2022-07-29T13:49:22.802Z</time>
      </trkpt>
      <trkpt lat="43.72171" lon="1.47016">
        <ele>208.958207</ele>
        <time>2022-07-29T13:49:24.845Z</time>
      </trkpt>
      <trkpt lat="43.72182" lon="1.47006">
        <ele>208.896322</ele>
        <time>2022-07-29T13:49:26.800Z</time>
      </trkpt>
      <trkpt lat="43.72193" lon="1.46997">
        <ele>209.330652</ele>
        <time>2022-07-29T13:49:28.800Z</time>
      </trkpt>
      <trkpt lat="43.72206" lon="1.46986">
        <ele>209.830147</ele>
        <time>2022-07-29T13:49:30.800Z</time>
      </trkpt>
      <trkpt lat="43.7222" lon="1.46977">
        <ele>210.342434</ele>
        <time>2022-07-29T13:49:32.819Z</time>
      </trkpt>
      <trkpt lat="43.7223" lon="1.46969">
        <ele>210.737914</ele>
        <time>2022-07-29T13:49:34.798Z</time>
      </trkpt>
      <trkpt lat="43.72242" lon="1.46962">
        <ele>211.163332</ele>
        <time>2022-07-29T13:49:36.803Z</time>
      </trkpt>
      <trkpt lat="43.72254" lon="1.46952">
        <ele>211.629607</ele>
        <time>2022-07-29T13:49:38.800Z</time>
      </trkpt>
      <trkpt lat="43.72266" lon="1.46944">
        <ele>212.076556</ele>
        <time>2022-07-29T13:49:40.789Z</time>
      </trkpt>
      <trkpt lat="43.72277" lon="1.46936">
        <ele>212.497839</ele>
        <time>2022-07-29T13:49:42.832Z</time>
      </trkpt>
      <trkpt lat="43.72287" lon="1.46929">
        <ele>212.882697</ele>
        <time>2022-07-29T13:49:44.809Z</time>
      </trkpt>
      <trkpt lat="43.72296" lon="1.46924">
        <ele>213.193097</ele>
        <time>2022-07-29T13:49:47.804Z</time>
      </trkpt>
      <trkpt lat="43.723" lon="1.46938">
        <ele>213.556479</ele>
        <time>2022-07-29T13:49:51.809Z</time>
      </trkpt>
      <trkpt lat="43.72307" lon="1.46951">
        <ele>213.965156</ele>
        <time>2022-07-29T13:49:55.781Z</time>
      </trkpt>
      <trkpt lat="43.72312" lon="1.46963">
        <ele>214.284576</ele>
        <time>2022-07-29T13:49:59.789Z</time>
      </trkpt>
      <trkpt lat="43.72317" lon="1.46974">
        <ele>214.597765</ele>
        <time>2022-07-29T13:50:02.794Z</time>
      </trkpt>
      <trkpt lat="43.72326" lon="1.4697">
        <ele>214.999501</ele>
        <time>2022-07-29T13:50:05.812Z</time>
      </trkpt>
      <trkpt lat="43.72336" lon="1.46966">
        <ele>215.633714</ele>
        <time>2022-07-29T13:50:08.808Z</time>
      </trkpt>
      <trkpt lat="43.72344" lon="1.4697">
        <ele>216.203054</ele>
        <time>2022-07-29T13:50:11.824Z</time>
      </trkpt>
      <trkpt lat="43.72351" lon="1.46982">
        <ele>216.862762</ele>
        <time>2022-07-29T13:50:15.805Z</time>
      </trkpt>
      <trkpt lat="43.72356" lon="1.46993">
        <ele>217.467612</ele>
        <time>2022-07-29T13:50:18.812Z</time>
      </trkpt>
      <trkpt lat="43.72357" lon="1.47009">
        <ele>218.222921</ele>
        <time>2022-07-29T13:50:21.816Z</time>
      </trkpt>
      <trkpt lat="43.72359" lon="1.47023">
        <ele>218.839293</ele>
        <time>2022-07-29T13:50:24.816Z</time>
      </trkpt>
      <trkpt lat="43.72358" lon="1.47039">
        <ele>219.574528</ele>
        <time>2022-07-29T13:50:27.790Z</time>
      </trkpt>
      <trkpt lat="43.72367" lon="1.47043">
        <ele>220.179699</ele>
        <time>2022-07-29T13:50:31.819Z</time>
      </trkpt>
      <trkpt lat="43.7238" lon="1.47038">
        <ele>221.049607</ele>
        <time>2022-07-29T13:50:34.816Z</time>
      </trkpt>
      <trkpt lat="43.72391" lon="1.47038">
        <ele>221.729051</ele>
        <time>2022-07-29T13:50:36.818Z</time>
      </trkpt>
      <trkpt lat="43.72402" lon="1.47045">
        <ele>222.502182</ele>
        <time>2022-07-29T13:50:39.825Z</time>
      </trkpt>
      <trkpt lat="43.72409" lon="1.47058">
        <ele>223.257581</ele>
        <time>2022-07-29T13:50:42.801Z</time>
      </trkpt>
      <trkpt lat="43.72421" lon="1.47068">
        <ele>224.106425</ele>
        <time>2022-07-29T13:50:45.814Z</time>
      </trkpt>
      <trkpt lat="43.72432" lon="1.47075">
        <ele>224.889186</ele>
        <time>2022-07-29T13:50:47.813Z</time>
      </trkpt>
      <trkpt lat="43.72437" lon="1.47089">
        <ele>225.61141</ele>
        <time>2022-07-29T13:50:49.830Z</time>
      </trkpt>
      <trkpt lat="43.72442" lon="1.47104">
        <ele>226.051861</ele>
        <time>2022-07-29T13:50:51.831Z</time>
      </trkpt>
      <trkpt lat="43.72449" lon="1.47117">
        <ele>225.674468</ele>
        <time>2022-07-29T13:50:53.831Z</time>
      </trkpt>
      <trkpt lat="43.72457" lon="1.47129">
        <ele>225.284009</ele>
        <time>2022-07-29T13:50:55.797Z</time>
      </trkpt>
      <trkpt lat="43.72464" lon="1.4714">
        <ele>224.949979</ele>
        <time>2022-07-29T13:50:57.833Z</time>
      </trkpt>
      <trkpt lat="43.72465" lon="1.47156">
        <ele>224.576532</ele>
        <time>2022-07-29T13:51:00.818Z</time>
      </trkpt>
      <trkpt lat="43.72453" lon="1.47167">
        <ele>224.119399</ele>
        <time>2022-07-29T13:51:03.805Z</time>
      </trkpt>
      <trkpt lat="43.72445" lon="1.47177">
        <ele>223.76344</ele>
        <time>2022-07-29T13:51:05.811Z</time>
      </trkpt>
      <trkpt lat="43.72437" lon="1.47187">
        <ele>223.420235</ele>
        <time>2022-07-29T13:51:07.806Z</time>
      </trkpt>
      <trkpt lat="43.72434" lon="1.47201">
        <ele>223.08303</ele>
        <time>2022-07-29T13:51:10.786Z</time>
      </trkpt>
      <trkpt lat="43.72444" lon="1.47215">
        <ele>222.611948</ele>
        <time>2022-07-29T13:51:13.800Z</time>
      </trkpt>
      <trkpt lat="43.72455" lon="1.47227">
        <ele>222.177808</ele>
        <time>2022-07-29T13:51:15.806Z</time>
      </trkpt>
      <trkpt lat="43.72466" lon="1.47241">
        <ele>221.683131</ele>
        <time>2022-07-29T13:51:17.795Z</time>
      </trkpt>
      <trkpt lat="43.72478" lon="1.47256">
        <ele>221.165023</ele>
        <time>2022-07-29T13:51:19.817Z</time>
      </trkpt>
      <trkpt lat="43.72491" lon="1.47273">
        <ele>220.612393</ele>
        <time>2022-07-29T13:51:21.809Z</time>
      </trkpt>
      <trkpt lat="43.72502" lon="1.4729">
        <ele>220.075802</ele>
        <time>2022-07-29T13:51:23.811Z</time>
      </trkpt>
      <trkpt lat="43.72512" lon="1.47305">
        <ele>219.610425</ele>
        <time>2022-07-29T13:51:25.837Z</time>
      </trkpt>
      <trkpt lat="43.72521" lon="1.4731">
        <ele>219.323443</ele>
        <time>2022-07-29T13:51:27.809Z</time>
      </trkpt>
      <trkpt lat="43.72533" lon="1.47312">
        <ele>218.924457</ele>
        <time>2022-07-29T13:51:29.816Z</time>
      </trkpt>
      <trkpt lat="43.72546" lon="1.47316">
        <ele>218.510953</ele>
        <time>2022-07-29T13:51:31.826Z</time>
      </trkpt>
      <trkpt lat="43.72557" lon="1.47309">
        <ele>218.121963</ele>
        <time>2022-07-29T13:51:34.788Z</time>
      </trkpt>
      <trkpt lat="43.7256" lon="1.47297">
        <ele>217.823313</ele>
        <time>2022-07-29T13:51:36.811Z</time>
      </trkpt>
      <trkpt lat="43.7256" lon="1.47281">
        <ele>217.454441</ele>
        <time>2022-07-29T13:51:38.817Z</time>
      </trkpt>
      <trkpt lat="43.72559" lon="1.47267">
        <ele>217.141817</ele>
        <time>2022-07-29T13:51:40.814Z</time>
      </trkpt>
      <trkpt lat="43.72558" lon="1.47254">
        <ele>216.850616</ele>
        <time>2022-07-29T13:51:42.833Z</time>
      </trkpt>
      <trkpt lat="43.72554" lon="1.47242">
        <ele>216.553946</ele>
        <time>2022-07-29T13:51:45.815Z</time>
      </trkpt>
      <trkpt lat="43.72551" lon="1.47226">
        <ele>216.174049</ele>
        <time>2022-07-29T13:51:49.814Z</time>
      </trkpt>
      <trkpt lat="43.72553" lon="1.4721">
        <ele>215.80493</ele>
        <time>2022-07-29T13:51:52.796Z</time>
      </trkpt>
      <trkpt lat="43.72556" lon="1.47196">
        <ele>215.467568</ele>
        <time>2022-07-29T13:51:55.798Z</time>
      </trkpt>
      <trkpt lat="43.7256" lon="1.47183">
        <ele>215.145293</ele>
        <time>2022-07-29T13:51:57.857Z</time>
      </trkpt>
      <trkpt lat="43.72564" lon="1.47167">
        <ele>214.76199</ele>
        <time>2022-07-29T13:51:59.806Z</time>
      </trkpt>
      <trkpt lat="43.72573" lon="1.47155">
        <ele>213.91686</ele>
        <time>2022-07-29T13:52:02.791Z</time>
      </trkpt>
      <trkpt lat="43.72582" lon="1.47154">
        <ele>213.20255</ele>
        <time>2022-07-29T13:52:06.813Z</time>
      </trkpt>
      <trkpt lat="43.72591" lon="1.47148">
        <ele>212.478227</ele>
        <time>2022-07-29T13:52:10.807Z</time>
      </trkpt>
      <trkpt lat="43.72597" lon="1.47136">
        <ele>211.701509</ele>
        <time>2022-07-29T13:52:14.801Z</time>
      </trkpt>
      <trkpt lat="43.72606" lon="1.47129">
        <ele>210.961214</ele>
        <time>2022-07-29T13:52:17.805Z</time>
      </trkpt>
      <trkpt lat="43.72611" lon="1.47117">
        <ele>210.2338</ele>
        <time>2022-07-29T13:52:20.806Z</time>
      </trkpt>
      <trkpt lat="43.72617" lon="1.47109">
        <ele>209.562334</ele>
        <time>2022-07-29T13:52:23.797Z</time>
      </trkpt>
      <trkpt lat="43.72623" lon="1.47099">
        <ele>208.881073</ele>
        <time>2022-07-29T13:52:26.810Z</time>
      </trkpt>
      <trkpt lat="43.72633" lon="1.47093">
        <ele>208.101012</ele>
        <time>2022-07-29T13:52:29.807Z</time>
      </trkpt>
      <trkpt lat="43.72639" lon="1.47083">
        <ele>207.377248</ele>
        <time>2022-07-29T13:52:31.798Z</time>
      </trkpt>
      <trkpt lat="43.72652" lon="1.47069">
        <ele>206.152608</ele>
        <time>2022-07-29T13:52:33.794Z</time>
      </trkpt>
      <trkpt lat="43.7266" lon="1.47058">
        <ele>205.33749</ele>
        <time>2022-07-29T13:52:36.814Z</time>
      </trkpt>
      <trkpt lat="43.72668" lon="1.47046">
        <ele>204.458748</ele>
        <time>2022-07-29T13:52:39.824Z</time>
      </trkpt>
      <trkpt lat="43.72675" lon="1.47037">
        <ele>203.763533</ele>
        <time>2022-07-29T13:52:41.817Z</time>
      </trkpt>
      <trkpt lat="43.72683" lon="1.47028">
        <ele>202.98333</ele>
        <time>2022-07-29T13:52:44.807Z</time>
      </trkpt>
      <trkpt lat="43.72694" lon="1.47012">
        <ele>201.816933</ele>
        <time>2022-07-29T13:52:46.808Z</time>
      </trkpt>
      <trkpt lat="43.72692" lon="1.47">
        <ele>201.426767</ele>
        <time>2022-07-29T13:52:49.789Z</time>
      </trkpt>
      <trkpt lat="43.72686" lon="1.46989">
        <ele>201.5022</ele>
        <time>2022-07-29T13:52:51.808Z</time>
      </trkpt>
      <trkpt lat="43.72678" lon="1.46981">
        <ele>201.577616</ele>
        <time>2022-07-29T13:52:53.798Z</time>
      </trkpt>
      <trkpt lat="43.72671" lon="1.46973">
        <ele>201.652075</ele>
        <time>2022-07-29T13:52:55.766Z</time>
      </trkpt>
      <trkpt lat="43.7266" lon="1.46961">
        <ele>201.758366</ele>
        <time>2022-07-29T13:52:57.781Z</time>
      </trkpt>
      <trkpt lat="43.7265" lon="1.46953">
        <ele>201.848045</ele>
        <time>2022-07-29T13:52:59.791Z</time>
      </trkpt>
      <trkpt lat="43.72641" lon="1.46944">
        <ele>201.933845</ele>
        <time>2022-07-29T13:53:01.784Z</time>
      </trkpt>
      <trkpt lat="43.72632" lon="1.46934">
        <ele>202.025691</ele>
        <time>2022-07-29T13:53:03.785Z</time>
      </trkpt>
      <trkpt lat="43.72621" lon="1.46923">
        <ele>202.12805</ele>
        <time>2022-07-29T13:53:05.781Z</time>
      </trkpt>
      <trkpt lat="43.72613" lon="1.46915">
        <ele>202.208164</ele>
        <time>2022-07-29T13:53:07.785Z</time>
      </trkpt>
      <trkpt lat="43.72604" lon="1.46905">
        <ele>202.297956</ele>
        <time>2022-07-29T13:53:09.799Z</time>
      </trkpt>
      <trkpt lat="43.72595" lon="1.46896">
        <ele>202.383363</ele>
        <time>2022-07-29T13:53:11.794Z</time>
      </trkpt>
      <trkpt lat="43.72586" lon="1.46887">
        <ele>202.47041</ele>
        <time>2022-07-29T13:53:13.778Z</time>
      </trkpt>
      <trkpt lat="43.72575" lon="1.46876">
        <ele>202.578528</ele>
        <time>2022-07-29T13:53:15.788Z</time>
      </trkpt>
      <trkpt lat="43.72564" lon="1.46865">
        <ele>202.67929</ele>
        <time>2022-07-29T13:53:17.781Z</time>
      </trkpt>
      <trkpt lat="43.72554" lon="1.46858">
        <ele>202.769148</ele>
        <time>2022-07-29T13:53:19.780Z</time>
      </trkpt>
      <trkpt lat="43.72542" lon="1.46853">
        <ele>202.863502</ele>
        <time>2022-07-29T13:53:21.787Z</time>
      </trkpt>
      <trkpt lat="43.72529" lon="1.46849">
        <ele>202.965661</ele>
        <time>2022-07-29T13:53:23.789Z</time>
      </trkpt>
      <trkpt lat="43.72516" lon="1.46845">
        <ele>203.063042</ele>
        <time>2022-07-29T13:53:25.805Z</time>
      </trkpt>
      <trkpt lat="43.72504" lon="1.46842">
        <ele>203.154691</ele>
        <time>2022-07-29T13:53:27.789Z</time>
      </trkpt>
      <trkpt lat="43.72493" lon="1.46837">
        <ele>203.241588</ele>
        <time>2022-07-29T13:53:29.781Z</time>
      </trkpt>
      <trkpt lat="43.72481" lon="1.46836">
        <ele>203.331873</ele>
        <time>2022-07-29T13:53:31.801Z</time>
      </trkpt>
      <trkpt lat="43.7247" lon="1.46836">
        <ele>203.417966</ele>
        <time>2022-07-29T13:53:33.786Z</time>
      </trkpt>
      <trkpt lat="43.72458" lon="1.46836">
        <ele>203.504869</ele>
        <time>2022-07-29T13:53:35.782Z</time>
      </trkpt>
      <trkpt lat="43.72447" lon="1.46838">
        <ele>203.590966</ele>
        <time>2022-07-29T13:53:37.778Z</time>
      </trkpt>
      <trkpt lat="43.72436" lon="1.46841">
        <ele>203.677325</ele>
        <time>2022-07-29T13:53:39.784Z</time>
      </trkpt>
      <trkpt lat="43.72425" lon="1.46846">
        <ele>203.765394</ele>
        <time>2022-07-29T13:53:41.793Z</time>
      </trkpt>
      <trkpt lat="43.72413" lon="1.46851">
        <ele>203.855066</ele>
        <time>2022-07-29T13:53:43.781Z</time>
      </trkpt>
      <trkpt lat="43.72402" lon="1.46856">
        <ele>203.943934</ele>
        <time>2022-07-29T13:53:45.772Z</time>
      </trkpt>
      <trkpt lat="43.72391" lon="1.4686">
        <ele>204.02836</ele>
        <time>2022-07-29T13:53:47.810Z</time>
      </trkpt>
      <trkpt lat="43.72381" lon="1.46866">
        <ele>204.115904</ele>
        <time>2022-07-29T13:53:49.799Z</time>
      </trkpt>
      <trkpt lat="43.72371" lon="1.46872">
        <ele>203.968941</ele>
        <time>2022-07-29T13:53:51.785Z</time>
      </trkpt>
      <trkpt lat="43.72362" lon="1.46878">
        <ele>203.586141</ele>
        <time>2022-07-29T13:53:53.780Z</time>
      </trkpt>
      <trkpt lat="43.72351" lon="1.46883">
        <ele>203.135556</ele>
        <time>2022-07-29T13:53:57.786Z</time>
      </trkpt>
      <trkpt lat="43.72349" lon="1.46869">
        <ele>202.729078</ele>
        <time>2022-07-29T13:54:01.804Z</time>
      </trkpt>
      <trkpt lat="43.72347" lon="1.46857">
        <ele>202.384888</ele>
        <time>2022-07-29T13:54:05.787Z</time>
      </trkpt>
      <trkpt lat="43.72342" lon="1.46842">
        <ele>201.932158</ele>
        <time>2022-07-29T13:54:07.791Z</time>
      </trkpt>
      <trkpt lat="43.7234" lon="1.46827">
        <ele>201.527029</ele>
        <time>2022-07-29T13:54:11.804Z</time>
      </trkpt>
      <trkpt lat="43.72349" lon="1.46821">
        <ele>201.153254</ele>
        <time>2022-07-29T13:54:15.800Z</time>
      </trkpt>
      <trkpt lat="43.72358" lon="1.46811">
        <ele>200.733638</ele>
        <time>2022-07-29T13:54:18.808Z</time>
      </trkpt>
      <trkpt lat="43.7237" lon="1.46803">
        <ele>200.212904</ele>
        <time>2022-07-29T13:54:21.794Z</time>
      </trkpt>
      <trkpt lat="43.72381" lon="1.46797">
        <ele>199.770352</ele>
        <time>2022-07-29T13:54:23.792Z</time>
      </trkpt>
      <trkpt lat="43.72392" lon="1.4679">
        <ele>199.3117</ele>
        <time>2022-07-29T13:54:25.787Z</time>
      </trkpt>
      <trkpt lat="43.724" lon="1.46778">
        <ele>198.870986</ele>
        <time>2022-07-29T13:54:27.796Z</time>
      </trkpt>
      <trkpt lat="43.72395" lon="1.46752">
        <ele>198.11373</ele>
        <time>2022-07-29T13:54:46.802Z</time>
      </trkpt>
      <trkpt lat="43.72396" lon="1.46738">
        <ele>197.727245</ele>
        <time>2022-07-29T13:54:49.792Z</time>
      </trkpt>
      <trkpt lat="43.72394" lon="1.46724">
        <ele>197.347093</ele>
        <time>2022-07-29T13:54:52.774Z</time>
      </trkpt>
      <trkpt lat="43.72386" lon="1.46716">
        <ele>197.322027</ele>
        <time>2022-07-29T13:54:55.784Z</time>
      </trkpt>
      <trkpt lat="43.72376" lon="1.46712">
        <ele>197.318233</ele>
        <time>2022-07-29T13:54:58.782Z</time>
      </trkpt>
      <trkpt lat="43.72385" lon="1.46721">
        <ele>197.314026</ele>
        <time>2022-07-29T13:55:06.797Z</time>
      </trkpt>
      <trkpt lat="43.72394" lon="1.46726">
        <ele>197.310297</ele>
        <time>2022-07-29T13:55:08.798Z</time>
      </trkpt>
      <trkpt lat="43.72397" lon="1.46744">
        <ele>197.305427</ele>
        <time>2022-07-29T13:55:11.799Z</time>
      </trkpt>
      <trkpt lat="43.72391" lon="1.46758">
        <ele>197.30132</ele>
        <time>2022-07-29T13:55:14.806Z</time>
      </trkpt>
      <trkpt lat="43.72379" lon="1.46762">
        <ele>197.296765</ele>
        <time>2022-07-29T13:55:17.791Z</time>
      </trkpt>
      <trkpt lat="43.7237" lon="1.46769">
        <ele>197.292902</ele>
        <time>2022-07-29T13:55:19.797Z</time>
      </trkpt>
      <trkpt lat="43.7236" lon="1.46776">
        <ele>197.288931</ele>
        <time>2022-07-29T13:55:21.787Z</time>
      </trkpt>
      <trkpt lat="43.72351" lon="1.46784">
        <ele>197.284856</ele>
        <time>2022-07-29T13:55:23.791Z</time>
      </trkpt>
      <trkpt lat="43.72341" lon="1.46792">
        <ele>197.280536</ele>
        <time>2022-07-29T13:55:25.795Z</time>
      </trkpt>
      <trkpt lat="43.7233" lon="1.46796">
        <ele>197.27633</ele>
        <time>2022-07-29T13:55:27.794Z</time>
      </trkpt>
      <trkpt lat="43.72319" lon="1.46801">
        <ele>197.272223</ele>
        <time>2022-07-29T13:55:29.790Z</time>
      </trkpt>
      <trkpt lat="43.72309" lon="1.46808">
        <ele>197.268006</ele>
        <time>2022-07-29T13:55:31.786Z</time>
      </trkpt>
      <trkpt lat="43.72297" lon="1.46817">
        <ele>197.263315</ele>
        <time>2022-07-29T13:55:33.784Z</time>
      </trkpt>
      <trkpt lat="43.72288" lon="1.46826">
        <ele>197.274105</ele>
        <time>2022-07-29T13:55:35.798Z</time>
      </trkpt>
      <trkpt lat="43.72279" lon="1.46834">
        <ele>197.377238</ele>
        <time>2022-07-29T13:55:37.773Z</time>
      </trkpt>
      <trkpt lat="43.72258" lon="1.46848">
        <ele>197.611919</ele>
        <time>2022-07-29T13:55:59.798Z</time>
      </trkpt>
      <trkpt lat="43.72247" lon="1.46857">
        <ele>197.743119</ele>
        <time>2022-07-29T13:56:02.787Z</time>
      </trkpt>
      <trkpt lat="43.72237" lon="1.46866">
        <ele>197.864057</ele>
        <time>2022-07-29T13:56:04.777Z</time>
      </trkpt>
      <trkpt lat="43.72228" lon="1.46875">
        <ele>197.976318</ele>
        <time>2022-07-29T13:56:06.792Z</time>
      </trkpt>
      <trkpt lat="43.72219" lon="1.46881">
        <ele>198.07758</ele>
        <time>2022-07-29T13:56:08.783Z</time>
      </trkpt>
      <trkpt lat="43.72207" lon="1.4689">
        <ele>198.210475</ele>
        <time>2022-07-29T13:56:11.784Z</time>
      </trkpt>
      <trkpt lat="43.72198" lon="1.46896">
        <ele>198.310512</ele>
        <time>2022-07-29T13:56:14.780Z</time>
      </trkpt>
      <trkpt lat="43.72187" lon="1.46903">
        <ele>198.434293</ele>
        <time>2022-07-29T13:56:17.788Z</time>
      </trkpt>
      <trkpt lat="43.72179" lon="1.46911">
        <ele>198.53272</ele>
        <time>2022-07-29T13:56:19.789Z</time>
      </trkpt>
      <trkpt lat="43.72171" lon="1.46921">
        <ele>198.640141</ele>
        <time>2022-07-29T13:56:21.790Z</time>
      </trkpt>
      <trkpt lat="43.72164" lon="1.46929">
        <ele>198.732364</ele>
        <time>2022-07-29T13:56:23.778Z</time>
      </trkpt>
      <trkpt lat="43.72156" lon="1.46937">
        <ele>198.837612</ele>
        <time>2022-07-29T13:56:25.813Z</time>
      </trkpt>
      <trkpt lat="43.72146" lon="1.46948">
        <ele>198.963175</ele>
        <time>2022-07-29T13:56:27.796Z</time>
      </trkpt>
      <trkpt lat="43.72138" lon="1.46954">
        <ele>199.057834</ele>
        <time>2022-07-29T13:56:29.790Z</time>
      </trkpt>
      <trkpt lat="43.72128" lon="1.46959">
        <ele>199.546339</ele>
        <time>2022-07-29T13:56:31.796Z</time>
      </trkpt>
      <trkpt lat="43.72116" lon="1.46968">
        <ele>200.255893</ele>
        <time>2022-07-29T13:56:33.797Z</time>
      </trkpt>
      <trkpt lat="43.72105" lon="1.46977">
        <ele>200.966313</ele>
        <time>2022-07-29T13:56:35.800Z</time>
      </trkpt>
      <trkpt lat="43.72095" lon="1.46984">
        <ele>201.563635</ele>
        <time>2022-07-29T13:56:37.793Z</time>
      </trkpt>
      <trkpt lat="43.72085" lon="1.46992">
        <ele>202.220676</ele>
        <time>2022-07-29T13:56:39.774Z</time>
      </trkpt>
      <trkpt lat="43.72075" lon="1.46999">
        <ele>202.800845</ele>
        <time>2022-07-29T13:56:41.793Z</time>
      </trkpt>
      <trkpt lat="43.72063" lon="1.47003">
        <ele>203.436909</ele>
        <time>2022-07-29T13:56:43.806Z</time>
      </trkpt>
      <trkpt lat="43.72054" lon="1.47005">
        <ele>203.934874</ele>
        <time>2022-07-29T13:56:45.792Z</time>
      </trkpt>
      <trkpt lat="43.72045" lon="1.47008">
        <ele>204.450894</ele>
        <time>2022-07-29T13:56:48.800Z</time>
      </trkpt>
      <trkpt lat="43.72033" lon="1.47013">
        <ele>205.128973</ele>
        <time>2022-07-29T13:56:51.816Z</time>
      </trkpt>
      <trkpt lat="43.72023" lon="1.47017">
        <ele>205.691396</ele>
        <time>2022-07-29T13:56:55.807Z</time>
      </trkpt>
      <trkpt lat="43.72016" lon="1.47008">
        <ele>206.178215</ele>
        <time>2022-07-29T13:57:02.803Z</time>
      </trkpt>
      <trkpt lat="43.72005" lon="1.47001">
        <ele>206.841476</ele>
        <time>2022-07-29T13:57:14.833Z</time>
      </trkpt>
      <trkpt lat="43.72007" lon="1.46986">
        <ele>207.404442</ele>
        <time>2022-07-29T13:57:22.799Z</time>
      </trkpt>
      <trkpt lat="43.72011" lon="1.46975">
        <ele>207.909204</ele>
        <time>2022-07-29T13:57:26.800Z</time>
      </trkpt>
      <trkpt lat="43.72019" lon="1.46968">
        <ele>208.428447</ele>
        <time>2022-07-29T13:57:31.797Z</time>
      </trkpt>
      <trkpt lat="43.72029" lon="1.46962">
        <ele>208.682956</ele>
        <time>2022-07-29T13:57:34.812Z</time>
      </trkpt>
      <trkpt lat="43.72039" lon="1.46955">
        <ele>208.506026</ele>
        <time>2022-07-29T13:57:38.808Z</time>
      </trkpt>
      <trkpt lat="43.72052" lon="1.46943">
        <ele>208.258643</ele>
        <time>2022-07-29T13:57:47.807Z</time>
      </trkpt>
      <trkpt lat="43.72063" lon="1.46945">
        <ele>208.084948</ele>
        <time>2022-07-29T13:57:54.802Z</time>
      </trkpt>
      <trkpt lat="43.72077" lon="1.46947">
        <ele>207.865391</ele>
        <time>2022-07-29T13:57:57.795Z</time>
      </trkpt>
      <trkpt lat="43.72089" lon="1.46946">
        <ele>207.677184</ele>
        <time>2022-07-29T13:58:00.801Z</time>
      </trkpt>
      <trkpt lat="43.72098" lon="1.46944">
        <ele>207.527955</ele>
        <time>2022-07-29T13:58:03.786Z</time>
      </trkpt>
      <trkpt lat="43.72105" lon="1.46933">
        <ele>207.357771</ele>
        <time>2022-07-29T13:58:06.773Z</time>
      </trkpt>
      <trkpt lat="43.72114" lon="1.46922">
        <ele>207.173781</ele>
        <time>2022-07-29T13:58:09.796Z</time>
      </trkpt>
      <trkpt lat="43.72125" lon="1.46913">
        <ele>206.9724</ele>
        <time>2022-07-29T13:58:12.821Z</time>
      </trkpt>
      <trkpt lat="43.72134" lon="1.46906">
        <ele>206.810439</ele>
        <time>2022-07-29T13:58:14.786Z</time>
      </trkpt>
      <trkpt lat="43.72141" lon="1.46897">
        <ele>206.665021</ele>
        <time>2022-07-29T13:58:16.805Z</time>
      </trkpt>
      <trkpt lat="43.7215" lon="1.4689">
        <ele>206.48949</ele>
        <time>2022-07-29T13:58:19.796Z</time>
      </trkpt>
      <trkpt lat="43.72158" lon="1.46879">
        <ele>206.320651</ele>
        <time>2022-07-29T13:58:23.811Z</time>
      </trkpt>
      <trkpt lat="43.72166" lon="1.46867">
        <ele>206.137148</ele>
        <time>2022-07-29T13:58:26.795Z</time>
      </trkpt>
      <trkpt lat="43.72173" lon="1.46857">
        <ele>205.97398</ele>
        <time>2022-07-29T13:58:29.800Z</time>
      </trkpt>
      <trkpt lat="43.72182" lon="1.46845">
        <ele>205.842179</ele>
        <time>2022-07-29T13:58:32.806Z</time>
      </trkpt>
      <trkpt lat="43.72189" lon="1.46837">
        <ele>205.764208</ele>
        <time>2022-07-29T13:58:34.793Z</time>
      </trkpt>
      <trkpt lat="43.72202" lon="1.4683">
        <ele>205.654994</ele>
        <time>2022-07-29T13:58:37.810Z</time>
      </trkpt>
      <trkpt lat="43.72213" lon="1.46825">
        <ele>205.556948</ele>
        <time>2022-07-29T13:58:39.788Z</time>
      </trkpt>
      <trkpt lat="43.72221" lon="1.46819">
        <ele>205.47622</ele>
        <time>2022-07-29T13:58:41.810Z</time>
      </trkpt>
      <trkpt lat="43.72231" lon="1.46815">
        <ele>205.392846</ele>
        <time>2022-07-29T13:58:43.798Z</time>
      </trkpt>
      <trkpt lat="43.72239" lon="1.46808">
        <ele>205.310175</ele>
        <time>2022-07-29T13:58:45.802Z</time>
      </trkpt>
      <trkpt lat="43.72248" lon="1.46803">
        <ele>205.230553</ele>
        <time>2022-07-29T13:58:47.809Z</time>
      </trkpt>
      <trkpt lat="43.72257" lon="1.46802">
        <ele>205.150179</ele>
        <time>2022-07-29T13:58:50.803Z</time>
      </trkpt>
      <trkpt lat="43.72267" lon="1.46792">
        <ele>205.047198</ele>
        <time>2022-07-29T13:58:53.812Z</time>
      </trkpt>
      <trkpt lat="43.72274" lon="1.46784">
        <ele>204.966761</ele>
        <time>2022-07-29T13:58:55.808Z</time>
      </trkpt>
      <trkpt lat="43.7228" lon="1.46767">
        <ele>204.854589</ele>
        <time>2022-07-29T13:58:58.796Z</time>
      </trkpt>
      <trkpt lat="43.72299" lon="1.4674">
        <ele>204.62466</ele>
        <time>2022-07-29T13:59:19.800Z</time>
      </trkpt>
      <trkpt lat="43.72302" lon="1.46724">
        <ele>204.524096</ele>
        <time>2022-07-29T13:59:29.807Z</time>
      </trkpt>
      <trkpt lat="43.72293" lon="1.46718">
        <ele>204.438784</ele>
        <time>2022-07-29T13:59:36.790Z</time>
      </trkpt>
      <trkpt lat="43.72298" lon="1.46706">
        <ele>204.679346</ele>
        <time>2022-07-29T13:59:42.821Z</time>
      </trkpt>
      <trkpt lat="43.72306" lon="1.46697">
        <ele>205.18292</ele>
        <time>2022-07-29T13:59:50.822Z</time>
      </trkpt>
      <trkpt lat="43.7231" lon="1.46685">
        <ele>205.641811</ele>
        <time>2022-07-29T13:59:55.822Z</time>
      </trkpt>
      <trkpt lat="43.72302" lon="1.46676">
        <ele>206.145094</ele>
        <time>2022-07-29T13:59:58.803Z</time>
      </trkpt>
      <trkpt lat="43.72294" lon="1.46666">
        <ele>206.631262</ele>
        <time>2022-07-29T14:00:00.795Z</time>
      </trkpt>
      <trkpt lat="43.72287" lon="1.46658">
        <ele>207.080425</ele>
        <time>2022-07-29T14:00:02.830Z</time>
      </trkpt>
      <trkpt lat="43.72277" lon="1.46651">
        <ele>207.608876</ele>
        <time>2022-07-29T14:00:04.824Z</time>
      </trkpt>
      <trkpt lat="43.72268" lon="1.46643">
        <ele>208.118818</ele>
        <time>2022-07-29T14:00:06.814Z</time>
      </trkpt>
      <trkpt lat="43.72259" lon="1.46637">
        <ele>208.597315</ele>
        <time>2022-07-29T14:00:08.803Z</time>
      </trkpt>
      <trkpt lat="43.7225" lon="1.46632">
        <ele>209.064039</ele>
        <time>2022-07-29T14:00:10.803Z</time>
      </trkpt>
      <trkpt lat="43.72241" lon="1.46626">
        <ele>209.52673</ele>
        <time>2022-07-29T14:00:12.815Z</time>
      </trkpt>
      <trkpt lat="43.72231" lon="1.46621">
        <ele>210.006805</ele>
        <time>2022-07-29T14:00:14.805Z</time>
      </trkpt>
      <trkpt lat="43.72222" lon="1.46619">
        <ele>210.441884</ele>
        <time>2022-07-29T14:00:16.829Z</time>
      </trkpt>
      <trkpt lat="43.72209" lon="1.46616">
        <ele>211.072182</ele>
        <time>2022-07-29T14:00:19.807Z</time>
      </trkpt>
      <trkpt lat="43.722" lon="1.46614">
        <ele>211.536749</ele>
        <time>2022-07-29T14:00:21.804Z</time>
      </trkpt>
      <trkpt lat="43.7219" lon="1.46611">
        <ele>212.010416</ele>
        <time>2022-07-29T14:00:23.794Z</time>
      </trkpt>
      <trkpt lat="43.7218" lon="1.46608">
        <ele>212.491492</ele>
        <time>2022-07-29T14:00:25.791Z</time>
      </trkpt>
      <trkpt lat="43.72171" lon="1.46603">
        <ele>212.93833</ele>
        <time>2022-07-29T14:00:27.794Z</time>
      </trkpt>
      <trkpt lat="43.72169" lon="1.46589">
        <ele>212.699863</ele>
        <time>2022-07-29T14:00:30.819Z</time>
      </trkpt>
      <trkpt lat="43.72173" lon="1.46573">
        <ele>212.422497</ele>
        <time>2022-07-29T14:00:32.793Z</time>
      </trkpt>
      <trkpt lat="43.7218" lon="1.46558">
        <ele>212.135316</ele>
        <time>2022-07-29T14:00:34.807Z</time>
      </trkpt>
      <trkpt lat="43.72187" lon="1.46542">
        <ele>211.826329</ele>
        <time>2022-07-29T14:00:36.813Z</time>
      </trkpt>
      <trkpt lat="43.72196" lon="1.46526">
        <ele>211.505412</ele>
        <time>2022-07-29T14:00:38.803Z</time>
      </trkpt>
      <trkpt lat="43.72202" lon="1.46509">
        <ele>211.186359</ele>
        <time>2022-07-29T14:00:40.809Z</time>
      </trkpt>
      <trkpt lat="43.72209" lon="1.46493">
        <ele>210.881426</ele>
        <time>2022-07-29T14:00:42.801Z</time>
      </trkpt>
      <trkpt lat="43.72219" lon="1.46486">
        <ele>210.646311</ele>
        <time>2022-07-29T14:00:44.800Z</time>
      </trkpt>
      <trkpt lat="43.72229" lon="1.46487">
        <ele>210.415689</ele>
        <time>2022-07-29T14:00:46.830Z</time>
      </trkpt>
      <trkpt lat="43.72241" lon="1.46495">
        <ele>210.11887</ele>
        <time>2022-07-29T14:00:48.797Z</time>
      </trkpt>
      <trkpt lat="43.72251" lon="1.46505">
        <ele>209.831501</ele>
        <time>2022-07-29T14:00:50.809Z</time>
      </trkpt>
      <trkpt lat="43.72262" lon="1.46513">
        <ele>209.551832</ele>
        <time>2022-07-29T14:00:52.818Z</time>
      </trkpt>
      <trkpt lat="43.7227" lon="1.4652">
        <ele>209.347914</ele>
        <time>2022-07-29T14:00:54.815Z</time>
      </trkpt>
      <trkpt lat="43.7228" lon="1.46531">
        <ele>209.056155</ele>
        <time>2022-07-29T14:00:56.823Z</time>
      </trkpt>
      <trkpt lat="43.7229" lon="1.4654">
        <ele>208.717273</ele>
        <time>2022-07-29T14:00:58.821Z</time>
      </trkpt>
      <trkpt lat="43.72303" lon="1.4655">
        <ele>208.179988</ele>
        <time>2022-07-29T14:01:00.844Z</time>
      </trkpt>
      <trkpt lat="43.72315" lon="1.46562">
        <ele>207.64335</ele>
        <time>2022-07-29T14:01:02.814Z</time>
      </trkpt>
      <trkpt lat="43.72322" lon="1.46571">
        <ele>207.292767</ele>
        <time>2022-07-29T14:01:04.817Z</time>
      </trkpt>
      <trkpt lat="43.7233" lon="1.46577">
        <ele>206.964373</ele>
        <time>2022-07-29T14:01:08.832Z</time>
      </trkpt>
      <trkpt lat="43.72341" lon="1.4657">
        <ele>206.525769</ele>
        <time>2022-07-29T14:01:12.800Z</time>
      </trkpt>
      <trkpt lat="43.72348" lon="1.46559">
        <ele>206.152694</ele>
        <time>2022-07-29T14:01:14.809Z</time>
      </trkpt>
      <trkpt lat="43.72356" lon="1.46547">
        <ele>205.72883</ele>
        <time>2022-07-29T14:01:17.830Z</time>
      </trkpt>
      <trkpt lat="43.7236" lon="1.46534">
        <ele>205.37217</ele>
        <time>2022-07-29T14:01:21.808Z</time>
      </trkpt>
      <trkpt lat="43.72364" lon="1.46521">
        <ele>205.013645</ele>
        <time>2022-07-29T14:01:24.800Z</time>
      </trkpt>
      <trkpt lat="43.72365" lon="1.46506">
        <ele>204.60087</ele>
        <time>2022-07-29T14:01:27.810Z</time>
      </trkpt>
      <trkpt lat="43.72365" lon="1.46491">
        <ele>204.210876</ele>
        <time>2022-07-29T14:01:30.801Z</time>
      </trkpt>
      <trkpt lat="43.72363" lon="1.46477">
        <ele>203.855561</ele>
        <time>2022-07-29T14:01:33.827Z</time>
      </trkpt>
      <trkpt lat="43.72362" lon="1.46462">
        <ele>203.446671</ele>
        <time>2022-07-29T14:01:36.805Z</time>
      </trkpt>
      <trkpt lat="43.72357" lon="1.46446">
        <ele>203.000709</ele>
        <time>2022-07-29T14:01:39.820Z</time>
      </trkpt>
      <trkpt lat="43.72353" lon="1.46432">
        <ele>202.602791</ele>
        <time>2022-07-29T14:01:42.803Z</time>
      </trkpt>
      <trkpt lat="43.72349" lon="1.46419">
        <ele>202.450008</ele>
        <time>2022-07-29T14:01:44.831Z</time>
      </trkpt>
      <trkpt lat="43.72346" lon="1.46402">
        <ele>202.516599</ele>
        <time>2022-07-29T14:01:47.838Z</time>
      </trkpt>
      <trkpt lat="43.72342" lon="1.46387">
        <ele>202.580854</ele>
        <time>2022-07-29T14:01:50.819Z</time>
      </trkpt>
      <trkpt lat="43.7234" lon="1.46369">
        <ele>202.648963</ele>
        <time>2022-07-29T14:01:53.801Z</time>
      </trkpt>
      <trkpt lat="43.72338" lon="1.46355">
        <ele>202.707758</ele>
        <time>2022-07-29T14:01:56.826Z</time>
      </trkpt>
      <trkpt lat="43.72336" lon="1.46336">
        <ele>202.781603</ele>
        <time>2022-07-29T14:01:59.790Z</time>
      </trkpt>
      <trkpt lat="43.72332" lon="1.4632">
        <ele>202.845858</ele>
        <time>2022-07-29T14:02:01.819Z</time>
      </trkpt>
      <trkpt lat="43.72328" lon="1.46306">
        <ele>202.907365</ele>
        <time>2022-07-29T14:02:03.793Z</time>
      </trkpt>
      <trkpt lat="43.72323" lon="1.46294">
        <ele>202.95988</ele>
        <time>2022-07-29T14:02:05.834Z</time>
      </trkpt>
      <trkpt lat="43.72319" lon="1.46282">
        <ele>203.010694</ele>
        <time>2022-07-29T14:02:07.809Z</time>
      </trkpt>
      <trkpt lat="43.72316" lon="1.46269">
        <ele>203.065012</ele>
        <time>2022-07-29T14:02:09.791Z</time>
      </trkpt>
      <trkpt lat="43.72317" lon="1.46256">
        <ele>203.11448</ele>
        <time>2022-07-29T14:02:11.805Z</time>
      </trkpt>
      <trkpt lat="43.7232" lon="1.4624">
        <ele>203.17779</ele>
        <time>2022-07-29T14:02:13.804Z</time>
      </trkpt>
      <trkpt lat="43.72321" lon="1.46222">
        <ele>203.247422</ele>
        <time>2022-07-29T14:02:16.817Z</time>
      </trkpt>
      <trkpt lat="43.72318" lon="1.46206">
        <ele>203.311606</ele>
        <time>2022-07-29T14:02:19.823Z</time>
      </trkpt>
      <trkpt lat="43.72319" lon="1.46189">
        <ele>203.377355</ele>
        <time>2022-07-29T14:02:22.814Z</time>
      </trkpt>
      <trkpt lat="43.72318" lon="1.46173">
        <ele>203.314279</ele>
        <time>2022-07-29T14:02:25.785Z</time>
      </trkpt>
      <trkpt lat="43.72318" lon="1.46155">
        <ele>203.20064</ele>
        <time>2022-07-29T14:02:28.797Z</time>
      </trkpt>
      <trkpt lat="43.72317" lon="1.46139">
        <ele>203.097452</ele>
        <time>2022-07-29T14:02:30.809Z</time>
      </trkpt>
      <trkpt lat="43.72316" lon="1.46124">
        <ele>203.001711</ele>
        <time>2022-07-29T14:02:32.806Z</time>
      </trkpt>
      <trkpt lat="43.72314" lon="1.46105">
        <ele>202.884639</ele>
        <time>2022-07-29T14:02:37.822Z</time>
      </trkpt>
      <trkpt lat="43.72331" lon="1.46136">
        <ele>202.640921</ele>
        <time>2022-07-29T14:03:10.797Z</time>
      </trkpt>
      <trkpt lat="43.72334" lon="1.4615">
        <ele>202.551475</ele>
        <time>2022-07-29T14:03:13.783Z</time>
      </trkpt>
      <trkpt lat="43.72341" lon="1.46165">
        <ele>202.443646</ele>
        <time>2022-07-29T14:03:16.791Z</time>
      </trkpt>
      <trkpt lat="43.72345" lon="1.46177">
        <ele>202.356362</ele>
        <time>2022-07-29T14:03:19.789Z</time>
      </trkpt>
      <trkpt lat="43.72345" lon="1.46191">
        <ele>202.266588</ele>
        <time>2022-07-29T14:03:21.788Z</time>
      </trkpt>
      <trkpt lat="43.72343" lon="1.46205">
        <ele>202.181126</ele>
        <time>2022-07-29T14:03:23.789Z</time>
      </trkpt>
      <trkpt lat="43.72348" lon="1.46221">
        <ele>202.069274</ele>
        <time>2022-07-29T14:03:26.795Z</time>
      </trkpt>
      <trkpt lat="43.72357" lon="1.46229">
        <ele>201.980694</ele>
        <time>2022-07-29T14:03:28.806Z</time>
      </trkpt>
      <trkpt lat="43.72365" lon="1.46236">
        <ele>201.898291</ele>
        <time>2022-07-29T14:03:31.809Z</time>
      </trkpt>
      <trkpt lat="43.72372" lon="1.46247">
        <ele>201.818828</ele>
        <time>2022-07-29T14:03:35.795Z</time>
      </trkpt>
      <trkpt lat="43.72376" lon="1.46261">
        <ele>201.778047</ele>
        <time>2022-07-29T14:03:38.782Z</time>
      </trkpt>
      <trkpt lat="43.72377" lon="1.46276">
        <ele>201.736256</ele>
        <time>2022-07-29T14:03:40.787Z</time>
      </trkpt>
      <trkpt lat="43.7238" lon="1.46297">
        <ele>201.680086</ele>
        <time>2022-07-29T14:03:42.784Z</time>
      </trkpt>
      <trkpt lat="43.72383" lon="1.46313">
        <ele>201.634047</ele>
        <time>2022-07-29T14:03:44.813Z</time>
      </trkpt>
      <trkpt lat="43.72385" lon="1.46334">
        <ele>201.578781</ele>
        <time>2022-07-29T14:03:46.787Z</time>
      </trkpt>
      <trkpt lat="43.7239" lon="1.46359">
        <ele>201.508843</ele>
        <time>2022-07-29T14:03:48.776Z</time>
      </trkpt>
      <trkpt lat="43.72394" lon="1.46378">
        <ele>201.454941</ele>
        <time>2022-07-29T14:03:50.783Z</time>
      </trkpt>
      <trkpt lat="43.72396" lon="1.46397">
        <ele>201.402281</ele>
        <time>2022-07-29T14:03:52.780Z</time>
      </trkpt>
      <trkpt lat="43.72396" lon="1.46412">
        <ele>201.362689</ele>
        <time>2022-07-29T14:03:54.779Z</time>
      </trkpt>
      <trkpt lat="43.72399" lon="1.46426">
        <ele>201.323781</ele>
        <time>2022-07-29T14:03:56.799Z</time>
      </trkpt>
      <trkpt lat="43.724" lon="1.46442">
        <ele>201.279095</ele>
        <time>2022-07-29T14:03:58.794Z</time>
      </trkpt>
      <trkpt lat="43.72403" lon="1.46458">
        <ele>201.235467</ele>
        <time>2022-07-29T14:04:01.819Z</time>
      </trkpt>
      <trkpt lat="43.72404" lon="1.46472">
        <ele>201.196553</ele>
        <time>2022-07-29T14:04:03.789Z</time>
      </trkpt>
      <trkpt lat="43.72405" lon="1.46485">
        <ele>201.161269</ele>
        <time>2022-07-29T14:04:05.785Z</time>
      </trkpt>
      <trkpt lat="43.72408" lon="1.46502">
        <ele>201.679723</ele>
        <time>2022-07-29T14:04:08.804Z</time>
      </trkpt>
      <trkpt lat="43.72413" lon="1.46517">
        <ele>202.167549</ele>
        <time>2022-07-29T14:04:11.802Z</time>
      </trkpt>
      <trkpt lat="43.72418" lon="1.46531">
        <ele>202.633056</ele>
        <time>2022-07-29T14:04:14.807Z</time>
      </trkpt>
      <trkpt lat="43.72426" lon="1.46539">
        <ele>203.041228</ele>
        <time>2022-07-29T14:04:17.789Z</time>
      </trkpt>
      <trkpt lat="43.7243" lon="1.46554">
        <ele>203.551326</ele>
        <time>2022-07-29T14:04:20.785Z</time>
      </trkpt>
      <trkpt lat="43.72437" lon="1.46564">
        <ele>203.948789</ele>
        <time>2022-07-29T14:04:22.783Z</time>
      </trkpt>
      <trkpt lat="43.72442" lon="1.46578">
        <ele>204.445606</ele>
        <time>2022-07-29T14:04:24.775Z</time>
      </trkpt>
      <trkpt lat="43.72447" lon="1.4659">
        <ele>204.851201</ele>
        <time>2022-07-29T14:04:26.797Z</time>
      </trkpt>
      <trkpt lat="43.72446" lon="1.46606">
        <ele>205.335162</ele>
        <time>2022-07-29T14:04:28.802Z</time>
      </trkpt>
      <trkpt lat="43.72447" lon="1.46629">
        <ele>206.055646</ele>
        <time>2022-07-29T14:04:30.820Z</time>
      </trkpt>
      <trkpt lat="43.72451" lon="1.46645">
        <ele>206.547213</ele>
        <time>2022-07-29T14:04:32.788Z</time>
      </trkpt>
      <trkpt lat="43.72456" lon="1.46662">
        <ele>207.108912</ele>
        <time>2022-07-29T14:04:34.786Z</time>
      </trkpt>
      <trkpt lat="43.72467" lon="1.46673">
        <ele>207.676074</ele>
        <time>2022-07-29T14:04:36.788Z</time>
      </trkpt>
      <trkpt lat="43.72478" lon="1.46675">
        <ele>208.149879</ele>
        <time>2022-07-29T14:04:38.779Z</time>
      </trkpt>
      <trkpt lat="43.72489" lon="1.46672">
        <ele>208.623721</ele>
        <time>2022-07-29T14:04:41.782Z</time>
      </trkpt>
      <trkpt lat="43.725" lon="1.46672">
        <ele>209.20075</ele>
        <time>2022-07-29T14:04:44.805Z</time>
      </trkpt>
      <trkpt lat="43.72506" lon="1.46662">
        <ele>209.741998</ele>
        <time>2022-07-29T14:04:48.779Z</time>
      </trkpt>
      <trkpt lat="43.72519" lon="1.4666">
        <ele>210.427051</ele>
        <time>2022-07-29T14:04:51.789Z</time>
      </trkpt>
      <trkpt lat="43.72526" lon="1.46649">
        <ele>211.047932</ele>
        <time>2022-07-29T14:04:54.792Z</time>
      </trkpt>
      <trkpt lat="43.72531" lon="1.46636">
        <ele>211.614998</ele>
        <time>2022-07-29T14:04:59.794Z</time>
      </trkpt>
      <trkpt lat="43.72536" lon="1.46624">
        <ele>212.154142</ele>
        <time>2022-07-29T14:05:04.774Z</time>
      </trkpt>
      <trkpt lat="43.72532" lon="1.4661">
        <ele>212.726795</ele>
        <time>2022-07-29T14:05:08.796Z</time>
      </trkpt>
      <trkpt lat="43.72531" lon="1.46597">
        <ele>213.269861</ele>
        <time>2022-07-29T14:05:12.789Z</time>
      </trkpt>
      <trkpt lat="43.72522" lon="1.4659">
        <ele>213.832524</ele>
        <time>2022-07-29T14:05:18.780Z</time>
      </trkpt>
      <trkpt lat="43.72509" lon="1.46589">
        <ele>214.51839</ele>
        <time>2022-07-29T14:05:21.783Z</time>
      </trkpt>
      <trkpt lat="43.725" lon="1.46582">
        <ele>215.120826</ele>
        <time>2022-07-29T14:05:23.781Z</time>
      </trkpt>
      <trkpt lat="43.72495" lon="1.46571">
        <ele>215.630918</ele>
        <time>2022-07-29T14:05:25.790Z</time>
      </trkpt>
      <trkpt lat="43.72484" lon="1.46559">
        <ele>216.395347</ele>
        <time>2022-07-29T14:05:28.770Z</time>
      </trkpt>
      <trkpt lat="43.7248" lon="1.46545">
        <ele>217.030469</ele>
        <time>2022-07-29T14:05:30.788Z</time>
      </trkpt>
      <trkpt lat="43.72474" lon="1.46527">
        <ele>217.799549</ele>
        <time>2022-07-29T14:05:32.772Z</time>
      </trkpt>
      <trkpt lat="43.72474" lon="1.46506">
        <ele>218.633983</ele>
        <time>2022-07-29T14:05:34.774Z</time>
      </trkpt>
      <trkpt lat="43.72468" lon="1.46491">
        <ele>218.867309</ele>
        <time>2022-07-29T14:05:36.797Z</time>
      </trkpt>
      <trkpt lat="43.72462" lon="1.46478">
        <ele>219.058977</ele>
        <time>2022-07-29T14:05:38.818Z</time>
      </trkpt>
      <trkpt lat="43.72463" lon="1.46461">
        <ele>219.273026</ele>
        <time>2022-07-29T14:05:41.789Z</time>
      </trkpt>
      <trkpt lat="43.72462" lon="1.46446">
        <ele>219.457401</ele>
        <time>2022-07-29T14:05:43.796Z</time>
      </trkpt>
      <trkpt lat="43.72464" lon="1.46429">
        <ele>219.671805</ele>
        <time>2022-07-29T14:05:46.766Z</time>
      </trkpt>
      <trkpt lat="43.72457" lon="1.46416">
        <ele>219.878522</ele>
        <time>2022-07-29T14:05:48.769Z</time>
      </trkpt>
      <trkpt lat="43.72455" lon="1.46401">
        <ele>220.068777</ele>
        <time>2022-07-29T14:05:50.776Z</time>
      </trkpt>
      <trkpt lat="43.72455" lon="1.46384">
        <ele>220.274799</ele>
        <time>2022-07-29T14:05:53.776Z</time>
      </trkpt>
      <trkpt lat="43.72454" lon="1.46365">
        <ele>220.522167</ele>
        <time>2022-07-29T14:05:57.769Z</time>
      </trkpt>
      <trkpt lat="43.72451" lon="1.46349">
        <ele>220.726096</ele>
        <time>2022-07-29T14:06:01.780Z</time>
      </trkpt>
      <trkpt lat="43.72444" lon="1.46335">
        <ele>220.937605</ele>
        <time>2022-07-29T14:06:03.774Z</time>
      </trkpt>
      <trkpt lat="43.72436" lon="1.46315">
        <ele>221.222323</ele>
        <time>2022-07-29T14:06:05.759Z</time>
      </trkpt>
      <trkpt lat="43.72428" lon="1.46293">
        <ele>221.524928</ele>
        <time>2022-07-29T14:06:07.772Z</time>
      </trkpt>
      <trkpt lat="43.72427" lon="1.46276">
        <ele>221.747245</ele>
        <time>2022-07-29T14:06:09.785Z</time>
      </trkpt>
      <trkpt lat="43.72424" lon="1.46262">
        <ele>222.035795</ele>
        <time>2022-07-29T14:06:11.776Z</time>
      </trkpt>
      <trkpt lat="43.72423" lon="1.46247">
        <ele>222.34135</ele>
        <time>2022-07-29T14:06:14.777Z</time>
      </trkpt>
      <trkpt lat="43.72433" lon="1.46252">
        <ele>222.647884</ele>
        <time>2022-07-29T14:06:27.772Z</time>
      </trkpt>
      <trkpt lat="43.72439" lon="1.46264">
        <ele>222.950226</ele>
        <time>2022-07-29T14:06:32.775Z</time>
      </trkpt>
      <trkpt lat="43.72443" lon="1.46276">
        <ele>223.230051</ele>
        <time>2022-07-29T14:06:36.798Z</time>
      </trkpt>
      <trkpt lat="43.72447" lon="1.46292">
        <ele>223.575526</ele>
        <time>2022-07-29T14:06:39.782Z</time>
      </trkpt>
      <trkpt lat="43.72452" lon="1.46306">
        <ele>223.913598</ele>
        <time>2022-07-29T14:06:42.792Z</time>
      </trkpt>
      <trkpt lat="43.72457" lon="1.46318">
        <ele>224.179796</ele>
        <time>2022-07-29T14:06:44.810Z</time>
      </trkpt>
      <trkpt lat="43.72466" lon="1.46334">
        <ele>224.605992</ele>
        <time>2022-07-29T14:06:47.785Z</time>
      </trkpt>
      <trkpt lat="43.7247" lon="1.46348">
        <ele>224.930098</ele>
        <time>2022-07-29T14:06:50.779Z</time>
      </trkpt>
      <trkpt lat="43.72472" lon="1.46363">
        <ele>225.235235</ele>
        <time>2022-07-29T14:06:53.773Z</time>
      </trkpt>
      <trkpt lat="43.72473" lon="1.46376">
        <ele>225.497907</ele>
        <time>2022-07-29T14:06:55.779Z</time>
      </trkpt>
      <trkpt lat="43.72477" lon="1.46389">
        <ele>225.796659</ele>
        <time>2022-07-29T14:06:57.785Z</time>
      </trkpt>
      <trkpt lat="43.72479" lon="1.46402">
        <ele>226.072289</ele>
        <time>2022-07-29T14:06:59.762Z</time>
      </trkpt>
      <trkpt lat="43.72479" lon="1.46417">
        <ele>226.374401</ele>
        <time>2022-07-29T14:07:01.777Z</time>
      </trkpt>
      <trkpt lat="43.72482" lon="1.46431">
        <ele>226.688956</ele>
        <time>2022-07-29T14:07:03.775Z</time>
      </trkpt>
      <trkpt lat="43.72484" lon="1.46448">
        <ele>226.913276</ele>
        <time>2022-07-29T14:07:05.822Z</time>
      </trkpt>
      <trkpt lat="43.72483" lon="1.46472">
        <ele>226.909495</ele>
        <time>2022-07-29T14:07:08.798Z</time>
      </trkpt>
      <trkpt lat="43.7248" lon="1.46491">
        <ele>226.906556</ele>
        <time>2022-07-29T14:07:11.821Z</time>
      </trkpt>
      <trkpt lat="43.7248" lon="1.46507">
        <ele>226.904131</ele>
        <time>2022-07-29T14:07:13.780Z</time>
      </trkpt>
      <trkpt lat="43.72485" lon="1.46523">
        <ele>226.901355</ele>
        <time>2022-07-29T14:07:16.796Z</time>
      </trkpt>
      <trkpt lat="43.72494" lon="1.46532">
        <ele>226.898915</ele>
        <time>2022-07-29T14:07:18.779Z</time>
      </trkpt>
      <trkpt lat="43.72503" lon="1.46539">
        <ele>226.896748</ele>
        <time>2022-07-29T14:07:20.809Z</time>
      </trkpt>
      <trkpt lat="43.72512" lon="1.46543">
        <ele>226.894618</ele>
        <time>2022-07-29T14:07:22.801Z</time>
      </trkpt>
      <trkpt lat="43.72522" lon="1.46546">
        <ele>226.892433</ele>
        <time>2022-07-29T14:07:24.777Z</time>
      </trkpt>
      <trkpt lat="43.72533" lon="1.4655">
        <ele>226.890109</ele>
        <time>2022-07-29T14:07:26.782Z</time>
      </trkpt>
      <trkpt lat="43.72545" lon="1.46554">
        <ele>226.887364</ele>
        <time>2022-07-29T14:07:28.798Z</time>
      </trkpt>
      <trkpt lat="43.72555" lon="1.46554">
        <ele>226.885171</ele>
        <time>2022-07-29T14:07:30.796Z</time>
      </trkpt>
      <trkpt lat="43.72565" lon="1.46559">
        <ele>226.883027</ele>
        <time>2022-07-29T14:07:32.782Z</time>
      </trkpt>
      <trkpt lat="43.72574" lon="1.46562">
        <ele>226.880938</ele>
        <time>2022-07-29T14:07:35.784Z</time>
      </trkpt>
      <trkpt lat="43.72584" lon="1.46566">
        <ele>226.878833</ele>
        <time>2022-07-29T14:07:39.809Z</time>
      </trkpt>
      <trkpt lat="43.7261" lon="1.46549">
        <ele>226.348914</ele>
        <time>2022-07-29T14:08:26.821Z</time>
      </trkpt>
      <trkpt lat="43.72622" lon="1.46545">
        <ele>225.925592</ele>
        <time>2022-07-29T14:08:30.806Z</time>
      </trkpt>
      <trkpt lat="43.7263" lon="1.4653">
        <ele>225.427347</ele>
        <time>2022-07-29T14:08:33.787Z</time>
      </trkpt>
      <trkpt lat="43.72643" lon="1.46513">
        <ele>224.777001</ele>
        <time>2022-07-29T14:08:37.791Z</time>
      </trkpt>
      <trkpt lat="43.72652" lon="1.46505">
        <ele>224.398726</ele>
        <time>2022-07-29T14:08:41.790Z</time>
      </trkpt>
      <trkpt lat="43.7266" lon="1.46492">
        <ele>223.936093</ele>
        <time>2022-07-29T14:08:45.790Z</time>
      </trkpt>
      <trkpt lat="43.72668" lon="1.46483">
        <ele>223.565199</ele>
        <time>2022-07-29T14:08:49.815Z</time>
      </trkpt>
      <trkpt lat="43.72682" lon="1.46474">
        <ele>222.98052</ele>
        <time>2022-07-29T14:08:52.793Z</time>
      </trkpt>
      <trkpt lat="43.72694" lon="1.46469">
        <ele>222.537746</ele>
        <time>2022-07-29T14:08:54.803Z</time>
      </trkpt>
      <trkpt lat="43.72702" lon="1.46459">
        <ele>222.13929</ele>
        <time>2022-07-29T14:08:56.813Z</time>
      </trkpt>
      <trkpt lat="43.72711" lon="1.46444">
        <ele>221.636681</ele>
        <time>2022-07-29T14:08:58.779Z</time>
      </trkpt>
      <trkpt lat="43.72714" lon="1.46431">
        <ele>221.269372</ele>
        <time>2022-07-29T14:09:00.795Z</time>
      </trkpt>
      <trkpt lat="43.72718" lon="1.46417">
        <ele>220.862731</ele>
        <time>2022-07-29T14:09:02.808Z</time>
      </trkpt>
      <trkpt lat="43.72726" lon="1.46404">
        <ele>220.432553</ele>
        <time>2022-07-29T14:09:04.791Z</time>
      </trkpt>
      <trkpt lat="43.72729" lon="1.46391">
        <ele>220.241351</ele>
        <time>2022-07-29T14:09:07.798Z</time>
      </trkpt>
      <trkpt lat="43.72738" lon="1.46381">
        <ele>220.118893</ele>
        <time>2022-07-29T14:09:11.809Z</time>
      </trkpt>
      <trkpt lat="43.72745" lon="1.46372">
        <ele>220.01378</ele>
        <time>2022-07-29T14:09:13.801Z</time>
      </trkpt>
      <trkpt lat="43.72751" lon="1.46355">
        <ele>219.871696</ele>
        <time>2022-07-29T14:09:16.786Z</time>
      </trkpt>
      <trkpt lat="43.72757" lon="1.4634">
        <ele>219.744586</ele>
        <time>2022-07-29T14:09:19.795Z</time>
      </trkpt>
      <trkpt lat="43.72764" lon="1.46329">
        <ele>219.63378</ele>
        <time>2022-07-29T14:09:21.794Z</time>
      </trkpt>
      <trkpt lat="43.72767" lon="1.46318">
        <ele>219.538961</ele>
        <time>2022-07-29T14:09:24.790Z</time>
      </trkpt>
      <trkpt lat="43.72769" lon="1.46304">
        <ele>219.432759</ele>
        <time>2022-07-29T14:09:27.809Z</time>
      </trkpt>
      <trkpt lat="43.72765" lon="1.46291">
        <ele>219.326093</ele>
        <time>2022-07-29T14:09:31.792Z</time>
      </trkpt>
      <trkpt lat="43.72757" lon="1.46285">
        <ele>219.230852</ele>
        <time>2022-07-29T14:09:34.831Z</time>
      </trkpt>
      <trkpt lat="43.72764" lon="1.46271">
        <ele>219.10888</ele>
        <time>2022-07-29T14:09:37.781Z</time>
      </trkpt>
      <trkpt lat="43.72778" lon="1.46263">
        <ele>218.94589</ele>
        <time>2022-07-29T14:09:39.790Z</time>
      </trkpt>
      <trkpt lat="43.72788" lon="1.46253">
        <ele>218.813558</ele>
        <time>2022-07-29T14:09:41.799Z</time>
      </trkpt>
      <trkpt lat="43.72797" lon="1.4624">
        <ele>218.678072</ele>
        <time>2022-07-29T14:09:43.811Z</time>
      </trkpt>
      <trkpt lat="43.72806" lon="1.46224">
        <ele>218.526446</ele>
        <time>2022-07-29T14:09:45.778Z</time>
      </trkpt>
      <trkpt lat="43.72815" lon="1.4621">
        <ele>218.216859</ele>
        <time>2022-07-29T14:09:47.801Z</time>
      </trkpt>
      <trkpt lat="43.72823" lon="1.46199">
        <ele>217.64006</ele>
        <time>2022-07-29T14:09:49.785Z</time>
      </trkpt>
      <trkpt lat="43.72833" lon="1.46186">
        <ele>216.894751</ele>
        <time>2022-07-29T14:09:53.790Z</time>
      </trkpt>
      <trkpt lat="43.72844" lon="1.46162">
        <ele>215.770684</ele>
        <time>2022-07-29T14:10:03.785Z</time>
      </trkpt>
      <trkpt lat="43.72853" lon="1.46155">
        <ele>215.233651</ele>
        <time>2022-07-29T14:10:05.796Z</time>
      </trkpt>
      <trkpt lat="43.7286" lon="1.46143">
        <ele>214.640255</ele>
        <time>2022-07-29T14:10:07.797Z</time>
      </trkpt>
      <trkpt lat="43.7287" lon="1.46144">
        <ele>214.100414</ele>
        <time>2022-07-29T14:10:13.789Z</time>
      </trkpt>
      <trkpt lat="43.72879" lon="1.46146">
        <ele>213.597614</ele>
        <time>2022-07-29T14:10:15.801Z</time>
      </trkpt>
      <trkpt lat="43.72889" lon="1.46146">
        <ele>213.049377</ele>
        <time>2022-07-29T14:10:19.791Z</time>
      </trkpt>
      <trkpt lat="43.72899" lon="1.4614">
        <ele>212.471009</ele>
        <time>2022-07-29T14:10:23.801Z</time>
      </trkpt>
      <trkpt lat="43.72911" lon="1.46134">
        <ele>211.79045</ele>
        <time>2022-07-29T14:10:26.791Z</time>
      </trkpt>
      <trkpt lat="43.72921" lon="1.4613">
        <ele>211.231771</ele>
        <time>2022-07-29T14:10:32.793Z</time>
      </trkpt>
      <trkpt lat="43.72931" lon="1.46134">
        <ele>210.668764</ele>
        <time>2022-07-29T14:10:36.806Z</time>
      </trkpt>
      <trkpt lat="43.72941" lon="1.46124">
        <ele>210.001285</ele>
        <time>2022-07-29T14:10:39.805Z</time>
      </trkpt>
      <trkpt lat="43.72949" lon="1.46114">
        <ele>209.423999</ele>
        <time>2022-07-29T14:10:45.818Z</time>
      </trkpt>
      <trkpt lat="43.72952" lon="1.46101">
        <ele>208.890276</ele>
        <time>2022-07-29T14:10:56.801Z</time>
      </trkpt>
      <trkpt lat="43.72963" lon="1.46107">
        <ele>208.393011</ele>
        <time>2022-07-29T14:11:01.820Z</time>
      </trkpt>
      <trkpt lat="43.72975" lon="1.46117">
        <ele>207.786246</ele>
        <time>2022-07-29T14:11:04.803Z</time>
      </trkpt>
      <trkpt lat="43.72988" lon="1.46126">
        <ele>207.170993</ele>
        <time>2022-07-29T14:11:06.794Z</time>
      </trkpt>
      <trkpt lat="43.73003" lon="1.46135">
        <ele>206.481542</ele>
        <time>2022-07-29T14:11:08.793Z</time>
      </trkpt>
      <trkpt lat="43.73012" lon="1.46141">
        <ele>206.080531</ele>
        <time>2022-07-29T14:11:09.798Z</time>
      </trkpt>
      <trkpt lat="43.73026" lon="1.46153">
        <ele>205.362355</ele>
        <time>2022-07-29T14:11:11.814Z</time>
      </trkpt>
      <trkpt lat="43.73042" lon="1.46164">
        <ele>204.619256</ele>
        <time>2022-07-29T14:11:13.789Z</time>
      </trkpt>
      <trkpt lat="43.73058" lon="1.46176">
        <ele>203.861278</ele>
        <time>2022-07-29T14:11:15.798Z</time>
      </trkpt>
      <trkpt lat="43.73071" lon="1.46187">
        <ele>203.19436</ele>
        <time>2022-07-29T14:11:17.822Z</time>
      </trkpt>
      <trkpt lat="43.73083" lon="1.46199">
        <ele>202.595553</ele>
        <time>2022-07-29T14:11:19.812Z</time>
      </trkpt>
      <trkpt lat="43.73093" lon="1.46211">
        <ele>202.027771</ele>
        <time>2022-07-29T14:11:21.793Z</time>
      </trkpt>
      <trkpt lat="43.73102" lon="1.46224">
        <ele>201.46561</ele>
        <time>2022-07-29T14:11:23.801Z</time>
      </trkpt>
      <trkpt lat="43.73113" lon="1.46238">
        <ele>200.937434</ele>
        <time>2022-07-29T14:11:25.804Z</time>
      </trkpt>
      <trkpt lat="43.73127" lon="1.46252">
        <ele>200.448688</ele>
        <time>2022-07-29T14:11:27.783Z</time>
      </trkpt>
      <trkpt lat="43.73137" lon="1.46267">
        <ele>200.018622</ele>
        <time>2022-07-29T14:11:29.785Z</time>
      </trkpt>
      <trkpt lat="43.73146" lon="1.46281">
        <ele>199.628849</ele>
        <time>2022-07-29T14:11:31.784Z</time>
      </trkpt>
      <trkpt lat="43.73155" lon="1.46295">
        <ele>199.21288</ele>
        <time>2022-07-29T14:11:33.788Z</time>
      </trkpt>
      <trkpt lat="43.73166" lon="1.46311">
        <ele>198.760019</ele>
        <time>2022-07-29T14:11:35.790Z</time>
      </trkpt>
      <trkpt lat="43.73179" lon="1.46326">
        <ele>198.279612</ele>
        <time>2022-07-29T14:11:37.785Z</time>
      </trkpt>
      <trkpt lat="43.73191" lon="1.46341">
        <ele>197.786298</ele>
        <time>2022-07-29T14:11:39.800Z</time>
      </trkpt>
      <trkpt lat="43.73205" lon="1.46356">
        <ele>197.284857</ele>
        <time>2022-07-29T14:11:41.805Z</time>
      </trkpt>
      <trkpt lat="43.73219" lon="1.46369">
        <ele>196.778145</ele>
        <time>2022-07-29T14:11:43.779Z</time>
      </trkpt>
      <trkpt lat="43.73234" lon="1.46383">
        <ele>196.273782</ele>
        <time>2022-07-29T14:11:45.786Z</time>
      </trkpt>
      <trkpt lat="43.73247" lon="1.46395">
        <ele>195.991896</ele>
        <time>2022-07-29T14:11:47.786Z</time>
      </trkpt>
      <trkpt lat="43.73261" lon="1.46408">
        <ele>196.24111</ele>
        <time>2022-07-29T14:11:49.789Z</time>
      </trkpt>
      <trkpt lat="43.73274" lon="1.46422">
        <ele>196.480212</ele>
        <time>2022-07-29T14:11:51.778Z</time>
      </trkpt>
      <trkpt lat="43.73298" lon="1.46451">
        <ele>196.937607</ele>
        <time>2022-07-29T14:11:55.827Z</time>
      </trkpt>
      <trkpt lat="43.73304" lon="1.46462">
        <ele>197.086081</ele>
        <time>2022-07-29T14:11:57.807Z</time>
      </trkpt>
      <trkpt lat="43.73297" lon="1.4647">
        <ele>197.220596</ele>
        <time>2022-07-29T14:12:02.796Z</time>
      </trkpt>
      <trkpt lat="43.73289" lon="1.46464">
        <ele>197.365867</ele>
        <time>2022-07-29T14:12:06.800Z</time>
      </trkpt>
      <trkpt lat="43.73278" lon="1.46461">
        <ele>197.521644</ele>
        <time>2022-07-29T14:12:10.790Z</time>
      </trkpt>
      <trkpt lat="43.73267" lon="1.46466">
        <ele>197.699252</ele>
        <time>2022-07-29T14:12:14.796Z</time>
      </trkpt>
      <trkpt lat="43.73259" lon="1.46475">
        <ele>197.851256</ele>
        <time>2022-07-29T14:12:17.791Z</time>
      </trkpt>
      <trkpt lat="43.73255" lon="1.46487">
        <ele>197.990771</ele>
        <time>2022-07-29T14:12:21.800Z</time>
      </trkpt>
      <trkpt lat="43.73251" lon="1.46502">
        <ele>198.156751</ele>
        <time>2022-07-29T14:12:24.812Z</time>
      </trkpt>
      <trkpt lat="43.73246" lon="1.46514">
        <ele>198.30732</ele>
        <time>2022-07-29T14:12:27.806Z</time>
      </trkpt>
      <trkpt lat="43.7324" lon="1.46525">
        <ele>198.452149</ele>
        <time>2022-07-29T14:12:30.793Z</time>
      </trkpt>
      <trkpt lat="43.73232" lon="1.46534">
        <ele>198.700114</ele>
        <time>2022-07-29T14:12:32.771Z</time>
      </trkpt>
      <trkpt lat="43.73224" lon="1.46527">
        <ele>199.322557</ele>
        <time>2022-07-29T14:12:37.790Z</time>
      </trkpt>
      <trkpt lat="43.73218" lon="1.46515">
        <ele>199.976376</ele>
        <time>2022-07-29T14:12:41.795Z</time>
      </trkpt>
      <trkpt lat="43.73208" lon="1.4651">
        <ele>200.631045</ele>
        <time>2022-07-29T14:12:44.782Z</time>
      </trkpt>
      <trkpt lat="43.73198" lon="1.46505">
        <ele>201.309902</ele>
        <time>2022-07-29T14:12:47.803Z</time>
      </trkpt>
      <trkpt lat="43.7319" lon="1.465">
        <ele>201.920045</ele>
        <time>2022-07-29T14:12:51.809Z</time>
      </trkpt>
      <trkpt lat="43.73182" lon="1.46489">
        <ele>202.600591</ele>
        <time>2022-07-29T14:12:55.846Z</time>
      </trkpt>
      <trkpt lat="43.73174" lon="1.46484">
        <ele>203.188037</ele>
        <time>2022-07-29T14:12:59.801Z</time>
      </trkpt>
      <trkpt lat="43.73163" lon="1.46484">
        <ele>203.864613</ele>
        <time>2022-07-29T14:13:02.794Z</time>
      </trkpt>
      <trkpt lat="43.73151" lon="1.46479">
        <ele>204.693858</ele>
        <time>2022-07-29T14:13:04.787Z</time>
      </trkpt>
      <trkpt lat="43.73141" lon="1.46478">
        <ele>205.332582</ele>
        <time>2022-07-29T14:13:07.809Z</time>
      </trkpt>
      <trkpt lat="43.73132" lon="1.4648">
        <ele>205.918979</ele>
        <time>2022-07-29T14:13:11.800Z</time>
      </trkpt>
      <trkpt lat="43.73121" lon="1.46479">
        <ele>206.590367</ele>
        <time>2022-07-29T14:13:17.779Z</time>
      </trkpt>
      <trkpt lat="43.73111" lon="1.46471">
        <ele>207.313843</ele>
        <time>2022-07-29T14:13:21.769Z</time>
      </trkpt>
      <trkpt lat="43.73099" lon="1.46467">
        <ele>208.121135</ele>
        <time>2022-07-29T14:13:25.805Z</time>
      </trkpt>
      <trkpt lat="43.7309" lon="1.46464">
        <ele>208.739762</ele>
        <time>2022-07-29T14:13:29.783Z</time>
      </trkpt>
      <trkpt lat="43.73077" lon="1.46457">
        <ele>209.603017</ele>
        <time>2022-07-29T14:13:33.791Z</time>
      </trkpt>
      <trkpt lat="43.73064" lon="1.46458">
        <ele>210.384665</ele>
        <time>2022-07-29T14:13:38.795Z</time>
      </trkpt>
      <trkpt lat="43.7305" lon="1.46472">
        <ele>211.327366</ele>
        <time>2022-07-29T14:13:43.809Z</time>
      </trkpt>
      <trkpt lat="43.73041" lon="1.46476">
        <ele>211.824984</ele>
        <time>2022-07-29T14:13:45.792Z</time>
      </trkpt>
      <trkpt lat="43.73033" lon="1.46483">
        <ele>212.31103</ele>
        <time>2022-07-29T14:13:47.805Z</time>
      </trkpt>
      <trkpt lat="43.73026" lon="1.46492">
        <ele>212.8438</ele>
        <time>2022-07-29T14:13:49.797Z</time>
      </trkpt>
      <trkpt lat="43.7302" lon="1.46503">
        <ele>213.370651</ele>
        <time>2022-07-29T14:13:51.787Z</time>
      </trkpt>
      <trkpt lat="43.73017" lon="1.46515">
        <ele>213.88519</ele>
        <time>2022-07-29T14:13:53.809Z</time>
      </trkpt>
      <trkpt lat="43.73009" lon="1.46529">
        <ele>214.547651</ele>
        <time>2022-07-29T14:13:54.789Z</time>
      </trkpt>
      <trkpt lat="43.73" lon="1.46543">
        <ele>215.286592</ele>
        <time>2022-07-29T14:13:56.831Z</time>
      </trkpt>
      <trkpt lat="43.72992" lon="1.46555">
        <ele>215.913008</ele>
        <time>2022-07-29T14:13:58.796Z</time>
      </trkpt>
      <trkpt lat="43.72985" lon="1.46566">
        <ele>216.523552</ele>
        <time>2022-07-29T14:14:00.785Z</time>
      </trkpt>
      <trkpt lat="43.72977" lon="1.46576">
        <ele>217.089197</ele>
        <time>2022-07-29T14:14:02.787Z</time>
      </trkpt>
      <trkpt lat="43.72969" lon="1.46586">
        <ele>217.650912</ele>
        <time>2022-07-29T14:14:04.794Z</time>
      </trkpt>
      <trkpt lat="43.7296" lon="1.46593">
        <ele>218.187749</ele>
        <time>2022-07-29T14:14:06.794Z</time>
      </trkpt>
      <trkpt lat="43.72947" lon="1.46598">
        <ele>218.918221</ele>
        <time>2022-07-29T14:14:09.786Z</time>
      </trkpt>
      <trkpt lat="43.72941" lon="1.46612">
        <ele>219.552338</ele>
        <time>2022-07-29T14:14:11.814Z</time>
      </trkpt>
      <trkpt lat="43.72938" lon="1.46625">
        <ele>219.485125</ele>
        <time>2022-07-29T14:14:13.791Z</time>
      </trkpt>
      <trkpt lat="43.72936" lon="1.46638">
        <ele>219.145744</ele>
        <time>2022-07-29T14:14:15.786Z</time>
      </trkpt>
      <trkpt lat="43.72927" lon="1.4665">
        <ele>218.725639</ele>
        <time>2022-07-29T14:14:18.813Z</time>
      </trkpt>
      <trkpt lat="43.72918" lon="1.4666">
        <ele>218.321136</ele>
        <time>2022-07-29T14:14:21.795Z</time>
      </trkpt>
      <trkpt lat="43.72909" lon="1.46669">
        <ele>217.94282</ele>
        <time>2022-07-29T14:14:23.787Z</time>
      </trkpt>
      <trkpt lat="43.72911" lon="1.46682">
        <ele>217.599697</ele>
        <time>2022-07-29T14:14:27.808Z</time>
      </trkpt>
      <trkpt lat="43.7292" lon="1.46689">
        <ele>217.241874</ele>
        <time>2022-07-29T14:14:29.808Z</time>
      </trkpt>
      <trkpt lat="43.72926" lon="1.46703">
        <ele>216.837208</ele>
        <time>2022-07-29T14:14:31.821Z</time>
      </trkpt>
      <trkpt lat="43.72932" lon="1.46716">
        <ele>216.447451</ele>
        <time>2022-07-29T14:14:33.781Z</time>
      </trkpt>
      <trkpt lat="43.72941" lon="1.46727">
        <ele>216.020718</ele>
        <time>2022-07-29T14:14:35.784Z</time>
      </trkpt>
      <trkpt lat="43.72951" lon="1.46739">
        <ele>215.573696</ele>
        <time>2022-07-29T14:14:37.785Z</time>
      </trkpt>
      <trkpt lat="43.7296" lon="1.4675">
        <ele>215.141706</ele>
        <time>2022-07-29T14:14:39.791Z</time>
      </trkpt>
      <trkpt lat="43.72971" lon="1.46757">
        <ele>214.730732</ele>
        <time>2022-07-29T14:14:41.811Z</time>
      </trkpt>
      <trkpt lat="43.72983" lon="1.46763">
        <ele>214.295881</ele>
        <time>2022-07-29T14:14:43.803Z</time>
      </trkpt>
      <trkpt lat="43.72993" lon="1.46768">
        <ele>213.919449</ele>
        <time>2022-07-29T14:14:45.800Z</time>
      </trkpt>
      <trkpt lat="43.73005" lon="1.46773">
        <ele>213.499576</ele>
        <time>2022-07-29T14:14:47.816Z</time>
      </trkpt>
      <trkpt lat="43.73014" lon="1.4678">
        <ele>213.162802</ele>
        <time>2022-07-29T14:14:49.802Z</time>
      </trkpt>
      <trkpt lat="43.73023" lon="1.4679">
        <ele>212.806168</ele>
        <time>2022-07-29T14:14:51.800Z</time>
      </trkpt>
      <trkpt lat="43.73033" lon="1.468">
        <ele>212.429401</ele>
        <time>2022-07-29T14:14:53.808Z</time>
      </trkpt>
      <trkpt lat="43.7304" lon="1.46809">
        <ele>212.118679</ele>
        <time>2022-07-29T14:14:55.804Z</time>
      </trkpt>
      <trkpt lat="43.73049" lon="1.46818">
        <ele>211.773639</ele>
        <time>2022-07-29T14:14:58.805Z</time>
      </trkpt>
      <trkpt lat="43.73058" lon="1.46829">
        <ele>211.394406</ele>
        <time>2022-07-29T14:15:01.797Z</time>
      </trkpt>
      <trkpt lat="43.73067" lon="1.46839">
        <ele>211.048439</ele>
        <time>2022-07-29T14:15:04.791Z</time>
      </trkpt>
      <trkpt lat="43.73076" lon="1.46848">
        <ele>210.69385</ele>
        <time>2022-07-29T14:15:08.802Z</time>
      </trkpt>
      <trkpt lat="43.73079" lon="1.4686">
        <ele>210.391972</ele>
        <time>2022-07-29T14:15:11.791Z</time>
      </trkpt>
      <trkpt lat="43.73073" lon="1.46869">
        <ele>210.107387</ele>
        <time>2022-07-29T14:15:14.800Z</time>
      </trkpt>
      <trkpt lat="43.73063" lon="1.46878">
        <ele>209.717803</ele>
        <time>2022-07-29T14:15:18.815Z</time>
      </trkpt>
      <trkpt lat="43.73053" lon="1.46875">
        <ele>209.42243</ele>
        <time>2022-07-29T14:15:21.811Z</time>
      </trkpt>
      <trkpt lat="43.73046" lon="1.46867">
        <ele>209.114989</ele>
        <time>2022-07-29T14:15:25.801Z</time>
      </trkpt>
      <trkpt lat="43.73036" lon="1.46861">
        <ele>208.787983</ele>
        <time>2022-07-29T14:15:28.785Z</time>
      </trkpt>
      <trkpt lat="43.73027" lon="1.46857">
        <ele>208.490878</ele>
        <time>2022-07-29T14:15:31.788Z</time>
      </trkpt>
      <trkpt lat="43.73017" lon="1.46857">
        <ele>208.18978</ele>
        <time>2022-07-29T14:15:35.842Z</time>
      </trkpt>
      <trkpt lat="43.73009" lon="1.46862">
        <ele>207.904049</ele>
        <time>2022-07-29T14:15:38.853Z</time>
      </trkpt>
      <trkpt lat="43.73" lon="1.46868">
        <ele>208.299562</ele>
        <time>2022-07-29T14:15:42.787Z</time>
      </trkpt>
      <trkpt lat="43.72991" lon="1.46872">
        <ele>208.838064</ele>
        <time>2022-07-29T14:15:45.794Z</time>
      </trkpt>
      <trkpt lat="43.72981" lon="1.46872">
        <ele>209.403411</ele>
        <time>2022-07-29T14:15:49.798Z</time>
      </trkpt>
      <trkpt lat="43.72979" lon="1.46859">
        <ele>209.939391</ele>
        <time>2022-07-29T14:15:54.793Z</time>
      </trkpt>
      <trkpt lat="43.72984" lon="1.46848">
        <ele>210.459578</ele>
        <time>2022-07-29T14:15:57.801Z</time>
      </trkpt>
      <trkpt lat="43.72985" lon="1.46836">
        <ele>210.976883</ele>
        <time>2022-07-29T14:16:01.788Z</time>
      </trkpt>
      <trkpt lat="43.72981" lon="1.46824">
        <ele>211.517119</ele>
        <time>2022-07-29T14:16:04.823Z</time>
      </trkpt>
      <trkpt lat="43.72974" lon="1.46815">
        <ele>212.038915</ele>
        <time>2022-07-29T14:16:07.789Z</time>
      </trkpt>
      <trkpt lat="43.72962" lon="1.46812">
        <ele>212.734447</ele>
        <time>2022-07-29T14:16:10.820Z</time>
      </trkpt>
      <trkpt lat="43.72953" lon="1.4681">
        <ele>213.283771</ele>
        <time>2022-07-29T14:16:13.801Z</time>
      </trkpt>
      <trkpt lat="43.72943" lon="1.46806">
        <ele>213.838644</ele>
        <time>2022-07-29T14:16:17.806Z</time>
      </trkpt>
      <trkpt lat="43.72933" lon="1.46802">
        <ele>214.45941</ele>
        <time>2022-07-29T14:16:20.803Z</time>
      </trkpt>
      <trkpt lat="43.72924" lon="1.46794">
        <ele>215.053904</ele>
        <time>2022-07-29T14:16:23.791Z</time>
      </trkpt>
      <trkpt lat="43.72919" lon="1.4678">
        <ele>215.724374</ele>
        <time>2022-07-29T14:16:26.799Z</time>
      </trkpt>
      <trkpt lat="43.72914" lon="1.46767">
        <ele>216.334719</ele>
        <time>2022-07-29T14:16:28.793Z</time>
      </trkpt>
      <trkpt lat="43.72903" lon="1.4676">
        <ele>216.994932</ele>
        <time>2022-07-29T14:16:32.794Z</time>
      </trkpt>
      <trkpt lat="43.72893" lon="1.46761">
        <ele>217.562383</ele>
        <time>2022-07-29T14:16:35.810Z</time>
      </trkpt>
      <trkpt lat="43.72883" lon="1.46763">
        <ele>218.084724</ele>
        <time>2022-07-29T14:16:37.793Z</time>
      </trkpt>
      <trkpt lat="43.72871" lon="1.4677">
        <ele>217.513267</ele>
        <time>2022-07-29T14:16:40.822Z</time>
      </trkpt>
      <trkpt lat="43.72861" lon="1.46777">
        <ele>217.00173</ele>
        <time>2022-07-29T14:16:44.795Z</time>
      </trkpt>
      <trkpt lat="43.72854" lon="1.46786">
        <ele>216.584467</ele>
        <time>2022-07-29T14:16:46.802Z</time>
      </trkpt>
      <trkpt lat="43.72844" lon="1.46791">
        <ele>216.120625</ele>
        <time>2022-07-29T14:16:48.790Z</time>
      </trkpt>
      <trkpt lat="43.72835" lon="1.46791">
        <ele>215.705986</ele>
        <time>2022-07-29T14:16:50.789Z</time>
      </trkpt>
      <trkpt lat="43.72827" lon="1.46798">
        <ele>215.304771</ele>
        <time>2022-07-29T14:16:54.796Z</time>
      </trkpt>
      <trkpt lat="43.72831" lon="1.46813">
        <ele>214.788843</ele>
        <time>2022-07-29T14:16:59.786Z</time>
      </trkpt>
      <trkpt lat="43.72836" lon="1.46823">
        <ele>214.38572</ele>
        <time>2022-07-29T14:17:01.818Z</time>
      </trkpt>
      <trkpt lat="43.72839" lon="1.46836">
        <ele>213.96421</ele>
        <time>2022-07-29T14:17:03.794Z</time>
      </trkpt>
      <trkpt lat="43.72842" lon="1.46851">
        <ele>213.456935</ele>
        <time>2022-07-29T14:17:05.783Z</time>
      </trkpt>
      <trkpt lat="43.72843" lon="1.46869">
        <ele>212.898371</ele>
        <time>2022-07-29T14:17:07.785Z</time>
      </trkpt>
      <trkpt lat="43.72846" lon="1.46885">
        <ele>212.371539</ele>
        <time>2022-07-29T14:17:09.813Z</time>
      </trkpt>
      <trkpt lat="43.72848" lon="1.46903">
        <ele>211.783307</ele>
        <time>2022-07-29T14:17:11.817Z</time>
      </trkpt>
      <trkpt lat="43.72851" lon="1.46925">
        <ele>211.090518</ele>
        <time>2022-07-29T14:17:13.791Z</time>
      </trkpt>
      <trkpt lat="43.72853" lon="1.46944">
        <ele>210.449051</ele>
        <time>2022-07-29T14:17:15.802Z</time>
      </trkpt>
      <trkpt lat="43.72856" lon="1.46961">
        <ele>209.730828</ele>
        <time>2022-07-29T14:17:17.795Z</time>
      </trkpt>
      <trkpt lat="43.72863" lon="1.46978">
        <ele>208.688513</ele>
        <time>2022-07-29T14:17:19.798Z</time>
      </trkpt>
      <trkpt lat="43.72873" lon="1.46989">
        <ele>207.747343</ele>
        <time>2022-07-29T14:17:21.779Z</time>
      </trkpt>
      <trkpt lat="43.72884" lon="1.47">
        <ele>206.783885</ele>
        <time>2022-07-29T14:17:23.793Z</time>
      </trkpt>
      <trkpt lat="43.72894" lon="1.47014">
        <ele>205.761842</ele>
        <time>2022-07-29T14:17:25.808Z</time>
      </trkpt>
      <trkpt lat="43.72904" lon="1.47029">
        <ele>204.65638</ele>
        <time>2022-07-29T14:17:27.827Z</time>
      </trkpt>
      <trkpt lat="43.72912" lon="1.47047">
        <ele>203.550126</ele>
        <time>2022-07-29T14:17:29.807Z</time>
      </trkpt>
      <trkpt lat="43.72919" lon="1.47062">
        <ele>202.623772</ele>
        <time>2022-07-29T14:17:31.783Z</time>
      </trkpt>
      <trkpt lat="43.72918" lon="1.47076">
        <ele>201.862472</ele>
        <time>2022-07-29T14:17:34.803Z</time>
      </trkpt>
      <trkpt lat="43.72925" lon="1.47094">
        <ele>200.801457</ele>
        <time>2022-07-29T14:17:37.793Z</time>
      </trkpt>
      <trkpt lat="43.72932" lon="1.4711">
        <ele>199.807976</ele>
        <time>2022-07-29T14:17:39.808Z</time>
      </trkpt>
      <trkpt lat="43.72936" lon="1.47122">
        <ele>199.106007</ele>
        <time>2022-07-29T14:17:41.790Z</time>
      </trkpt>
      <trkpt lat="43.72947" lon="1.4713">
        <ele>198.173274</ele>
        <time>2022-07-29T14:17:44.798Z</time>
      </trkpt>
      <trkpt lat="43.72956" lon="1.47135">
        <ele>197.471373</ele>
        <time>2022-07-29T14:17:46.785Z</time>
      </trkpt>
      <trkpt lat="43.72967" lon="1.47139">
        <ele>197.008602</ele>
        <time>2022-07-29T14:17:48.831Z</time>
      </trkpt>
      <trkpt lat="43.72977" lon="1.47144">
        <ele>196.979105</ele>
        <time>2022-07-29T14:17:50.794Z</time>
      </trkpt>
      <trkpt lat="43.72993" lon="1.47153">
        <ele>196.933916</ele>
        <time>2022-07-29T14:17:52.799Z</time>
      </trkpt>
      <trkpt lat="43.73008" lon="1.47161">
        <ele>196.893502</ele>
        <time>2022-07-29T14:17:54.784Z</time>
      </trkpt>
      <trkpt lat="43.73018" lon="1.4716">
        <ele>196.866025</ele>
        <time>2022-07-29T14:17:57.804Z</time>
      </trkpt>
      <trkpt lat="43.73019" lon="1.47142">
        <ele>196.833563</ele>
        <time>2022-07-29T14:18:00.807Z</time>
      </trkpt>
      <trkpt lat="43.73014" lon="1.47131">
        <ele>196.809224</ele>
        <time>2022-07-29T14:18:02.798Z</time>
      </trkpt>
      <trkpt lat="43.73012" lon="1.47117">
        <ele>196.781687</ele>
        <time>2022-07-29T14:18:05.806Z</time>
      </trkpt>
      <trkpt lat="43.73019" lon="1.47104">
        <ele>196.751593</ele>
        <time>2022-07-29T14:18:07.795Z</time>
      </trkpt>
      <trkpt lat="43.73025" lon="1.47092">
        <ele>196.724088</ele>
        <time>2022-07-29T14:18:09.792Z</time>
      </trkpt>
      <trkpt lat="43.7303" lon="1.4708">
        <ele>196.698029</ele>
        <time>2022-07-29T14:18:11.790Z</time>
      </trkpt>
      <trkpt lat="43.73036" lon="1.47069">
        <ele>196.67116</ele>
        <time>2022-07-29T14:18:13.790Z</time>
      </trkpt>
      <trkpt lat="43.7304" lon="1.47058">
        <ele>196.647681</ele>
        <time>2022-07-29T14:18:16.807Z</time>
      </trkpt>
      <trkpt lat="43.73041" lon="1.47044">
        <ele>196.622582</ele>
        <time>2022-07-29T14:18:20.807Z</time>
      </trkpt>
      <trkpt lat="43.73047" lon="1.47033">
        <ele>196.596629</ele>
        <time>2022-07-29T14:18:25.791Z</time>
      </trkpt>
      <trkpt lat="43.73049" lon="1.47019">
        <ele>196.568669</ele>
        <time>2022-07-29T14:18:29.802Z</time>
      </trkpt>
      <trkpt lat="43.73049" lon="1.47006">
        <ele>196.560322</ele>
        <time>2022-07-29T14:18:32.800Z</time>
      </trkpt>
      <trkpt lat="43.73054" lon="1.4699">
        <ele>196.602924</ele>
        <time>2022-07-29T14:18:35.797Z</time>
      </trkpt>
      <trkpt lat="43.73062" lon="1.46976">
        <ele>196.64597</ele>
        <time>2022-07-29T14:18:38.803Z</time>
      </trkpt>
      <trkpt lat="43.73066" lon="1.46963">
        <ele>196.679598</ele>
        <time>2022-07-29T14:18:40.812Z</time>
      </trkpt>
      <trkpt lat="43.7307" lon="1.46951">
        <ele>196.710216</ele>
        <time>2022-07-29T14:18:42.807Z</time>
      </trkpt>
      <trkpt lat="43.73066" lon="1.46936">
        <ele>196.749748</ele>
        <time>2022-07-29T14:18:45.778Z</time>
      </trkpt>
      <trkpt lat="43.73064" lon="1.46921">
        <ele>196.786414</ele>
        <time>2022-07-29T14:18:48.779Z</time>
      </trkpt>
      <trkpt lat="43.73067" lon="1.46904">
        <ele>196.828087</ele>
        <time>2022-07-29T14:18:51.785Z</time>
      </trkpt>
      <trkpt lat="43.73074" lon="1.46893">
        <ele>196.863741</ele>
        <time>2022-07-29T14:18:53.772Z</time>
      </trkpt>
      <trkpt lat="43.73082" lon="1.46879">
        <ele>196.906602</ele>
        <time>2022-07-29T14:18:55.790Z</time>
      </trkpt>
      <trkpt lat="43.73087" lon="1.46869">
        <ele>196.936851</ele>
        <time>2022-07-29T14:18:57.792Z</time>
      </trkpt>
      <trkpt lat="43.73097" lon="1.46855">
        <ele>196.983621</ele>
        <time>2022-07-29T14:19:00.787Z</time>
      </trkpt>
      <trkpt lat="43.731" lon="1.46843">
        <ele>197.014086</ele>
        <time>2022-07-29T14:19:02.799Z</time>
      </trkpt>
      <trkpt lat="43.73106" lon="1.46832">
        <ele>197.047077</ele>
        <time>2022-07-29T14:19:04.791Z</time>
      </trkpt>
      <trkpt lat="43.73117" lon="1.46825">
        <ele>197.086721</ele>
        <time>2022-07-29T14:19:07.788Z</time>
      </trkpt>
      <trkpt lat="43.73125" lon="1.46812">
        <ele>197.12949</ele>
        <time>2022-07-29T14:19:10.813Z</time>
      </trkpt>
      <trkpt lat="43.73132" lon="1.46803">
        <ele>197.141471</ele>
        <time>2022-07-29T14:19:13.799Z</time>
      </trkpt>
      <trkpt lat="43.7314" lon="1.46795">
        <ele>197.10536</ele>
        <time>2022-07-29T14:19:16.780Z</time>
      </trkpt>
      <trkpt lat="43.73146" lon="1.46782">
        <ele>197.068264</ele>
        <time>2022-07-29T14:19:19.801Z</time>
      </trkpt>
      <trkpt lat="43.73148" lon="1.46768">
        <ele>197.030358</ele>
        <time>2022-07-29T14:19:22.809Z</time>
      </trkpt>
      <trkpt lat="43.73148" lon="1.46753">
        <ele>196.993333</ele>
        <time>2022-07-29T14:19:24.797Z</time>
      </trkpt>
      <trkpt lat="43.73147" lon="1.46737">
        <ele>196.950318</ele>
        <time>2022-07-29T14:19:26.787Z</time>
      </trkpt>
      <trkpt lat="43.73147" lon="1.46718">
        <ele>196.90231</ele>
        <time>2022-07-29T14:19:28.782Z</time>
      </trkpt>
      <trkpt lat="43.73149" lon="1.46704">
        <ele>196.866811</ele>
        <time>2022-07-29T14:19:30.809Z</time>
      </trkpt>
      <trkpt lat="43.73157" lon="1.46695">
        <ele>196.830537</ele>
        <time>2022-07-29T14:19:32.788Z</time>
      </trkpt>
      <trkpt lat="43.73166" lon="1.46685">
        <ele>196.790384</ele>
        <time>2022-07-29T14:19:34.792Z</time>
      </trkpt>
      <trkpt lat="43.73174" lon="1.46678">
        <ele>196.756907</ele>
        <time>2022-07-29T14:19:38.793Z</time>
      </trkpt>
      <trkpt lat="43.73182" lon="1.46667">
        <ele>196.717918</ele>
        <time>2022-07-29T14:19:42.792Z</time>
      </trkpt>
      <trkpt lat="43.73183" lon="1.46652">
        <ele>196.679421</ele>
        <time>2022-07-29T14:19:45.803Z</time>
      </trkpt>
      <trkpt lat="43.73187" lon="1.46636">
        <ele>196.636315</ele>
        <time>2022-07-29T14:19:48.793Z</time>
      </trkpt>
      <trkpt lat="43.73189" lon="1.46621">
        <ele>196.595982</ele>
        <time>2022-07-29T14:19:51.784Z</time>
      </trkpt>
      <trkpt lat="43.73195" lon="1.46607">
        <ele>196.555068</ele>
        <time>2022-07-29T14:19:54.785Z</time>
      </trkpt>
      <trkpt lat="43.73204" lon="1.46594">
        <ele>196.508038</ele>
        <time>2022-07-29T14:19:57.816Z</time>
      </trkpt>
      <trkpt lat="43.73211" lon="1.46583">
        <ele>196.465176</ele>
        <time>2022-07-29T14:19:59.781Z</time>
      </trkpt>
      <trkpt lat="43.73217" lon="1.46572">
        <ele>196.425724</ele>
        <time>2022-07-29T14:20:01.797Z</time>
      </trkpt>
      <trkpt lat="43.73227" lon="1.46559">
        <ele>196.37545</ele>
        <time>2022-07-29T14:20:03.798Z</time>
      </trkpt>
      <trkpt lat="43.73234" lon="1.46548">
        <ele>196.33051</ele>
        <time>2022-07-29T14:20:05.797Z</time>
      </trkpt>
      <trkpt lat="43.73239" lon="1.46534">
        <ele>196.289537</ele>
        <time>2022-07-29T14:20:07.802Z</time>
      </trkpt>
      <trkpt lat="43.73246" lon="1.46523">
        <ele>196.245796</ele>
        <time>2022-07-29T14:20:09.803Z</time>
      </trkpt>
      <trkpt lat="43.7325" lon="1.46507">
        <ele>196.197756</ele>
        <time>2022-07-29T14:20:11.805Z</time>
      </trkpt>
      <trkpt lat="43.73255" lon="1.46495">
        <ele>196.159438</ele>
        <time>2022-07-29T14:20:13.832Z</time>
      </trkpt>
      <trkpt lat="43.73263" lon="1.46486">
        <ele>196.11797</ele>
        <time>2022-07-29T14:20:15.776Z</time>
      </trkpt>
      <trkpt lat="43.7327" lon="1.46472">
        <ele>196.071378</ele>
        <time>2022-07-29T14:20:17.787Z</time>
      </trkpt>
      <trkpt lat="43.73279" lon="1.46467">
        <ele>196.034395</ele>
        <time>2022-07-29T14:20:19.788Z</time>
      </trkpt>
      <trkpt lat="43.7329" lon="1.4647">
        <ele>195.986753</ele>
        <time>2022-07-29T14:20:21.812Z</time>
      </trkpt>
      <trkpt lat="43.733" lon="1.46474">
        <ele>195.949187</ele>
        <time>2022-07-29T14:20:23.775Z</time>
      </trkpt>
      <trkpt lat="43.73312" lon="1.46472">
        <ele>195.900847</ele>
        <time>2022-07-29T14:20:26.794Z</time>
      </trkpt>
      <trkpt lat="43.73314" lon="1.46458">
        <ele>195.859857</ele>
        <time>2022-07-29T14:20:30.792Z</time>
      </trkpt>
      <trkpt lat="43.73306" lon="1.46443">
        <ele>195.817536</ele>
        <time>2022-07-29T14:20:33.799Z</time>
      </trkpt>
      <trkpt lat="43.73305" lon="1.4643">
        <ele>195.897031</ele>
        <time>2022-07-29T14:20:35.790Z</time>
      </trkpt>
      <trkpt lat="43.73311" lon="1.46416">
        <ele>195.994881</ele>
        <time>2022-07-29T14:20:37.803Z</time>
      </trkpt>
      <trkpt lat="43.73318" lon="1.46404">
        <ele>196.090698</ele>
        <time>2022-07-29T14:20:39.783Z</time>
      </trkpt>
      <trkpt lat="43.73325" lon="1.46391">
        <ele>196.1855</ele>
        <time>2022-07-29T14:20:41.832Z</time>
      </trkpt>
      <trkpt lat="43.73331" lon="1.46377">
        <ele>196.280006</ele>
        <time>2022-07-29T14:20:43.803Z</time>
      </trkpt>
      <trkpt lat="43.73337" lon="1.46365">
        <ele>196.368102</ele>
        <time>2022-07-29T14:20:45.789Z</time>
      </trkpt>
      <trkpt lat="43.73343" lon="1.46352">
        <ele>196.46072</ele>
        <time>2022-07-29T14:20:47.812Z</time>
      </trkpt>
      <trkpt lat="43.73348" lon="1.46339">
        <ele>196.55248</ele>
        <time>2022-07-29T14:20:49.803Z</time>
      </trkpt>
      <trkpt lat="43.73355" lon="1.46326">
        <ele>196.645351</ele>
        <time>2022-07-29T14:20:51.806Z</time>
      </trkpt>
      <trkpt lat="43.7336" lon="1.46312">
        <ele>196.738358</ele>
        <time>2022-07-29T14:20:53.799Z</time>
      </trkpt>
      <trkpt lat="43.73365" lon="1.46298">
        <ele>196.832853</ele>
        <time>2022-07-29T14:20:55.784Z</time>
      </trkpt>
      <trkpt lat="43.73363" lon="1.46282">
        <ele>196.924458</ele>
        <time>2022-07-29T14:20:57.803Z</time>
      </trkpt>
      <trkpt lat="43.73353" lon="1.46274">
        <ele>197.020241</ele>
        <time>2022-07-29T14:20:59.793Z</time>
      </trkpt>
      <trkpt lat="43.73342" lon="1.4627">
        <ele>197.111133</ele>
        <time>2022-07-29T14:21:01.785Z</time>
      </trkpt>
      <trkpt lat="43.73332" lon="1.46268">
        <ele>197.192854</ele>
        <time>2022-07-29T14:21:03.812Z</time>
      </trkpt>
      <trkpt lat="43.73319" lon="1.46266">
        <ele>197.313127</ele>
        <time>2022-07-29T14:21:06.779Z</time>
      </trkpt>
      <trkpt lat="43.73308" lon="1.46263">
        <ele>197.469575</ele>
        <time>2022-07-29T14:21:08.783Z</time>
      </trkpt>
      <trkpt lat="43.73298" lon="1.46258">
        <ele>197.626223</ele>
        <time>2022-07-29T14:21:10.792Z</time>
      </trkpt>
      <trkpt lat="43.73291" lon="1.46251">
        <ele>197.765122</ele>
        <time>2022-07-29T14:21:12.745Z</time>
      </trkpt>
      <trkpt lat="43.73283" lon="1.46238">
        <ele>197.936479</ele>
        <time>2022-07-29T14:21:15.760Z</time>
      </trkpt>
      <trkpt lat="43.73278" lon="1.46224">
        <ele>198.104176</ele>
        <time>2022-07-29T14:21:18.769Z</time>
      </trkpt>
      <trkpt lat="43.73274" lon="1.46212">
        <ele>198.240497</ele>
        <time>2022-07-29T14:21:20.750Z</time>
      </trkpt>
      <trkpt lat="43.73268" lon="1.46197">
        <ele>198.428382</ele>
        <time>2022-07-29T14:21:23.762Z</time>
      </trkpt>
      <trkpt lat="43.7326" lon="1.46186">
        <ele>198.586071</ele>
        <time>2022-07-29T14:21:26.765Z</time>
      </trkpt>
      <trkpt lat="43.7325" lon="1.46181">
        <ele>198.753637</ele>
        <time>2022-07-29T14:21:30.776Z</time>
      </trkpt>
      <trkpt lat="43.73241" lon="1.46195">
        <ele>198.952127</ele>
        <time>2022-07-29T14:21:33.776Z</time>
      </trkpt>
      <trkpt lat="43.73236" lon="1.46207">
        <ele>199.094391</ele>
        <time>2022-07-29T14:21:35.769Z</time>
      </trkpt>
      <trkpt lat="43.73231" lon="1.46219">
        <ele>199.2369</ele>
        <time>2022-07-29T14:21:37.770Z</time>
      </trkpt>
      <trkpt lat="43.73224" lon="1.46233">
        <ele>199.421204</ele>
        <time>2022-07-29T14:21:40.766Z</time>
      </trkpt>
      <trkpt lat="43.73204" lon="1.46242">
        <ele>199.728624</ele>
        <time>2022-07-29T14:22:46.795Z</time>
      </trkpt>
      <trkpt lat="43.73196" lon="1.46233">
        <ele>199.884108</ele>
        <time>2022-07-29T14:22:49.780Z</time>
      </trkpt>
      <trkpt lat="43.73188" lon="1.46218">
        <ele>200.094816</ele>
        <time>2022-07-29T14:22:52.771Z</time>
      </trkpt>
      <trkpt lat="43.7318" lon="1.46207">
        <ele>200.273935</ele>
        <time>2022-07-29T14:22:54.773Z</time>
      </trkpt>
      <trkpt lat="43.73173" lon="1.46196">
        <ele>200.44448</ele>
        <time>2022-07-29T14:22:56.773Z</time>
      </trkpt>
      <trkpt lat="43.73165" lon="1.46186">
        <ele>200.611073</ele>
        <time>2022-07-29T14:23:06.797Z</time>
      </trkpt>
      <trkpt lat="43.73155" lon="1.46175">
        <ele>200.817845</ele>
        <time>2022-07-29T14:23:09.783Z</time>
      </trkpt>
      <trkpt lat="43.73149" lon="1.46162">
        <ele>200.997475</ele>
        <time>2022-07-29T14:23:11.773Z</time>
      </trkpt>
      <trkpt lat="43.73143" lon="1.46149">
        <ele>201.175491</ele>
        <time>2022-07-29T14:23:13.785Z</time>
      </trkpt>
      <trkpt lat="43.73135" lon="1.46139">
        <ele>201.351832</ele>
        <time>2022-07-29T14:23:15.774Z</time>
      </trkpt>
      <trkpt lat="43.73126" lon="1.46128">
        <ele>201.532143</ele>
        <time>2022-07-29T14:23:17.780Z</time>
      </trkpt>
      <trkpt lat="43.73119" lon="1.46117">
        <ele>201.710998</ele>
        <time>2022-07-29T14:23:19.775Z</time>
      </trkpt>
      <trkpt lat="43.73111" lon="1.46106">
        <ele>201.890981</ele>
        <time>2022-07-29T14:23:21.768Z</time>
      </trkpt>
      <trkpt lat="43.73103" lon="1.46095">
        <ele>202.06843</ele>
        <time>2022-07-29T14:23:23.800Z</time>
      </trkpt>
      <trkpt lat="43.73096" lon="1.46083">
        <ele>202.244628</ele>
        <time>2022-07-29T14:23:25.777Z</time>
      </trkpt>
      <trkpt lat="43.73094" lon="1.46069">
        <ele>202.417707</ele>
        <time>2022-07-29T14:23:27.780Z</time>
      </trkpt>
      <trkpt lat="43.73093" lon="1.46054">
        <ele>202.584699</ele>
        <time>2022-07-29T14:23:29.780Z</time>
      </trkpt>
      <trkpt lat="43.73083" lon="1.46045">
        <ele>202.769113</ele>
        <time>2022-07-29T14:23:31.777Z</time>
      </trkpt>
      <trkpt lat="43.73073" lon="1.46039">
        <ele>202.914309</ele>
        <time>2022-07-29T14:23:33.792Z</time>
      </trkpt>
      <trkpt lat="43.73064" lon="1.46037">
        <ele>203.023483</ele>
        <time>2022-07-29T14:23:35.769Z</time>
      </trkpt>
      <trkpt lat="43.73059" lon="1.46026">
        <ele>203.138673</ele>
        <time>2022-07-29T14:23:40.769Z</time>
      </trkpt>
      <trkpt lat="43.73065" lon="1.46017">
        <ele>203.246578</ele>
        <time>2022-07-29T14:23:42.774Z</time>
      </trkpt>
      <trkpt lat="43.7307" lon="1.46005">
        <ele>203.363761</ele>
        <time>2022-07-29T14:23:44.770Z</time>
      </trkpt>
      <trkpt lat="43.73074" lon="1.45992">
        <ele>203.485364</ele>
        <time>2022-07-29T14:23:46.783Z</time>
      </trkpt>
      <trkpt lat="43.7308" lon="1.45981">
        <ele>203.603497</ele>
        <time>2022-07-29T14:23:48.765Z</time>
      </trkpt>
      <trkpt lat="43.73087" lon="1.4597">
        <ele>203.732425</ele>
        <time>2022-07-29T14:23:51.791Z</time>
      </trkpt>
      <trkpt lat="43.73097" lon="1.45957">
        <ele>203.897329</ele>
        <time>2022-07-29T14:23:54.772Z</time>
      </trkpt>
      <trkpt lat="43.73103" lon="1.45945">
        <ele>204.024825</ele>
        <time>2022-07-29T14:23:56.783Z</time>
      </trkpt>
      <trkpt lat="43.73107" lon="1.45933">
        <ele>204.132688</ele>
        <time>2022-07-29T14:23:58.776Z</time>
      </trkpt>
      <trkpt lat="43.73116" lon="1.45921">
        <ele>204.276223</ele>
        <time>2022-07-29T14:24:01.761Z</time>
      </trkpt>
      <trkpt lat="43.73122" lon="1.45912">
        <ele>204.384094</ele>
        <time>2022-07-29T14:24:03.774Z</time>
      </trkpt>
      <trkpt lat="43.73128" lon="1.45901">
        <ele>204.502521</ele>
        <time>2022-07-29T14:24:05.784Z</time>
      </trkpt>
      <trkpt lat="43.73136" lon="1.45888">
        <ele>204.658719</ele>
        <time>2022-07-29T14:24:07.766Z</time>
      </trkpt>
      <trkpt lat="43.7314" lon="1.45872">
        <ele>204.80341</ele>
        <time>2022-07-29T14:24:10.784Z</time>
      </trkpt>
      <trkpt lat="43.73135" lon="1.4586">
        <ele>204.922273</ele>
        <time>2022-07-29T14:24:13.774Z</time>
      </trkpt>
      <trkpt lat="43.73132" lon="1.45848">
        <ele>205.206404</ele>
        <time>2022-07-29T14:24:15.763Z</time>
      </trkpt>
      <trkpt lat="43.73129" lon="1.45833">
        <ele>205.612376</ele>
        <time>2022-07-29T14:24:18.772Z</time>
      </trkpt>
      <trkpt lat="43.73121" lon="1.45825">
        <ele>205.963279</ele>
        <time>2022-07-29T14:24:22.765Z</time>
      </trkpt>
      <trkpt lat="43.73119" lon="1.45813">
        <ele>206.313867</ele>
        <time>2022-07-29T14:24:25.774Z</time>
      </trkpt>
      <trkpt lat="43.73121" lon="1.45797">
        <ele>206.726309</ele>
        <time>2022-07-29T14:24:28.792Z</time>
      </trkpt>
      <trkpt lat="43.73119" lon="1.4578">
        <ele>207.190676</ele>
        <time>2022-07-29T14:24:31.779Z</time>
      </trkpt>
      <trkpt lat="43.73113" lon="1.45767">
        <ele>207.618555</ele>
        <time>2022-07-29T14:24:33.790Z</time>
      </trkpt>
      <trkpt lat="43.73104" lon="1.45761">
        <ele>207.979752</ele>
        <time>2022-07-29T14:24:35.780Z</time>
      </trkpt>
      <trkpt lat="43.73097" lon="1.4575">
        <ele>208.375316</ele>
        <time>2022-07-29T14:24:38.794Z</time>
      </trkpt>
      <trkpt lat="43.73103" lon="1.45736">
        <ele>208.794463</ele>
        <time>2022-07-29T14:24:41.771Z</time>
      </trkpt>
      <trkpt lat="43.73109" lon="1.45725">
        <ele>209.183311</ele>
        <time>2022-07-29T14:24:43.781Z</time>
      </trkpt>
      <trkpt lat="43.73118" lon="1.45712">
        <ele>209.655123</ele>
        <time>2022-07-29T14:24:45.787Z</time>
      </trkpt>
      <trkpt lat="43.73126" lon="1.45702">
        <ele>210.061388</ele>
        <time>2022-07-29T14:24:47.794Z</time>
      </trkpt>
      <trkpt lat="43.73125" lon="1.45686">
        <ele>210.477771</ele>
        <time>2022-07-29T14:24:49.796Z</time>
      </trkpt>
      <trkpt lat="43.73124" lon="1.4567">
        <ele>210.897855</ele>
        <time>2022-07-29T14:24:51.774Z</time>
      </trkpt>
      <trkpt lat="43.73127" lon="1.45654">
        <ele>211.345975</ele>
        <time>2022-07-29T14:24:53.785Z</time>
      </trkpt>
      <trkpt lat="43.73131" lon="1.45641">
        <ele>211.604979</ele>
        <time>2022-07-29T14:24:55.786Z</time>
      </trkpt>
      <trkpt lat="43.73137" lon="1.45627">
        <ele>211.584538</ele>
        <time>2022-07-29T14:24:57.796Z</time>
      </trkpt>
      <trkpt lat="43.73143" lon="1.45615">
        <ele>211.565294</ele>
        <time>2022-07-29T14:24:59.784Z</time>
      </trkpt>
      <trkpt lat="43.73156" lon="1.45615">
        <ele>211.541963</ele>
        <time>2022-07-29T14:25:02.791Z</time>
      </trkpt>
      <trkpt lat="43.73166" lon="1.45619">
        <ele>211.523815</ele>
        <time>2022-07-29T14:25:04.792Z</time>
      </trkpt>
      <trkpt lat="43.73176" lon="1.45608">
        <ele>211.501228</ele>
        <time>2022-07-29T14:25:06.797Z</time>
      </trkpt>
      <trkpt lat="43.73184" lon="1.45594">
        <ele>211.477783</ele>
        <time>2022-07-29T14:25:08.788Z</time>
      </trkpt>
      <trkpt lat="43.73191" lon="1.45582">
        <ele>211.457235</ele>
        <time>2022-07-29T14:25:10.796Z</time>
      </trkpt>
      <trkpt lat="43.73197" lon="1.4557">
        <ele>211.438699</ele>
        <time>2022-07-29T14:25:13.797Z</time>
      </trkpt>
      <trkpt lat="43.73186" lon="1.45557">
        <ele>211.413182</ele>
        <time>2022-07-29T14:25:16.817Z</time>
      </trkpt>
      <trkpt lat="43.73177" lon="1.45545">
        <ele>211.390097</ele>
        <time>2022-07-29T14:25:18.787Z</time>
      </trkpt>
      <trkpt lat="43.73167" lon="1.45534">
        <ele>211.367091</ele>
        <time>2022-07-29T14:25:20.792Z</time>
      </trkpt>
      <trkpt lat="43.7316" lon="1.45525">
        <ele>211.349361</ele>
        <time>2022-07-29T14:25:22.787Z</time>
      </trkpt>
      <trkpt lat="43.73161" lon="1.45509">
        <ele>211.32944</ele>
        <time>2022-07-29T14:25:24.799Z</time>
      </trkpt>
      <trkpt lat="43.73161" lon="1.45494">
        <ele>211.308932</ele>
        <time>2022-07-29T14:25:26.792Z</time>
      </trkpt>
      <trkpt lat="43.73157" lon="1.45476">
        <ele>211.461155</ele>
        <time>2022-07-29T14:25:28.803Z</time>
      </trkpt>
      <trkpt lat="43.73156" lon="1.45461">
        <ele>212.380594</ele>
        <time>2022-07-29T14:25:30.780Z</time>
      </trkpt>
      <trkpt lat="43.73154" lon="1.45448">
        <ele>213.238708</ele>
        <time>2022-07-29T14:25:32.811Z</time>
      </trkpt>
      <trkpt lat="43.73149" lon="1.45436">
        <ele>214.083271</ele>
        <time>2022-07-29T14:25:34.796Z</time>
      </trkpt>
      <trkpt lat="43.73142" lon="1.45428">
        <ele>214.898945</ele>
        <time>2022-07-29T14:25:36.788Z</time>
      </trkpt>
      <trkpt lat="43.73135" lon="1.45419">
        <ele>215.704016</ele>
        <time>2022-07-29T14:25:38.801Z</time>
      </trkpt>
      <trkpt lat="43.73125" lon="1.45408">
        <ele>216.786999</ele>
        <time>2022-07-29T14:25:41.799Z</time>
      </trkpt>
      <trkpt lat="43.73115" lon="1.45398">
        <ele>217.858193</ele>
        <time>2022-07-29T14:25:44.798Z</time>
      </trkpt>
      <trkpt lat="43.73108" lon="1.45389">
        <ele>218.706839</ele>
        <time>2022-07-29T14:25:46.807Z</time>
      </trkpt>
      <trkpt lat="43.73101" lon="1.45379">
        <ele>219.574265</ele>
        <time>2022-07-29T14:25:48.802Z</time>
      </trkpt>
      <trkpt lat="43.73092" lon="1.4537">
        <ele>220.522432</ele>
        <time>2022-07-29T14:25:51.800Z</time>
      </trkpt>
      <trkpt lat="43.73083" lon="1.45367">
        <ele>221.326836</ele>
        <time>2022-07-29T14:25:53.784Z</time>
      </trkpt>
      <trkpt lat="43.73072" lon="1.45379">
        <ele>222.49065</ele>
        <time>2022-07-29T14:25:56.794Z</time>
      </trkpt>
      <trkpt lat="43.73064" lon="1.45388">
        <ele>223.410573</ele>
        <time>2022-07-29T14:25:58.801Z</time>
      </trkpt>
      <trkpt lat="43.73055" lon="1.45397">
        <ele>224.34131</ele>
        <time>2022-07-29T14:26:00.788Z</time>
      </trkpt>
      <trkpt lat="43.73046" lon="1.45401">
        <ele>225.130972</ele>
        <time>2022-07-29T14:26:02.795Z</time>
      </trkpt>
      <trkpt lat="43.73036" lon="1.4539">
        <ele>226.192943</ele>
        <time>2022-07-29T14:26:04.793Z</time>
      </trkpt>
      <trkpt lat="43.73027" lon="1.45382">
        <ele>226.63975</ele>
        <time>2022-07-29T14:26:06.804Z</time>
      </trkpt>
      <trkpt lat="43.73015" lon="1.45382">
        <ele>226.303159</ele>
        <time>2022-07-29T14:26:08.805Z</time>
      </trkpt>
      <trkpt lat="43.73004" lon="1.45386">
        <ele>225.987963</ele>
        <time>2022-07-29T14:26:10.790Z</time>
      </trkpt>
      <trkpt lat="43.72997" lon="1.45395">
        <ele>225.713772</ele>
        <time>2022-07-29T14:26:13.810Z</time>
      </trkpt>
      <trkpt lat="43.73005" lon="1.45403">
        <ele>225.436945</ele>
        <time>2022-07-29T14:26:16.783Z</time>
      </trkpt>
      <trkpt lat="43.73015" lon="1.4541">
        <ele>225.124535</ele>
        <time>2022-07-29T14:26:19.803Z</time>
      </trkpt>
      <trkpt lat="43.73024" lon="1.45417">
        <ele>224.835977</ele>
        <time>2022-07-29T14:26:21.821Z</time>
      </trkpt>
      <trkpt lat="43.73031" lon="1.45431">
        <ele>224.505636</ele>
        <time>2022-07-29T14:26:24.787Z</time>
      </trkpt>
      <trkpt lat="43.7305" lon="1.45444">
        <ele>223.904109</ele>
        <time>2022-07-29T14:26:42.792Z</time>
      </trkpt>
      <trkpt lat="43.73053" lon="1.45457">
        <ele>223.635345</ele>
        <time>2022-07-29T14:26:45.788Z</time>
      </trkpt>
      <trkpt lat="43.73056" lon="1.45473">
        <ele>223.29367</ele>
        <time>2022-07-29T14:26:51.800Z</time>
      </trkpt>
      <trkpt lat="43.73052" lon="1.45485">
        <ele>223.037809</ele>
        <time>2022-07-29T14:26:53.782Z</time>
      </trkpt>
      <trkpt lat="43.7305" lon="1.45497">
        <ele>222.781554</ele>
        <time>2022-07-29T14:26:56.790Z</time>
      </trkpt>
      <trkpt lat="43.73055" lon="1.45511">
        <ele>222.450131</ele>
        <time>2022-07-29T14:26:59.789Z</time>
      </trkpt>
      <trkpt lat="43.73062" lon="1.45523">
        <ele>222.146186</ele>
        <time>2022-07-29T14:27:02.802Z</time>
      </trkpt>
      <trkpt lat="43.73069" lon="1.45538">
        <ele>221.779828</ele>
        <time>2022-07-29T14:27:05.791Z</time>
      </trkpt>
      <trkpt lat="43.73076" lon="1.45553">
        <ele>221.740798</ele>
        <time>2022-07-29T14:27:08.796Z</time>
      </trkpt>
      <trkpt lat="43.73078" lon="1.45566">
        <ele>221.760652</ele>
        <time>2022-07-29T14:27:11.789Z</time>
      </trkpt>
      <trkpt lat="43.73081" lon="1.45582">
        <ele>221.785838</ele>
        <time>2022-07-29T14:27:15.804Z</time>
      </trkpt>
      <trkpt lat="43.73086" lon="1.45595">
        <ele>221.807451</ele>
        <time>2022-07-29T14:27:18.801Z</time>
      </trkpt>
      <trkpt lat="43.7309" lon="1.45609">
        <ele>221.828707</ele>
        <time>2022-07-29T14:27:21.799Z</time>
      </trkpt>
      <trkpt lat="43.73088" lon="1.45624">
        <ele>221.850677</ele>
        <time>2022-07-29T14:27:25.784Z</time>
      </trkpt>
      <trkpt lat="43.73092" lon="1.45641">
        <ele>221.877335</ele>
        <time>2022-07-29T14:27:28.796Z</time>
      </trkpt>
      <trkpt lat="43.73091" lon="1.45657">
        <ele>221.902041</ele>
        <time>2022-07-29T14:27:31.797Z</time>
      </trkpt>
      <trkpt lat="43.7309" lon="1.45676">
        <ele>221.928837</ele>
        <time>2022-07-29T14:27:34.810Z</time>
      </trkpt>
      <trkpt lat="43.73092" lon="1.4569">
        <ele>221.949639</ele>
        <time>2022-07-29T14:27:36.781Z</time>
      </trkpt>
      <trkpt lat="43.73091" lon="1.45704">
        <ele>221.970221</ele>
        <time>2022-07-29T14:27:39.788Z</time>
      </trkpt>
      <trkpt lat="43.7309" lon="1.45716">
        <ele>221.98915</ele>
        <time>2022-07-29T14:27:42.794Z</time>
      </trkpt>
      <trkpt lat="43.73085" lon="1.45729">
        <ele>222.009615</ele>
        <time>2022-07-29T14:27:46.792Z</time>
      </trkpt>
      <trkpt lat="43.73073" lon="1.45737">
        <ele>222.036499</ele>
        <time>2022-07-29T14:27:50.772Z</time>
      </trkpt>
      <trkpt lat="43.73061" lon="1.45742">
        <ele>222.062874</ele>
        <time>2022-07-29T14:27:53.783Z</time>
      </trkpt>
      <trkpt lat="43.73051" lon="1.45741">
        <ele>222.082958</ele>
        <time>2022-07-29T14:27:55.781Z</time>
      </trkpt>
      <trkpt lat="43.73041" lon="1.4574">
        <ele>222.366294</ele>
        <time>2022-07-29T14:27:57.768Z</time>
      </trkpt>
      <trkpt lat="43.73034" lon="1.4573">
        <ele>222.675357</ele>
        <time>2022-07-29T14:28:04.764Z</time>
      </trkpt>
      <trkpt lat="43.73037" lon="1.45718">
        <ele>222.959288</ele>
        <time>2022-07-29T14:28:06.776Z</time>
      </trkpt>
      <trkpt lat="43.73043" lon="1.45707">
        <ele>223.28124</ele>
        <time>2022-07-29T14:28:08.775Z</time>
      </trkpt>
      <trkpt lat="43.73047" lon="1.45692">
        <ele>223.631381</ele>
        <time>2022-07-29T14:28:10.766Z</time>
      </trkpt>
      <trkpt lat="43.73052" lon="1.45679">
        <ele>223.975003</ele>
        <time>2022-07-29T14:28:12.786Z</time>
      </trkpt>
      <trkpt lat="43.73056" lon="1.45665">
        <ele>224.313334</ele>
        <time>2022-07-29T14:28:14.776Z</time>
      </trkpt>
      <trkpt lat="43.73055" lon="1.45649">
        <ele>224.67734</ele>
        <time>2022-07-29T14:28:16.774Z</time>
      </trkpt>
      <trkpt lat="43.73048" lon="1.45635">
        <ele>225.045399</ele>
        <time>2022-07-29T14:28:18.778Z</time>
      </trkpt>
      <trkpt lat="43.73039" lon="1.45625">
        <ele>225.402631</ele>
        <time>2022-07-29T14:28:20.774Z</time>
      </trkpt>
      <trkpt lat="43.7303" lon="1.45616">
        <ele>225.76128</ele>
        <time>2022-07-29T14:28:22.778Z</time>
      </trkpt>
      <trkpt lat="43.73021" lon="1.45606">
        <ele>226.120468</ele>
        <time>2022-07-29T14:28:24.778Z</time>
      </trkpt>
      <trkpt lat="43.73012" lon="1.45597">
        <ele>226.470747</ele>
        <time>2022-07-29T14:28:26.774Z</time>
      </trkpt>
      <trkpt lat="43.73004" lon="1.45587">
        <ele>226.814371</ele>
        <time>2022-07-29T14:28:28.777Z</time>
      </trkpt>
      <trkpt lat="43.72995" lon="1.45579">
        <ele>227.158081</ele>
        <time>2022-07-29T14:28:30.775Z</time>
      </trkpt>
      <trkpt lat="43.72985" lon="1.45571">
        <ele>227.50427</ele>
        <time>2022-07-29T14:28:32.775Z</time>
      </trkpt>
      <trkpt lat="43.72976" lon="1.45563">
        <ele>227.719062</ele>
        <time>2022-07-29T14:28:34.777Z</time>
      </trkpt>
      <trkpt lat="43.72966" lon="1.45555">
        <ele>227.666859</ele>
        <time>2022-07-29T14:28:36.775Z</time>
      </trkpt>
      <trkpt lat="43.72957" lon="1.4555">
        <ele>227.619267</ele>
        <time>2022-07-29T14:28:38.781Z</time>
      </trkpt>
      <trkpt lat="43.72956" lon="1.45532">
        <ele>227.559414</ele>
        <time>2022-07-29T14:28:41.787Z</time>
      </trkpt>
      <trkpt lat="43.72961" lon="1.45518">
        <ele>227.509065</ele>
        <time>2022-07-29T14:28:43.762Z</time>
      </trkpt>
      <trkpt lat="43.72965" lon="1.45503">
        <ele>227.454224</ele>
        <time>2022-07-29T14:28:45.782Z</time>
      </trkpt>
      <trkpt lat="43.7297" lon="1.45489">
        <ele>227.398921</ele>
        <time>2022-07-29T14:28:47.771Z</time>
      </trkpt>
      <trkpt lat="43.72975" lon="1.45476">
        <ele>227.349804</ele>
        <time>2022-07-29T14:28:49.771Z</time>
      </trkpt>
      <trkpt lat="43.7297" lon="1.45465">
        <ele>227.307335</ele>
        <time>2022-07-29T14:28:51.781Z</time>
      </trkpt>
      <trkpt lat="43.72959" lon="1.4546">
        <ele>227.254747</ele>
        <time>2022-07-29T14:28:53.768Z</time>
      </trkpt>
      <trkpt lat="43.72948" lon="1.45456">
        <ele>227.201558</ele>
        <time>2022-07-29T14:28:55.772Z</time>
      </trkpt>
      <trkpt lat="43.72939" lon="1.45452">
        <ele>227.15496</ele>
        <time>2022-07-29T14:28:57.771Z</time>
      </trkpt>
      <trkpt lat="43.72929" lon="1.45446">
        <ele>227.103721</ele>
        <time>2022-07-29T14:29:00.767Z</time>
      </trkpt>
      <trkpt lat="43.72936" lon="1.45432">
        <ele>227.047839</ele>
        <time>2022-07-29T14:29:03.781Z</time>
      </trkpt>
      <trkpt lat="43.72937" lon="1.45419">
        <ele>227.00443</ele>
        <time>2022-07-29T14:29:06.781Z</time>
      </trkpt>
      <trkpt lat="43.72928" lon="1.45409">
        <ele>226.94694</ele>
        <time>2022-07-29T14:29:09.784Z</time>
      </trkpt>
      <trkpt lat="43.7292" lon="1.45398">
        <ele>226.894765</ele>
        <time>2022-07-29T14:29:11.774Z</time>
      </trkpt>
      <trkpt lat="43.72911" lon="1.45395">
        <ele>226.898779</ele>
        <time>2022-07-29T14:29:13.770Z</time>
      </trkpt>
      <trkpt lat="43.729" lon="1.45397">
        <ele>226.903251</ele>
        <time>2022-07-29T14:29:15.774Z</time>
      </trkpt>
      <trkpt lat="43.72889" lon="1.45392">
        <ele>226.908308</ele>
        <time>2022-07-29T14:29:17.799Z</time>
      </trkpt>
      <trkpt lat="43.72875" lon="1.45385">
        <ele>226.91493</ele>
        <time>2022-07-29T14:29:19.784Z</time>
      </trkpt>
      <trkpt lat="43.72865" lon="1.45387">
        <ele>226.919292</ele>
        <time>2022-07-29T14:29:21.769Z</time>
      </trkpt>
      <trkpt lat="43.72853" lon="1.45388">
        <ele>226.924372</ele>
        <time>2022-07-29T14:29:23.774Z</time>
      </trkpt>
      <trkpt lat="43.7284" lon="1.45389">
        <ele>226.930067</ele>
        <time>2022-07-29T14:29:25.779Z</time>
      </trkpt>
      <trkpt lat="43.72831" lon="1.4538">
        <ele>226.934854</ele>
        <time>2022-07-29T14:29:27.769Z</time>
      </trkpt>
      <trkpt lat="43.72821" lon="1.45378">
        <ele>226.939424</ele>
        <time>2022-07-29T14:29:29.787Z</time>
      </trkpt>
      <trkpt lat="43.72812" lon="1.45372">
        <ele>226.943685</ele>
        <time>2022-07-29T14:29:31.790Z</time>
      </trkpt>
      <trkpt lat="43.72803" lon="1.45365">
        <ele>226.948348</ele>
        <time>2022-07-29T14:29:33.773Z</time>
      </trkpt>
      <trkpt lat="43.72798" lon="1.45347">
        <ele>226.954237</ele>
        <time>2022-07-29T14:29:36.784Z</time>
      </trkpt>
      <trkpt lat="43.72796" lon="1.45333">
        <ele>226.958948</ele>
        <time>2022-07-29T14:29:38.773Z</time>
      </trkpt>
      <trkpt lat="43.72796" lon="1.45317">
        <ele>226.963688</ele>
        <time>2022-07-29T14:29:41.787Z</time>
      </trkpt>
      <trkpt lat="43.72793" lon="1.453">
        <ele>226.969389</ele>
        <time>2022-07-29T14:29:43.771Z</time>
      </trkpt>
      <trkpt lat="43.7279" lon="1.45282">
        <ele>226.950142</ele>
        <time>2022-07-29T14:29:45.775Z</time>
      </trkpt>
      <trkpt lat="43.72785" lon="1.45268">
        <ele>226.904603</ele>
        <time>2022-07-29T14:29:47.762Z</time>
      </trkpt>
      <trkpt lat="43.72784" lon="1.45255">
        <ele>226.867383</ele>
        <time>2022-07-29T14:29:49.769Z</time>
      </trkpt>
      <trkpt lat="43.72778" lon="1.45242">
        <ele>226.821777</ele>
        <time>2022-07-29T14:29:52.777Z</time>
      </trkpt>
      <trkpt lat="43.72776" lon="1.45229">
        <ele>226.783417</ele>
        <time>2022-07-29T14:29:56.770Z</time>
      </trkpt>
      <trkpt lat="43.72783" lon="1.45211">
        <ele>226.725264</ele>
        <time>2022-07-29T14:29:59.771Z</time>
      </trkpt>
      <trkpt lat="43.72789" lon="1.45198">
        <ele>226.678626</ele>
        <time>2022-07-29T14:30:01.778Z</time>
      </trkpt>
      <trkpt lat="43.72796" lon="1.45185">
        <ele>226.632477</ele>
        <time>2022-07-29T14:30:03.768Z</time>
      </trkpt>
      <trkpt lat="43.72798" lon="1.4517">
        <ele>226.588191</ele>
        <time>2022-07-29T14:30:05.780Z</time>
      </trkpt>
      <trkpt lat="43.728" lon="1.45157">
        <ele>226.548312</ele>
        <time>2022-07-29T14:30:07.769Z</time>
      </trkpt>
      <trkpt lat="43.72805" lon="1.45145">
        <ele>226.508048</ele>
        <time>2022-07-29T14:30:09.769Z</time>
      </trkpt>
      <trkpt lat="43.72809" lon="1.45131">
        <ele>226.462438</ele>
        <time>2022-07-29T14:30:12.773Z</time>
      </trkpt>
      <trkpt lat="43.72816" lon="1.45115">
        <ele>226.407432</ele>
        <time>2022-07-29T14:30:15.777Z</time>
      </trkpt>
      <trkpt lat="43.72823" lon="1.45102">
        <ele>226.361757</ele>
        <time>2022-07-29T14:30:17.779Z</time>
      </trkpt>
      <trkpt lat="43.72834" lon="1.45095">
        <ele>226.313206</ele>
        <time>2022-07-29T14:30:20.772Z</time>
      </trkpt>
      <trkpt lat="43.72842" lon="1.45087">
        <ele>226.272171</ele>
        <time>2022-07-29T14:30:22.771Z</time>
      </trkpt>
      <trkpt lat="43.72846" lon="1.45074">
        <ele>226.298029</ele>
        <time>2022-07-29T14:30:24.774Z</time>
      </trkpt>
      <trkpt lat="43.72846" lon="1.45058">
        <ele>226.462226</ele>
        <time>2022-07-29T14:30:26.770Z</time>
      </trkpt>
      <trkpt lat="43.72845" lon="1.4504">
        <ele>226.650611</ele>
        <time>2022-07-29T14:30:29.782Z</time>
      </trkpt>
      <trkpt lat="43.72853" lon="1.45028">
        <ele>226.81836</ele>
        <time>2022-07-29T14:30:31.780Z</time>
      </trkpt>
      <trkpt lat="43.72859" lon="1.45016">
        <ele>226.968875</ele>
        <time>2022-07-29T14:30:33.772Z</time>
      </trkpt>
      <trkpt lat="43.72863" lon="1.45002">
        <ele>227.122339</ele>
        <time>2022-07-29T14:30:35.784Z</time>
      </trkpt>
      <trkpt lat="43.72869" lon="1.44988">
        <ele>227.291976</ele>
        <time>2022-07-29T14:30:37.776Z</time>
      </trkpt>
      <trkpt lat="43.72874" lon="1.44973">
        <ele>227.461796</ele>
        <time>2022-07-29T14:30:39.787Z</time>
      </trkpt>
      <trkpt lat="43.72879" lon="1.44957">
        <ele>227.646845</ele>
        <time>2022-07-29T14:30:41.795Z</time>
      </trkpt>
      <trkpt lat="43.72884" lon="1.4494">
        <ele>227.830397</ele>
        <time>2022-07-29T14:30:43.781Z</time>
      </trkpt>
      <trkpt lat="43.72888" lon="1.44924">
        <ele>228.004596</ele>
        <time>2022-07-29T14:30:45.789Z</time>
      </trkpt>
      <trkpt lat="43.72891" lon="1.44909">
        <ele>228.168501</ele>
        <time>2022-07-29T14:30:47.790Z</time>
      </trkpt>
      <trkpt lat="43.72896" lon="1.44897">
        <ele>228.306049</ele>
        <time>2022-07-29T14:30:49.783Z</time>
      </trkpt>
      <trkpt lat="43.72904" lon="1.44888">
        <ele>228.453185</ele>
        <time>2022-07-29T14:30:52.788Z</time>
      </trkpt>
      <trkpt lat="43.72912" lon="1.44876">
        <ele>228.619658</ele>
        <time>2022-07-29T14:30:56.805Z</time>
      </trkpt>
      <trkpt lat="43.7292" lon="1.44869">
        <ele>228.755137</ele>
        <time>2022-07-29T14:31:00.787Z</time>
      </trkpt>
      <trkpt lat="43.72909" lon="1.44877">
        <ele>228.339773</ele>
        <time>2022-07-29T14:31:15.800Z</time>
      </trkpt>
      <trkpt lat="43.72901" lon="1.44887">
        <ele>227.841767</ele>
        <time>2022-07-29T14:31:18.801Z</time>
      </trkpt>
      <trkpt lat="43.72894" lon="1.44897">
        <ele>227.37592</ele>
        <time>2022-07-29T14:31:20.823Z</time>
      </trkpt>
      <trkpt lat="43.72884" lon="1.44898">
        <ele>226.894616</ele>
        <time>2022-07-29T14:31:22.779Z</time>
      </trkpt>
      <trkpt lat="43.72873" lon="1.44902">
        <ele>226.354957</ele>
        <time>2022-07-29T14:31:24.778Z</time>
      </trkpt>
      <trkpt lat="43.72863" lon="1.44901">
        <ele>225.874938</ele>
        <time>2022-07-29T14:31:27.776Z</time>
      </trkpt>
      <trkpt lat="43.7286" lon="1.44885">
        <ele>225.302686</ele>
        <time>2022-07-29T14:31:30.802Z</time>
      </trkpt>
      <trkpt lat="43.7286" lon="1.44871">
        <ele>224.829301</ele>
        <time>2022-07-29T14:31:32.786Z</time>
      </trkpt>
      <trkpt lat="43.72857" lon="1.44859">
        <ele>224.393178</ele>
        <time>2022-07-29T14:31:34.810Z</time>
      </trkpt>
      <trkpt lat="43.72853" lon="1.44847">
        <ele>223.923561</ele>
        <time>2022-07-29T14:31:37.799Z</time>
      </trkpt>
      <trkpt lat="43.72844" lon="1.4483">
        <ele>223.214831</ele>
        <time>2022-07-29T14:31:40.801Z</time>
      </trkpt>
      <trkpt lat="43.72835" lon="1.44821">
        <ele>222.703223</ele>
        <time>2022-07-29T14:31:44.794Z</time>
      </trkpt>
      <trkpt lat="43.72825" lon="1.44821">
        <ele>222.204819</ele>
        <time>2022-07-29T14:31:47.789Z</time>
      </trkpt>
      <trkpt lat="43.72815" lon="1.4481">
        <ele>221.606663</ele>
        <time>2022-07-29T14:31:50.788Z</time>
      </trkpt>
      <trkpt lat="43.72809" lon="1.448">
        <ele>221.16363</ele>
        <time>2022-07-29T14:31:54.785Z</time>
      </trkpt>
      <trkpt lat="43.72809" lon="1.44787">
        <ele>220.692711</ele>
        <time>2022-07-29T14:31:57.807Z</time>
      </trkpt>
      <trkpt lat="43.72808" lon="1.44774">
        <ele>220.268134</ele>
        <time>2022-07-29T14:31:59.787Z</time>
      </trkpt>
      <trkpt lat="43.72804" lon="1.4476">
        <ele>220.441635</ele>
        <time>2022-07-29T14:32:03.788Z</time>
      </trkpt>
      <trkpt lat="43.72809" lon="1.44746">
        <ele>220.614452</ele>
        <time>2022-07-29T14:32:06.776Z</time>
      </trkpt>
      <trkpt lat="43.72818" lon="1.44738">
        <ele>220.780372</ele>
        <time>2022-07-29T14:32:09.782Z</time>
      </trkpt>
      <trkpt lat="43.72827" lon="1.44728">
        <ele>220.966601</ele>
        <time>2022-07-29T14:32:12.793Z</time>
      </trkpt>
      <trkpt lat="43.72839" lon="1.4472">
        <ele>221.174029</ele>
        <time>2022-07-29T14:32:15.801Z</time>
      </trkpt>
      <trkpt lat="43.72848" lon="1.44706">
        <ele>221.3804</ele>
        <time>2022-07-29T14:32:17.806Z</time>
      </trkpt>
      <trkpt lat="43.72857" lon="1.44698">
        <ele>221.549295</ele>
        <time>2022-07-29T14:32:19.793Z</time>
      </trkpt>
      <trkpt lat="43.72865" lon="1.44692">
        <ele>221.696026</ele>
        <time>2022-07-29T14:32:22.805Z</time>
      </trkpt>
      <trkpt lat="43.72873" lon="1.44698">
        <ele>221.83895</ele>
        <time>2022-07-29T14:32:25.787Z</time>
      </trkpt>
      <trkpt lat="43.72877" lon="1.44714">
        <ele>222.03363</ele>
        <time>2022-07-29T14:32:29.788Z</time>
      </trkpt>
      <trkpt lat="43.72882" lon="1.44728">
        <ele>222.204413</ele>
        <time>2022-07-29T14:32:32.816Z</time>
      </trkpt>
      <trkpt lat="43.72887" lon="1.44738">
        <ele>222.35105</ele>
        <time>2022-07-29T14:32:35.796Z</time>
      </trkpt>
      <trkpt lat="43.72896" lon="1.4475">
        <ele>222.533967</ele>
        <time>2022-07-29T14:32:38.799Z</time>
      </trkpt>
      <trkpt lat="43.72902" lon="1.44764">
        <ele>222.723912</ele>
        <time>2022-07-29T14:32:42.770Z</time>
      </trkpt>
      <trkpt lat="43.72908" lon="1.44775">
        <ele>222.884451</ele>
        <time>2022-07-29T14:32:45.788Z</time>
      </trkpt>
      <trkpt lat="43.72912" lon="1.44788">
        <ele>223.043469</ele>
        <time>2022-07-29T14:32:48.815Z</time>
      </trkpt>
      <trkpt lat="43.72913" lon="1.44806">
        <ele>223.227267</ele>
        <time>2022-07-29T14:32:51.813Z</time>
      </trkpt>
      <trkpt lat="43.72914" lon="1.44822">
        <ele>223.388667</ele>
        <time>2022-07-29T14:32:54.793Z</time>
      </trkpt>
      <trkpt lat="43.72915" lon="1.44837">
        <ele>223.543636</ele>
        <time>2022-07-29T14:32:56.790Z</time>
      </trkpt>
      <trkpt lat="43.72919" lon="1.44849">
        <ele>223.677932</ele>
        <time>2022-07-29T14:32:58.796Z</time>
      </trkpt>
      <trkpt lat="43.72925" lon="1.44861">
        <ele>223.815625</ele>
        <time>2022-07-29T14:33:00.792Z</time>
      </trkpt>
      <trkpt lat="43.72928" lon="1.44878">
        <ele>223.990408</ele>
        <time>2022-07-29T14:33:03.788Z</time>
      </trkpt>
      <trkpt lat="43.72928" lon="1.44896">
        <ele>224.167859</ele>
        <time>2022-07-29T14:33:06.779Z</time>
      </trkpt>
      <trkpt lat="43.72925" lon="1.44908">
        <ele>224.297681</ele>
        <time>2022-07-29T14:33:09.776Z</time>
      </trkpt>
      <trkpt lat="43.72923" lon="1.44922">
        <ele>224.437265</ele>
        <time>2022-07-29T14:33:12.791Z</time>
      </trkpt>
      <trkpt lat="43.72922" lon="1.44942">
        <ele>224.643231</ele>
        <time>2022-07-29T14:33:15.773Z</time>
      </trkpt>
      <trkpt lat="43.72921" lon="1.44957">
        <ele>224.793678</ele>
        <time>2022-07-29T14:33:17.780Z</time>
      </trkpt>
      <trkpt lat="43.72917" lon="1.44971">
        <ele>224.942216</ele>
        <time>2022-07-29T14:33:19.789Z</time>
      </trkpt>
      <trkpt lat="43.72911" lon="1.4498">
        <ele>225.070954</ele>
        <time>2022-07-29T14:33:21.784Z</time>
      </trkpt>
      <trkpt lat="43.72908" lon="1.44993">
        <ele>225.197701</ele>
        <time>2022-07-29T14:33:23.776Z</time>
      </trkpt>
      <trkpt lat="43.72911" lon="1.45006">
        <ele>225.339284</ele>
        <time>2022-07-29T14:33:25.764Z</time>
      </trkpt>
      <trkpt lat="43.72912" lon="1.45021">
        <ele>225.4867</ele>
        <time>2022-07-29T14:33:27.783Z</time>
      </trkpt>
      <trkpt lat="43.72912" lon="1.45034">
        <ele>225.540839</ele>
        <time>2022-07-29T14:33:29.762Z</time>
      </trkpt>
      <trkpt lat="43.72911" lon="1.45053">
        <ele>225.212392</ele>
        <time>2022-07-29T14:33:31.768Z</time>
      </trkpt>
      <trkpt lat="43.72905" lon="1.45065">
        <ele>224.945107</ele>
        <time>2022-07-29T14:33:33.763Z</time>
      </trkpt>
      <trkpt lat="43.72901" lon="1.45078">
        <ele>224.693841</ele>
        <time>2022-07-29T14:33:35.782Z</time>
      </trkpt>
      <trkpt lat="43.72903" lon="1.45093">
        <ele>224.43787</ele>
        <time>2022-07-29T14:33:37.776Z</time>
      </trkpt>
      <trkpt lat="43.72899" lon="1.45105">
        <ele>224.201618</ele>
        <time>2022-07-29T14:33:40.776Z</time>
      </trkpt>
      <trkpt lat="43.72901" lon="1.45118">
        <ele>223.960327</ele>
        <time>2022-07-29T14:33:42.779Z</time>
      </trkpt>
      <trkpt lat="43.72902" lon="1.45133">
        <ele>223.689626</ele>
        <time>2022-07-29T14:33:43.792Z</time>
      </trkpt>
      <trkpt lat="43.72904" lon="1.4515">
        <ele>223.394548</ele>
        <time>2022-07-29T14:33:45.780Z</time>
      </trkpt>
      <trkpt lat="43.72905" lon="1.45163">
        <ele>223.159552</ele>
        <time>2022-07-29T14:33:47.775Z</time>
      </trkpt>
      <trkpt lat="43.72907" lon="1.45177">
        <ele>222.900665</ele>
        <time>2022-07-29T14:33:50.768Z</time>
      </trkpt>
      <trkpt lat="43.72904" lon="1.45189">
        <ele>222.680074</ele>
        <time>2022-07-29T14:33:52.789Z</time>
      </trkpt>
      <trkpt lat="43.72906" lon="1.45204">
        <ele>222.417559</ele>
        <time>2022-07-29T14:33:56.790Z</time>
      </trkpt>
      <trkpt lat="43.72909" lon="1.45216">
        <ele>222.191167</ele>
        <time>2022-07-29T14:34:01.778Z</time>
      </trkpt>
      <trkpt lat="43.72912" lon="1.45235">
        <ele>221.858396</ele>
        <time>2022-07-29T14:34:03.776Z</time>
      </trkpt>
      <trkpt lat="43.72921" lon="1.45241">
        <ele>221.601316</ele>
        <time>2022-07-29T14:34:07.776Z</time>
      </trkpt>
      <trkpt lat="43.72931" lon="1.45242">
        <ele>221.36867</ele>
        <time>2022-07-29T14:34:10.779Z</time>
      </trkpt>
      <trkpt lat="43.72944" lon="1.45239">
        <ele>221.089083</ele>
        <time>2022-07-29T14:34:13.785Z</time>
      </trkpt>
      <trkpt lat="43.72955" lon="1.45238">
        <ele>220.876177</ele>
        <time>2022-07-29T14:34:16.783Z</time>
      </trkpt>
      <trkpt lat="43.72968" lon="1.45236">
        <ele>220.63947</ele>
        <time>2022-07-29T14:34:19.793Z</time>
      </trkpt>
      <trkpt lat="43.72978" lon="1.45235">
        <ele>220.454366</ele>
        <time>2022-07-29T14:34:20.776Z</time>
      </trkpt>
      <trkpt lat="43.72989" lon="1.45233">
        <ele>220.257318</ele>
        <time>2022-07-29T14:34:22.764Z</time>
      </trkpt>
      <trkpt lat="43.72999" lon="1.45229">
        <ele>220.060914</ele>
        <time>2022-07-29T14:34:24.764Z</time>
      </trkpt>
      <trkpt lat="43.73008" lon="1.45227">
        <ele>219.893127</ele>
        <time>2022-07-29T14:34:26.781Z</time>
      </trkpt>
      <trkpt lat="43.73021" lon="1.45228">
        <ele>219.654663</ele>
        <time>2022-07-29T14:34:30.779Z</time>
      </trkpt>
      <trkpt lat="43.73033" lon="1.4523">
        <ele>219.438628</ele>
        <time>2022-07-29T14:34:33.784Z</time>
      </trkpt>
      <trkpt lat="43.73043" lon="1.45233">
        <ele>219.255771</ele>
        <time>2022-07-29T14:34:35.788Z</time>
      </trkpt>
      <trkpt lat="43.73053" lon="1.45234">
        <ele>219.07204</ele>
        <time>2022-07-29T14:34:37.771Z</time>
      </trkpt>
      <trkpt lat="43.73063" lon="1.45235">
        <ele>218.878857</ele>
        <time>2022-07-29T14:34:39.781Z</time>
      </trkpt>
      <trkpt lat="43.73076" lon="1.45237">
        <ele>218.637975</ele>
        <time>2022-07-29T14:34:41.787Z</time>
      </trkpt>
      <trkpt lat="43.73089" lon="1.45243">
        <ele>218.391626</ele>
        <time>2022-07-29T14:34:43.766Z</time>
      </trkpt>
      <trkpt lat="43.731" lon="1.45249">
        <ele>218.175276</ele>
        <time>2022-07-29T14:34:45.782Z</time>
      </trkpt>
      <trkpt lat="43.73108" lon="1.4526">
        <ele>217.971893</ele>
        <time>2022-07-29T14:34:47.785Z</time>
      </trkpt>
      <trkpt lat="43.73117" lon="1.45273">
        <ele>217.201531</ele>
        <time>2022-07-29T14:34:49.771Z</time>
      </trkpt>
      <trkpt lat="43.73125" lon="1.4528">
        <ele>216.523093</ele>
        <time>2022-07-29T14:34:51.789Z</time>
      </trkpt>
      <trkpt lat="43.73135" lon="1.4528">
        <ele>215.763134</ele>
        <time>2022-07-29T14:34:56.769Z</time>
      </trkpt>
      <trkpt lat="43.73156" lon="1.45275">
        <ele>214.223613</ele>
        <time>2022-07-29T14:35:02.773Z</time>
      </trkpt>
      <trkpt lat="43.7317" lon="1.45274">
        <ele>213.244923</ele>
        <time>2022-07-29T14:35:07.784Z</time>
      </trkpt>
      <trkpt lat="43.73181" lon="1.45273">
        <ele>212.437268</ele>
        <time>2022-07-29T14:35:10.791Z</time>
      </trkpt>
      <trkpt lat="43.73191" lon="1.4527">
        <ele>211.732079</ele>
        <time>2022-07-29T14:35:12.773Z</time>
      </trkpt>
      <trkpt lat="43.732" lon="1.45266">
        <ele>211.028815</ele>
        <time>2022-07-29T14:35:14.777Z</time>
      </trkpt>
      <trkpt lat="43.73209" lon="1.45261">
        <ele>210.30043</ele>
        <time>2022-07-29T14:35:16.777Z</time>
      </trkpt>
      <trkpt lat="43.7322" lon="1.45258">
        <ele>209.481945</ele>
        <time>2022-07-29T14:35:18.764Z</time>
      </trkpt>
      <trkpt lat="43.73231" lon="1.45254">
        <ele>208.704823</ele>
        <time>2022-07-29T14:35:20.774Z</time>
      </trkpt>
      <trkpt lat="43.7324" lon="1.45249">
        <ele>207.983636</ele>
        <time>2022-07-29T14:35:22.793Z</time>
      </trkpt>
      <trkpt lat="43.73249" lon="1.45248">
        <ele>207.307673</ele>
        <time>2022-07-29T14:35:24.761Z</time>
      </trkpt>
      <trkpt lat="43.73262" lon="1.45248">
        <ele>206.395434</ele>
        <time>2022-07-29T14:35:26.780Z</time>
      </trkpt>
      <trkpt lat="43.73277" lon="1.4525">
        <ele>205.270956</ele>
        <time>2022-07-29T14:35:28.786Z</time>
      </trkpt>
      <trkpt lat="43.73292" lon="1.45251">
        <ele>204.617332</ele>
        <time>2022-07-29T14:35:30.797Z</time>
      </trkpt>
      <trkpt lat="43.73306" lon="1.45252">
        <ele>204.243635</ele>
        <time>2022-07-29T14:35:32.783Z</time>
      </trkpt>
      <trkpt lat="43.73319" lon="1.45252">
        <ele>203.867674</ele>
        <time>2022-07-29T14:35:34.794Z</time>
      </trkpt>
      <trkpt lat="43.73333" lon="1.45251">
        <ele>203.477183</ele>
        <time>2022-07-29T14:35:36.778Z</time>
      </trkpt>
      <trkpt lat="43.73347" lon="1.4525">
        <ele>203.089681</ele>
        <time>2022-07-29T14:35:38.790Z</time>
      </trkpt>
      <trkpt lat="43.73361" lon="1.4525">
        <ele>202.705129</ele>
        <time>2022-07-29T14:35:40.773Z</time>
      </trkpt>
      <trkpt lat="43.73375" lon="1.45248">
        <ele>202.305268</ele>
        <time>2022-07-29T14:35:42.782Z</time>
      </trkpt>
      <trkpt lat="43.7339" lon="1.45247">
        <ele>201.90098</ele>
        <time>2022-07-29T14:35:44.770Z</time>
      </trkpt>
      <trkpt lat="43.73405" lon="1.45246">
        <ele>201.482784</ele>
        <time>2022-07-29T14:35:46.780Z</time>
      </trkpt>
      <trkpt lat="43.7342" lon="1.45244">
        <ele>201.064256</ele>
        <time>2022-07-29T14:35:48.777Z</time>
      </trkpt>
      <trkpt lat="43.73435" lon="1.45244">
        <ele>200.638072</ele>
        <time>2022-07-29T14:35:50.770Z</time>
      </trkpt>
      <trkpt lat="43.7345" lon="1.45243">
        <ele>200.233439</ele>
        <time>2022-07-29T14:35:52.780Z</time>
      </trkpt>
      <trkpt lat="43.73463" lon="1.45242">
        <ele>199.853753</ele>
        <time>2022-07-29T14:35:54.776Z</time>
      </trkpt>
      <trkpt lat="43.73478" lon="1.4524">
        <ele>199.51794</ele>
        <time>2022-07-29T14:35:56.787Z</time>
      </trkpt>
      <trkpt lat="43.73492" lon="1.45239">
        <ele>199.189657</ele>
        <time>2022-07-29T14:35:58.785Z</time>
      </trkpt>
      <trkpt lat="43.73506" lon="1.45238">
        <ele>198.861374</ele>
        <time>2022-07-29T14:36:00.784Z</time>
      </trkpt>
      <trkpt lat="43.73521" lon="1.45236">
        <ele>198.508918</ele>
        <time>2022-07-29T14:36:02.783Z</time>
      </trkpt>
      <trkpt lat="43.73536" lon="1.45234">
        <ele>198.167874</ele>
        <time>2022-07-29T14:36:04.767Z</time>
      </trkpt>
      <trkpt lat="43.73551" lon="1.45232">
        <ele>197.806688</ele>
        <time>2022-07-29T14:36:06.791Z</time>
      </trkpt>
      <trkpt lat="43.73567" lon="1.4523">
        <ele>197.437382</ele>
        <time>2022-07-29T14:36:08.773Z</time>
      </trkpt>
      <trkpt lat="43.73583" lon="1.45229">
        <ele>197.06007</ele>
        <time>2022-07-29T14:36:10.790Z</time>
      </trkpt>
      <trkpt lat="43.73599" lon="1.45227">
        <ele>196.694127</ele>
        <time>2022-07-29T14:36:12.791Z</time>
      </trkpt>
      <trkpt lat="43.73615" lon="1.45225">
        <ele>196.329943</ele>
        <time>2022-07-29T14:36:14.781Z</time>
      </trkpt>
      <trkpt lat="43.7363" lon="1.45224">
        <ele>195.981001</ele>
        <time>2022-07-29T14:36:16.782Z</time>
      </trkpt>
      <trkpt lat="43.73642" lon="1.45224">
        <ele>195.695783</ele>
        <time>2022-07-29T14:36:18.795Z</time>
      </trkpt>
      <trkpt lat="43.73652" lon="1.45226">
        <ele>195.501874</ele>
        <time>2022-07-29T14:36:22.802Z</time>
      </trkpt>
      <trkpt lat="43.73664" lon="1.45226">
        <ele>195.288193</ele>
        <time>2022-07-29T14:36:25.791Z</time>
      </trkpt>
      <trkpt lat="43.73674" lon="1.45232">
        <ele>195.085779</ele>
        <time>2022-07-29T14:36:27.777Z</time>
      </trkpt>
      <trkpt lat="43.73682" lon="1.45244">
        <ele>194.867541</ele>
        <time>2022-07-29T14:36:29.791Z</time>
      </trkpt>
      <trkpt lat="43.73686" lon="1.45261">
        <ele>194.631503</ele>
        <time>2022-07-29T14:36:31.780Z</time>
      </trkpt>
      <trkpt lat="43.73687" lon="1.45279">
        <ele>194.384112</ele>
        <time>2022-07-29T14:36:33.796Z</time>
      </trkpt>
      <trkpt lat="43.73694" lon="1.45293">
        <ele>194.15233</ele>
        <time>2022-07-29T14:36:35.796Z</time>
      </trkpt>
      <trkpt lat="43.73705" lon="1.45301">
        <ele>193.926262</ele>
        <time>2022-07-29T14:36:37.784Z</time>
      </trkpt>
      <trkpt lat="43.73717" lon="1.45306">
        <ele>193.698022</ele>
        <time>2022-07-29T14:36:39.790Z</time>
      </trkpt>
      <trkpt lat="43.73729" lon="1.45312">
        <ele>193.459499</ele>
        <time>2022-07-29T14:36:41.798Z</time>
      </trkpt>
      <trkpt lat="43.73741" lon="1.45318">
        <ele>193.221799</ele>
        <time>2022-07-29T14:36:43.820Z</time>
      </trkpt>
      <trkpt lat="43.73753" lon="1.45322">
        <ele>192.987213</ele>
        <time>2022-07-29T14:36:45.786Z</time>
      </trkpt>
      <trkpt lat="43.73765" lon="1.45325">
        <ele>192.76407</ele>
        <time>2022-07-29T14:36:47.775Z</time>
      </trkpt>
      <trkpt lat="43.73777" lon="1.4533">
        <ele>192.53761</ele>
        <time>2022-07-29T14:36:49.781Z</time>
      </trkpt>
      <trkpt lat="43.73788" lon="1.45334">
        <ele>192.323396</ele>
        <time>2022-07-29T14:36:51.786Z</time>
      </trkpt>
      <trkpt lat="43.738" lon="1.45338">
        <ele>192.145294</ele>
        <time>2022-07-29T14:36:53.771Z</time>
      </trkpt>
      <trkpt lat="43.73812" lon="1.4534">
        <ele>191.966693</ele>
        <time>2022-07-29T14:36:55.775Z</time>
      </trkpt>
      <trkpt lat="43.73824" lon="1.45341">
        <ele>191.791481</ele>
        <time>2022-07-29T14:36:57.796Z</time>
      </trkpt>
      <trkpt lat="43.73835" lon="1.4534">
        <ele>191.613358</ele>
        <time>2022-07-29T14:36:59.808Z</time>
      </trkpt>
      <trkpt lat="43.73847" lon="1.45339">
        <ele>191.43756</ele>
        <time>2022-07-29T14:37:01.777Z</time>
      </trkpt>
      <trkpt lat="43.73859" lon="1.45336">
        <ele>191.26452</ele>
        <time>2022-07-29T14:37:03.792Z</time>
      </trkpt>
      <trkpt lat="43.7387" lon="1.45334">
        <ele>191.092956</ele>
        <time>2022-07-29T14:37:05.793Z</time>
      </trkpt>
      <trkpt lat="43.73881" lon="1.4533">
        <ele>190.917666</ele>
        <time>2022-07-29T14:37:07.795Z</time>
      </trkpt>
      <trkpt lat="43.73893" lon="1.45327">
        <ele>190.740265</ele>
        <time>2022-07-29T14:37:09.800Z</time>
      </trkpt>
      <trkpt lat="43.73905" lon="1.45323">
        <ele>190.558021</ele>
        <time>2022-07-29T14:37:11.817Z</time>
      </trkpt>
      <trkpt lat="43.73917" lon="1.45321">
        <ele>190.37465</ele>
        <time>2022-07-29T14:37:13.817Z</time>
      </trkpt>
      <trkpt lat="43.73929" lon="1.45321">
        <ele>190.192005</ele>
        <time>2022-07-29T14:37:15.794Z</time>
      </trkpt>
      <trkpt lat="43.73941" lon="1.45326">
        <ele>190.010891</ele>
        <time>2022-07-29T14:37:17.788Z</time>
      </trkpt>
      <trkpt lat="43.73952" lon="1.45332">
        <ele>189.829813</ele>
        <time>2022-07-29T14:37:19.776Z</time>
      </trkpt>
      <trkpt lat="43.73963" lon="1.45339">
        <ele>189.648517</ele>
        <time>2022-07-29T14:37:21.794Z</time>
      </trkpt>
      <trkpt lat="43.73974" lon="1.45346">
        <ele>189.494464</ele>
        <time>2022-07-29T14:37:23.799Z</time>
      </trkpt>
      <trkpt lat="43.73985" lon="1.45353">
        <ele>189.343083</ele>
        <time>2022-07-29T14:37:25.780Z</time>
      </trkpt>
      <trkpt lat="43.73996" lon="1.4536">
        <ele>189.197833</ele>
        <time>2022-07-29T14:37:27.815Z</time>
      </trkpt>
      <trkpt lat="43.74006" lon="1.45367">
        <ele>189.052825</ele>
        <time>2022-07-29T14:37:29.790Z</time>
      </trkpt>
      <trkpt lat="43.74016" lon="1.45374">
        <ele>188.908233</ele>
        <time>2022-07-29T14:37:31.789Z</time>
      </trkpt>
      <trkpt lat="43.74026" lon="1.45381">
        <ele>188.765592</ele>
        <time>2022-07-29T14:37:33.793Z</time>
      </trkpt>
      <trkpt lat="43.74036" lon="1.45388">
        <ele>188.62295</ele>
        <time>2022-07-29T14:37:35.798Z</time>
      </trkpt>
      <trkpt lat="43.74046" lon="1.45395">
        <ele>188.480309</ele>
        <time>2022-07-29T14:37:37.801Z</time>
      </trkpt>
      <trkpt lat="43.74057" lon="1.45403">
        <ele>188.330677</ele>
        <time>2022-07-29T14:37:39.779Z</time>
      </trkpt>
      <trkpt lat="43.74068" lon="1.45411">
        <ele>188.173473</ele>
        <time>2022-07-29T14:37:41.792Z</time>
      </trkpt>
      <trkpt lat="43.74079" lon="1.45419">
        <ele>188.01813</ele>
        <time>2022-07-29T14:37:43.849Z</time>
      </trkpt>
      <trkpt lat="43.74089" lon="1.45428">
        <ele>187.861419</ele>
        <time>2022-07-29T14:37:45.805Z</time>
      </trkpt>
      <trkpt lat="43.741" lon="1.45437">
        <ele>187.707599</ele>
        <time>2022-07-29T14:37:47.792Z</time>
      </trkpt>
      <trkpt lat="43.7411" lon="1.45446">
        <ele>187.553668</ele>
        <time>2022-07-29T14:37:49.769Z</time>
      </trkpt>
      <trkpt lat="43.7412" lon="1.45455">
        <ele>187.398866</ele>
        <time>2022-07-29T14:37:51.807Z</time>
      </trkpt>
      <trkpt lat="43.74131" lon="1.45464">
        <ele>187.014252</ele>
        <time>2022-07-29T14:37:53.800Z</time>
      </trkpt>
      <trkpt lat="43.74141" lon="1.45473">
        <ele>186.62623</ele>
        <time>2022-07-29T14:37:55.849Z</time>
      </trkpt>
      <trkpt lat="43.74152" lon="1.45481">
        <ele>186.222415</ele>
        <time>2022-07-29T14:37:57.807Z</time>
      </trkpt>
      <trkpt lat="43.74164" lon="1.45489">
        <ele>185.808491</ele>
        <time>2022-07-29T14:37:59.796Z</time>
      </trkpt>
      <trkpt lat="43.74174" lon="1.455">
        <ele>185.402745</ele>
        <time>2022-07-29T14:38:01.813Z</time>
      </trkpt>
      <trkpt lat="43.74186" lon="1.4551">
        <ele>184.94835</ele>
        <time>2022-07-29T14:38:03.816Z</time>
      </trkpt>
      <trkpt lat="43.74199" lon="1.45521">
        <ele>184.458181</ele>
        <time>2022-07-29T14:38:05.797Z</time>
      </trkpt>
      <trkpt lat="43.74212" lon="1.45532">
        <ele>183.978264</ele>
        <time>2022-07-29T14:38:07.792Z</time>
      </trkpt>
      <trkpt lat="43.74225" lon="1.45542">
        <ele>183.497972</ele>
        <time>2022-07-29T14:38:09.781Z</time>
      </trkpt>
      <trkpt lat="43.74239" lon="1.45553">
        <ele>183.00359</ele>
        <time>2022-07-29T14:38:11.804Z</time>
      </trkpt>
      <trkpt lat="43.74251" lon="1.45564">
        <ele>182.531118</ele>
        <time>2022-07-29T14:38:13.798Z</time>
      </trkpt>
      <trkpt lat="43.74264" lon="1.45574">
        <ele>182.068038</ele>
        <time>2022-07-29T14:38:15.811Z</time>
      </trkpt>
      <trkpt lat="43.74276" lon="1.45584">
        <ele>181.655591</ele>
        <time>2022-07-29T14:38:17.781Z</time>
      </trkpt>
      <trkpt lat="43.74289" lon="1.45593">
        <ele>181.536503</ele>
        <time>2022-07-29T14:38:19.797Z</time>
      </trkpt>
      <trkpt lat="43.743" lon="1.45603">
        <ele>181.42284</ele>
        <time>2022-07-29T14:38:21.809Z</time>
      </trkpt>
      <trkpt lat="43.74311" lon="1.45611">
        <ele>181.315215</ele>
        <time>2022-07-29T14:38:23.789Z</time>
      </trkpt>
      <trkpt lat="43.74321" lon="1.45621">
        <ele>181.206207</ele>
        <time>2022-07-29T14:38:25.784Z</time>
      </trkpt>
      <trkpt lat="43.74332" lon="1.45629">
        <ele>181.103139</ele>
        <time>2022-07-29T14:38:27.794Z</time>
      </trkpt>
      <trkpt lat="43.74342" lon="1.45636">
        <ele>181.004424</ele>
        <time>2022-07-29T14:38:29.782Z</time>
      </trkpt>
      <trkpt lat="43.74353" lon="1.45642">
        <ele>180.904656</ele>
        <time>2022-07-29T14:38:31.799Z</time>
      </trkpt>
      <trkpt lat="43.74364" lon="1.45648">
        <ele>180.803171</ele>
        <time>2022-07-29T14:38:33.786Z</time>
      </trkpt>
      <trkpt lat="43.74375" lon="1.45654">
        <ele>180.702123</ele>
        <time>2022-07-29T14:38:35.770Z</time>
      </trkpt>
      <trkpt lat="43.74385" lon="1.45659">
        <ele>180.602724</ele>
        <time>2022-07-29T14:38:37.780Z</time>
      </trkpt>
      <trkpt lat="43.74397" lon="1.45663">
        <ele>180.503835</ele>
        <time>2022-07-29T14:38:39.773Z</time>
      </trkpt>
      <trkpt lat="43.74407" lon="1.45666">
        <ele>180.407897</ele>
        <time>2022-07-29T14:38:41.784Z</time>
      </trkpt>
      <trkpt lat="43.74418" lon="1.45668">
        <ele>180.315294</ele>
        <time>2022-07-29T14:38:43.771Z</time>
      </trkpt>
      <trkpt lat="43.74429" lon="1.45671">
        <ele>180.223439</ele>
        <time>2022-07-29T14:38:45.764Z</time>
      </trkpt>
      <trkpt lat="43.74438" lon="1.45674">
        <ele>180.137015</ele>
        <time>2022-07-29T14:38:47.772Z</time>
      </trkpt>
      <trkpt lat="43.74448" lon="1.45678">
        <ele>179.995022</ele>
        <time>2022-07-29T14:38:49.773Z</time>
      </trkpt>
      <trkpt lat="43.7446" lon="1.45684">
        <ele>179.810439</ele>
        <time>2022-07-29T14:38:51.779Z</time>
      </trkpt>
      <trkpt lat="43.74473" lon="1.45691">
        <ele>179.60013</ele>
        <time>2022-07-29T14:38:53.762Z</time>
      </trkpt>
      <trkpt lat="43.74487" lon="1.45696">
        <ele>179.379022</ele>
        <time>2022-07-29T14:38:55.778Z</time>
      </trkpt>
      <trkpt lat="43.74502" lon="1.457">
        <ele>179.161537</ele>
        <time>2022-07-29T14:38:57.775Z</time>
      </trkpt>
      <trkpt lat="43.74514" lon="1.457">
        <ele>178.97929</ele>
        <time>2022-07-29T14:38:59.784Z</time>
      </trkpt>
      <trkpt lat="43.74525" lon="1.45701">
        <ele>178.814867</ele>
        <time>2022-07-29T14:39:01.777Z</time>
      </trkpt>
      <trkpt lat="43.74533" lon="1.45688">
        <ele>178.635283</ele>
        <time>2022-07-29T14:39:05.772Z</time>
      </trkpt>
      <trkpt lat="43.74535" lon="1.45676">
        <ele>178.496374</ele>
        <time>2022-07-29T14:39:07.776Z</time>
      </trkpt>
      <trkpt lat="43.7454" lon="1.45662">
        <ele>178.329812</ele>
        <time>2022-07-29T14:39:09.788Z</time>
      </trkpt>
      <trkpt lat="43.74544" lon="1.45647">
        <ele>178.15378</ele>
        <time>2022-07-29T14:39:11.788Z</time>
      </trkpt>
      <trkpt lat="43.74547" lon="1.45631">
        <ele>177.976835</ele>
        <time>2022-07-29T14:39:13.776Z</time>
      </trkpt>
      <trkpt lat="43.74551" lon="1.45615">
        <ele>177.798334</ele>
        <time>2022-07-29T14:39:15.777Z</time>
      </trkpt>
      <trkpt lat="43.74554" lon="1.45599">
        <ele>177.619974</ele>
        <time>2022-07-29T14:39:17.784Z</time>
      </trkpt>
      <trkpt lat="43.74556" lon="1.45583">
        <ele>177.437794</ele>
        <time>2022-07-29T14:39:19.803Z</time>
      </trkpt>
      <trkpt lat="43.74559" lon="1.45565">
        <ele>177.482389</ele>
        <time>2022-07-29T14:39:21.786Z</time>
      </trkpt>
      <trkpt lat="43.74561" lon="1.45547">
        <ele>177.532768</ele>
        <time>2022-07-29T14:39:23.773Z</time>
      </trkpt>
      <trkpt lat="43.74564" lon="1.45528">
        <ele>177.584807</ele>
        <time>2022-07-29T14:39:25.772Z</time>
      </trkpt>
      <trkpt lat="43.74566" lon="1.45509">
        <ele>177.636314</ele>
        <time>2022-07-29T14:39:27.775Z</time>
      </trkpt>
      <trkpt lat="43.74569" lon="1.45491">
        <ele>177.686632</ele>
        <time>2022-07-29T14:39:29.790Z</time>
      </trkpt>
      <trkpt lat="43.74571" lon="1.45473">
        <ele>177.734833</ele>
        <time>2022-07-29T14:39:31.772Z</time>
      </trkpt>
      <trkpt lat="43.74573" lon="1.45457">
        <ele>177.779571</ele>
        <time>2022-07-29T14:39:33.776Z</time>
      </trkpt>
      <trkpt lat="43.74575" lon="1.45441">
        <ele>177.822935</ele>
        <time>2022-07-29T14:39:35.792Z</time>
      </trkpt>
      <trkpt lat="43.74576" lon="1.45425">
        <ele>177.865621</ele>
        <time>2022-07-29T14:39:37.788Z</time>
      </trkpt>
      <trkpt lat="43.74576" lon="1.4541">
        <ele>177.907735</ele>
        <time>2022-07-29T14:39:39.776Z</time>
      </trkpt>
      <trkpt lat="43.74579" lon="1.45395">
        <ele>177.950056</ele>
        <time>2022-07-29T14:39:41.769Z</time>
      </trkpt>
      <trkpt lat="43.74583" lon="1.4538">
        <ele>177.992687</ele>
        <time>2022-07-29T14:39:43.776Z</time>
      </trkpt>
      <trkpt lat="43.7459" lon="1.45368">
        <ele>178.034897</ele>
        <time>2022-07-29T14:39:45.780Z</time>
      </trkpt>
      <trkpt lat="43.74597" lon="1.45355">
        <ele>178.077105</ele>
        <time>2022-07-29T14:39:47.774Z</time>
      </trkpt>
      <trkpt lat="43.74602" lon="1.45341">
        <ele>178.090788</ele>
        <time>2022-07-29T14:39:49.774Z</time>
      </trkpt>
      <trkpt lat="43.74609" lon="1.45329">
        <ele>178.032395</ele>
        <time>2022-07-29T14:39:51.775Z</time>
      </trkpt>
      <trkpt lat="43.74616" lon="1.45316">
        <ele>177.973396</ele>
        <time>2022-07-29T14:39:53.772Z</time>
      </trkpt>
      <trkpt lat="43.74623" lon="1.45302">
        <ele>177.911629</ele>
        <time>2022-07-29T14:39:55.773Z</time>
      </trkpt>
      <trkpt lat="43.74629" lon="1.45287">
        <ele>177.849501</ele>
        <time>2022-07-29T14:39:57.770Z</time>
      </trkpt>
      <trkpt lat="43.74635" lon="1.45273">
        <ele>177.787952</ele>
        <time>2022-07-29T14:39:59.776Z</time>
      </trkpt>
      <trkpt lat="43.74641" lon="1.45259">
        <ele>177.727274</ele>
        <time>2022-07-29T14:40:01.767Z</time>
      </trkpt>
      <trkpt lat="43.74646" lon="1.45243">
        <ele>177.665301</ele>
        <time>2022-07-29T14:40:03.773Z</time>
      </trkpt>
      <trkpt lat="43.74649" lon="1.45228">
        <ele>177.605369</ele>
        <time>2022-07-29T14:40:05.777Z</time>
      </trkpt>
      <trkpt lat="43.74651" lon="1.45212">
        <ele>177.545165</ele>
        <time>2022-07-29T14:40:07.788Z</time>
      </trkpt>
      <trkpt lat="43.74653" lon="1.45195">
        <ele>177.483335</ele>
        <time>2022-07-29T14:40:09.779Z</time>
      </trkpt>
      <trkpt lat="43.74654" lon="1.45179">
        <ele>177.422118</ele>
        <time>2022-07-29T14:40:11.783Z</time>
      </trkpt>
      <trkpt lat="43.74656" lon="1.45162">
        <ele>177.359363</ele>
        <time>2022-07-29T14:40:13.776Z</time>
      </trkpt>
      <trkpt lat="43.74658" lon="1.45145">
        <ele>177.296686</ele>
        <time>2022-07-29T14:40:15.768Z</time>
      </trkpt>
      <trkpt lat="43.74659" lon="1.45128">
        <ele>177.233965</ele>
        <time>2022-07-29T14:40:17.776Z</time>
      </trkpt>
      <trkpt lat="43.7466" lon="1.45111">
        <ele>177.165985</ele>
        <time>2022-07-29T14:40:19.774Z</time>
      </trkpt>
      <trkpt lat="43.74657" lon="1.45095">
        <ele>177.08097</ele>
        <time>2022-07-29T14:40:21.774Z</time>
      </trkpt>
      <trkpt lat="43.74652" lon="1.45079">
        <ele>176.996156</ele>
        <time>2022-07-29T14:40:23.793Z</time>
      </trkpt>
      <trkpt lat="43.74646" lon="1.45065">
        <ele>176.910754</ele>
        <time>2022-07-29T14:40:25.760Z</time>
      </trkpt>
      <trkpt lat="43.7464" lon="1.4505">
        <ele>176.82743</ele>
        <time>2022-07-29T14:40:27.768Z</time>
      </trkpt>
      <trkpt lat="43.74637" lon="1.45034">
        <ele>176.74605</ele>
        <time>2022-07-29T14:40:29.777Z</time>
      </trkpt>
      <trkpt lat="43.74637" lon="1.45018">
        <ele>176.663945</ele>
        <time>2022-07-29T14:40:31.771Z</time>
      </trkpt>
      <trkpt lat="43.74638" lon="1.45001">
        <ele>176.582047</ele>
        <time>2022-07-29T14:40:33.776Z</time>
      </trkpt>
      <trkpt lat="43.74639" lon="1.44985">
        <ele>176.500585</ele>
        <time>2022-07-29T14:40:35.777Z</time>
      </trkpt>
      <trkpt lat="43.7464" lon="1.44969">
        <ele>176.419242</ele>
        <time>2022-07-29T14:40:37.777Z</time>
      </trkpt>
      <trkpt lat="43.74641" lon="1.44953">
        <ele>176.338137</ele>
        <time>2022-07-29T14:40:39.786Z</time>
      </trkpt>
      <trkpt lat="43.74642" lon="1.44937">
        <ele>176.256793</ele>
        <time>2022-07-29T14:40:41.788Z</time>
      </trkpt>
      <trkpt lat="43.74643" lon="1.44921">
        <ele>176.176998</ele>
        <time>2022-07-29T14:40:43.781Z</time>
      </trkpt>
      <trkpt lat="43.74644" lon="1.44905">
        <ele>176.097288</ele>
        <time>2022-07-29T14:40:45.780Z</time>
      </trkpt>
      <trkpt lat="43.74644" lon="1.44889">
        <ele>176.01611</ele>
        <time>2022-07-29T14:40:47.772Z</time>
      </trkpt>
      <trkpt lat="43.74645" lon="1.44873">
        <ele>175.942071</ele>
        <time>2022-07-29T14:40:49.780Z</time>
      </trkpt>
      <trkpt lat="43.74645" lon="1.44857">
        <ele>175.942425</ele>
        <time>2022-07-29T14:40:51.779Z</time>
      </trkpt>
      <trkpt lat="43.74646" lon="1.44842">
        <ele>175.942767</ele>
        <time>2022-07-29T14:40:53.776Z</time>
      </trkpt>
      <trkpt lat="43.74647" lon="1.44826">
        <ele>175.943114</ele>
        <time>2022-07-29T14:40:55.803Z</time>
      </trkpt>
      <trkpt lat="43.74647" lon="1.44811">
        <ele>175.943456</ele>
        <time>2022-07-29T14:40:57.786Z</time>
      </trkpt>
      <trkpt lat="43.74646" lon="1.44796">
        <ele>175.943808</ele>
        <time>2022-07-29T14:40:59.784Z</time>
      </trkpt>
      <trkpt lat="43.74645" lon="1.4478">
        <ele>175.94416</ele>
        <time>2022-07-29T14:41:01.762Z</time>
      </trkpt>
      <trkpt lat="43.74645" lon="1.44764">
        <ele>175.944518</ele>
        <time>2022-07-29T14:41:03.798Z</time>
      </trkpt>
      <trkpt lat="43.74644" lon="1.44748">
        <ele>175.944876</ele>
        <time>2022-07-29T14:41:05.789Z</time>
      </trkpt>
      <trkpt lat="43.74644" lon="1.44732">
        <ele>175.94524</ele>
        <time>2022-07-29T14:41:07.792Z</time>
      </trkpt>
      <trkpt lat="43.74644" lon="1.44716">
        <ele>175.945609</ele>
        <time>2022-07-29T14:41:09.790Z</time>
      </trkpt>
      <trkpt lat="43.74644" lon="1.44699">
        <ele>175.94598</ele>
        <time>2022-07-29T14:41:11.773Z</time>
      </trkpt>
      <trkpt lat="43.74645" lon="1.44683">
        <ele>175.946352</ele>
        <time>2022-07-29T14:41:13.775Z</time>
      </trkpt>
      <trkpt lat="43.74647" lon="1.44666">
        <ele>175.946723</ele>
        <time>2022-07-29T14:41:15.779Z</time>
      </trkpt>
      <trkpt lat="43.74648" lon="1.4465">
        <ele>175.947087</ele>
        <time>2022-07-29T14:41:17.770Z</time>
      </trkpt>
      <trkpt lat="43.7465" lon="1.44634">
        <ele>175.947452</ele>
        <time>2022-07-29T14:41:19.781Z</time>
      </trkpt>
      <trkpt lat="43.74652" lon="1.44618">
        <ele>175.947269</ele>
        <time>2022-07-29T14:41:21.775Z</time>
      </trkpt>
      <trkpt lat="43.74654" lon="1.44602">
        <ele>175.94651</ele>
        <time>2022-07-29T14:41:23.776Z</time>
      </trkpt>
      <trkpt lat="43.74656" lon="1.44586">
        <ele>175.945748</ele>
        <time>2022-07-29T14:41:25.780Z</time>
      </trkpt>
      <trkpt lat="43.74658" lon="1.4457">
        <ele>175.94498</ele>
        <time>2022-07-29T14:41:27.783Z</time>
      </trkpt>
      <trkpt lat="43.7466" lon="1.44554">
        <ele>175.944242</ele>
        <time>2022-07-29T14:41:29.772Z</time>
      </trkpt>
      <trkpt lat="43.74662" lon="1.44539">
        <ele>175.943502</ele>
        <time>2022-07-29T14:41:31.774Z</time>
      </trkpt>
      <trkpt lat="43.74663" lon="1.44523">
        <ele>175.942764</ele>
        <time>2022-07-29T14:41:33.786Z</time>
      </trkpt>
      <trkpt lat="43.74665" lon="1.44508">
        <ele>175.942013</ele>
        <time>2022-07-29T14:41:35.779Z</time>
      </trkpt>
      <trkpt lat="43.74667" lon="1.44492">
        <ele>175.941267</ele>
        <time>2022-07-29T14:41:37.784Z</time>
      </trkpt>
      <trkpt lat="43.74668" lon="1.44476">
        <ele>175.940517</ele>
        <time>2022-07-29T14:41:39.787Z</time>
      </trkpt>
      <trkpt lat="43.74668" lon="1.4446">
        <ele>175.939754</ele>
        <time>2022-07-29T14:41:41.780Z</time>
      </trkpt>
      <trkpt lat="43.74669" lon="1.44443">
        <ele>175.938978</ele>
        <time>2022-07-29T14:41:43.789Z</time>
      </trkpt>
      <trkpt lat="43.74668" lon="1.44427">
        <ele>175.938207</ele>
        <time>2022-07-29T14:41:45.795Z</time>
      </trkpt>
      <trkpt lat="43.74669" lon="1.44411">
        <ele>175.937445</ele>
        <time>2022-07-29T14:41:47.785Z</time>
      </trkpt>
      <trkpt lat="43.74669" lon="1.44395">
        <ele>175.936687</ele>
        <time>2022-07-29T14:41:49.786Z</time>
      </trkpt>
      <trkpt lat="43.7467" lon="1.44378">
        <ele>175.934963</ele>
        <time>2022-07-29T14:41:51.800Z</time>
      </trkpt>
      <trkpt lat="43.74671" lon="1.44362">
        <ele>175.898797</ele>
        <time>2022-07-29T14:41:53.804Z</time>
      </trkpt>
      <trkpt lat="43.74673" lon="1.44346">
        <ele>175.86263</ele>
        <time>2022-07-29T14:41:55.766Z</time>
      </trkpt>
      <trkpt lat="43.74677" lon="1.44331">
        <ele>175.826533</ele>
        <time>2022-07-29T14:41:57.785Z</time>
      </trkpt>
      <trkpt lat="43.74683" lon="1.44316">
        <ele>175.790112</ele>
        <time>2022-07-29T14:41:59.784Z</time>
      </trkpt>
      <trkpt lat="43.74689" lon="1.44301">
        <ele>175.75267</ele>
        <time>2022-07-29T14:42:01.798Z</time>
      </trkpt>
      <trkpt lat="43.74696" lon="1.44287">
        <ele>175.715676</ele>
        <time>2022-07-29T14:42:03.789Z</time>
      </trkpt>
      <trkpt lat="43.74702" lon="1.44272">
        <ele>175.678337</ele>
        <time>2022-07-29T14:42:05.786Z</time>
      </trkpt>
      <trkpt lat="43.74708" lon="1.44257">
        <ele>175.6404</ele>
        <time>2022-07-29T14:42:07.783Z</time>
      </trkpt>
      <trkpt lat="43.74715" lon="1.44243">
        <ele>175.602841</ele>
        <time>2022-07-29T14:42:09.803Z</time>
      </trkpt>
      <trkpt lat="43.74721" lon="1.44228">
        <ele>175.565314</ele>
        <time>2022-07-29T14:42:11.800Z</time>
      </trkpt>
      <trkpt lat="43.74727" lon="1.44213">
        <ele>175.5276</ele>
        <time>2022-07-29T14:42:13.790Z</time>
      </trkpt>
      <trkpt lat="43.74733" lon="1.44199">
        <ele>175.490262</ele>
        <time>2022-07-29T14:42:15.786Z</time>
      </trkpt>
      <trkpt lat="43.74739" lon="1.44184">
        <ele>175.453019</ele>
        <time>2022-07-29T14:42:17.792Z</time>
      </trkpt>
      <trkpt lat="43.74747" lon="1.4417">
        <ele>175.416289</ele>
        <time>2022-07-29T14:42:19.805Z</time>
      </trkpt>
      <trkpt lat="43.74753" lon="1.44156">
        <ele>175.361464</ele>
        <time>2022-07-29T14:42:21.797Z</time>
      </trkpt>
      <trkpt lat="43.7476" lon="1.44142">
        <ele>175.260003</ele>
        <time>2022-07-29T14:42:23.786Z</time>
      </trkpt>
      <trkpt lat="43.74766" lon="1.44127">
        <ele>175.158719</ele>
        <time>2022-07-29T14:42:25.783Z</time>
      </trkpt>
      <trkpt lat="43.74773" lon="1.44112">
        <ele>175.054565</ele>
        <time>2022-07-29T14:42:27.791Z</time>
      </trkpt>
      <trkpt lat="43.74779" lon="1.44096">
        <ele>174.949276</ele>
        <time>2022-07-29T14:42:29.795Z</time>
      </trkpt>
      <trkpt lat="43.74785" lon="1.44081">
        <ele>174.846309</ele>
        <time>2022-07-29T14:42:31.829Z</time>
      </trkpt>
      <trkpt lat="43.74792" lon="1.44067">
        <ele>174.744612</ele>
        <time>2022-07-29T14:42:33.797Z</time>
      </trkpt>
      <trkpt lat="43.74798" lon="1.44052">
        <ele>174.64465</ele>
        <time>2022-07-29T14:42:35.799Z</time>
      </trkpt>
      <trkpt lat="43.74805" lon="1.44038">
        <ele>174.54419</ele>
        <time>2022-07-29T14:42:37.788Z</time>
      </trkpt>
      <trkpt lat="43.74812" lon="1.44024">
        <ele>174.443286</ele>
        <time>2022-07-29T14:42:39.783Z</time>
      </trkpt>
      <trkpt lat="43.74818" lon="1.44009">
        <ele>174.342826</ele>
        <time>2022-07-29T14:42:41.793Z</time>
      </trkpt>
      <trkpt lat="43.74825" lon="1.43995">
        <ele>174.242004</ele>
        <time>2022-07-29T14:42:43.794Z</time>
      </trkpt>
      <trkpt lat="43.74832" lon="1.43981">
        <ele>174.140979</ele>
        <time>2022-07-29T14:42:45.783Z</time>
      </trkpt>
      <trkpt lat="43.74839" lon="1.43967">
        <ele>174.038742</ele>
        <time>2022-07-29T14:42:47.779Z</time>
      </trkpt>
      <trkpt lat="43.74846" lon="1.43953">
        <ele>173.937946</ele>
        <time>2022-07-29T14:42:49.784Z</time>
      </trkpt>
      <trkpt lat="43.74853" lon="1.43939">
        <ele>173.849733</ele>
        <time>2022-07-29T14:42:51.793Z</time>
      </trkpt>
      <trkpt lat="43.7486" lon="1.43925">
        <ele>173.766087</ele>
        <time>2022-07-29T14:42:53.791Z</time>
      </trkpt>
      <trkpt lat="43.74867" lon="1.43911">
        <ele>173.682442</ele>
        <time>2022-07-29T14:42:55.802Z</time>
      </trkpt>
      <trkpt lat="43.74874" lon="1.43898">
        <ele>173.59879</ele>
        <time>2022-07-29T14:42:57.789Z</time>
      </trkpt>
      <trkpt lat="43.74881" lon="1.43884">
        <ele>173.513932</ele>
        <time>2022-07-29T14:42:59.798Z</time>
      </trkpt>
      <trkpt lat="43.74888" lon="1.4387">
        <ele>173.430281</ele>
        <time>2022-07-29T14:43:01.809Z</time>
      </trkpt>
      <trkpt lat="43.74895" lon="1.43856">
        <ele>173.345815</ele>
        <time>2022-07-29T14:43:03.789Z</time>
      </trkpt>
      <trkpt lat="43.74902" lon="1.43842">
        <ele>173.261367</ele>
        <time>2022-07-29T14:43:05.795Z</time>
      </trkpt>
      <trkpt lat="43.74909" lon="1.43828">
        <ele>173.17731</ele>
        <time>2022-07-29T14:43:07.800Z</time>
      </trkpt>
      <trkpt lat="43.74916" lon="1.43814">
        <ele>173.092412</ele>
        <time>2022-07-29T14:43:09.778Z</time>
      </trkpt>
      <trkpt lat="43.74923" lon="1.438">
        <ele>173.008721</ele>
        <time>2022-07-29T14:43:11.796Z</time>
      </trkpt>
      <trkpt lat="43.7493" lon="1.43786">
        <ele>172.924235</ele>
        <time>2022-07-29T14:43:13.785Z</time>
      </trkpt>
      <trkpt lat="43.74937" lon="1.43772">
        <ele>172.840591</ele>
        <time>2022-07-29T14:43:15.789Z</time>
      </trkpt>
      <trkpt lat="43.74944" lon="1.43758">
        <ele>172.75694</ele>
        <time>2022-07-29T14:43:17.795Z</time>
      </trkpt>
      <trkpt lat="43.74951" lon="1.43745">
        <ele>172.68065</ele>
        <time>2022-07-29T14:43:19.798Z</time>
      </trkpt>
      <trkpt lat="43.74959" lon="1.43731">
        <ele>172.695133</ele>
        <time>2022-07-29T14:43:21.801Z</time>
      </trkpt>
      <trkpt lat="43.74966" lon="1.43718">
        <ele>172.709548</ele>
        <time>2022-07-29T14:43:23.781Z</time>
      </trkpt>
      <trkpt lat="43.74973" lon="1.43705">
        <ele>172.723888</ele>
        <time>2022-07-29T14:43:25.782Z</time>
      </trkpt>
      <trkpt lat="43.7498" lon="1.43692">
        <ele>172.737881</ele>
        <time>2022-07-29T14:43:27.794Z</time>
      </trkpt>
      <trkpt lat="43.74987" lon="1.43679">
        <ele>172.751879</ele>
        <time>2022-07-29T14:43:29.785Z</time>
      </trkpt>
      <trkpt lat="43.74994" lon="1.43666">
        <ele>172.765871</ele>
        <time>2022-07-29T14:43:31.800Z</time>
      </trkpt>
      <trkpt lat="43.75002" lon="1.43652">
        <ele>172.780209</ele>
        <time>2022-07-29T14:43:33.819Z</time>
      </trkpt>
      <trkpt lat="43.75009" lon="1.43638">
        <ele>172.794826</ele>
        <time>2022-07-29T14:43:35.795Z</time>
      </trkpt>
      <trkpt lat="43.75016" lon="1.43624">
        <ele>172.809308</ele>
        <time>2022-07-29T14:43:37.793Z</time>
      </trkpt>
      <trkpt lat="43.75022" lon="1.4361">
        <ele>172.823776</ele>
        <time>2022-07-29T14:43:39.816Z</time>
      </trkpt>
      <trkpt lat="43.75028" lon="1.43595">
        <ele>172.838332</ele>
        <time>2022-07-29T14:43:41.833Z</time>
      </trkpt>
      <trkpt lat="43.75034" lon="1.4358">
        <ele>172.853038</ele>
        <time>2022-07-29T14:43:43.783Z</time>
      </trkpt>
      <trkpt lat="43.7504" lon="1.43565">
        <ele>172.867712</ele>
        <time>2022-07-29T14:43:45.781Z</time>
      </trkpt>
      <trkpt lat="43.75044" lon="1.43549">
        <ele>172.882271</ele>
        <time>2022-07-29T14:43:47.790Z</time>
      </trkpt>
      <trkpt lat="43.7505" lon="1.43534">
        <ele>172.907543</ele>
        <time>2022-07-29T14:43:49.811Z</time>
      </trkpt>
      <trkpt lat="43.75055" lon="1.43518">
        <ele>172.961393</ele>
        <time>2022-07-29T14:43:51.794Z</time>
      </trkpt>
      <trkpt lat="43.75061" lon="1.43502">
        <ele>173.015055</ele>
        <time>2022-07-29T14:43:53.783Z</time>
      </trkpt>
      <trkpt lat="43.75066" lon="1.43487">
        <ele>173.066768</ele>
        <time>2022-07-29T14:43:55.814Z</time>
      </trkpt>
      <trkpt lat="43.75072" lon="1.43473">
        <ele>173.118524</ele>
        <time>2022-07-29T14:43:57.792Z</time>
      </trkpt>
      <trkpt lat="43.75077" lon="1.43458">
        <ele>173.170237</ele>
        <time>2022-07-29T14:43:59.791Z</time>
      </trkpt>
      <trkpt lat="43.75083" lon="1.43444">
        <ele>173.220841</ele>
        <time>2022-07-29T14:44:01.784Z</time>
      </trkpt>
      <trkpt lat="43.75088" lon="1.43429">
        <ele>173.270228</ele>
        <time>2022-07-29T14:44:03.783Z</time>
      </trkpt>
      <trkpt lat="43.75093" lon="1.43415">
        <ele>173.318954</ele>
        <time>2022-07-29T14:44:05.785Z</time>
      </trkpt>
      <trkpt lat="43.75099" lon="1.434">
        <ele>173.371333</ele>
        <time>2022-07-29T14:44:07.796Z</time>
      </trkpt>
      <trkpt lat="43.75104" lon="1.43387">
        <ele>173.420435</ele>
        <time>2022-07-29T14:44:09.774Z</time>
      </trkpt>
      <trkpt lat="43.7511" lon="1.43373">
        <ele>173.467145</ele>
        <time>2022-07-29T14:44:11.797Z</time>
      </trkpt>
      <trkpt lat="43.75115" lon="1.43359">
        <ele>173.516038</ele>
        <time>2022-07-29T14:44:13.811Z</time>
      </trkpt>
      <trkpt lat="43.75121" lon="1.43345">
        <ele>173.567945</ele>
        <time>2022-07-29T14:44:15.799Z</time>
      </trkpt>
      <trkpt lat="43.75126" lon="1.43331">
        <ele>173.617423</ele>
        <time>2022-07-29T14:44:17.792Z</time>
      </trkpt>
      <trkpt lat="43.75133" lon="1.43317">
        <ele>173.668703</ele>
        <time>2022-07-29T14:44:19.792Z</time>
      </trkpt>
      <trkpt lat="43.75139" lon="1.43306">
        <ele>173.724484</ele>
        <time>2022-07-29T14:44:29.774Z</time>
      </trkpt>
      <trkpt lat="43.75143" lon="1.43293">
        <ele>173.781238</ele>
        <time>2022-07-29T14:44:33.789Z</time>
      </trkpt>
      <trkpt lat="43.75146" lon="1.43282">
        <ele>173.831447</ele>
        <time>2022-07-29T14:44:35.792Z</time>
      </trkpt>
      <trkpt lat="43.75153" lon="1.43268">
        <ele>173.897082</ele>
        <time>2022-07-29T14:44:37.803Z</time>
      </trkpt>
      <trkpt lat="43.75161" lon="1.43255">
        <ele>173.966694</ele>
        <time>2022-07-29T14:44:39.791Z</time>
      </trkpt>
      <trkpt lat="43.75168" lon="1.43241">
        <ele>174.035599</ele>
        <time>2022-07-29T14:44:41.809Z</time>
      </trkpt>
      <trkpt lat="43.75174" lon="1.43227">
        <ele>174.104316</ele>
        <time>2022-07-29T14:44:43.804Z</time>
      </trkpt>
      <trkpt lat="43.75181" lon="1.43213">
        <ele>174.171024</ele>
        <time>2022-07-29T14:44:45.809Z</time>
      </trkpt>
      <trkpt lat="43.75186" lon="1.43198">
        <ele>174.23921</ele>
        <time>2022-07-29T14:44:47.844Z</time>
      </trkpt>
      <trkpt lat="43.75191" lon="1.43182">
        <ele>174.307908</ele>
        <time>2022-07-29T14:44:49.802Z</time>
      </trkpt>
      <trkpt lat="43.75195" lon="1.43167">
        <ele>174.37319</ele>
        <time>2022-07-29T14:44:51.784Z</time>
      </trkpt>
      <trkpt lat="43.75199" lon="1.43156">
        <ele>174.42514</ele>
        <time>2022-07-29T14:44:53.798Z</time>
      </trkpt>
      <trkpt lat="43.7519" lon="1.43144">
        <ele>174.49623</ele>
        <time>2022-07-29T14:44:56.800Z</time>
      </trkpt>
      <trkpt lat="43.7518" lon="1.43138">
        <ele>174.557705</ele>
        <time>2022-07-29T14:44:58.800Z</time>
      </trkpt>
      <trkpt lat="43.75169" lon="1.43133">
        <ele>174.624045</ele>
        <time>2022-07-29T14:45:00.794Z</time>
      </trkpt>
      <trkpt lat="43.75157" lon="1.43128">
        <ele>174.738729</ele>
        <time>2022-07-29T14:45:02.810Z</time>
      </trkpt>
      <trkpt lat="43.75146" lon="1.43123">
        <ele>174.987568</ele>
        <time>2022-07-29T14:45:04.782Z</time>
      </trkpt>
      <trkpt lat="43.75135" lon="1.43118">
        <ele>175.237437</ele>
        <time>2022-07-29T14:45:06.792Z</time>
      </trkpt>
      <trkpt lat="43.75124" lon="1.43113">
        <ele>175.480312</ele>
        <time>2022-07-29T14:45:08.798Z</time>
      </trkpt>
      <trkpt lat="43.75113" lon="1.43108">
        <ele>175.718216</ele>
        <time>2022-07-29T14:45:10.770Z</time>
      </trkpt>
      <trkpt lat="43.75104" lon="1.43102">
        <ele>175.946565</ele>
        <time>2022-07-29T14:45:12.810Z</time>
      </trkpt>
      <trkpt lat="43.75095" lon="1.43093">
        <ele>176.172299</ele>
        <time>2022-07-29T14:45:14.802Z</time>
      </trkpt>
      <trkpt lat="43.75087" lon="1.43083">
        <ele>176.409097</ele>
        <time>2022-07-29T14:45:16.800Z</time>
      </trkpt>
      <trkpt lat="43.75078" lon="1.43072">
        <ele>176.66347</ele>
        <time>2022-07-29T14:45:18.782Z</time>
      </trkpt>
      <trkpt lat="43.75069" lon="1.4306">
        <ele>176.924429</ele>
        <time>2022-07-29T14:45:20.787Z</time>
      </trkpt>
      <trkpt lat="43.75061" lon="1.43047">
        <ele>177.187237</ele>
        <time>2022-07-29T14:45:22.799Z</time>
      </trkpt>
      <trkpt lat="43.75052" lon="1.43035">
        <ele>177.452969</ele>
        <time>2022-07-29T14:45:24.802Z</time>
      </trkpt>
      <trkpt lat="43.75043" lon="1.43023">
        <ele>177.717212</ele>
        <time>2022-07-29T14:45:26.800Z</time>
      </trkpt>
      <trkpt lat="43.75032" lon="1.43015">
        <ele>177.96903</ele>
        <time>2022-07-29T14:45:28.801Z</time>
      </trkpt>
      <trkpt lat="43.75022" lon="1.43009">
        <ele>178.206452</ele>
        <time>2022-07-29T14:45:30.799Z</time>
      </trkpt>
      <trkpt lat="43.75012" lon="1.43003">
        <ele>178.445094</ele>
        <time>2022-07-29T14:45:32.817Z</time>
      </trkpt>
      <trkpt lat="43.75001" lon="1.42998">
        <ele>178.586359</ele>
        <time>2022-07-29T14:45:34.804Z</time>
      </trkpt>
      <trkpt lat="43.74991" lon="1.42992">
        <ele>178.705649</ele>
        <time>2022-07-29T14:45:36.792Z</time>
      </trkpt>
      <trkpt lat="43.74981" lon="1.42987">
        <ele>178.829137</ele>
        <time>2022-07-29T14:45:38.786Z</time>
      </trkpt>
      <trkpt lat="43.7497" lon="1.4298">
        <ele>178.955152</ele>
        <time>2022-07-29T14:45:40.788Z</time>
      </trkpt>
      <trkpt lat="43.74959" lon="1.42972">
        <ele>179.091669</ele>
        <time>2022-07-29T14:45:42.810Z</time>
      </trkpt>
      <trkpt lat="43.74954" lon="1.42957">
        <ele>179.226968</ele>
        <time>2022-07-29T14:45:44.781Z</time>
      </trkpt>
      <trkpt lat="43.74951" lon="1.42941">
        <ele>179.354911</ele>
        <time>2022-07-29T14:45:46.859Z</time>
      </trkpt>
      <trkpt lat="43.74949" lon="1.42926">
        <ele>179.479361</ele>
        <time>2022-07-29T14:45:48.791Z</time>
      </trkpt>
      <trkpt lat="43.74947" lon="1.42911">
        <ele>179.601158</ele>
        <time>2022-07-29T14:45:50.794Z</time>
      </trkpt>
      <trkpt lat="43.74947" lon="1.42895">
        <ele>179.721679</ele>
        <time>2022-07-29T14:45:52.808Z</time>
      </trkpt>
      <trkpt lat="43.74947" lon="1.4288">
        <ele>179.844164</ele>
        <time>2022-07-29T14:45:54.785Z</time>
      </trkpt>
      <trkpt lat="43.74946" lon="1.42867">
        <ele>179.951348</ele>
        <time>2022-07-29T14:45:56.794Z</time>
      </trkpt>
      <trkpt lat="43.74935" lon="1.42861">
        <ele>180.078343</ele>
        <time>2022-07-29T14:45:58.774Z</time>
      </trkpt>
      <trkpt lat="43.74923" lon="1.42862">
        <ele>180.214001</ele>
        <time>2022-07-29T14:46:00.815Z</time>
      </trkpt>
      <trkpt lat="43.74911" lon="1.42865">
        <ele>180.347179</ele>
        <time>2022-07-29T14:46:02.790Z</time>
      </trkpt>
      <trkpt lat="43.74899" lon="1.42866">
        <ele>180.484789</ele>
        <time>2022-07-29T14:46:04.783Z</time>
      </trkpt>
      <trkpt lat="43.74886" lon="1.42868">
        <ele>180.641929</ele>
        <time>2022-07-29T14:46:06.820Z</time>
      </trkpt>
      <trkpt lat="43.74874" lon="1.4287">
        <ele>180.798362</ele>
        <time>2022-07-29T14:46:08.789Z</time>
      </trkpt>
      <trkpt lat="43.74862" lon="1.42873">
        <ele>180.951203</ele>
        <time>2022-07-29T14:46:10.792Z</time>
      </trkpt>
      <trkpt lat="43.7485" lon="1.42874">
        <ele>181.102954</ele>
        <time>2022-07-29T14:46:12.793Z</time>
      </trkpt>
      <trkpt lat="43.74838" lon="1.42875">
        <ele>181.250598</ele>
        <time>2022-07-29T14:46:14.783Z</time>
      </trkpt>
      <trkpt lat="43.74826" lon="1.42874">
        <ele>181.396993</ele>
        <time>2022-07-29T14:46:16.806Z</time>
      </trkpt>
      <trkpt lat="43.74815" lon="1.42872">
        <ele>181.543048</ele>
        <time>2022-07-29T14:46:18.815Z</time>
      </trkpt>
      <trkpt lat="43.74803" lon="1.4287">
        <ele>181.688088</ele>
        <time>2022-07-29T14:46:20.804Z</time>
      </trkpt>
      <trkpt lat="43.74792" lon="1.42867">
        <ele>181.837952</ele>
        <time>2022-07-29T14:46:22.790Z</time>
      </trkpt>
      <trkpt lat="43.7478" lon="1.42862">
        <ele>181.991236</ele>
        <time>2022-07-29T14:46:24.805Z</time>
      </trkpt>
      <trkpt lat="43.74768" lon="1.42856">
        <ele>182.145451</ele>
        <time>2022-07-29T14:46:26.798Z</time>
      </trkpt>
      <trkpt lat="43.74757" lon="1.4285">
        <ele>182.300769</ele>
        <time>2022-07-29T14:46:28.806Z</time>
      </trkpt>
      <trkpt lat="43.74745" lon="1.42843">
        <ele>182.456779</ele>
        <time>2022-07-29T14:46:30.832Z</time>
      </trkpt>
      <trkpt lat="43.74734" lon="1.42836">
        <ele>182.610434</ele>
        <time>2022-07-29T14:46:32.804Z</time>
      </trkpt>
      <trkpt lat="43.74723" lon="1.4283">
        <ele>182.786668</ele>
        <time>2022-07-29T14:46:34.793Z</time>
      </trkpt>
      <trkpt lat="43.74712" lon="1.42822">
        <ele>183.010172</ele>
        <time>2022-07-29T14:46:36.808Z</time>
      </trkpt>
      <trkpt lat="43.74701" lon="1.42814">
        <ele>183.239714</ele>
        <time>2022-07-29T14:46:38.805Z</time>
      </trkpt>
      <trkpt lat="43.74691" lon="1.42806">
        <ele>183.458887</ele>
        <time>2022-07-29T14:46:40.780Z</time>
      </trkpt>
      <trkpt lat="43.7468" lon="1.42799">
        <ele>183.672754</ele>
        <time>2022-07-29T14:46:42.797Z</time>
      </trkpt>
      <trkpt lat="43.7467" lon="1.42792">
        <ele>183.889998</ele>
        <time>2022-07-29T14:46:44.806Z</time>
      </trkpt>
      <trkpt lat="43.74659" lon="1.42786">
        <ele>184.103912</ele>
        <time>2022-07-29T14:46:46.822Z</time>
      </trkpt>
      <trkpt lat="43.74648" lon="1.42779">
        <ele>184.324521</ele>
        <time>2022-07-29T14:46:48.783Z</time>
      </trkpt>
      <trkpt lat="43.74637" lon="1.42773">
        <ele>184.54459</ele>
        <time>2022-07-29T14:46:50.800Z</time>
      </trkpt>
      <trkpt lat="43.74627" lon="1.42766">
        <ele>184.759155</ele>
        <time>2022-07-29T14:46:52.817Z</time>
      </trkpt>
      <trkpt lat="43.74616" lon="1.4276">
        <ele>184.977531</ele>
        <time>2022-07-29T14:46:54.805Z</time>
      </trkpt>
      <trkpt lat="43.74605" lon="1.42753">
        <ele>185.195371</ele>
        <time>2022-07-29T14:46:56.790Z</time>
      </trkpt>
      <trkpt lat="43.74594" lon="1.42747">
        <ele>185.418311</ele>
        <time>2022-07-29T14:46:58.801Z</time>
      </trkpt>
      <trkpt lat="43.74583" lon="1.4274">
        <ele>185.638381</ele>
        <time>2022-07-29T14:47:00.777Z</time>
      </trkpt>
      <trkpt lat="43.74572" lon="1.42734">
        <ele>185.856595</ele>
        <time>2022-07-29T14:47:02.786Z</time>
      </trkpt>
      <trkpt lat="43.74566" lon="1.42725">
        <ele>186.02599</ele>
        <time>2022-07-29T14:47:04.795Z</time>
      </trkpt>
      <trkpt lat="43.74565" lon="1.42712">
        <ele>186.142532</ele>
        <time>2022-07-29T14:47:06.794Z</time>
      </trkpt>
      <trkpt lat="43.74567" lon="1.42698">
        <ele>186.272803</ele>
        <time>2022-07-29T14:47:08.791Z</time>
      </trkpt>
      <trkpt lat="43.74568" lon="1.42681">
        <ele>186.41964</ele>
        <time>2022-07-29T14:47:10.781Z</time>
      </trkpt>
      <trkpt lat="43.74569" lon="1.42665">
        <ele>186.566359</ele>
        <time>2022-07-29T14:47:12.796Z</time>
      </trkpt>
      <trkpt lat="43.7457" lon="1.42648">
        <ele>186.712785</ele>
        <time>2022-07-29T14:47:14.797Z</time>
      </trkpt>
      <trkpt lat="43.74571" lon="1.42632">
        <ele>186.858741</ele>
        <time>2022-07-29T14:47:16.781Z</time>
      </trkpt>
      <trkpt lat="43.74573" lon="1.42615">
        <ele>187.008346</ele>
        <time>2022-07-29T14:47:18.826Z</time>
      </trkpt>
      <trkpt lat="43.74574" lon="1.42598">
        <ele>187.158706</ele>
        <time>2022-07-29T14:47:20.796Z</time>
      </trkpt>
      <trkpt lat="43.74575" lon="1.42581">
        <ele>187.310518</ele>
        <time>2022-07-29T14:47:22.785Z</time>
      </trkpt>
      <trkpt lat="43.74576" lon="1.42565">
        <ele>187.457032</ele>
        <time>2022-07-29T14:47:24.801Z</time>
      </trkpt>
      <trkpt lat="43.74577" lon="1.42549">
        <ele>187.59798</ele>
        <time>2022-07-29T14:47:26.809Z</time>
      </trkpt>
      <trkpt lat="43.74579" lon="1.42533">
        <ele>187.738371</ele>
        <time>2022-07-29T14:47:28.791Z</time>
      </trkpt>
      <trkpt lat="43.7458" lon="1.42518">
        <ele>187.877187</ele>
        <time>2022-07-29T14:47:30.792Z</time>
      </trkpt>
      <trkpt lat="43.74582" lon="1.42502">
        <ele>188.013773</ele>
        <time>2022-07-29T14:47:32.796Z</time>
      </trkpt>
      <trkpt lat="43.74585" lon="1.42487">
        <ele>188.150414</ele>
        <time>2022-07-29T14:47:34.792Z</time>
      </trkpt>
      <trkpt lat="43.74587" lon="1.42472">
        <ele>188.258694</ele>
        <time>2022-07-29T14:47:36.820Z</time>
      </trkpt>
      <trkpt lat="43.74589" lon="1.42457">
        <ele>188.312644</ele>
        <time>2022-07-29T14:47:38.807Z</time>
      </trkpt>
      <trkpt lat="43.74592" lon="1.42442">
        <ele>188.367975</ele>
        <time>2022-07-29T14:47:40.824Z</time>
      </trkpt>
      <trkpt lat="43.74592" lon="1.42426">
        <ele>188.423213</ele>
        <time>2022-07-29T14:47:42.798Z</time>
      </trkpt>
      <trkpt lat="43.74589" lon="1.42411">
        <ele>188.47971</ele>
        <time>2022-07-29T14:47:44.799Z</time>
      </trkpt>
      <trkpt lat="43.74582" lon="1.42398">
        <ele>188.537042</ele>
        <time>2022-07-29T14:47:46.793Z</time>
      </trkpt>
      <trkpt lat="43.74573" lon="1.42388">
        <ele>188.594109</ele>
        <time>2022-07-29T14:47:48.786Z</time>
      </trkpt>
      <trkpt lat="43.74567" lon="1.42374">
        <ele>188.650382</ele>
        <time>2022-07-29T14:47:50.795Z</time>
      </trkpt>
      <trkpt lat="43.74569" lon="1.42357">
        <ele>188.709797</ele>
        <time>2022-07-29T14:47:52.784Z</time>
      </trkpt>
      <trkpt lat="43.74573" lon="1.42342">
        <ele>188.768471</ele>
        <time>2022-07-29T14:47:54.805Z</time>
      </trkpt>
      <trkpt lat="43.74574" lon="1.42326">
        <ele>188.823335</ele>
        <time>2022-07-29T14:47:56.801Z</time>
      </trkpt>
      <trkpt lat="43.7457" lon="1.42311">
        <ele>188.882666</ele>
        <time>2022-07-29T14:47:58.782Z</time>
      </trkpt>
      <trkpt lat="43.74565" lon="1.42296">
        <ele>188.941263</ele>
        <time>2022-07-29T14:48:00.801Z</time>
      </trkpt>
      <trkpt lat="43.74561" lon="1.42281">
        <ele>188.996788</ele>
        <time>2022-07-29T14:48:02.800Z</time>
      </trkpt>
      <trkpt lat="43.74565" lon="1.42266">
        <ele>189.051487</ele>
        <time>2022-07-29T14:48:04.801Z</time>
      </trkpt>
      <trkpt lat="43.74571" lon="1.42252">
        <ele>189.109516</ele>
        <time>2022-07-29T14:48:06.804Z</time>
      </trkpt>
      <trkpt lat="43.74576" lon="1.42236">
        <ele>189.218782</ele>
        <time>2022-07-29T14:48:08.818Z</time>
      </trkpt>
      <trkpt lat="43.74582" lon="1.42222">
        <ele>189.336755</ele>
        <time>2022-07-29T14:48:10.792Z</time>
      </trkpt>
      <trkpt lat="43.74588" lon="1.42207">
        <ele>189.457154</ele>
        <time>2022-07-29T14:48:12.816Z</time>
      </trkpt>
      <trkpt lat="43.74592" lon="1.42192">
        <ele>189.573012</ele>
        <time>2022-07-29T14:48:14.797Z</time>
      </trkpt>
      <trkpt lat="43.7459" lon="1.42178">
        <ele>189.672392</ele>
        <time>2022-07-29T14:48:16.800Z</time>
      </trkpt>
      <trkpt lat="43.74586" lon="1.42162">
        <ele>189.79319</ele>
        <time>2022-07-29T14:48:18.800Z</time>
      </trkpt>
      <trkpt lat="43.74582" lon="1.42146">
        <ele>189.912341</ele>
        <time>2022-07-29T14:48:20.805Z</time>
      </trkpt>
      <trkpt lat="43.74579" lon="1.4213">
        <ele>190.027821</ele>
        <time>2022-07-29T14:48:22.787Z</time>
      </trkpt>
      <trkpt lat="43.74575" lon="1.42114">
        <ele>190.142664</ele>
        <time>2022-07-29T14:48:24.807Z</time>
      </trkpt>
      <trkpt lat="43.74571" lon="1.421">
        <ele>190.250581</ele>
        <time>2022-07-29T14:48:26.805Z</time>
      </trkpt>
      <trkpt lat="43.74561" lon="1.42092">
        <ele>190.358906</ele>
        <time>2022-07-29T14:48:28.805Z</time>
      </trkpt>
      <trkpt lat="43.7455" lon="1.42088">
        <ele>190.474247</ele>
        <time>2022-07-29T14:48:30.784Z</time>
      </trkpt>
      <trkpt lat="43.74539" lon="1.42081">
        <ele>190.588943</ele>
        <time>2022-07-29T14:48:32.813Z</time>
      </trkpt>
      <trkpt lat="43.74529" lon="1.42073">
        <ele>190.703178</ele>
        <time>2022-07-29T14:48:34.788Z</time>
      </trkpt>
      <trkpt lat="43.74519" lon="1.42064">
        <ele>190.816665</ele>
        <time>2022-07-29T14:48:36.786Z</time>
      </trkpt>
      <trkpt lat="43.7451" lon="1.42059">
        <ele>190.99862</ele>
        <time>2022-07-29T14:48:38.798Z</time>
      </trkpt>
      <trkpt lat="43.74499" lon="1.4205">
        <ele>191.320334</ele>
        <time>2022-07-29T14:48:40.802Z</time>
      </trkpt>
      <trkpt lat="43.74491" lon="1.4204">
        <ele>191.611415</ele>
        <time>2022-07-29T14:48:42.806Z</time>
      </trkpt>
      <trkpt lat="43.74482" lon="1.42031">
        <ele>191.90744</ele>
        <time>2022-07-29T14:48:44.786Z</time>
      </trkpt>
      <trkpt lat="43.74472" lon="1.42025">
        <ele>192.18651</ele>
        <time>2022-07-29T14:48:46.785Z</time>
      </trkpt>
      <trkpt lat="43.74462" lon="1.4202">
        <ele>192.462891</ele>
        <time>2022-07-29T14:48:48.784Z</time>
      </trkpt>
      <trkpt lat="43.74453" lon="1.42015">
        <ele>192.721257</ele>
        <time>2022-07-29T14:48:50.796Z</time>
      </trkpt>
      <trkpt lat="43.74442" lon="1.42011">
        <ele>193.024544</ele>
        <time>2022-07-29T14:48:52.795Z</time>
      </trkpt>
      <trkpt lat="43.74431" lon="1.42009">
        <ele>193.304853</ele>
        <time>2022-07-29T14:48:54.806Z</time>
      </trkpt>
      <trkpt lat="43.74419" lon="1.42005">
        <ele>193.653052</ele>
        <time>2022-07-29T14:48:56.790Z</time>
      </trkpt>
      <trkpt lat="43.74408" lon="1.42002">
        <ele>193.932485</ele>
        <time>2022-07-29T14:48:58.795Z</time>
      </trkpt>
      <trkpt lat="43.74397" lon="1.42002">
        <ele>194.224878</ele>
        <time>2022-07-29T14:49:00.785Z</time>
      </trkpt>
      <trkpt lat="43.74386" lon="1.42004">
        <ele>194.529711</ele>
        <time>2022-07-29T14:49:02.780Z</time>
      </trkpt>
      <trkpt lat="43.74374" lon="1.42008">
        <ele>194.835128</ele>
        <time>2022-07-29T14:49:04.780Z</time>
      </trkpt>
      <trkpt lat="43.74365" lon="1.42013">
        <ele>195.101759</ele>
        <time>2022-07-29T14:49:06.795Z</time>
      </trkpt>
      <trkpt lat="43.74356" lon="1.42018">
        <ele>195.349155</ele>
        <time>2022-07-29T14:49:08.779Z</time>
      </trkpt>
      <trkpt lat="43.74347" lon="1.42021">
        <ele>195.594695</ele>
        <time>2022-07-29T14:49:10.814Z</time>
      </trkpt>
      <trkpt lat="43.74337" lon="1.42018">
        <ele>196.342122</ele>
        <time>2022-07-29T14:49:12.789Z</time>
      </trkpt>
      <trkpt lat="43.74327" lon="1.42016">
        <ele>197.053469</ele>
        <time>2022-07-29T14:49:14.800Z</time>
      </trkpt>
      <trkpt lat="43.74316" lon="1.42009">
        <ele>197.980144</ele>
        <time>2022-07-29T14:49:17.787Z</time>
      </trkpt>
      <trkpt lat="43.74304" lon="1.42003">
        <ele>198.914876</ele>
        <time>2022-07-29T14:49:20.823Z</time>
      </trkpt>
      <trkpt lat="43.74292" lon="1.41998">
        <ele>199.844844</ele>
        <time>2022-07-29T14:49:23.782Z</time>
      </trkpt>
      <trkpt lat="43.74279" lon="1.41998">
        <ele>200.809565</ele>
        <time>2022-07-29T14:49:26.793Z</time>
      </trkpt>
      <trkpt lat="43.7427" lon="1.42001">
        <ele>201.48807</ele>
        <time>2022-07-29T14:49:29.800Z</time>
      </trkpt>
      <trkpt lat="43.74257" lon="1.42">
        <ele>202.432357</ele>
        <time>2022-07-29T14:49:32.787Z</time>
      </trkpt>
      <trkpt lat="43.74247" lon="1.41996">
        <ele>203.230558</ele>
        <time>2022-07-29T14:49:34.776Z</time>
      </trkpt>
      <trkpt lat="43.74238" lon="1.41991">
        <ele>203.931681</ele>
        <time>2022-07-29T14:49:36.797Z</time>
      </trkpt>
      <trkpt lat="43.74225" lon="1.41988">
        <ele>204.936328</ele>
        <time>2022-07-29T14:49:39.787Z</time>
      </trkpt>
      <trkpt lat="43.74216" lon="1.41985">
        <ele>205.646193</ele>
        <time>2022-07-29T14:49:41.804Z</time>
      </trkpt>
      <trkpt lat="43.74205" lon="1.41984">
        <ele>206.442028</ele>
        <time>2022-07-29T14:49:43.776Z</time>
      </trkpt>
      <trkpt lat="43.74196" lon="1.41987">
        <ele>207.114575</ele>
        <time>2022-07-29T14:49:45.792Z</time>
      </trkpt>
      <trkpt lat="43.74188" lon="1.41994">
        <ele>207.816311</ele>
        <time>2022-07-29T14:49:47.803Z</time>
      </trkpt>
      <trkpt lat="43.74178" lon="1.42008">
        <ele>208.860421</ele>
        <time>2022-07-29T14:49:50.783Z</time>
      </trkpt>
      <trkpt lat="43.74171" lon="1.42016">
        <ele>209.439939</ele>
        <time>2022-07-29T14:49:52.798Z</time>
      </trkpt>
      <trkpt lat="43.74162" lon="1.42018">
        <ele>209.988883</ele>
        <time>2022-07-29T14:49:54.774Z</time>
      </trkpt>
      <trkpt lat="43.7415" lon="1.42019">
        <ele>210.68921</ele>
        <time>2022-07-29T14:49:57.797Z</time>
      </trkpt>
      <trkpt lat="43.74137" lon="1.42024">
        <ele>211.439501</ele>
        <time>2022-07-29T14:50:00.815Z</time>
      </trkpt>
      <trkpt lat="43.74126" lon="1.42026">
        <ele>212.100837</ele>
        <time>2022-07-29T14:50:02.787Z</time>
      </trkpt>
      <trkpt lat="43.74111" lon="1.42028">
        <ele>212.941036</ele>
        <time>2022-07-29T14:50:05.794Z</time>
      </trkpt>
      <trkpt lat="43.74099" lon="1.42031">
        <ele>213.664292</ele>
        <time>2022-07-29T14:50:08.790Z</time>
      </trkpt>
      <trkpt lat="43.74091" lon="1.42037">
        <ele>214.199012</ele>
        <time>2022-07-29T14:50:10.791Z</time>
      </trkpt>
      <trkpt lat="43.74084" lon="1.42048">
        <ele>214.798451</ele>
        <time>2022-07-29T14:50:12.783Z</time>
      </trkpt>
      <trkpt lat="43.74074" lon="1.42054">
        <ele>215.434404</ele>
        <time>2022-07-29T14:50:14.790Z</time>
      </trkpt>
      <trkpt lat="43.74063" lon="1.42056">
        <ele>216.094135</ele>
        <time>2022-07-29T14:50:16.796Z</time>
      </trkpt>
      <trkpt lat="43.74052" lon="1.42058">
        <ele>216.744877</ele>
        <time>2022-07-29T14:50:18.791Z</time>
      </trkpt>
      <trkpt lat="43.74042" lon="1.42062">
        <ele>217.332706</ele>
        <time>2022-07-29T14:50:20.786Z</time>
      </trkpt>
      <trkpt lat="43.74031" lon="1.42064">
        <ele>217.972445</ele>
        <time>2022-07-29T14:50:22.791Z</time>
      </trkpt>
      <trkpt lat="43.7402" lon="1.42068">
        <ele>218.651069</ele>
        <time>2022-07-29T14:50:24.793Z</time>
      </trkpt>
      <trkpt lat="43.74008" lon="1.42071">
        <ele>219.340096</ele>
        <time>2022-07-29T14:50:26.801Z</time>
      </trkpt>
      <trkpt lat="43.73998" lon="1.42075">
        <ele>219.25949</ele>
        <time>2022-07-29T14:50:28.816Z</time>
      </trkpt>
      <trkpt lat="43.73987" lon="1.42081">
        <ele>219.067537</ele>
        <time>2022-07-29T14:50:30.779Z</time>
      </trkpt>
      <trkpt lat="43.73976" lon="1.42087">
        <ele>218.872012</ele>
        <time>2022-07-29T14:50:32.769Z</time>
      </trkpt>
      <trkpt lat="43.73967" lon="1.42092">
        <ele>218.709075</ele>
        <time>2022-07-29T14:50:34.765Z</time>
      </trkpt>
      <trkpt lat="43.73957" lon="1.42101">
        <ele>218.500776</ele>
        <time>2022-07-29T14:50:37.797Z</time>
      </trkpt>
      <trkpt lat="43.73947" lon="1.42112">
        <ele>218.288642</ele>
        <time>2022-07-29T14:50:40.788Z</time>
      </trkpt>
      <trkpt lat="43.73954" lon="1.42125">
        <ele>218.082006</ele>
        <time>2022-07-29T14:50:44.801Z</time>
      </trkpt>
      <trkpt lat="43.7397" lon="1.42141">
        <ele>217.760073</ele>
        <time>2022-07-29T14:51:02.781Z</time>
      </trkpt>
      <trkpt lat="43.73981" lon="1.42151">
        <ele>217.533313</ele>
        <time>2022-07-29T14:51:05.785Z</time>
      </trkpt>
      <trkpt lat="43.7399" lon="1.42158">
        <ele>217.364239</ele>
        <time>2022-07-29T14:51:07.788Z</time>
      </trkpt>
      <trkpt lat="43.73996" lon="1.42167">
        <ele>217.200177</ele>
        <time>2022-07-29T14:51:09.779Z</time>
      </trkpt>
      <trkpt lat="43.74003" lon="1.42182">
        <ele>216.991442</ele>
        <time>2022-07-29T14:51:11.781Z</time>
      </trkpt>
      <trkpt lat="43.74012" lon="1.42194">
        <ele>216.786582</ele>
        <time>2022-07-29T14:51:13.784Z</time>
      </trkpt>
      <trkpt lat="43.74021" lon="1.42196">
        <ele>216.635142</ele>
        <time>2022-07-29T14:51:15.775Z</time>
      </trkpt>
      <trkpt lat="43.74031" lon="1.42196">
        <ele>216.458525</ele>
        <time>2022-07-29T14:51:17.784Z</time>
      </trkpt>
      <trkpt lat="43.74039" lon="1.42205">
        <ele>216.196825</ele>
        <time>2022-07-29T14:51:19.776Z</time>
      </trkpt>
      <trkpt lat="43.74047" lon="1.42218">
        <ele>215.857019</ele>
        <time>2022-07-29T14:51:21.787Z</time>
      </trkpt>
      <trkpt lat="43.74049" lon="1.42237">
        <ele>215.478959</ele>
        <time>2022-07-29T14:51:23.784Z</time>
      </trkpt>
      <trkpt lat="43.74046" lon="1.42256">
        <ele>215.09718</ele>
        <time>2022-07-29T14:51:25.770Z</time>
      </trkpt>
      <trkpt lat="43.74041" lon="1.42276">
        <ele>214.677958</ele>
        <time>2022-07-29T14:51:27.767Z</time>
      </trkpt>
      <trkpt lat="43.74036" lon="1.42296">
        <ele>214.257563</ele>
        <time>2022-07-29T14:51:29.762Z</time>
      </trkpt>
      <trkpt lat="43.74033" lon="1.42312">
        <ele>213.933173</ele>
        <time>2022-07-29T14:51:31.782Z</time>
      </trkpt>
      <trkpt lat="43.74025" lon="1.42318">
        <ele>213.670909</ele>
        <time>2022-07-29T14:51:33.782Z</time>
      </trkpt>
      <trkpt lat="43.74015" lon="1.42324">
        <ele>213.379883</ele>
        <time>2022-07-29T14:51:35.775Z</time>
      </trkpt>
      <trkpt lat="43.74006" lon="1.42326">
        <ele>213.131545</ele>
        <time>2022-07-29T14:51:37.820Z</time>
      </trkpt>
      <trkpt lat="43.73993" lon="1.42329">
        <ele>212.764321</ele>
        <time>2022-07-29T14:51:40.771Z</time>
      </trkpt>
      <trkpt lat="43.73984" lon="1.42331">
        <ele>212.516589</ele>
        <time>2022-07-29T14:51:42.782Z</time>
      </trkpt>
      <trkpt lat="43.73975" lon="1.42331">
        <ele>212.268635</ele>
        <time>2022-07-29T14:51:44.766Z</time>
      </trkpt>
      <trkpt lat="43.73963" lon="1.42337">
        <ele>211.913952</ele>
        <time>2022-07-29T14:51:47.779Z</time>
      </trkpt>
      <trkpt lat="43.73953" lon="1.42349">
        <ele>211.546959</ele>
        <time>2022-07-29T14:51:49.772Z</time>
      </trkpt>
      <trkpt lat="43.73943" lon="1.42359">
        <ele>211.847358</ele>
        <time>2022-07-29T14:51:51.775Z</time>
      </trkpt>
      <trkpt lat="43.73934" lon="1.4237">
        <ele>212.440599</ele>
        <time>2022-07-29T14:51:53.776Z</time>
      </trkpt>
      <trkpt lat="43.73925" lon="1.42384">
        <ele>213.099657</ele>
        <time>2022-07-29T14:51:55.770Z</time>
      </trkpt>
      <trkpt lat="43.73913" lon="1.42392">
        <ele>213.749674</ele>
        <time>2022-07-29T14:51:57.769Z</time>
      </trkpt>
      <trkpt lat="43.73901" lon="1.42397">
        <ele>214.398853</ele>
        <time>2022-07-29T14:51:59.783Z</time>
      </trkpt>
      <trkpt lat="43.7389" lon="1.42401">
        <ele>214.930886</ele>
        <time>2022-07-29T14:52:01.792Z</time>
      </trkpt>
      <trkpt lat="43.73879" lon="1.42394">
        <ele>215.530384</ele>
        <time>2022-07-29T14:52:04.769Z</time>
      </trkpt>
      <trkpt lat="43.73869" lon="1.42384">
        <ele>216.155131</ele>
        <time>2022-07-29T14:52:07.777Z</time>
      </trkpt>
      <trkpt lat="43.73859" lon="1.42374">
        <ele>216.755727</ele>
        <time>2022-07-29T14:52:10.773Z</time>
      </trkpt>
      <trkpt lat="43.73847" lon="1.42374">
        <ele>217.314798</ele>
        <time>2022-07-29T14:52:13.775Z</time>
      </trkpt>
      <trkpt lat="43.73835" lon="1.42383">
        <ele>217.978649</ele>
        <time>2022-07-29T14:52:16.776Z</time>
      </trkpt>
      <trkpt lat="43.73825" lon="1.42381">
        <ele>218.512746</ele>
        <time>2022-07-29T14:52:19.782Z</time>
      </trkpt>
      <trkpt lat="43.73815" lon="1.42373">
        <ele>219.051362</ele>
        <time>2022-07-29T14:52:24.780Z</time>
      </trkpt>
      <trkpt lat="43.73805" lon="1.42371">
        <ele>219.528329</ele>
        <time>2022-07-29T14:52:27.774Z</time>
      </trkpt>
      <trkpt lat="43.73797" lon="1.4238">
        <ele>220.048387</ele>
        <time>2022-07-29T14:52:30.773Z</time>
      </trkpt>
      <trkpt lat="43.73789" lon="1.42388">
        <ele>220.326814</ele>
        <time>2022-07-29T14:52:32.778Z</time>
      </trkpt>
      <trkpt lat="43.73792" lon="1.42402">
        <ele>220.460597</ele>
        <time>2022-07-29T14:52:35.782Z</time>
      </trkpt>
      <trkpt lat="43.73801" lon="1.42411">
        <ele>220.597434</ele>
        <time>2022-07-29T14:52:37.780Z</time>
      </trkpt>
      <trkpt lat="43.7381" lon="1.42421">
        <ele>220.743235</ele>
        <time>2022-07-29T14:52:39.781Z</time>
      </trkpt>
      <trkpt lat="43.73811" lon="1.42435">
        <ele>220.869877</ele>
        <time>2022-07-29T14:52:43.786Z</time>
      </trkpt>
      <trkpt lat="43.73805" lon="1.42445">
        <ele>220.983232</ele>
        <time>2022-07-29T14:52:46.786Z</time>
      </trkpt>
      <trkpt lat="43.73793" lon="1.42436">
        <ele>221.159854</ele>
        <time>2022-07-29T14:52:49.776Z</time>
      </trkpt>
      <trkpt lat="43.73784" lon="1.42429">
        <ele>221.285974</ele>
        <time>2022-07-29T14:52:51.780Z</time>
      </trkpt>
      <trkpt lat="43.73775" lon="1.42421">
        <ele>221.421354</ele>
        <time>2022-07-29T14:52:53.778Z</time>
      </trkpt>
      <trkpt lat="43.73766" lon="1.42411">
        <ele>221.558626</ele>
        <time>2022-07-29T14:52:55.780Z</time>
      </trkpt>
      <trkpt lat="43.73759" lon="1.42401">
        <ele>221.688652</ele>
        <time>2022-07-29T14:52:57.774Z</time>
      </trkpt>
      <trkpt lat="43.73754" lon="1.4239">
        <ele>221.809222</ele>
        <time>2022-07-29T14:52:59.780Z</time>
      </trkpt>
      <trkpt lat="43.73745" lon="1.4239">
        <ele>221.927188</ele>
        <time>2022-07-29T14:53:01.775Z</time>
      </trkpt>
      <trkpt lat="43.73735" lon="1.42396">
        <ele>222.058266</ele>
        <time>2022-07-29T14:53:03.793Z</time>
      </trkpt>
      <trkpt lat="43.73722" lon="1.42397">
        <ele>222.225637</ele>
        <time>2022-07-29T14:53:05.779Z</time>
      </trkpt>
      <trkpt lat="43.7371" lon="1.42399">
        <ele>222.379409</ele>
        <time>2022-07-29T14:53:07.780Z</time>
      </trkpt>
      <trkpt lat="43.73699" lon="1.42403">
        <ele>222.519292</ele>
        <time>2022-07-29T14:53:09.771Z</time>
      </trkpt>
      <trkpt lat="43.73688" lon="1.42409">
        <ele>222.56349</ele>
        <time>2022-07-29T14:53:11.796Z</time>
      </trkpt>
      <trkpt lat="43.73679" lon="1.42415">
        <ele>222.602441</ele>
        <time>2022-07-29T14:53:13.782Z</time>
      </trkpt>
      <trkpt lat="43.73671" lon="1.42426">
        <ele>222.645315</ele>
        <time>2022-07-29T14:53:15.767Z</time>
      </trkpt>
      <trkpt lat="43.73665" lon="1.4244">
        <ele>222.68814</ele>
        <time>2022-07-29T14:53:17.774Z</time>
      </trkpt>
      <trkpt lat="43.73657" lon="1.42453">
        <ele>222.735838</ele>
        <time>2022-07-29T14:53:19.778Z</time>
      </trkpt>
      <trkpt lat="43.73646" lon="1.42459">
        <ele>222.779748</ele>
        <time>2022-07-29T14:53:21.763Z</time>
      </trkpt>
      <trkpt lat="43.73634" lon="1.42445">
        <ele>222.83689</ele>
        <time>2022-07-29T14:53:26.792Z</time>
      </trkpt>
      <trkpt lat="43.73626" lon="1.42431">
        <ele>222.885299</ele>
        <time>2022-07-29T14:53:28.764Z</time>
      </trkpt>
      <trkpt lat="43.73618" lon="1.42419">
        <ele>222.929694</ele>
        <time>2022-07-29T14:53:30.781Z</time>
      </trkpt>
      <trkpt lat="43.7361" lon="1.42406">
        <ele>222.978609</ele>
        <time>2022-07-29T14:53:32.782Z</time>
      </trkpt>
      <trkpt lat="43.73607" lon="1.4239">
        <ele>223.023097</ele>
        <time>2022-07-29T14:53:34.778Z</time>
      </trkpt>
      <trkpt lat="43.73608" lon="1.42375">
        <ele>223.066356</ele>
        <time>2022-07-29T14:53:36.774Z</time>
      </trkpt>
      <trkpt lat="43.73616" lon="1.42362">
        <ele>223.112681</ele>
        <time>2022-07-29T14:53:38.772Z</time>
      </trkpt>
      <trkpt lat="43.73624" lon="1.4235">
        <ele>223.156278</ele>
        <time>2022-07-29T14:53:40.775Z</time>
      </trkpt>
      <trkpt lat="43.73631" lon="1.42337">
        <ele>223.199066</ele>
        <time>2022-07-29T14:53:42.781Z</time>
      </trkpt>
      <trkpt lat="43.73638" lon="1.42326">
        <ele>223.222345</ele>
        <time>2022-07-29T14:53:44.786Z</time>
      </trkpt>
      <trkpt lat="43.73647" lon="1.42316">
        <ele>223.245871</ele>
        <time>2022-07-29T14:53:46.779Z</time>
      </trkpt>
      <trkpt lat="43.73653" lon="1.42302">
        <ele>223.268944</ele>
        <time>2022-07-29T14:53:48.774Z</time>
      </trkpt>
      <trkpt lat="43.73649" lon="1.42288">
        <ele>223.291334</ele>
        <time>2022-07-29T14:53:50.772Z</time>
      </trkpt>
      <trkpt lat="43.73641" lon="1.42276">
        <ele>223.316286</ele>
        <time>2022-07-29T14:53:52.768Z</time>
      </trkpt>
      <trkpt lat="43.73638" lon="1.42259">
        <ele>223.34208</ele>
        <time>2022-07-29T14:53:54.774Z</time>
      </trkpt>
      <trkpt lat="43.73644" lon="1.42245">
        <ele>223.366486</ele>
        <time>2022-07-29T14:53:56.768Z</time>
      </trkpt>
      <trkpt lat="43.73654" lon="1.42236">
        <ele>223.390451</ele>
        <time>2022-07-29T14:53:58.777Z</time>
      </trkpt>
      <trkpt lat="43.73663" lon="1.42226">
        <ele>223.413809</ele>
        <time>2022-07-29T14:54:00.774Z</time>
      </trkpt>
      <trkpt lat="43.73672" lon="1.42216">
        <ele>223.437232</ele>
        <time>2022-07-29T14:54:02.776Z</time>
      </trkpt>
      <trkpt lat="43.7368" lon="1.42204">
        <ele>223.462284</ele>
        <time>2022-07-29T14:54:04.781Z</time>
      </trkpt>
      <trkpt lat="43.73689" lon="1.42193">
        <ele>223.487465</ele>
        <time>2022-07-29T14:54:06.772Z</time>
      </trkpt>
      <trkpt lat="43.73698" lon="1.4218">
        <ele>223.513706</ele>
        <time>2022-07-29T14:54:08.771Z</time>
      </trkpt>
      <trkpt lat="43.73709" lon="1.42169">
        <ele>223.54082</ele>
        <time>2022-07-29T14:54:10.772Z</time>
      </trkpt>
      <trkpt lat="43.73718" lon="1.42155">
        <ele>223.566889</ele>
        <time>2022-07-29T14:54:12.778Z</time>
      </trkpt>
      <trkpt lat="43.73729" lon="1.4215">
        <ele>223.37353</ele>
        <time>2022-07-29T14:54:14.799Z</time>
      </trkpt>
      <trkpt lat="43.73741" lon="1.42155">
        <ele>223.173225</ele>
        <time>2022-07-29T14:54:16.773Z</time>
      </trkpt>
      <trkpt lat="43.73752" lon="1.42164">
        <ele>222.963258</ele>
        <time>2022-07-29T14:54:18.768Z</time>
      </trkpt>
      <trkpt lat="43.73762" lon="1.42172">
        <ele>222.758217</ele>
        <time>2022-07-29T14:54:20.774Z</time>
      </trkpt>
      <trkpt lat="43.73771" lon="1.4218">
        <ele>222.584625</ele>
        <time>2022-07-29T14:54:22.781Z</time>
      </trkpt>
      <trkpt lat="43.7378" lon="1.42183">
        <ele>222.426052</ele>
        <time>2022-07-29T14:54:24.773Z</time>
      </trkpt>
      <trkpt lat="43.73791" lon="1.42179">
        <ele>222.247155</ele>
        <time>2022-07-29T14:54:26.776Z</time>
      </trkpt>
      <trkpt lat="43.73801" lon="1.42177">
        <ele>222.066976</ele>
        <time>2022-07-29T14:54:28.786Z</time>
      </trkpt>
      <trkpt lat="43.73814" lon="1.42174">
        <ele>221.845736</ele>
        <time>2022-07-29T14:54:30.782Z</time>
      </trkpt>
      <trkpt lat="43.73829" lon="1.42168">
        <ele>221.597067</ele>
        <time>2022-07-29T14:54:32.773Z</time>
      </trkpt>
      <trkpt lat="43.73842" lon="1.42163">
        <ele>221.368001</ele>
        <time>2022-07-29T14:54:34.788Z</time>
      </trkpt>
      <trkpt lat="43.73855" lon="1.42156">
        <ele>221.126953</ele>
        <time>2022-07-29T14:54:36.802Z</time>
      </trkpt>
      <trkpt lat="43.7387" lon="1.42144">
        <ele>220.849517</ele>
        <time>2022-07-29T14:54:38.797Z</time>
      </trkpt>
      <trkpt lat="43.73883" lon="1.42136">
        <ele>220.606567</ele>
        <time>2022-07-29T14:54:40.791Z</time>
      </trkpt>
      <trkpt lat="43.73895" lon="1.42128">
        <ele>220.37783</ele>
        <time>2022-07-29T14:54:42.774Z</time>
      </trkpt>
      <trkpt lat="43.73907" lon="1.42122">
        <ele>220.148366</ele>
        <time>2022-07-29T14:54:44.779Z</time>
      </trkpt>
      <trkpt lat="43.7392" lon="1.42115">
        <ele>219.89824</ele>
        <time>2022-07-29T14:54:46.801Z</time>
      </trkpt>
      <trkpt lat="43.73933" lon="1.42112">
        <ele>219.659953</ele>
        <time>2022-07-29T14:54:48.794Z</time>
      </trkpt>
      <trkpt lat="43.73945" lon="1.42112">
        <ele>219.446005</ele>
        <time>2022-07-29T14:54:50.784Z</time>
      </trkpt>
      <trkpt lat="43.73955" lon="1.42101">
        <ele>219.207982</ele>
        <time>2022-07-29T14:54:52.805Z</time>
      </trkpt>
      <trkpt lat="43.73966" lon="1.42091">
        <ele>218.979588</ele>
        <time>2022-07-29T14:54:54.786Z</time>
      </trkpt>
      <trkpt lat="43.73979" lon="1.42085">
        <ele>218.730259</ele>
        <time>2022-07-29T14:54:56.792Z</time>
      </trkpt>
      <trkpt lat="43.73992" lon="1.42077">
        <ele>218.476719</ele>
        <time>2022-07-29T14:54:58.789Z</time>
      </trkpt>
      <trkpt lat="43.74005" lon="1.42071">
        <ele>218.224147</ele>
        <time>2022-07-29T14:55:00.804Z</time>
      </trkpt>
      <trkpt lat="43.74019" lon="1.42069">
        <ele>217.970087</ele>
        <time>2022-07-29T14:55:02.784Z</time>
      </trkpt>
      <trkpt lat="43.74033" lon="1.42066">
        <ele>217.728666</ele>
        <time>2022-07-29T14:55:04.789Z</time>
      </trkpt>
      <trkpt lat="43.74045" lon="1.42064">
        <ele>217.498105</ele>
        <time>2022-07-29T14:55:06.797Z</time>
      </trkpt>
      <trkpt lat="43.74059" lon="1.4206">
        <ele>216.839787</ele>
        <time>2022-07-29T14:55:08.780Z</time>
      </trkpt>
      <trkpt lat="43.74075" lon="1.42057">
        <ele>215.393019</ele>
        <time>2022-07-29T14:55:10.777Z</time>
      </trkpt>
      <trkpt lat="43.74084" lon="1.42046">
        <ele>214.300237</ele>
        <time>2022-07-29T14:55:12.785Z</time>
      </trkpt>
      <trkpt lat="43.7409" lon="1.42037">
        <ele>213.457717</ele>
        <time>2022-07-29T14:55:14.792Z</time>
      </trkpt>
      <trkpt lat="43.741" lon="1.42032">
        <ele>212.512343</ele>
        <time>2022-07-29T14:55:16.789Z</time>
      </trkpt>
      <trkpt lat="43.74105" lon="1.42021">
        <ele>211.634961</ele>
        <time>2022-07-29T14:55:19.771Z</time>
      </trkpt>
      <trkpt lat="43.74097" lon="1.42008">
        <ele>210.481715</ele>
        <time>2022-07-29T14:55:23.799Z</time>
      </trkpt>
      <trkpt lat="43.74089" lon="1.42">
        <ele>209.619038</ele>
        <time>2022-07-29T14:55:25.784Z</time>
      </trkpt>
      <trkpt lat="43.74082" lon="1.41988">
        <ele>208.522316</ele>
        <time>2022-07-29T14:55:28.781Z</time>
      </trkpt>
      <trkpt lat="43.74074" lon="1.41975">
        <ele>207.417478</ele>
        <time>2022-07-29T14:55:31.789Z</time>
      </trkpt>
      <trkpt lat="43.74067" lon="1.41965">
        <ele>206.485112</ele>
        <time>2022-07-29T14:55:33.782Z</time>
      </trkpt>
      <trkpt lat="43.74062" lon="1.41955">
        <ele>205.609182</ele>
        <time>2022-07-29T14:55:35.789Z</time>
      </trkpt>
      <trkpt lat="43.74056" lon="1.41934">
        <ele>204.135293</ele>
        <time>2022-07-29T14:55:37.778Z</time>
      </trkpt>
      <trkpt lat="43.74051" lon="1.41916">
        <ele>202.857821</ele>
        <time>2022-07-29T14:55:39.801Z</time>
      </trkpt>
      <trkpt lat="43.74047" lon="1.41903">
        <ele>201.889457</ele>
        <time>2022-07-29T14:55:41.780Z</time>
      </trkpt>
      <trkpt lat="43.74042" lon="1.41893">
        <ele>201.034529</ele>
        <time>2022-07-29T14:55:43.782Z</time>
      </trkpt>
      <trkpt lat="43.74032" lon="1.41886">
        <ele>200.222938</ele>
        <time>2022-07-29T14:55:45.790Z</time>
      </trkpt>
      <trkpt lat="43.74022" lon="1.41874">
        <ele>199.393203</ele>
        <time>2022-07-29T14:55:48.775Z</time>
      </trkpt>
      <trkpt lat="43.74014" lon="1.41863">
        <ele>198.648313</ele>
        <time>2022-07-29T14:55:51.799Z</time>
      </trkpt>
      <trkpt lat="43.74008" lon="1.4185">
        <ele>197.981542</ele>
        <time>2022-07-29T14:55:54.772Z</time>
      </trkpt>
      <trkpt lat="43.74021" lon="1.41844">
        <ele>197.156628</ele>
        <time>2022-07-29T14:55:58.802Z</time>
      </trkpt>
      <trkpt lat="43.7403" lon="1.41842">
        <ele>196.547139</ele>
        <time>2022-07-29T14:56:00.792Z</time>
      </trkpt>
      <trkpt lat="43.74039" lon="1.41846">
        <ele>195.930786</ele>
        <time>2022-07-29T14:56:02.791Z</time>
      </trkpt>
      <trkpt lat="43.7405" lon="1.41844">
        <ele>195.260776</ele>
        <time>2022-07-29T14:56:04.788Z</time>
      </trkpt>
      <trkpt lat="43.74062" lon="1.41842">
        <ele>194.480424</ele>
        <time>2022-07-29T14:56:07.787Z</time>
      </trkpt>
      <trkpt lat="43.74072" lon="1.41837">
        <ele>193.821066</ele>
        <time>2022-07-29T14:56:11.796Z</time>
      </trkpt>
      <trkpt lat="43.7408" lon="1.41831">
        <ele>193.245049</ele>
        <time>2022-07-29T14:56:14.780Z</time>
      </trkpt>
      <trkpt lat="43.74091" lon="1.41831">
        <ele>192.553631</ele>
        <time>2022-07-29T14:56:17.788Z</time>
      </trkpt>
      <trkpt lat="43.741" lon="1.41831">
        <ele>191.976279</ele>
        <time>2022-07-29T14:56:20.788Z</time>
      </trkpt>
      <trkpt lat="43.74113" lon="1.41834">
        <ele>191.129265</ele>
        <time>2022-07-29T14:56:23.798Z</time>
      </trkpt>
      <trkpt lat="43.74123" lon="1.41832">
        <ele>190.494682</ele>
        <time>2022-07-29T14:56:25.788Z</time>
      </trkpt>
      <trkpt lat="43.74138" lon="1.41829">
        <ele>189.528972</ele>
        <time>2022-07-29T14:56:28.789Z</time>
      </trkpt>
      <trkpt lat="43.74152" lon="1.41824">
        <ele>189.112026</ele>
        <time>2022-07-29T14:56:30.785Z</time>
      </trkpt>
      <trkpt lat="43.74166" lon="1.41818">
        <ele>188.943043</ele>
        <time>2022-07-29T14:56:32.809Z</time>
      </trkpt>
      <trkpt lat="43.74174" lon="1.4181">
        <ele>188.823123</ele>
        <time>2022-07-29T14:56:34.784Z</time>
      </trkpt>
      <trkpt lat="43.74183" lon="1.41809">
        <ele>188.71211</ele>
        <time>2022-07-29T14:56:36.797Z</time>
      </trkpt>
      <trkpt lat="43.74195" lon="1.41811">
        <ele>188.573255</ele>
        <time>2022-07-29T14:56:41.793Z</time>
      </trkpt>
      <trkpt lat="43.74203" lon="1.41806">
        <ele>188.465762</ele>
        <time>2022-07-29T14:56:43.791Z</time>
      </trkpt>
      <trkpt lat="43.74213" lon="1.41815">
        <ele>188.32882</ele>
        <time>2022-07-29T14:56:47.795Z</time>
      </trkpt>
      <trkpt lat="43.74223" lon="1.4182">
        <ele>188.204595</ele>
        <time>2022-07-29T14:56:50.801Z</time>
      </trkpt>
      <trkpt lat="43.74233" lon="1.41823">
        <ele>188.084779</ele>
        <time>2022-07-29T14:56:52.790Z</time>
      </trkpt>
      <trkpt lat="43.74242" lon="1.41821">
        <ele>187.976794</ele>
        <time>2022-07-29T14:56:54.788Z</time>
      </trkpt>
      <trkpt lat="43.74251" lon="1.41828">
        <ele>187.849192</ele>
        <time>2022-07-29T14:56:56.786Z</time>
      </trkpt>
      <trkpt lat="43.74268" lon="1.41837">
        <ele>187.642952</ele>
        <time>2022-07-29T14:56:58.782Z</time>
      </trkpt>
      <trkpt lat="43.74279" lon="1.41835">
        <ele>187.513648</ele>
        <time>2022-07-29T14:57:00.788Z</time>
      </trkpt>
      <trkpt lat="43.74291" lon="1.41842">
        <ele>187.358512</ele>
        <time>2022-07-29T14:57:03.783Z</time>
      </trkpt>
      <trkpt lat="43.74303" lon="1.41849">
        <ele>187.207587</ele>
        <time>2022-07-29T14:57:05.792Z</time>
      </trkpt>
      <trkpt lat="43.74318" lon="1.41859">
        <ele>187.072411</ele>
        <time>2022-07-29T14:57:07.798Z</time>
      </trkpt>
      <trkpt lat="43.74328" lon="1.41867">
        <ele>187.015169</ele>
        <time>2022-07-29T14:57:09.778Z</time>
      </trkpt>
      <trkpt lat="43.74341" lon="1.41875">
        <ele>186.95153</ele>
        <time>2022-07-29T14:57:11.792Z</time>
      </trkpt>
      <trkpt lat="43.74349" lon="1.41885">
        <ele>186.90251</ele>
        <time>2022-07-29T14:57:13.821Z</time>
      </trkpt>
      <trkpt lat="43.74359" lon="1.41887">
        <ele>186.85438</ele>
        <time>2022-07-29T14:57:15.792Z</time>
      </trkpt>
      <trkpt lat="43.74368" lon="1.41896">
        <ele>186.801348</ele>
        <time>2022-07-29T14:57:17.821Z</time>
      </trkpt>
      <trkpt lat="43.7438" lon="1.41906">
        <ele>186.738547</ele>
        <time>2022-07-29T14:57:19.794Z</time>
      </trkpt>
      <trkpt lat="43.74392" lon="1.41912">
        <ele>186.67716</ele>
        <time>2022-07-29T14:57:21.789Z</time>
      </trkpt>
      <trkpt lat="43.74402" lon="1.4192">
        <ele>186.622029</ele>
        <time>2022-07-29T14:57:23.780Z</time>
      </trkpt>
      <trkpt lat="43.74412" lon="1.41923">
        <ele>186.577344</ele>
        <time>2022-07-29T14:57:26.790Z</time>
      </trkpt>
      <trkpt lat="43.74422" lon="1.41929">
        <ele>186.525065</ele>
        <time>2022-07-29T14:57:36.781Z</time>
      </trkpt>
      <trkpt lat="43.7443" lon="1.41938">
        <ele>186.479929</ele>
        <time>2022-07-29T14:57:38.764Z</time>
      </trkpt>
      <trkpt lat="43.74439" lon="1.41942">
        <ele>186.434766</ele>
        <time>2022-07-29T14:57:40.782Z</time>
      </trkpt>
      <trkpt lat="43.74451" lon="1.41947">
        <ele>186.376716</ele>
        <time>2022-07-29T14:57:45.776Z</time>
      </trkpt>
      <trkpt lat="43.74461" lon="1.41947">
        <ele>186.330703</ele>
        <time>2022-07-29T14:57:52.775Z</time>
      </trkpt>
      <trkpt lat="43.74465" lon="1.41933">
        <ele>186.281344</ele>
        <time>2022-07-29T14:57:57.791Z</time>
      </trkpt>
      <trkpt lat="43.74469" lon="1.41919">
        <ele>186.245721</ele>
        <time>2022-07-29T14:58:01.777Z</time>
      </trkpt>
      <trkpt lat="43.74462" lon="1.41906">
        <ele>186.2105</ele>
        <time>2022-07-29T14:58:05.782Z</time>
      </trkpt>
      <trkpt lat="43.74452" lon="1.41898">
        <ele>186.175736</ele>
        <time>2022-07-29T14:58:08.769Z</time>
      </trkpt>
      <trkpt lat="43.74439" lon="1.41892">
        <ele>186.132124</ele>
        <time>2022-07-29T14:58:11.787Z</time>
      </trkpt>
      <trkpt lat="43.74428" lon="1.41893">
        <ele>186.09816</ele>
        <time>2022-07-29T14:58:13.768Z</time>
      </trkpt>
      <trkpt lat="43.74418" lon="1.41885">
        <ele>186.061171</ele>
        <time>2022-07-29T14:58:15.772Z</time>
      </trkpt>
      <trkpt lat="43.74408" lon="1.41883">
        <ele>186.032189</ele>
        <time>2022-07-29T14:58:17.770Z</time>
      </trkpt>
      <trkpt lat="43.74397" lon="1.4188">
        <ele>185.995048</ele>
        <time>2022-07-29T14:58:20.783Z</time>
      </trkpt>
      <trkpt lat="43.74388" lon="1.41873">
        <ele>185.963154</ele>
        <time>2022-07-29T14:58:23.772Z</time>
      </trkpt>
      <trkpt lat="43.74376" lon="1.41865">
        <ele>185.923735</ele>
        <time>2022-07-29T14:58:26.778Z</time>
      </trkpt>
      <trkpt lat="43.74369" lon="1.41858">
        <ele>185.894399</ele>
        <time>2022-07-29T14:58:28.766Z</time>
      </trkpt>
      <trkpt lat="43.74355" lon="1.41848">
        <ele>185.847348</ele>
        <time>2022-07-29T14:58:30.765Z</time>
      </trkpt>
      <trkpt lat="43.74344" lon="1.41842">
        <ele>185.809681</ele>
        <time>2022-07-29T14:58:32.770Z</time>
      </trkpt>
      <trkpt lat="43.74333" lon="1.41835">
        <ele>185.77279</ele>
        <time>2022-07-29T14:58:34.782Z</time>
      </trkpt>
      <trkpt lat="43.74322" lon="1.4183">
        <ele>185.735911</ele>
        <time>2022-07-29T14:58:36.788Z</time>
      </trkpt>
      <trkpt lat="43.74311" lon="1.41825">
        <ele>185.996232</ele>
        <time>2022-07-29T14:58:38.799Z</time>
      </trkpt>
      <trkpt lat="43.743" lon="1.41818">
        <ele>186.636855</ele>
        <time>2022-07-29T14:58:40.784Z</time>
      </trkpt>
      <trkpt lat="43.74289" lon="1.4181">
        <ele>187.254046</ele>
        <time>2022-07-29T14:58:42.774Z</time>
      </trkpt>
      <trkpt lat="43.74279" lon="1.41806">
        <ele>187.791087</ele>
        <time>2022-07-29T14:58:44.801Z</time>
      </trkpt>
      <trkpt lat="43.74267" lon="1.418">
        <ele>188.417404</ele>
        <time>2022-07-29T14:58:46.776Z</time>
      </trkpt>
      <trkpt lat="43.74257" lon="1.41792">
        <ele>189.048386</ele>
        <time>2022-07-29T14:58:48.780Z</time>
      </trkpt>
      <trkpt lat="43.74246" lon="1.41786">
        <ele>189.638504</ele>
        <time>2022-07-29T14:58:50.768Z</time>
      </trkpt>
      <trkpt lat="43.74234" lon="1.41782">
        <ele>190.278915</ele>
        <time>2022-07-29T14:58:52.765Z</time>
      </trkpt>
      <trkpt lat="43.74228" lon="1.41773">
        <ele>190.741219</ele>
        <time>2022-07-29T14:58:54.773Z</time>
      </trkpt>
      <trkpt lat="43.74223" lon="1.41757">
        <ele>191.374384</ele>
        <time>2022-07-29T14:58:57.785Z</time>
      </trkpt>
      <trkpt lat="43.7422" lon="1.41742">
        <ele>191.950068</ele>
        <time>2022-07-29T14:59:00.782Z</time>
      </trkpt>
      <trkpt lat="43.74221" lon="1.41726">
        <ele>192.52215</ele>
        <time>2022-07-29T14:59:03.781Z</time>
      </trkpt>
      <trkpt lat="43.74216" lon="1.41716">
        <ele>192.98295</ele>
        <time>2022-07-29T14:59:11.785Z</time>
      </trkpt>
      <trkpt lat="43.74202" lon="1.41713">
        <ele>193.666832</ele>
        <time>2022-07-29T14:59:15.770Z</time>
      </trkpt>
      <trkpt lat="43.74193" lon="1.4171">
        <ele>194.167214</ele>
        <time>2022-07-29T14:59:17.791Z</time>
      </trkpt>
      <trkpt lat="43.74181" lon="1.41706">
        <ele>194.792724</ele>
        <time>2022-07-29T14:59:20.780Z</time>
      </trkpt>
      <trkpt lat="43.74172" lon="1.41705">
        <ele>195.195479</ele>
        <time>2022-07-29T14:59:22.767Z</time>
      </trkpt>
      <trkpt lat="43.74159" lon="1.41708">
        <ele>195.721456</ele>
        <time>2022-07-29T14:59:25.770Z</time>
      </trkpt>
      <trkpt lat="43.7415" lon="1.41709">
        <ele>196.126653</ele>
        <time>2022-07-29T14:59:27.791Z</time>
      </trkpt>
      <trkpt lat="43.74139" lon="1.4171">
        <ele>196.552505</ele>
        <time>2022-07-29T14:59:29.782Z</time>
      </trkpt>
      <trkpt lat="43.7413" lon="1.4171">
        <ele>196.928231</ele>
        <time>2022-07-29T14:59:31.781Z</time>
      </trkpt>
      <trkpt lat="43.74119" lon="1.41709">
        <ele>197.39774</ele>
        <time>2022-07-29T14:59:33.780Z</time>
      </trkpt>
      <trkpt lat="43.74104" lon="1.41709">
        <ele>198.015244</ele>
        <time>2022-07-29T14:59:35.797Z</time>
      </trkpt>
      <trkpt lat="43.74094" lon="1.41712">
        <ele>198.45593</ele>
        <time>2022-07-29T14:59:37.788Z</time>
      </trkpt>
      <trkpt lat="43.74084" lon="1.41713">
        <ele>198.886105</ele>
        <time>2022-07-29T14:59:39.777Z</time>
      </trkpt>
      <trkpt lat="43.74073" lon="1.41713">
        <ele>199.332782</ele>
        <time>2022-07-29T14:59:41.773Z</time>
      </trkpt>
      <trkpt lat="43.74061" lon="1.41715">
        <ele>199.830788</ele>
        <time>2022-07-29T14:59:43.788Z</time>
      </trkpt>
      <trkpt lat="43.74051" lon="1.4171">
        <ele>200.283026</ele>
        <time>2022-07-29T14:59:45.775Z</time>
      </trkpt>
      <trkpt lat="43.74036" lon="1.41706">
        <ele>200.906053</ele>
        <time>2022-07-29T14:59:47.785Z</time>
      </trkpt>
      <trkpt lat="43.74021" lon="1.41709">
        <ele>201.546721</ele>
        <time>2022-07-29T14:59:49.782Z</time>
      </trkpt>
      <trkpt lat="43.74009" lon="1.41711">
        <ele>202.059004</ele>
        <time>2022-07-29T14:59:51.783Z</time>
      </trkpt>
      <trkpt lat="43.73997" lon="1.41712">
        <ele>202.481076</ele>
        <time>2022-07-29T14:59:53.777Z</time>
      </trkpt>
      <trkpt lat="43.73986" lon="1.41714">
        <ele>202.749993</ele>
        <time>2022-07-29T14:59:55.765Z</time>
      </trkpt>
      <trkpt lat="43.73975" lon="1.41714">
        <ele>203.022949</ele>
        <time>2022-07-29T14:59:57.773Z</time>
      </trkpt>
      <trkpt lat="43.73964" lon="1.41716">
        <ele>203.29982</ele>
        <time>2022-07-29T14:59:59.778Z</time>
      </trkpt>
      <trkpt lat="43.73954" lon="1.41717">
        <ele>203.541283</ele>
        <time>2022-07-29T15:00:01.789Z</time>
      </trkpt>
      <trkpt lat="43.73944" lon="1.41716">
        <ele>203.782745</ele>
        <time>2022-07-29T15:00:03.781Z</time>
      </trkpt>
      <trkpt lat="43.73934" lon="1.41717">
        <ele>204.030371</ele>
        <time>2022-07-29T15:00:05.783Z</time>
      </trkpt>
      <trkpt lat="43.73925" lon="1.41718">
        <ele>204.260016</ele>
        <time>2022-07-29T15:00:07.786Z</time>
      </trkpt>
      <trkpt lat="43.73911" lon="1.4172">
        <ele>204.596824</ele>
        <time>2022-07-29T15:00:09.791Z</time>
      </trkpt>
      <trkpt lat="43.73898" lon="1.41723">
        <ele>204.903448</ele>
        <time>2022-07-29T15:00:11.775Z</time>
      </trkpt>
      <trkpt lat="43.73886" lon="1.41728">
        <ele>205.228119</ele>
        <time>2022-07-29T15:00:13.805Z</time>
      </trkpt>
      <trkpt lat="43.73876" lon="1.41735">
        <ele>205.497227</ele>
        <time>2022-07-29T15:00:15.774Z</time>
      </trkpt>
      <trkpt lat="43.73864" lon="1.41743">
        <ele>205.811811</ele>
        <time>2022-07-29T15:00:17.789Z</time>
      </trkpt>
      <trkpt lat="43.73853" lon="1.4175">
        <ele>206.102298</ele>
        <time>2022-07-29T15:00:19.793Z</time>
      </trkpt>
      <trkpt lat="43.73842" lon="1.41756">
        <ele>206.39321</ele>
        <time>2022-07-29T15:00:21.777Z</time>
      </trkpt>
      <trkpt lat="43.73831" lon="1.41763">
        <ele>206.692549</ele>
        <time>2022-07-29T15:00:23.774Z</time>
      </trkpt>
      <trkpt lat="43.7382" lon="1.41769">
        <ele>206.919843</ele>
        <time>2022-07-29T15:00:25.774Z</time>
      </trkpt>
      <trkpt lat="43.7381" lon="1.41774">
        <ele>207.103833</ele>
        <time>2022-07-29T15:00:27.771Z</time>
      </trkpt>
      <trkpt lat="43.73797" lon="1.41781">
        <ele>207.348003</ele>
        <time>2022-07-29T15:00:29.773Z</time>
      </trkpt>
      <trkpt lat="43.73785" lon="1.41787">
        <ele>207.562456</ele>
        <time>2022-07-29T15:00:31.791Z</time>
      </trkpt>
      <trkpt lat="43.73772" lon="1.41786">
        <ele>207.786486</ele>
        <time>2022-07-29T15:00:33.775Z</time>
      </trkpt>
      <trkpt lat="43.73761" lon="1.4179">
        <ele>207.994082</ele>
        <time>2022-07-29T15:00:35.766Z</time>
      </trkpt>
      <trkpt lat="43.73753" lon="1.41781">
        <ele>208.168193</ele>
        <time>2022-07-29T15:00:37.776Z</time>
      </trkpt>
      <trkpt lat="43.73746" lon="1.41771">
        <ele>208.339524</ele>
        <time>2022-07-29T15:00:39.780Z</time>
      </trkpt>
      <trkpt lat="43.73737" lon="1.41764">
        <ele>208.508127</ele>
        <time>2022-07-29T15:00:41.772Z</time>
      </trkpt>
      <trkpt lat="43.73727" lon="1.41759">
        <ele>208.699008</ele>
        <time>2022-07-29T15:00:43.764Z</time>
      </trkpt>
      <trkpt lat="43.73715" lon="1.41755">
        <ele>208.901043</ele>
        <time>2022-07-29T15:00:45.779Z</time>
      </trkpt>
      <trkpt lat="43.73703" lon="1.41752">
        <ele>209.116602</ele>
        <time>2022-07-29T15:00:47.779Z</time>
      </trkpt>
      <trkpt lat="43.73692" lon="1.41751">
        <ele>209.317049</ele>
        <time>2022-07-29T15:00:49.769Z</time>
      </trkpt>
      <trkpt lat="43.73685" lon="1.4174">
        <ele>209.49159</ele>
        <time>2022-07-29T15:00:52.778Z</time>
      </trkpt>
      <trkpt lat="43.73685" lon="1.41724">
        <ele>209.688219</ele>
        <time>2022-07-29T15:00:54.768Z</time>
      </trkpt>
      <trkpt lat="43.73685" lon="1.41709">
        <ele>209.879894</ele>
        <time>2022-07-29T15:00:56.779Z</time>
      </trkpt>
      <trkpt lat="43.7369" lon="1.41692">
        <ele>210.667133</ele>
        <time>2022-07-29T15:00:59.773Z</time>
      </trkpt>
      <trkpt lat="43.73693" lon="1.41679">
        <ele>211.280547</ele>
        <time>2022-07-29T15:01:01.786Z</time>
      </trkpt>
      <trkpt lat="43.73705" lon="1.41667">
        <ele>212.146101</ele>
        <time>2022-07-29T15:01:04.786Z</time>
      </trkpt>
      <trkpt lat="43.73713" lon="1.41659">
        <ele>212.797714</ele>
        <time>2022-07-29T15:01:06.774Z</time>
      </trkpt>
      <trkpt lat="43.73716" lon="1.41641">
        <ele>213.62471</ele>
        <time>2022-07-29T15:01:09.792Z</time>
      </trkpt>
      <trkpt lat="43.7372" lon="1.41628">
        <ele>214.207328</ele>
        <time>2022-07-29T15:01:11.785Z</time>
      </trkpt>
      <trkpt lat="43.73728" lon="1.4162">
        <ele>214.84979</ele>
        <time>2022-07-29T15:01:13.786Z</time>
      </trkpt>
      <trkpt lat="43.73738" lon="1.41617">
        <ele>215.46394</ele>
        <time>2022-07-29T15:01:15.796Z</time>
      </trkpt>
      <trkpt lat="43.73746" lon="1.41609">
        <ele>216.088291</ele>
        <time>2022-07-29T15:01:17.784Z</time>
      </trkpt>
      <trkpt lat="43.73756" lon="1.41602">
        <ele>216.726479</ele>
        <time>2022-07-29T15:01:19.790Z</time>
      </trkpt>
      <trkpt lat="43.73765" lon="1.41595">
        <ele>217.373186</ele>
        <time>2022-07-29T15:01:21.788Z</time>
      </trkpt>
      <trkpt lat="43.73771" lon="1.41581">
        <ele>218.101481</ele>
        <time>2022-07-29T15:01:23.787Z</time>
      </trkpt>
      <trkpt lat="43.73782" lon="1.41575">
        <ele>218.79325</ele>
        <time>2022-07-29T15:01:25.798Z</time>
      </trkpt>
      <trkpt lat="43.73793" lon="1.41572">
        <ele>219.470977</ele>
        <time>2022-07-29T15:01:27.778Z</time>
      </trkpt>
      <trkpt lat="43.73805" lon="1.41567">
        <ele>220.230673</ele>
        <time>2022-07-29T15:01:29.786Z</time>
      </trkpt>
      <trkpt lat="43.73816" lon="1.41562">
        <ele>220.903654</ele>
        <time>2022-07-29T15:01:31.797Z</time>
      </trkpt>
      <trkpt lat="43.73827" lon="1.41556">
        <ele>221.058013</ele>
        <time>2022-07-29T15:01:33.797Z</time>
      </trkpt>
      <trkpt lat="43.73838" lon="1.41549">
        <ele>221.214561</ele>
        <time>2022-07-29T15:01:35.791Z</time>
      </trkpt>
      <trkpt lat="43.73849" lon="1.41546">
        <ele>221.357779</ele>
        <time>2022-07-29T15:01:37.794Z</time>
      </trkpt>
      <trkpt lat="43.73856" lon="1.41553">
        <ele>221.479905</ele>
        <time>2022-07-29T15:01:39.813Z</time>
      </trkpt>
      <trkpt lat="43.7386" lon="1.4157">
        <ele>221.646481</ele>
        <time>2022-07-29T15:01:41.778Z</time>
      </trkpt>
      <trkpt lat="43.73865" lon="1.41588">
        <ele>221.832426</ele>
        <time>2022-07-29T15:01:43.792Z</time>
      </trkpt>
      <trkpt lat="43.73878" lon="1.41599">
        <ele>222.023523</ele>
        <time>2022-07-29T15:01:45.779Z</time>
      </trkpt>
      <trkpt lat="43.73892" lon="1.41597">
        <ele>222.211629</ele>
        <time>2022-07-29T15:01:47.781Z</time>
      </trkpt>
      <trkpt lat="43.73905" lon="1.41591">
        <ele>222.390777</ele>
        <time>2022-07-29T15:01:49.786Z</time>
      </trkpt>
      <trkpt lat="43.73916" lon="1.41581">
        <ele>222.555195</ele>
        <time>2022-07-29T15:01:51.790Z</time>
      </trkpt>
      <trkpt lat="43.73922" lon="1.41568">
        <ele>222.699375</ele>
        <time>2022-07-29T15:01:53.790Z</time>
      </trkpt>
      <trkpt lat="43.73921" lon="1.41555">
        <ele>222.825915</ele>
        <time>2022-07-29T15:01:55.792Z</time>
      </trkpt>
      <trkpt lat="43.73918" lon="1.41541">
        <ele>222.959741</ele>
        <time>2022-07-29T15:01:57.797Z</time>
      </trkpt>
      <trkpt lat="43.73916" lon="1.41527">
        <ele>223.096453</ele>
        <time>2022-07-29T15:01:59.852Z</time>
      </trkpt>
      <trkpt lat="43.73913" lon="1.41513">
        <ele>223.237724</ele>
        <time>2022-07-29T15:02:01.782Z</time>
      </trkpt>
      <trkpt lat="43.73908" lon="1.41499">
        <ele>223.404298</ele>
        <time>2022-07-29T15:02:03.817Z</time>
      </trkpt>
      <trkpt lat="43.73904" lon="1.41484">
        <ele>223.577951</ele>
        <time>2022-07-29T15:02:05.830Z</time>
      </trkpt>
      <trkpt lat="43.739" lon="1.41469">
        <ele>223.75048</ele>
        <time>2022-07-29T15:02:07.784Z</time>
      </trkpt>
      <trkpt lat="43.73897" lon="1.41453">
        <ele>223.923942</ele>
        <time>2022-07-29T15:02:09.782Z</time>
      </trkpt>
      <trkpt lat="43.73894" lon="1.41438">
        <ele>224.091163</ele>
        <time>2022-07-29T15:02:11.799Z</time>
      </trkpt>
      <trkpt lat="43.73892" lon="1.41422">
        <ele>224.260859</ele>
        <time>2022-07-29T15:02:13.793Z</time>
      </trkpt>
      <trkpt lat="43.73889" lon="1.41406">
        <ele>224.438939</ele>
        <time>2022-07-29T15:02:15.792Z</time>
      </trkpt>
      <trkpt lat="43.73886" lon="1.4139">
        <ele>224.619893</ele>
        <time>2022-07-29T15:02:17.805Z</time>
      </trkpt>
      <trkpt lat="43.73881" lon="1.41375">
        <ele>224.800634</ele>
        <time>2022-07-29T15:02:19.811Z</time>
      </trkpt>
      <trkpt lat="43.73875" lon="1.4136">
        <ele>224.981738</ele>
        <time>2022-07-29T15:02:21.804Z</time>
      </trkpt>
      <trkpt lat="43.73876" lon="1.41344">
        <ele>225.156578</ele>
        <time>2022-07-29T15:02:23.776Z</time>
      </trkpt>
      <trkpt lat="43.73885" lon="1.41334">
        <ele>225.32776</ele>
        <time>2022-07-29T15:02:25.803Z</time>
      </trkpt>
      <trkpt lat="43.73896" lon="1.41328">
        <ele>225.501134</ele>
        <time>2022-07-29T15:02:27.773Z</time>
      </trkpt>
      <trkpt lat="43.73906" lon="1.4132">
        <ele>225.676494</ele>
        <time>2022-07-29T15:02:29.801Z</time>
      </trkpt>
      <trkpt lat="43.73916" lon="1.4131">
        <ele>225.856003</ele>
        <time>2022-07-29T15:02:31.809Z</time>
      </trkpt>
      <trkpt lat="43.73926" lon="1.41301">
        <ele>225.502083</ele>
        <time>2022-07-29T15:02:33.771Z</time>
      </trkpt>
      <trkpt lat="43.73937" lon="1.41295">
        <ele>224.975724</ele>
        <time>2022-07-29T15:02:35.803Z</time>
      </trkpt>
      <trkpt lat="43.73949" lon="1.41291">
        <ele>224.457078</ele>
        <time>2022-07-29T15:02:37.800Z</time>
      </trkpt>
      <trkpt lat="43.73962" lon="1.41291">
        <ele>223.898015</ele>
        <time>2022-07-29T15:02:39.808Z</time>
      </trkpt>
      <trkpt lat="43.73973" lon="1.41299">
        <ele>223.331989</ele>
        <time>2022-07-29T15:02:41.807Z</time>
      </trkpt>
      <trkpt lat="43.73983" lon="1.41311">
        <ele>222.764864</ele>
        <time>2022-07-29T15:02:43.828Z</time>
      </trkpt>
      <trkpt lat="43.73989" lon="1.41326">
        <ele>222.221728</ele>
        <time>2022-07-29T15:02:45.802Z</time>
      </trkpt>
      <trkpt lat="43.73993" lon="1.41341">
        <ele>221.746873</ele>
        <time>2022-07-29T15:02:50.805Z</time>
      </trkpt>
      <trkpt lat="43.73994" lon="1.41327">
        <ele>221.303408</ele>
        <time>2022-07-29T15:02:57.776Z</time>
      </trkpt>
      <trkpt lat="43.74006" lon="1.41328">
        <ele>220.797955</ele>
        <time>2022-07-29T15:03:00.803Z</time>
      </trkpt>
      <trkpt lat="43.74016" lon="1.41334">
        <ele>220.302434</ele>
        <time>2022-07-29T15:03:02.789Z</time>
      </trkpt>
      <trkpt lat="43.74029" lon="1.41342">
        <ele>219.675851</ele>
        <time>2022-07-29T15:03:04.799Z</time>
      </trkpt>
      <trkpt lat="43.74043" lon="1.41352">
        <ele>219.00088</ele>
        <time>2022-07-29T15:03:06.785Z</time>
      </trkpt>
      <trkpt lat="43.74058" lon="1.41354">
        <ele>218.325633</ele>
        <time>2022-07-29T15:03:08.792Z</time>
      </trkpt>
      <trkpt lat="43.74072" lon="1.41371">
        <ele>216.916729</ele>
        <time>2022-07-29T15:03:10.792Z</time>
      </trkpt>
      <trkpt lat="43.74077" lon="1.4138">
        <ele>216.028356</ele>
        <time>2022-07-29T15:03:11.801Z</time>
      </trkpt>
      <trkpt lat="43.74086" lon="1.41396">
        <ele>214.654506</ele>
        <time>2022-07-29T15:03:13.796Z</time>
      </trkpt>
      <trkpt lat="43.74095" lon="1.41402">
        <ele>213.587949</ele>
        <time>2022-07-29T15:03:15.788Z</time>
      </trkpt>
      <trkpt lat="43.74112" lon="1.41402">
        <ele>211.997845</ele>
        <time>2022-07-29T15:03:17.796Z</time>
      </trkpt>
      <trkpt lat="43.74121" lon="1.41407">
        <ele>211.065607</ele>
        <time>2022-07-29T15:03:18.773Z</time>
      </trkpt>
      <trkpt lat="43.7413" lon="1.41408">
        <ele>210.128602</ele>
        <time>2022-07-29T15:03:19.782Z</time>
      </trkpt>
      <trkpt lat="43.74145" lon="1.41415">
        <ele>208.628166</ele>
        <time>2022-07-29T15:03:21.794Z</time>
      </trkpt>
      <trkpt lat="43.74155" lon="1.41425">
        <ele>207.389194</ele>
        <time>2022-07-29T15:03:23.787Z</time>
      </trkpt>
      <trkpt lat="43.74165" lon="1.4141">
        <ele>205.989274</ele>
        <time>2022-07-29T15:03:25.790Z</time>
      </trkpt>
      <trkpt lat="43.74176" lon="1.41399">
        <ele>204.58473</ele>
        <time>2022-07-29T15:03:27.801Z</time>
      </trkpt>
      <trkpt lat="43.74188" lon="1.41389">
        <ele>203.239617</ele>
        <time>2022-07-29T15:03:29.794Z</time>
      </trkpt>
      <trkpt lat="43.742" lon="1.41391">
        <ele>202.041756</ele>
        <time>2022-07-29T15:03:31.798Z</time>
      </trkpt>
      <trkpt lat="43.74213" lon="1.41406">
        <ele>200.428874</ele>
        <time>2022-07-29T15:03:33.779Z</time>
      </trkpt>
      <trkpt lat="43.74224" lon="1.41419">
        <ele>199.975217</ele>
        <time>2022-07-29T15:03:35.789Z</time>
      </trkpt>
      <trkpt lat="43.74236" lon="1.41429">
        <ele>199.570315</ele>
        <time>2022-07-29T15:03:37.809Z</time>
      </trkpt>
      <trkpt lat="43.7425" lon="1.4144">
        <ele>199.083585</ele>
        <time>2022-07-29T15:03:39.795Z</time>
      </trkpt>
      <trkpt lat="43.74266" lon="1.41451">
        <ele>198.570653</ele>
        <time>2022-07-29T15:03:41.804Z</time>
      </trkpt>
      <trkpt lat="43.74281" lon="1.41463">
        <ele>198.066346</ele>
        <time>2022-07-29T15:03:43.765Z</time>
      </trkpt>
      <trkpt lat="43.74291" lon="1.41482">
        <ele>197.575076</ele>
        <time>2022-07-29T15:03:45.791Z</time>
      </trkpt>
      <trkpt lat="43.74298" lon="1.41499">
        <ele>197.151478</ele>
        <time>2022-07-29T15:03:47.806Z</time>
      </trkpt>
      <trkpt lat="43.74307" lon="1.41513">
        <ele>196.765758</ele>
        <time>2022-07-29T15:03:49.797Z</time>
      </trkpt>
      <trkpt lat="43.7432" lon="1.41523">
        <ele>196.324988</ele>
        <time>2022-07-29T15:03:51.804Z</time>
      </trkpt>
      <trkpt lat="43.74335" lon="1.41533">
        <ele>195.840315</ele>
        <time>2022-07-29T15:03:53.790Z</time>
      </trkpt>
      <trkpt lat="43.7435" lon="1.41542">
        <ele>195.369887</ele>
        <time>2022-07-29T15:03:55.800Z</time>
      </trkpt>
      <trkpt lat="43.74365" lon="1.41552">
        <ele>194.9743</ele>
        <time>2022-07-29T15:03:57.777Z</time>
      </trkpt>
      <trkpt lat="43.7438" lon="1.41562">
        <ele>194.66172</ele>
        <time>2022-07-29T15:03:59.835Z</time>
      </trkpt>
      <trkpt lat="43.74395" lon="1.41572">
        <ele>194.34629</ele>
        <time>2022-07-29T15:04:01.776Z</time>
      </trkpt>
      <trkpt lat="43.7441" lon="1.41581">
        <ele>194.03252</ele>
        <time>2022-07-29T15:04:03.777Z</time>
      </trkpt>
      <trkpt lat="43.74425" lon="1.41591">
        <ele>193.719898</ele>
        <time>2022-07-29T15:04:05.777Z</time>
      </trkpt>
      <trkpt lat="43.7444" lon="1.416">
        <ele>193.425491</ele>
        <time>2022-07-29T15:04:07.789Z</time>
      </trkpt>
      <trkpt lat="43.74452" lon="1.41604">
        <ele>193.197692</ele>
        <time>2022-07-29T15:04:09.774Z</time>
      </trkpt>
      <trkpt lat="43.74459" lon="1.4159">
        <ele>192.964256</ele>
        <time>2022-07-29T15:04:12.790Z</time>
      </trkpt>
      <trkpt lat="43.74464" lon="1.41575">
        <ele>192.739608</ele>
        <time>2022-07-29T15:04:14.773Z</time>
      </trkpt>
      <trkpt lat="43.74471" lon="1.4156">
        <ele>192.494071</ele>
        <time>2022-07-29T15:04:16.800Z</time>
      </trkpt>
      <trkpt lat="43.74481" lon="1.41552">
        <ele>192.272828</ele>
        <time>2022-07-29T15:04:18.772Z</time>
      </trkpt>
      <trkpt lat="43.74493" lon="1.41557">
        <ele>192.0433</ele>
        <time>2022-07-29T15:04:20.779Z</time>
      </trkpt>
      <trkpt lat="43.74505" lon="1.41564">
        <ele>191.80103</ele>
        <time>2022-07-29T15:04:22.770Z</time>
      </trkpt>
      <trkpt lat="43.74518" lon="1.41569">
        <ele>191.68164</ele>
        <time>2022-07-29T15:04:24.784Z</time>
      </trkpt>
      <trkpt lat="43.7453" lon="1.41575">
        <ele>191.586598</ele>
        <time>2022-07-29T15:04:26.782Z</time>
      </trkpt>
      <trkpt lat="43.74542" lon="1.41582">
        <ele>191.49087</ele>
        <time>2022-07-29T15:04:28.774Z</time>
      </trkpt>
      <trkpt lat="43.74554" lon="1.41587">
        <ele>191.401638</ele>
        <time>2022-07-29T15:04:30.786Z</time>
      </trkpt>
      <trkpt lat="43.74562" lon="1.41577">
        <ele>191.324894</ele>
        <time>2022-07-29T15:04:33.776Z</time>
      </trkpt>
      <trkpt lat="43.74573" lon="1.4157">
        <ele>191.239724</ele>
        <time>2022-07-29T15:04:36.784Z</time>
      </trkpt>
      <trkpt lat="43.74581" lon="1.41576">
        <ele>191.16895</ele>
        <time>2022-07-29T15:04:40.776Z</time>
      </trkpt>
      <trkpt lat="43.74588" lon="1.41566">
        <ele>191.091884</ele>
        <time>2022-07-29T15:04:44.773Z</time>
      </trkpt>
      <trkpt lat="43.74596" lon="1.41554">
        <ele>191.013463</ele>
        <time>2022-07-29T15:04:46.773Z</time>
      </trkpt>
      <trkpt lat="43.74603" lon="1.41542">
        <ele>190.927443</ele>
        <time>2022-07-29T15:04:48.767Z</time>
      </trkpt>
      <trkpt lat="43.74612" lon="1.4153">
        <ele>190.83869</ele>
        <time>2022-07-29T15:04:50.771Z</time>
      </trkpt>
      <trkpt lat="43.74619" lon="1.41516">
        <ele>190.749975</ele>
        <time>2022-07-29T15:04:52.781Z</time>
      </trkpt>
      <trkpt lat="43.74626" lon="1.41502">
        <ele>190.664209</ele>
        <time>2022-07-29T15:04:54.790Z</time>
      </trkpt>
      <trkpt lat="43.74633" lon="1.41489">
        <ele>190.576768</ele>
        <time>2022-07-29T15:04:56.772Z</time>
      </trkpt>
      <trkpt lat="43.74641" lon="1.41476">
        <ele>190.487269</ele>
        <time>2022-07-29T15:04:58.793Z</time>
      </trkpt>
      <trkpt lat="43.74649" lon="1.41463">
        <ele>190.358927</ele>
        <time>2022-07-29T15:05:00.786Z</time>
      </trkpt>
      <trkpt lat="43.74658" lon="1.41451">
        <ele>190.209114</ele>
        <time>2022-07-29T15:05:02.774Z</time>
      </trkpt>
      <trkpt lat="43.74666" lon="1.41438">
        <ele>190.059288</ele>
        <time>2022-07-29T15:05:04.777Z</time>
      </trkpt>
      <trkpt lat="43.74674" lon="1.41425">
        <ele>189.910945</ele>
        <time>2022-07-29T15:05:06.773Z</time>
      </trkpt>
      <trkpt lat="43.74682" lon="1.41413">
        <ele>189.766424</ele>
        <time>2022-07-29T15:05:08.784Z</time>
      </trkpt>
      <trkpt lat="43.7469" lon="1.41401">
        <ele>189.623896</ele>
        <time>2022-07-29T15:05:10.777Z</time>
      </trkpt>
      <trkpt lat="43.74699" lon="1.41389">
        <ele>189.479446</ele>
        <time>2022-07-29T15:05:12.792Z</time>
      </trkpt>
      <trkpt lat="43.74708" lon="1.41377">
        <ele>189.334996</ele>
        <time>2022-07-29T15:05:14.778Z</time>
      </trkpt>
      <trkpt lat="43.74717" lon="1.41366">
        <ele>189.190019</ele>
        <time>2022-07-29T15:05:16.766Z</time>
      </trkpt>
      <trkpt lat="43.74726" lon="1.41356">
        <ele>189.046626</ele>
        <time>2022-07-29T15:05:18.775Z</time>
      </trkpt>
      <trkpt lat="43.74735" lon="1.41345">
        <ele>188.898811</ele>
        <time>2022-07-29T15:05:20.777Z</time>
      </trkpt>
      <trkpt lat="43.74745" lon="1.41333">
        <ele>188.751141</ele>
        <time>2022-07-29T15:05:22.803Z</time>
      </trkpt>
      <trkpt lat="43.74753" lon="1.41321">
        <ele>188.603402</ele>
        <time>2022-07-29T15:05:24.798Z</time>
      </trkpt>
      <trkpt lat="43.74762" lon="1.41309">
        <ele>188.455661</ele>
        <time>2022-07-29T15:05:26.785Z</time>
      </trkpt>
      <trkpt lat="43.7477" lon="1.41296">
        <ele>188.30647</ele>
        <time>2022-07-29T15:05:28.769Z</time>
      </trkpt>
      <trkpt lat="43.74778" lon="1.41284">
        <ele>188.233033</ele>
        <time>2022-07-29T15:05:30.788Z</time>
      </trkpt>
      <trkpt lat="43.74786" lon="1.41271">
        <ele>188.161151</ele>
        <time>2022-07-29T15:05:32.772Z</time>
      </trkpt>
      <trkpt lat="43.74795" lon="1.4126">
        <ele>188.089836</ele>
        <time>2022-07-29T15:05:34.785Z</time>
      </trkpt>
      <trkpt lat="43.74803" lon="1.41248">
        <ele>188.018539</ele>
        <time>2022-07-29T15:05:36.791Z</time>
      </trkpt>
      <trkpt lat="43.74812" lon="1.41237">
        <ele>187.945468</ele>
        <time>2022-07-29T15:05:38.852Z</time>
      </trkpt>
      <trkpt lat="43.7482" lon="1.41224">
        <ele>187.872658</ele>
        <time>2022-07-29T15:05:40.783Z</time>
      </trkpt>
      <trkpt lat="43.74829" lon="1.41211">
        <ele>187.798597</ele>
        <time>2022-07-29T15:05:42.787Z</time>
      </trkpt>
      <trkpt lat="43.74837" lon="1.41199">
        <ele>187.724536</ele>
        <time>2022-07-29T15:05:44.793Z</time>
      </trkpt>
      <trkpt lat="43.74846" lon="1.41187">
        <ele>187.651401</ele>
        <time>2022-07-29T15:05:46.783Z</time>
      </trkpt>
      <trkpt lat="43.74854" lon="1.41174">
        <ele>187.577824</ele>
        <time>2022-07-29T15:05:48.793Z</time>
      </trkpt>
      <trkpt lat="43.74861" lon="1.4116">
        <ele>187.504083</ele>
        <time>2022-07-29T15:05:50.784Z</time>
      </trkpt>
      <trkpt lat="43.7487" lon="1.41147">
        <ele>187.430696</ele>
        <time>2022-07-29T15:05:52.784Z</time>
      </trkpt>
      <trkpt lat="43.74878" lon="1.41135">
        <ele>187.357772</ele>
        <time>2022-07-29T15:05:54.786Z</time>
      </trkpt>
      <trkpt lat="43.74882" lon="1.41119">
        <ele>187.286421</ele>
        <time>2022-07-29T15:05:56.793Z</time>
      </trkpt>
      <trkpt lat="43.74882" lon="1.41103">
        <ele>187.252757</ele>
        <time>2022-07-29T15:05:58.782Z</time>
      </trkpt>
      <trkpt lat="43.7488" lon="1.41086">
        <ele>187.351419</ele>
        <time>2022-07-29T15:06:00.803Z</time>
      </trkpt>
      <trkpt lat="43.74877" lon="1.4107">
        <ele>187.447165</ele>
        <time>2022-07-29T15:06:02.780Z</time>
      </trkpt>
      <trkpt lat="43.74875" lon="1.41054">
        <ele>187.545207</ele>
        <time>2022-07-29T15:06:04.787Z</time>
      </trkpt>
      <trkpt lat="43.74872" lon="1.41038">
        <ele>187.642728</ele>
        <time>2022-07-29T15:06:06.776Z</time>
      </trkpt>
      <trkpt lat="43.74869" lon="1.41022">
        <ele>187.738863</ele>
        <time>2022-07-29T15:06:08.765Z</time>
      </trkpt>
      <trkpt lat="43.74868" lon="1.41006">
        <ele>187.835647</ele>
        <time>2022-07-29T15:06:10.790Z</time>
      </trkpt>
      <trkpt lat="43.74865" lon="1.4099">
        <ele>187.931967</ele>
        <time>2022-07-29T15:06:12.784Z</time>
      </trkpt>
      <trkpt lat="43.74862" lon="1.40974">
        <ele>188.031226</ele>
        <time>2022-07-29T15:06:14.784Z</time>
      </trkpt>
      <trkpt lat="43.74859" lon="1.40957">
        <ele>188.132134</ele>
        <time>2022-07-29T15:06:16.774Z</time>
      </trkpt>
      <trkpt lat="43.74855" lon="1.40941">
        <ele>188.232274</ele>
        <time>2022-07-29T15:06:18.790Z</time>
      </trkpt>
      <trkpt lat="43.74851" lon="1.40925">
        <ele>188.331314</ele>
        <time>2022-07-29T15:06:20.791Z</time>
      </trkpt>
      <trkpt lat="43.74848" lon="1.40909">
        <ele>188.431364</ele>
        <time>2022-07-29T15:06:22.780Z</time>
      </trkpt>
      <trkpt lat="43.74844" lon="1.40892">
        <ele>188.532369</ele>
        <time>2022-07-29T15:06:24.779Z</time>
      </trkpt>
      <trkpt lat="43.7484" lon="1.40876">
        <ele>188.6311</ele>
        <time>2022-07-29T15:06:26.775Z</time>
      </trkpt>
      <trkpt lat="43.74839" lon="1.40862">
        <ele>188.663228</ele>
        <time>2022-07-29T15:06:28.771Z</time>
      </trkpt>
      <trkpt lat="43.74847" lon="1.40853">
        <ele>188.469536</ele>
        <time>2022-07-29T15:06:31.769Z</time>
      </trkpt>
      <trkpt lat="43.74857" lon="1.4085">
        <ele>188.280887</ele>
        <time>2022-07-29T15:06:33.783Z</time>
      </trkpt>
      <trkpt lat="43.74868" lon="1.40846">
        <ele>188.068629</ele>
        <time>2022-07-29T15:06:35.781Z</time>
      </trkpt>
      <trkpt lat="43.7488" lon="1.40841">
        <ele>187.848963</ele>
        <time>2022-07-29T15:06:37.769Z</time>
      </trkpt>
      <trkpt lat="43.74891" lon="1.40834">
        <ele>187.627235</ele>
        <time>2022-07-29T15:06:39.795Z</time>
      </trkpt>
      <trkpt lat="43.74895" lon="1.40819">
        <ele>187.414374</ele>
        <time>2022-07-29T15:06:41.781Z</time>
      </trkpt>
      <trkpt lat="43.74894" lon="1.40804">
        <ele>187.21862</ele>
        <time>2022-07-29T15:06:43.765Z</time>
      </trkpt>
      <trkpt lat="43.74892" lon="1.40791">
        <ele>187.03167</ele>
        <time>2022-07-29T15:06:45.789Z</time>
      </trkpt>
      <trkpt lat="43.74889" lon="1.40777">
        <ele>186.85158</ele>
        <time>2022-07-29T15:06:47.800Z</time>
      </trkpt>
      <trkpt lat="43.74887" lon="1.40765">
        <ele>186.679057</ele>
        <time>2022-07-29T15:06:49.776Z</time>
      </trkpt>
      <trkpt lat="43.74884" lon="1.40752">
        <ele>186.507541</ele>
        <time>2022-07-29T15:06:51.782Z</time>
      </trkpt>
      <trkpt lat="43.74883" lon="1.4074">
        <ele>186.34193</ele>
        <time>2022-07-29T15:06:53.782Z</time>
      </trkpt>
      <trkpt lat="43.74888" lon="1.40727">
        <ele>186.145261</ele>
        <time>2022-07-29T15:06:56.777Z</time>
      </trkpt>
      <trkpt lat="43.74895" lon="1.40718">
        <ele>185.980269</ele>
        <time>2022-07-29T15:06:59.779Z</time>
      </trkpt>
      <trkpt lat="43.74904" lon="1.40713">
        <ele>185.789061</ele>
        <time>2022-07-29T15:07:03.771Z</time>
      </trkpt>
      <trkpt lat="43.74918" lon="1.40714">
        <ele>185.546817</ele>
        <time>2022-07-29T15:07:06.791Z</time>
      </trkpt>
      <trkpt lat="43.74929" lon="1.40713">
        <ele>185.26325</ele>
        <time>2022-07-29T15:07:08.801Z</time>
      </trkpt>
      <trkpt lat="43.74942" lon="1.40712">
        <ele>184.704733</ele>
        <time>2022-07-29T15:07:10.786Z</time>
      </trkpt>
      <trkpt lat="43.74956" lon="1.40711">
        <ele>184.089442</ele>
        <time>2022-07-29T15:07:12.777Z</time>
      </trkpt>
      <trkpt lat="43.74971" lon="1.4071">
        <ele>183.430395</ele>
        <time>2022-07-29T15:07:14.779Z</time>
      </trkpt>
      <trkpt lat="43.74987" lon="1.40709">
        <ele>182.737621</ele>
        <time>2022-07-29T15:07:16.781Z</time>
      </trkpt>
      <trkpt lat="43.75004" lon="1.40707">
        <ele>182.001201</ele>
        <time>2022-07-29T15:07:18.775Z</time>
      </trkpt>
      <trkpt lat="43.75022" lon="1.40706">
        <ele>181.238694</ele>
        <time>2022-07-29T15:07:20.780Z</time>
      </trkpt>
      <trkpt lat="43.75031" lon="1.40705">
        <ele>180.848316</ele>
        <time>2022-07-29T15:07:21.780Z</time>
      </trkpt>
      <trkpt lat="43.75047" lon="1.40703">
        <ele>180.121274</ele>
        <time>2022-07-29T15:07:23.777Z</time>
      </trkpt>
      <trkpt lat="43.75061" lon="1.40699">
        <ele>179.535577</ele>
        <time>2022-07-29T15:07:25.791Z</time>
      </trkpt>
      <trkpt lat="43.75072" lon="1.40697">
        <ele>179.050012</ele>
        <time>2022-07-29T15:07:28.784Z</time>
      </trkpt>
      <trkpt lat="43.75069" lon="1.40682">
        <ele>178.552232</ele>
        <time>2022-07-29T15:07:31.791Z</time>
      </trkpt>
      <trkpt lat="43.75061" lon="1.40669">
        <ele>178.038386</ele>
        <time>2022-07-29T15:07:33.789Z</time>
      </trkpt>
      <trkpt lat="43.75052" lon="1.40657">
        <ele>177.661691</ele>
        <time>2022-07-29T15:07:35.783Z</time>
      </trkpt>
      <trkpt lat="43.75043" lon="1.40644">
        <ele>177.872495</ele>
        <time>2022-07-29T15:07:37.799Z</time>
      </trkpt>
      <trkpt lat="43.75034" lon="1.40631">
        <ele>178.079164</ele>
        <time>2022-07-29T15:07:39.781Z</time>
      </trkpt>
      <trkpt lat="43.75026" lon="1.40618">
        <ele>178.286053</ele>
        <time>2022-07-29T15:07:41.793Z</time>
      </trkpt>
      <trkpt lat="43.75017" lon="1.40606">
        <ele>178.498852</ele>
        <time>2022-07-29T15:07:43.792Z</time>
      </trkpt>
      <trkpt lat="43.75009" lon="1.40594">
        <ele>178.696567</ele>
        <time>2022-07-29T15:07:45.793Z</time>
      </trkpt>
      <trkpt lat="43.75" lon="1.40582">
        <ele>178.890352</ele>
        <time>2022-07-29T15:07:47.801Z</time>
      </trkpt>
      <trkpt lat="43.74992" lon="1.4057">
        <ele>179.086137</ele>
        <time>2022-07-29T15:07:49.790Z</time>
      </trkpt>
      <trkpt lat="43.74983" lon="1.40559">
        <ele>179.279091</ele>
        <time>2022-07-29T15:07:51.789Z</time>
      </trkpt>
      <trkpt lat="43.74975" lon="1.40549">
        <ele>179.464735</ele>
        <time>2022-07-29T15:07:53.804Z</time>
      </trkpt>
      <trkpt lat="43.74966" lon="1.40538">
        <ele>179.656546</ele>
        <time>2022-07-29T15:07:55.823Z</time>
      </trkpt>
      <trkpt lat="43.74958" lon="1.40527">
        <ele>179.845499</ele>
        <time>2022-07-29T15:07:57.783Z</time>
      </trkpt>
      <trkpt lat="43.74949" lon="1.40517">
        <ele>180.033766</ele>
        <time>2022-07-29T15:07:59.776Z</time>
      </trkpt>
      <trkpt lat="43.74939" lon="1.40509">
        <ele>180.222074</ele>
        <time>2022-07-29T15:08:01.850Z</time>
      </trkpt>
      <trkpt lat="43.74929" lon="1.40505">
        <ele>180.389387</ele>
        <time>2022-07-29T15:08:03.761Z</time>
      </trkpt>
      <trkpt lat="43.74918" lon="1.40511">
        <ele>180.586816</ele>
        <time>2022-07-29T15:08:05.818Z</time>
      </trkpt>
      <trkpt lat="43.74907" lon="1.40514">
        <ele>180.974048</ele>
        <time>2022-07-29T15:08:07.818Z</time>
      </trkpt>
      <trkpt lat="43.74895" lon="1.40518">
        <ele>181.365052</ele>
        <time>2022-07-29T15:08:09.777Z</time>
      </trkpt>
      <trkpt lat="43.74884" lon="1.40523">
        <ele>181.767369</ele>
        <time>2022-07-29T15:08:11.780Z</time>
      </trkpt>
      <trkpt lat="43.74872" lon="1.40528">
        <ele>182.159508</ele>
        <time>2022-07-29T15:08:13.787Z</time>
      </trkpt>
      <trkpt lat="43.7486" lon="1.40531">
        <ele>182.557062</ele>
        <time>2022-07-29T15:08:15.811Z</time>
      </trkpt>
      <trkpt lat="43.74849" lon="1.40534">
        <ele>182.926578</ele>
        <time>2022-07-29T15:08:17.813Z</time>
      </trkpt>
      <trkpt lat="43.74838" lon="1.40538">
        <ele>183.314954</ele>
        <time>2022-07-29T15:08:19.781Z</time>
      </trkpt>
      <trkpt lat="43.74827" lon="1.40543">
        <ele>183.700085</ele>
        <time>2022-07-29T15:08:21.763Z</time>
      </trkpt>
      <trkpt lat="43.74816" lon="1.40547">
        <ele>184.064883</ele>
        <time>2022-07-29T15:08:23.778Z</time>
      </trkpt>
      <trkpt lat="43.74805" lon="1.40552">
        <ele>184.456652</ele>
        <time>2022-07-29T15:08:25.785Z</time>
      </trkpt>
      <trkpt lat="43.74794" lon="1.40551">
        <ele>184.806834</ele>
        <time>2022-07-29T15:08:27.806Z</time>
      </trkpt>
      <trkpt lat="43.74784" lon="1.40542">
        <ele>185.209074</ele>
        <time>2022-07-29T15:08:29.785Z</time>
      </trkpt>
      <trkpt lat="43.74775" lon="1.40534">
        <ele>185.570261</ele>
        <time>2022-07-29T15:08:31.812Z</time>
      </trkpt>
      <trkpt lat="43.74766" lon="1.40525">
        <ele>185.931463</ele>
        <time>2022-07-29T15:08:33.787Z</time>
      </trkpt>
      <trkpt lat="43.74757" lon="1.40517">
        <ele>186.290252</ele>
        <time>2022-07-29T15:08:35.783Z</time>
      </trkpt>
      <trkpt lat="43.74747" lon="1.40509">
        <ele>186.733935</ele>
        <time>2022-07-29T15:08:37.784Z</time>
      </trkpt>
      <trkpt lat="43.74737" lon="1.40502">
        <ele>187.272364</ele>
        <time>2022-07-29T15:08:39.792Z</time>
      </trkpt>
      <trkpt lat="43.74726" lon="1.405">
        <ele>187.828024</ele>
        <time>2022-07-29T15:08:41.812Z</time>
      </trkpt>
      <trkpt lat="43.74714" lon="1.40502">
        <ele>188.384197</ele>
        <time>2022-07-29T15:08:43.794Z</time>
      </trkpt>
      <trkpt lat="43.74704" lon="1.405">
        <ele>188.891124</ele>
        <time>2022-07-29T15:08:45.785Z</time>
      </trkpt>
      <trkpt lat="43.74694" lon="1.40495">
        <ele>189.418797</ele>
        <time>2022-07-29T15:08:47.793Z</time>
      </trkpt>
      <trkpt lat="43.74684" lon="1.40493">
        <ele>189.902413</ele>
        <time>2022-07-29T15:08:49.843Z</time>
      </trkpt>
      <trkpt lat="43.74673" lon="1.4049">
        <ele>190.414107</ele>
        <time>2022-07-29T15:08:51.803Z</time>
      </trkpt>
      <trkpt lat="43.74663" lon="1.40484">
        <ele>190.957547</ele>
        <time>2022-07-29T15:08:53.815Z</time>
      </trkpt>
      <trkpt lat="43.74653" lon="1.40477">
        <ele>191.495147</ele>
        <time>2022-07-29T15:08:55.942Z</time>
      </trkpt>
      <trkpt lat="43.74639" lon="1.40466">
        <ele>192.292657</ele>
        <time>2022-07-29T15:08:58.782Z</time>
      </trkpt>
      <trkpt lat="43.74629" lon="1.4046">
        <ele>192.79693</ele>
        <time>2022-07-29T15:09:00.787Z</time>
      </trkpt>
      <trkpt lat="43.7462" lon="1.40454">
        <ele>193.280264</ele>
        <time>2022-07-29T15:09:02.795Z</time>
      </trkpt>
      <trkpt lat="43.74611" lon="1.40448">
        <ele>193.761356</ele>
        <time>2022-07-29T15:09:04.788Z</time>
      </trkpt>
      <trkpt lat="43.74603" lon="1.4044">
        <ele>194.242001</ele>
        <time>2022-07-29T15:09:06.782Z</time>
      </trkpt>
      <trkpt lat="43.74594" lon="1.40433">
        <ele>194.722645</ele>
        <time>2022-07-29T15:09:08.797Z</time>
      </trkpt>
      <trkpt lat="43.74583" lon="1.4043">
        <ele>195.27294</ele>
        <time>2022-07-29T15:09:11.838Z</time>
      </trkpt>
      <trkpt lat="43.74575" lon="1.40438">
        <ele>195.728776</ele>
        <time>2022-07-29T15:09:13.796Z</time>
      </trkpt>
      <trkpt lat="43.74564" lon="1.40444">
        <ele>196.302563</ele>
        <time>2022-07-29T15:09:21.799Z</time>
      </trkpt>
      <trkpt lat="43.74559" lon="1.40455">
        <ele>196.738951</ele>
        <time>2022-07-29T15:09:24.792Z</time>
      </trkpt>
      <trkpt lat="43.74558" lon="1.40472">
        <ele>197.306197</ele>
        <time>2022-07-29T15:09:27.784Z</time>
      </trkpt>
      <trkpt lat="43.74556" lon="1.40485">
        <ele>197.764492</ele>
        <time>2022-07-29T15:09:29.783Z</time>
      </trkpt>
      <trkpt lat="43.7455" lon="1.40497">
        <ele>198.259795</ele>
        <time>2022-07-29T15:09:31.787Z</time>
      </trkpt>
      <trkpt lat="43.74543" lon="1.40508">
        <ele>198.733342</ele>
        <time>2022-07-29T15:09:34.781Z</time>
      </trkpt>
      <trkpt lat="43.74538" lon="1.4052">
        <ele>199.193466</ele>
        <time>2022-07-29T15:09:37.793Z</time>
      </trkpt>
      <trkpt lat="43.74534" lon="1.40535">
        <ele>199.740909</ele>
        <time>2022-07-29T15:09:40.794Z</time>
      </trkpt>
      <trkpt lat="43.7453" lon="1.4055">
        <ele>200.280589</ele>
        <time>2022-07-29T15:09:43.794Z</time>
      </trkpt>
      <trkpt lat="43.74524" lon="1.40561">
        <ele>200.729706</ele>
        <time>2022-07-29T15:09:49.801Z</time>
      </trkpt>
      <trkpt lat="43.74516" lon="1.40567">
        <ele>201.152226</ele>
        <time>2022-07-29T15:09:51.796Z</time>
      </trkpt>
      <trkpt lat="43.74506" lon="1.40569">
        <ele>201.626014</ele>
        <time>2022-07-29T15:09:54.784Z</time>
      </trkpt>
      <trkpt lat="43.74495" lon="1.40569">
        <ele>202.104891</ele>
        <time>2022-07-29T15:09:57.806Z</time>
      </trkpt>
      <trkpt lat="43.74485" lon="1.40567">
        <ele>202.609364</ele>
        <time>2022-07-29T15:10:00.804Z</time>
      </trkpt>
      <trkpt lat="43.74473" lon="1.4056">
        <ele>203.199931</ele>
        <time>2022-07-29T15:10:03.785Z</time>
      </trkpt>
      <trkpt lat="43.74461" lon="1.40558">
        <ele>203.889501</ele>
        <time>2022-07-29T15:10:05.821Z</time>
      </trkpt>
      <trkpt lat="43.74449" lon="1.40558">
        <ele>204.691523</ele>
        <time>2022-07-29T15:10:07.792Z</time>
      </trkpt>
      <trkpt lat="43.74438" lon="1.40556">
        <ele>205.471016</ele>
        <time>2022-07-29T15:10:09.804Z</time>
      </trkpt>
      <trkpt lat="43.74427" lon="1.40554">
        <ele>206.268781</ele>
        <time>2022-07-29T15:10:11.798Z</time>
      </trkpt>
      <trkpt lat="43.74417" lon="1.40551">
        <ele>206.968804</ele>
        <time>2022-07-29T15:10:13.801Z</time>
      </trkpt>
      <trkpt lat="43.74404" lon="1.40546">
        <ele>207.917565</ele>
        <time>2022-07-29T15:10:16.784Z</time>
      </trkpt>
      <trkpt lat="43.74395" lon="1.4054">
        <ele>208.643329</ele>
        <time>2022-07-29T15:10:18.781Z</time>
      </trkpt>
      <trkpt lat="43.74385" lon="1.40534">
        <ele>209.390764</ele>
        <time>2022-07-29T15:10:20.804Z</time>
      </trkpt>
      <trkpt lat="43.74375" lon="1.4053">
        <ele>210.151149</ele>
        <time>2022-07-29T15:10:22.808Z</time>
      </trkpt>
      <trkpt lat="43.74366" lon="1.40527">
        <ele>210.783883</ele>
        <time>2022-07-29T15:10:24.794Z</time>
      </trkpt>
      <trkpt lat="43.74358" lon="1.40521">
        <ele>211.458814</ele>
        <time>2022-07-29T15:10:27.819Z</time>
      </trkpt>
      <trkpt lat="43.74348" lon="1.40515">
        <ele>212.237833</ele>
        <time>2022-07-29T15:10:32.792Z</time>
      </trkpt>
      <trkpt lat="43.74335" lon="1.40516">
        <ele>213.132613</ele>
        <time>2022-07-29T15:10:35.785Z</time>
      </trkpt>
      <trkpt lat="43.74325" lon="1.40518">
        <ele>213.801361</ele>
        <time>2022-07-29T15:10:37.786Z</time>
      </trkpt>
      <trkpt lat="43.74317" lon="1.40521">
        <ele>214.450585</ele>
        <time>2022-07-29T15:10:40.785Z</time>
      </trkpt>
      <trkpt lat="43.74308" lon="1.4053">
        <ele>215.191982</ele>
        <time>2022-07-29T15:10:44.796Z</time>
      </trkpt>
      <trkpt lat="43.74297" lon="1.40534">
        <ele>215.98238</ele>
        <time>2022-07-29T15:10:47.789Z</time>
      </trkpt>
      <trkpt lat="43.74285" lon="1.40535">
        <ele>216.452643</ele>
        <time>2022-07-29T15:10:50.780Z</time>
      </trkpt>
      <trkpt lat="43.74275" lon="1.40529">
        <ele>216.748689</ele>
        <time>2022-07-29T15:10:52.785Z</time>
      </trkpt>
      <trkpt lat="43.74266" lon="1.40521">
        <ele>217.047597</ele>
        <time>2022-07-29T15:10:54.784Z</time>
      </trkpt>
      <trkpt lat="43.74257" lon="1.40514">
        <ele>217.33036</ele>
        <time>2022-07-29T15:10:56.816Z</time>
      </trkpt>
      <trkpt lat="43.74248" lon="1.40508">
        <ele>217.619713</ele>
        <time>2022-07-29T15:10:58.818Z</time>
      </trkpt>
      <trkpt lat="43.74238" lon="1.40502">
        <ele>217.921678</ele>
        <time>2022-07-29T15:11:00.760Z</time>
      </trkpt>
      <trkpt lat="43.74228" lon="1.40497">
        <ele>218.213719</ele>
        <time>2022-07-29T15:11:02.790Z</time>
      </trkpt>
      <trkpt lat="43.74219" lon="1.40493">
        <ele>218.498287</ele>
        <time>2022-07-29T15:11:04.793Z</time>
      </trkpt>
      <trkpt lat="43.74209" lon="1.40486">
        <ele>218.794691</ele>
        <time>2022-07-29T15:11:06.788Z</time>
      </trkpt>
      <trkpt lat="43.742" lon="1.4048">
        <ele>219.089053</ele>
        <time>2022-07-29T15:11:08.795Z</time>
      </trkpt>
      <trkpt lat="43.74191" lon="1.40471">
        <ele>219.39157</ele>
        <time>2022-07-29T15:11:10.796Z</time>
      </trkpt>
      <trkpt lat="43.74184" lon="1.40458">
        <ele>219.705878</ele>
        <time>2022-07-29T15:11:12.795Z</time>
      </trkpt>
      <trkpt lat="43.74176" lon="1.40447">
        <ele>220.027008</ele>
        <time>2022-07-29T15:11:14.799Z</time>
      </trkpt>
      <trkpt lat="43.74167" lon="1.40437">
        <ele>220.355127</ele>
        <time>2022-07-29T15:11:16.792Z</time>
      </trkpt>
      <trkpt lat="43.74158" lon="1.40427">
        <ele>220.677652</ele>
        <time>2022-07-29T15:11:18.788Z</time>
      </trkpt>
      <trkpt lat="43.74149" lon="1.40417">
        <ele>220.996734</ele>
        <time>2022-07-29T15:11:20.812Z</time>
      </trkpt>
      <trkpt lat="43.74141" lon="1.40406">
        <ele>221.268768</ele>
        <time>2022-07-29T15:11:22.801Z</time>
      </trkpt>
      <trkpt lat="43.74134" lon="1.40397">
        <ele>221.427474</ele>
        <time>2022-07-29T15:11:24.813Z</time>
      </trkpt>
      <trkpt lat="43.74126" lon="1.40407">
        <ele>221.602114</ele>
        <time>2022-07-29T15:11:28.810Z</time>
      </trkpt>
      <trkpt lat="43.74121" lon="1.40421">
        <ele>221.787394</ele>
        <time>2022-07-29T15:11:30.798Z</time>
      </trkpt>
      <trkpt lat="43.74117" lon="1.40437">
        <ele>221.982551</ele>
        <time>2022-07-29T15:11:32.798Z</time>
      </trkpt>
      <trkpt lat="43.74112" lon="1.40452">
        <ele>222.170378</ele>
        <time>2022-07-29T15:11:34.792Z</time>
      </trkpt>
      <trkpt lat="43.74107" lon="1.40467">
        <ele>222.360771</ele>
        <time>2022-07-29T15:11:36.798Z</time>
      </trkpt>
      <trkpt lat="43.74102" lon="1.40482">
        <ele>222.554811</ele>
        <time>2022-07-29T15:11:38.792Z</time>
      </trkpt>
      <trkpt lat="43.74094" lon="1.40493">
        <ele>222.734714</ele>
        <time>2022-07-29T15:11:40.799Z</time>
      </trkpt>
      <trkpt lat="43.74085" lon="1.40494">
        <ele>222.884719</ele>
        <time>2022-07-29T15:11:43.793Z</time>
      </trkpt>
      <trkpt lat="43.74076" lon="1.40488">
        <ele>223.042988</ele>
        <time>2022-07-29T15:11:48.819Z</time>
      </trkpt>
      <trkpt lat="43.74064" lon="1.40481">
        <ele>223.259601</ele>
        <time>2022-07-29T15:11:51.795Z</time>
      </trkpt>
      <trkpt lat="43.74053" lon="1.40472">
        <ele>223.454314</ele>
        <time>2022-07-29T15:11:53.799Z</time>
      </trkpt>
      <trkpt lat="43.74042" lon="1.40467">
        <ele>223.650748</ele>
        <time>2022-07-29T15:11:55.797Z</time>
      </trkpt>
      <trkpt lat="43.7403" lon="1.40462">
        <ele>223.849542</ele>
        <time>2022-07-29T15:11:57.810Z</time>
      </trkpt>
      <trkpt lat="43.74019" lon="1.40455">
        <ele>224.048865</ele>
        <time>2022-07-29T15:11:59.812Z</time>
      </trkpt>
      <trkpt lat="43.74007" lon="1.40449">
        <ele>224.239424</ele>
        <time>2022-07-29T15:12:01.805Z</time>
      </trkpt>
      <trkpt lat="43.73995" lon="1.40444">
        <ele>224.426696</ele>
        <time>2022-07-29T15:12:03.808Z</time>
      </trkpt>
      <trkpt lat="43.73985" lon="1.40444">
        <ele>224.588742</ele>
        <time>2022-07-29T15:12:05.819Z</time>
      </trkpt>
      <trkpt lat="43.73978" lon="1.40458">
        <ele>224.773003</ele>
        <time>2022-07-29T15:12:07.812Z</time>
      </trkpt>
      <trkpt lat="43.73968" lon="1.40468">
        <ele>224.955802</ele>
        <time>2022-07-29T15:12:09.791Z</time>
      </trkpt>
      <trkpt lat="43.73958" lon="1.40468">
        <ele>225.110051</ele>
        <time>2022-07-29T15:12:11.804Z</time>
      </trkpt>
      <trkpt lat="43.73948" lon="1.4046">
        <ele>225.287681</ele>
        <time>2022-07-29T15:12:13.798Z</time>
      </trkpt>
      <trkpt lat="43.73937" lon="1.40453">
        <ele>225.463954</ele>
        <time>2022-07-29T15:12:15.800Z</time>
      </trkpt>
      <trkpt lat="43.73928" lon="1.40448">
        <ele>225.616048</ele>
        <time>2022-07-29T15:12:17.788Z</time>
      </trkpt>
      <trkpt lat="43.73917" lon="1.40443">
        <ele>225.779784</ele>
        <time>2022-07-29T15:12:19.830Z</time>
      </trkpt>
      <trkpt lat="43.73907" lon="1.40437">
        <ele>225.954578</ele>
        <time>2022-07-29T15:12:21.798Z</time>
      </trkpt>
      <trkpt lat="43.73896" lon="1.40429">
        <ele>226.128733</ele>
        <time>2022-07-29T15:12:23.790Z</time>
      </trkpt>
      <trkpt lat="43.73886" lon="1.40422">
        <ele>226.302383</ele>
        <time>2022-07-29T15:12:25.819Z</time>
      </trkpt>
      <trkpt lat="43.73877" lon="1.40414">
        <ele>226.468124</ele>
        <time>2022-07-29T15:12:27.804Z</time>
      </trkpt>
      <trkpt lat="43.73867" lon="1.40407">
        <ele>226.636466</ele>
        <time>2022-07-29T15:12:29.782Z</time>
      </trkpt>
      <trkpt lat="43.73857" lon="1.40398">
        <ele>226.812071</ele>
        <time>2022-07-29T15:12:31.807Z</time>
      </trkpt>
      <trkpt lat="43.73847" lon="1.40392">
        <ele>225.631804</ele>
        <time>2022-07-29T15:12:33.797Z</time>
      </trkpt>
      <trkpt lat="43.73839" lon="1.40398">
        <ele>224.600213</ele>
        <time>2022-07-29T15:12:35.791Z</time>
      </trkpt>
      <trkpt lat="43.73831" lon="1.4041">
        <ele>223.337455</ele>
        <time>2022-07-29T15:12:37.794Z</time>
      </trkpt>
      <trkpt lat="43.73825" lon="1.40423">
        <ele>222.01187</ele>
        <time>2022-07-29T15:12:39.782Z</time>
      </trkpt>
      <trkpt lat="43.73818" lon="1.40437">
        <ele>220.711409</ele>
        <time>2022-07-29T15:12:41.785Z</time>
      </trkpt>
      <trkpt lat="43.73811" lon="1.40451">
        <ele>219.340396</ele>
        <time>2022-07-29T15:12:43.789Z</time>
      </trkpt>
      <trkpt lat="43.73804" lon="1.40464">
        <ele>218.014807</ele>
        <time>2022-07-29T15:12:45.805Z</time>
      </trkpt>
      <trkpt lat="43.73795" lon="1.40468">
        <ele>216.990436</ele>
        <time>2022-07-29T15:12:47.793Z</time>
      </trkpt>
      <trkpt lat="43.73788" lon="1.40458">
        <ele>215.846073</ele>
        <time>2022-07-29T15:12:49.793Z</time>
      </trkpt>
      <trkpt lat="43.73779" lon="1.40446">
        <ele>214.461922</ele>
        <time>2022-07-29T15:12:51.802Z</time>
      </trkpt>
      <trkpt lat="43.73769" lon="1.40433">
        <ele>213.008912</ele>
        <time>2022-07-29T15:12:53.799Z</time>
      </trkpt>
      <trkpt lat="43.7376" lon="1.40418">
        <ele>211.387779</ele>
        <time>2022-07-29T15:12:55.789Z</time>
      </trkpt>
      <trkpt lat="43.73748" lon="1.404">
        <ele>209.414157</ele>
        <time>2022-07-29T15:12:57.818Z</time>
      </trkpt>
      <trkpt lat="43.73736" lon="1.40383">
        <ele>207.539607</ele>
        <time>2022-07-29T15:12:59.797Z</time>
      </trkpt>
      <trkpt lat="43.73721" lon="1.40369">
        <ele>205.162786</ele>
        <time>2022-07-29T15:13:01.796Z</time>
      </trkpt>
      <trkpt lat="43.73713" lon="1.40362">
        <ele>203.664102</ele>
        <time>2022-07-29T15:13:02.811Z</time>
      </trkpt>
      <trkpt lat="43.73704" lon="1.40353">
        <ele>202.004121</ele>
        <time>2022-07-29T15:13:03.825Z</time>
      </trkpt>
      <trkpt lat="43.73695" lon="1.40342">
        <ele>200.203981</ele>
        <time>2022-07-29T15:13:04.789Z</time>
      </trkpt>
      <trkpt lat="43.73686" lon="1.40329">
        <ele>198.238932</ele>
        <time>2022-07-29T15:13:05.795Z</time>
      </trkpt>
      <trkpt lat="43.73675" lon="1.40317">
        <ele>196.167401</ele>
        <time>2022-07-29T15:13:06.807Z</time>
      </trkpt>
      <trkpt lat="43.73665" lon="1.40303">
        <ele>194.025665</ele>
        <time>2022-07-29T15:13:07.825Z</time>
      </trkpt>
      <trkpt lat="43.73655" lon="1.4029">
        <ele>191.957165</ele>
        <time>2022-07-29T15:13:08.809Z</time>
      </trkpt>
      <trkpt lat="43.73647" lon="1.40278">
        <ele>190.191466</ele>
        <time>2022-07-29T15:13:09.806Z</time>
      </trkpt>
      <trkpt lat="43.7364" lon="1.40268">
        <ele>188.690164</ele>
        <time>2022-07-29T15:13:10.824Z</time>
      </trkpt>
      <trkpt lat="43.73635" lon="1.40257">
        <ele>187.311474</ele>
        <time>2022-07-29T15:13:11.796Z</time>
      </trkpt>
      <trkpt lat="43.73629" lon="1.40246">
        <ele>185.809394</ele>
        <time>2022-07-29T15:13:12.793Z</time>
      </trkpt>
      <trkpt lat="43.73622" lon="1.40235">
        <ele>184.241204</ele>
        <time>2022-07-29T15:13:13.798Z</time>
      </trkpt>
      <trkpt lat="43.73615" lon="1.40224">
        <ele>182.63338</ele>
        <time>2022-07-29T15:13:14.818Z</time>
      </trkpt>
      <trkpt lat="43.73608" lon="1.40213">
        <ele>181.038977</ele>
        <time>2022-07-29T15:13:15.788Z</time>
      </trkpt>
      <trkpt lat="43.73601" lon="1.40202">
        <ele>179.836496</ele>
        <time>2022-07-29T15:13:16.808Z</time>
      </trkpt>
      <trkpt lat="43.73591" lon="1.40188">
        <ele>179.479611</ele>
        <time>2022-07-29T15:13:18.801Z</time>
      </trkpt>
      <trkpt lat="43.7358" lon="1.40179">
        <ele>179.167479</ele>
        <time>2022-07-29T15:13:21.791Z</time>
      </trkpt>
      <trkpt lat="43.73569" lon="1.40177">
        <ele>178.906067</ele>
        <time>2022-07-29T15:13:23.790Z</time>
      </trkpt>
      <trkpt lat="43.73558" lon="1.40183">
        <ele>178.603607</ele>
        <time>2022-07-29T15:13:25.800Z</time>
      </trkpt>
      <trkpt lat="43.73546" lon="1.40188">
        <ele>178.307468</ele>
        <time>2022-07-29T15:13:27.790Z</time>
      </trkpt>
      <trkpt lat="43.73534" lon="1.40192">
        <ele>177.994559</ele>
        <time>2022-07-29T15:13:29.803Z</time>
      </trkpt>
      <trkpt lat="43.73521" lon="1.40195">
        <ele>177.678892</ele>
        <time>2022-07-29T15:13:31.804Z</time>
      </trkpt>
      <trkpt lat="43.73508" lon="1.40195">
        <ele>177.350869</ele>
        <time>2022-07-29T15:13:33.842Z</time>
      </trkpt>
      <trkpt lat="43.73495" lon="1.4019">
        <ele>177.021186</ele>
        <time>2022-07-29T15:13:35.806Z</time>
      </trkpt>
      <trkpt lat="43.73483" lon="1.40179">
        <ele>176.673822</ele>
        <time>2022-07-29T15:13:37.821Z</time>
      </trkpt>
      <trkpt lat="43.7347" lon="1.40171">
        <ele>176.320243</ele>
        <time>2022-07-29T15:13:39.814Z</time>
      </trkpt>
      <trkpt lat="43.73455" lon="1.40171">
        <ele>175.960379</ele>
        <time>2022-07-29T15:13:41.794Z</time>
      </trkpt>
      <trkpt lat="43.7344" lon="1.40175">
        <ele>175.597059</ele>
        <time>2022-07-29T15:13:43.812Z</time>
      </trkpt>
      <trkpt lat="43.73426" lon="1.40179">
        <ele>175.302676</ele>
        <time>2022-07-29T15:13:45.827Z</time>
      </trkpt>
      <trkpt lat="43.73412" lon="1.40184">
        <ele>175.038396</ele>
        <time>2022-07-29T15:13:47.815Z</time>
      </trkpt>
      <trkpt lat="43.73398" lon="1.40188">
        <ele>174.779402</ele>
        <time>2022-07-29T15:13:49.801Z</time>
      </trkpt>
      <trkpt lat="43.73384" lon="1.40193">
        <ele>174.52182</ele>
        <time>2022-07-29T15:13:51.797Z</time>
      </trkpt>
      <trkpt lat="43.7337" lon="1.40199">
        <ele>174.266016</ele>
        <time>2022-07-29T15:13:53.801Z</time>
      </trkpt>
      <trkpt lat="43.73357" lon="1.40206">
        <ele>174.011658</ele>
        <time>2022-07-29T15:13:55.800Z</time>
      </trkpt>
      <trkpt lat="43.73344" lon="1.40214">
        <ele>173.756604</ele>
        <time>2022-07-29T15:13:57.791Z</time>
      </trkpt>
      <trkpt lat="43.73333" lon="1.40225">
        <ele>173.510526</ele>
        <time>2022-07-29T15:13:59.805Z</time>
      </trkpt>
      <trkpt lat="43.7332" lon="1.40227">
        <ele>173.264444</ele>
        <time>2022-07-29T15:14:01.807Z</time>
      </trkpt>
      <trkpt lat="43.73308" lon="1.40216">
        <ele>173.010898</ele>
        <time>2022-07-29T15:14:03.797Z</time>
      </trkpt>
      <trkpt lat="43.73299" lon="1.40201">
        <ele>172.745538</ele>
        <time>2022-07-29T15:14:05.817Z</time>
      </trkpt>
      <trkpt lat="43.7329" lon="1.40184">
        <ele>172.477568</ele>
        <time>2022-07-29T15:14:07.788Z</time>
      </trkpt>
      <trkpt lat="43.73279" lon="1.4017">
        <ele>172.241449</ele>
        <time>2022-07-29T15:14:09.806Z</time>
      </trkpt>
      <trkpt lat="43.73268" lon="1.40159">
        <ele>172.213224</ele>
        <time>2022-07-29T15:14:11.798Z</time>
      </trkpt>
      <trkpt lat="43.73256" lon="1.40148">
        <ele>172.18533</ele>
        <time>2022-07-29T15:14:13.808Z</time>
      </trkpt>
      <trkpt lat="43.73244" lon="1.40142">
        <ele>172.158332</ele>
        <time>2022-07-29T15:14:15.805Z</time>
      </trkpt>
      <trkpt lat="43.7323" lon="1.40138">
        <ele>172.131507</ele>
        <time>2022-07-29T15:14:17.799Z</time>
      </trkpt>
      <trkpt lat="43.73217" lon="1.40138">
        <ele>172.104576</ele>
        <time>2022-07-29T15:14:19.809Z</time>
      </trkpt>
      <trkpt lat="43.73203" lon="1.40139">
        <ele>172.077222</ele>
        <time>2022-07-29T15:14:21.806Z</time>
      </trkpt>
      <trkpt lat="43.7319" lon="1.4014">
        <ele>172.050664</ele>
        <time>2022-07-29T15:14:23.802Z</time>
      </trkpt>
      <trkpt lat="43.73177" lon="1.40142">
        <ele>172.024317</ele>
        <time>2022-07-29T15:14:25.791Z</time>
      </trkpt>
      <trkpt lat="43.73164" lon="1.40146">
        <ele>171.998541</ele>
        <time>2022-07-29T15:14:27.819Z</time>
      </trkpt>
      <trkpt lat="43.73151" lon="1.40149">
        <ele>171.97246</ele>
        <time>2022-07-29T15:14:29.797Z</time>
      </trkpt>
      <trkpt lat="43.73138" lon="1.40153">
        <ele>171.945578</ele>
        <time>2022-07-29T15:14:31.787Z</time>
      </trkpt>
      <trkpt lat="43.73125" lon="1.40157">
        <ele>171.918665</ele>
        <time>2022-07-29T15:14:33.800Z</time>
      </trkpt>
      <trkpt lat="43.73112" lon="1.40162">
        <ele>171.891644</ele>
        <time>2022-07-29T15:14:35.791Z</time>
      </trkpt>
      <trkpt lat="43.73099" lon="1.40167">
        <ele>171.913141</ele>
        <time>2022-07-29T15:14:37.826Z</time>
      </trkpt>
      <trkpt lat="43.73085" lon="1.40173">
        <ele>171.947165</ele>
        <time>2022-07-29T15:14:39.785Z</time>
      </trkpt>
      <trkpt lat="43.73072" lon="1.40178">
        <ele>171.981651</ele>
        <time>2022-07-29T15:14:41.828Z</time>
      </trkpt>
      <trkpt lat="43.73058" lon="1.40183">
        <ele>172.017419</ele>
        <time>2022-07-29T15:14:43.786Z</time>
      </trkpt>
      <trkpt lat="43.73044" lon="1.40189">
        <ele>172.052623</ele>
        <time>2022-07-29T15:14:45.795Z</time>
      </trkpt>
      <trkpt lat="43.73031" lon="1.40194">
        <ele>172.087205</ele>
        <time>2022-07-29T15:14:47.794Z</time>
      </trkpt>
      <trkpt lat="43.73018" lon="1.40199">
        <ele>172.121076</ele>
        <time>2022-07-29T15:14:49.792Z</time>
      </trkpt>
      <trkpt lat="43.73004" lon="1.40204">
        <ele>172.154817</ele>
        <time>2022-07-29T15:14:51.807Z</time>
      </trkpt>
      <trkpt lat="43.72991" lon="1.40209">
        <ele>172.18935</ele>
        <time>2022-07-29T15:14:53.805Z</time>
      </trkpt>
      <trkpt lat="43.72977" lon="1.40215">
        <ele>172.224268</ele>
        <time>2022-07-29T15:14:55.800Z</time>
      </trkpt>
      <trkpt lat="43.72964" lon="1.40221">
        <ele>172.258444</ele>
        <time>2022-07-29T15:14:57.798Z</time>
      </trkpt>
      <trkpt lat="43.72951" lon="1.40227">
        <ele>172.291632</ele>
        <time>2022-07-29T15:14:59.799Z</time>
      </trkpt>
      <trkpt lat="43.72939" lon="1.40234">
        <ele>172.323389</ele>
        <time>2022-07-29T15:15:01.813Z</time>
      </trkpt>
      <trkpt lat="43.72928" lon="1.40241">
        <ele>172.33682</ele>
        <time>2022-07-29T15:15:03.807Z</time>
      </trkpt>
      <trkpt lat="43.72918" lon="1.40249">
        <ele>172.346354</ele>
        <time>2022-07-29T15:15:05.796Z</time>
      </trkpt>
      <trkpt lat="43.72907" lon="1.40257">
        <ele>172.356136</ele>
        <time>2022-07-29T15:15:07.799Z</time>
      </trkpt>
      <trkpt lat="43.72897" lon="1.40267">
        <ele>172.36595</ele>
        <time>2022-07-29T15:15:09.812Z</time>
      </trkpt>
      <trkpt lat="43.72887" lon="1.40278">
        <ele>172.375629</ele>
        <time>2022-07-29T15:15:11.803Z</time>
      </trkpt>
      <trkpt lat="43.72879" lon="1.4029">
        <ele>172.385258</ele>
        <time>2022-07-29T15:15:13.800Z</time>
      </trkpt>
      <trkpt lat="43.7287" lon="1.40303">
        <ele>172.395014</ele>
        <time>2022-07-29T15:15:15.793Z</time>
      </trkpt>
      <trkpt lat="43.72863" lon="1.40316">
        <ele>172.404594</ele>
        <time>2022-07-29T15:15:17.804Z</time>
      </trkpt>
      <trkpt lat="43.72855" lon="1.40329">
        <ele>172.414318</ele>
        <time>2022-07-29T15:15:19.799Z</time>
      </trkpt>
      <trkpt lat="43.72847" lon="1.40343">
        <ele>172.424262</ele>
        <time>2022-07-29T15:15:21.806Z</time>
      </trkpt>
      <trkpt lat="43.72839" lon="1.40357">
        <ele>172.434354</ele>
        <time>2022-07-29T15:15:23.817Z</time>
      </trkpt>
      <trkpt lat="43.72831" lon="1.40371">
        <ele>172.444431</ele>
        <time>2022-07-29T15:15:25.812Z</time>
      </trkpt>
      <trkpt lat="43.72822" lon="1.40384">
        <ele>172.454496</ele>
        <time>2022-07-29T15:15:27.808Z</time>
      </trkpt>
      <trkpt lat="43.72813" lon="1.40396">
        <ele>172.464371</ele>
        <time>2022-07-29T15:15:29.800Z</time>
      </trkpt>
      <trkpt lat="43.72804" lon="1.40407">
        <ele>172.473122</ele>
        <time>2022-07-29T15:15:31.802Z</time>
      </trkpt>
      <trkpt lat="43.72793" lon="1.40417">
        <ele>172.480257</ele>
        <time>2022-07-29T15:15:33.803Z</time>
      </trkpt>
      <trkpt lat="43.72782" lon="1.40425">
        <ele>172.487364</ele>
        <time>2022-07-29T15:15:35.794Z</time>
      </trkpt>
      <trkpt lat="43.72771" lon="1.40433">
        <ele>172.494597</ele>
        <time>2022-07-29T15:15:37.798Z</time>
      </trkpt>
      <trkpt lat="43.72759" lon="1.40438">
        <ele>172.501762</ele>
        <time>2022-07-29T15:15:39.813Z</time>
      </trkpt>
      <trkpt lat="43.72747" lon="1.40443">
        <ele>172.508795</ele>
        <time>2022-07-29T15:15:41.812Z</time>
      </trkpt>
      <trkpt lat="43.72735" lon="1.40448">
        <ele>172.515827</ele>
        <time>2022-07-29T15:15:43.822Z</time>
      </trkpt>
      <trkpt lat="43.72723" lon="1.40452">
        <ele>172.52297</ele>
        <time>2022-07-29T15:15:45.808Z</time>
      </trkpt>
      <trkpt lat="43.72711" lon="1.40456">
        <ele>172.529726</ele>
        <time>2022-07-29T15:15:47.793Z</time>
      </trkpt>
      <trkpt lat="43.727" lon="1.4046">
        <ele>172.536592</ele>
        <time>2022-07-29T15:15:49.816Z</time>
      </trkpt>
      <trkpt lat="43.72689" lon="1.40464">
        <ele>172.543151</ele>
        <time>2022-07-29T15:15:51.811Z</time>
      </trkpt>
      <trkpt lat="43.72677" lon="1.40467">
        <ele>172.549656</ele>
        <time>2022-07-29T15:15:53.798Z</time>
      </trkpt>
      <trkpt lat="43.72666" lon="1.40472">
        <ele>172.55623</ele>
        <time>2022-07-29T15:15:55.800Z</time>
      </trkpt>
      <trkpt lat="43.72656" lon="1.40479">
        <ele>172.562792</ele>
        <time>2022-07-29T15:15:57.797Z</time>
      </trkpt>
      <trkpt lat="43.72646" lon="1.40486">
        <ele>172.569274</ele>
        <time>2022-07-29T15:15:59.789Z</time>
      </trkpt>
      <trkpt lat="43.72636" lon="1.40494">
        <ele>172.573096</ele>
        <time>2022-07-29T15:16:01.789Z</time>
      </trkpt>
      <trkpt lat="43.72626" lon="1.40503">
        <ele>172.57376</ele>
        <time>2022-07-29T15:16:03.793Z</time>
      </trkpt>
      <trkpt lat="43.72616" lon="1.40513">
        <ele>172.574455</ele>
        <time>2022-07-29T15:16:05.809Z</time>
      </trkpt>
      <trkpt lat="43.72605" lon="1.40521">
        <ele>172.575136</ele>
        <time>2022-07-29T15:16:07.801Z</time>
      </trkpt>
      <trkpt lat="43.72595" lon="1.4053">
        <ele>172.575825</ele>
        <time>2022-07-29T15:16:09.814Z</time>
      </trkpt>
      <trkpt lat="43.72584" lon="1.40539">
        <ele>172.576516</ele>
        <time>2022-07-29T15:16:11.785Z</time>
      </trkpt>
      <trkpt lat="43.72574" lon="1.40548">
        <ele>172.577201</ele>
        <time>2022-07-29T15:16:13.825Z</time>
      </trkpt>
      <trkpt lat="43.72563" lon="1.40555">
        <ele>172.577889</ele>
        <time>2022-07-29T15:16:15.798Z</time>
      </trkpt>
      <trkpt lat="43.72551" lon="1.40559">
        <ele>172.578573</ele>
        <time>2022-07-29T15:16:17.793Z</time>
      </trkpt>
      <trkpt lat="43.7254" lon="1.40563">
        <ele>172.579245</ele>
        <time>2022-07-29T15:16:19.801Z</time>
      </trkpt>
      <trkpt lat="43.72528" lon="1.40566">
        <ele>172.57992</ele>
        <time>2022-07-29T15:16:21.784Z</time>
      </trkpt>
      <trkpt lat="43.72516" lon="1.40568">
        <ele>172.58062</ele>
        <time>2022-07-29T15:16:23.811Z</time>
      </trkpt>
      <trkpt lat="43.72503" lon="1.40571">
        <ele>172.58131</ele>
        <time>2022-07-29T15:16:25.804Z</time>
      </trkpt>
      <trkpt lat="43.72491" lon="1.40574">
        <ele>172.582002</ele>
        <time>2022-07-29T15:16:27.789Z</time>
      </trkpt>
      <trkpt lat="43.72479" lon="1.40576">
        <ele>172.582694</ele>
        <time>2022-07-29T15:16:29.794Z</time>
      </trkpt>
      <trkpt lat="43.72467" lon="1.40578">
        <ele>172.600105</ele>
        <time>2022-07-29T15:16:31.804Z</time>
      </trkpt>
      <trkpt lat="43.72455" lon="1.4058">
        <ele>172.625657</ele>
        <time>2022-07-29T15:16:33.810Z</time>
      </trkpt>
      <trkpt lat="43.72443" lon="1.40583">
        <ele>172.650503</ele>
        <time>2022-07-29T15:16:35.795Z</time>
      </trkpt>
      <trkpt lat="43.72431" lon="1.40585">
        <ele>172.676156</ele>
        <time>2022-07-29T15:16:37.792Z</time>
      </trkpt>
      <trkpt lat="43.72419" lon="1.40587">
        <ele>172.701538</ele>
        <time>2022-07-29T15:16:39.795Z</time>
      </trkpt>
      <trkpt lat="43.72407" lon="1.40589">
        <ele>172.727024</ele>
        <time>2022-07-29T15:16:41.792Z</time>
      </trkpt>
      <trkpt lat="43.72395" lon="1.40591">
        <ele>172.751743</ele>
        <time>2022-07-29T15:16:43.793Z</time>
      </trkpt>
      <trkpt lat="43.72383" lon="1.40594">
        <ele>172.777106</ele>
        <time>2022-07-29T15:16:45.833Z</time>
      </trkpt>
      <trkpt lat="43.72371" lon="1.40596">
        <ele>172.802759</ele>
        <time>2022-07-29T15:16:47.813Z</time>
      </trkpt>
      <trkpt lat="43.72359" lon="1.40599">
        <ele>172.828641</ele>
        <time>2022-07-29T15:16:49.790Z</time>
      </trkpt>
      <trkpt lat="43.72347" lon="1.40603">
        <ele>172.854189</ele>
        <time>2022-07-29T15:16:51.790Z</time>
      </trkpt>
      <trkpt lat="43.72336" lon="1.40608">
        <ele>172.880065</ele>
        <time>2022-07-29T15:16:53.792Z</time>
      </trkpt>
      <trkpt lat="43.72324" lon="1.40615">
        <ele>172.90561</ele>
        <time>2022-07-29T15:16:55.790Z</time>
      </trkpt>
      <trkpt lat="43.72313" lon="1.40621">
        <ele>172.931434</ele>
        <time>2022-07-29T15:16:57.823Z</time>
      </trkpt>
      <trkpt lat="43.72302" lon="1.40627">
        <ele>172.957019</ele>
        <time>2022-07-29T15:16:59.798Z</time>
      </trkpt>
      <trkpt lat="43.7229" lon="1.40634">
        <ele>173.000396</ele>
        <time>2022-07-29T15:17:01.808Z</time>
      </trkpt>
      <trkpt lat="43.72279" lon="1.40639">
        <ele>173.046215</ele>
        <time>2022-07-29T15:17:03.792Z</time>
      </trkpt>
      <trkpt lat="43.72267" lon="1.40641">
        <ele>173.09164</ele>
        <time>2022-07-29T15:17:05.810Z</time>
      </trkpt>
      <trkpt lat="43.72254" lon="1.40641">
        <ele>173.13788</ele>
        <time>2022-07-29T15:17:07.785Z</time>
      </trkpt>
      <trkpt lat="43.72242" lon="1.40639">
        <ele>173.184085</ele>
        <time>2022-07-29T15:17:09.793Z</time>
      </trkpt>
      <trkpt lat="43.7223" lon="1.40635">
        <ele>173.229329</ele>
        <time>2022-07-29T15:17:11.798Z</time>
      </trkpt>
      <trkpt lat="43.72218" lon="1.40632">
        <ele>173.275311</ele>
        <time>2022-07-29T15:17:13.791Z</time>
      </trkpt>
      <trkpt lat="43.72206" lon="1.40631">
        <ele>173.32062</ele>
        <time>2022-07-29T15:17:15.809Z</time>
      </trkpt>
      <trkpt lat="43.72194" lon="1.40632">
        <ele>173.366943</ele>
        <time>2022-07-29T15:17:17.827Z</time>
      </trkpt>
      <trkpt lat="43.72182" lon="1.40634">
        <ele>173.412309</ele>
        <time>2022-07-29T15:17:19.828Z</time>
      </trkpt>
      <trkpt lat="43.7217" lon="1.40637">
        <ele>173.457675</ele>
        <time>2022-07-29T15:17:21.796Z</time>
      </trkpt>
      <trkpt lat="43.72158" lon="1.40641">
        <ele>173.503288</ele>
        <time>2022-07-29T15:17:23.810Z</time>
      </trkpt>
      <trkpt lat="43.72147" lon="1.40644">
        <ele>173.548798</ele>
        <time>2022-07-29T15:17:25.805Z</time>
      </trkpt>
      <trkpt lat="43.72135" lon="1.40647">
        <ele>173.593965</ele>
        <time>2022-07-29T15:17:27.802Z</time>
      </trkpt>
      <trkpt lat="43.72123" lon="1.40652">
        <ele>173.639677</ele>
        <time>2022-07-29T15:17:29.796Z</time>
      </trkpt>
      <trkpt lat="43.72112" lon="1.40656">
        <ele>173.713422</ele>
        <time>2022-07-29T15:17:31.804Z</time>
      </trkpt>
      <trkpt lat="43.72102" lon="1.40663">
        <ele>173.786315</ele>
        <time>2022-07-29T15:17:33.799Z</time>
      </trkpt>
      <trkpt lat="43.72092" lon="1.40672">
        <ele>173.857945</ele>
        <time>2022-07-29T15:17:35.788Z</time>
      </trkpt>
      <trkpt lat="43.72081" lon="1.40679">
        <ele>173.932934</ele>
        <time>2022-07-29T15:17:37.798Z</time>
      </trkpt>
      <trkpt lat="43.7207" lon="1.40685">
        <ele>174.008126</ele>
        <time>2022-07-29T15:17:39.789Z</time>
      </trkpt>
      <trkpt lat="43.72058" lon="1.4069">
        <ele>174.083009</ele>
        <time>2022-07-29T15:17:41.816Z</time>
      </trkpt>
      <trkpt lat="43.72051" lon="1.40702">
        <ele>174.153731</ele>
        <time>2022-07-29T15:17:43.811Z</time>
      </trkpt>
      <trkpt lat="43.72047" lon="1.40716">
        <ele>174.218634</ele>
        <time>2022-07-29T15:17:45.790Z</time>
      </trkpt>
      <trkpt lat="43.72039" lon="1.40706">
        <ele>174.285836</ele>
        <time>2022-07-29T15:17:50.823Z</time>
      </trkpt>
      <trkpt lat="43.7203" lon="1.407">
        <ele>174.351955</ele>
        <time>2022-07-29T15:17:52.793Z</time>
      </trkpt>
      <trkpt lat="43.72018" lon="1.40695">
        <ele>174.430012</ele>
        <time>2022-07-29T15:17:54.801Z</time>
      </trkpt>
      <trkpt lat="43.72005" lon="1.4069">
        <ele>174.508064</ele>
        <time>2022-07-29T15:17:56.814Z</time>
      </trkpt>
      <trkpt lat="43.71993" lon="1.40687">
        <ele>174.585574</ele>
        <time>2022-07-29T15:17:58.791Z</time>
      </trkpt>
      <trkpt lat="43.71981" lon="1.40683">
        <ele>174.6642</ele>
        <time>2022-07-29T15:18:00.796Z</time>
      </trkpt>
      <trkpt lat="43.71969" lon="1.40679">
        <ele>174.741609</ele>
        <time>2022-07-29T15:18:02.792Z</time>
      </trkpt>
      <trkpt lat="43.71957" lon="1.40675">
        <ele>174.720991</ele>
        <time>2022-07-29T15:18:04.789Z</time>
      </trkpt>
      <trkpt lat="43.71944" lon="1.40672">
        <ele>174.673228</ele>
        <time>2022-07-29T15:18:06.811Z</time>
      </trkpt>
      <trkpt lat="43.71932" lon="1.40668">
        <ele>174.626304</ele>
        <time>2022-07-29T15:18:08.795Z</time>
      </trkpt>
      <trkpt lat="43.7192" lon="1.40665">
        <ele>174.580401</ele>
        <time>2022-07-29T15:18:10.797Z</time>
      </trkpt>
      <trkpt lat="43.71909" lon="1.40663">
        <ele>174.535947</ele>
        <time>2022-07-29T15:18:12.788Z</time>
      </trkpt>
      <trkpt lat="43.71897" lon="1.4066">
        <ele>174.491824</ele>
        <time>2022-07-29T15:18:14.803Z</time>
      </trkpt>
      <trkpt lat="43.71886" lon="1.40658">
        <ele>174.447744</ele>
        <time>2022-07-29T15:18:16.829Z</time>
      </trkpt>
      <trkpt lat="43.71874" lon="1.40655">
        <ele>174.40412</ele>
        <time>2022-07-29T15:18:18.806Z</time>
      </trkpt>
      <trkpt lat="43.71863" lon="1.40653">
        <ele>174.359707</ele>
        <time>2022-07-29T15:18:20.788Z</time>
      </trkpt>
      <trkpt lat="43.71851" lon="1.4065">
        <ele>174.313671</ele>
        <time>2022-07-29T15:18:22.798Z</time>
      </trkpt>
      <trkpt lat="43.71839" lon="1.40649">
        <ele>174.268399</ele>
        <time>2022-07-29T15:18:24.824Z</time>
      </trkpt>
      <trkpt lat="43.7183" lon="1.40655">
        <ele>174.23011</ele>
        <time>2022-07-29T15:18:26.790Z</time>
      </trkpt>
      <trkpt lat="43.71826" lon="1.40668">
        <ele>174.191108</ele>
        <time>2022-07-29T15:18:28.808Z</time>
      </trkpt>
      <trkpt lat="43.71817" lon="1.40678">
        <ele>174.147909</ele>
        <time>2022-07-29T15:18:30.796Z</time>
      </trkpt>
      <trkpt lat="43.71804" lon="1.40678">
        <ele>174.09679</ele>
        <time>2022-07-29T15:18:32.799Z</time>
      </trkpt>
      <trkpt lat="43.7179" lon="1.40678">
        <ele>174.025307</ele>
        <time>2022-07-29T15:18:34.794Z</time>
      </trkpt>
      <trkpt lat="43.71778" lon="1.40688">
        <ele>173.946386</ele>
        <time>2022-07-29T15:18:36.797Z</time>
      </trkpt>
      <trkpt lat="43.71771" lon="1.40702">
        <ele>173.872813</ele>
        <time>2022-07-29T15:18:38.819Z</time>
      </trkpt>
      <trkpt lat="43.71768" lon="1.40719">
        <ele>173.796971</ele>
        <time>2022-07-29T15:18:40.799Z</time>
      </trkpt>
      <trkpt lat="43.71764" lon="1.40736">
        <ele>173.722446</ele>
        <time>2022-07-29T15:18:42.789Z</time>
      </trkpt>
      <trkpt lat="43.71761" lon="1.40752">
        <ele>173.649422</ele>
        <time>2022-07-29T15:18:44.806Z</time>
      </trkpt>
      <trkpt lat="43.71756" lon="1.40768">
        <ele>173.576828</ele>
        <time>2022-07-29T15:18:46.807Z</time>
      </trkpt>
      <trkpt lat="43.71753" lon="1.40783">
        <ele>173.509488</ele>
        <time>2022-07-29T15:18:48.796Z</time>
      </trkpt>
      <trkpt lat="43.71749" lon="1.40798">
        <ele>173.438283</ele>
        <time>2022-07-29T15:18:50.798Z</time>
      </trkpt>
      <trkpt lat="43.71745" lon="1.40813">
        <ele>173.370159</ele>
        <time>2022-07-29T15:18:52.788Z</time>
      </trkpt>
      <trkpt lat="43.71741" lon="1.40829">
        <ele>173.300215</ele>
        <time>2022-07-29T15:18:54.797Z</time>
      </trkpt>
      <trkpt lat="43.71737" lon="1.40843">
        <ele>173.232102</ele>
        <time>2022-07-29T15:18:56.812Z</time>
      </trkpt>
      <trkpt lat="43.71732" lon="1.40858">
        <ele>173.162791</ele>
        <time>2022-07-29T15:18:58.807Z</time>
      </trkpt>
      <trkpt lat="43.71727" lon="1.40873">
        <ele>173.091495</ele>
        <time>2022-07-29T15:19:00.812Z</time>
      </trkpt>
      <trkpt lat="43.71724" lon="1.40889">
        <ele>173.021358</ele>
        <time>2022-07-29T15:19:02.796Z</time>
      </trkpt>
      <trkpt lat="43.71719" lon="1.40904">
        <ele>173.000845</ele>
        <time>2022-07-29T15:19:04.806Z</time>
      </trkpt>
      <trkpt lat="43.71714" lon="1.40919">
        <ele>172.992519</ele>
        <time>2022-07-29T15:19:06.790Z</time>
      </trkpt>
      <trkpt lat="43.71709" lon="1.40934">
        <ele>172.984321</ele>
        <time>2022-07-29T15:19:08.810Z</time>
      </trkpt>
      <trkpt lat="43.71704" lon="1.40949">
        <ele>172.976022</ele>
        <time>2022-07-29T15:19:10.798Z</time>
      </trkpt>
      <trkpt lat="43.71698" lon="1.40963">
        <ele>172.967899</ele>
        <time>2022-07-29T15:19:12.788Z</time>
      </trkpt>
      <trkpt lat="43.71689" lon="1.40973">
        <ele>172.959776</ele>
        <time>2022-07-29T15:19:14.797Z</time>
      </trkpt>
      <trkpt lat="43.71679" lon="1.40982">
        <ele>172.951462</ele>
        <time>2022-07-29T15:19:16.792Z</time>
      </trkpt>
      <trkpt lat="43.71669" lon="1.40992">
        <ele>172.943121</ele>
        <time>2022-07-29T15:19:18.796Z</time>
      </trkpt>
      <trkpt lat="43.71659" lon="1.41">
        <ele>172.935065</ele>
        <time>2022-07-29T15:19:20.795Z</time>
      </trkpt>
      <trkpt lat="43.71648" lon="1.41005">
        <ele>172.926834</ele>
        <time>2022-07-29T15:19:22.798Z</time>
      </trkpt>
      <trkpt lat="43.71636" lon="1.4101">
        <ele>172.918519</ele>
        <time>2022-07-29T15:19:24.794Z</time>
      </trkpt>
      <trkpt lat="43.71624" lon="1.41015">
        <ele>172.909947</ele>
        <time>2022-07-29T15:19:26.812Z</time>
      </trkpt>
      <trkpt lat="43.71613" lon="1.41022">
        <ele>172.901532</ele>
        <time>2022-07-29T15:19:28.797Z</time>
      </trkpt>
      <trkpt lat="43.71601" lon="1.41026">
        <ele>172.893122</ele>
        <time>2022-07-29T15:19:30.811Z</time>
      </trkpt>
      <trkpt lat="43.71589" lon="1.41028">
        <ele>172.884585</ele>
        <time>2022-07-29T15:19:32.796Z</time>
      </trkpt>
      <trkpt lat="43.71577" lon="1.41028">
        <ele>172.892666</ele>
        <time>2022-07-29T15:19:34.805Z</time>
      </trkpt>
      <trkpt lat="43.71565" lon="1.4103">
        <ele>172.904419</ele>
        <time>2022-07-29T15:19:36.821Z</time>
      </trkpt>
      <trkpt lat="43.71553" lon="1.41031">
        <ele>172.916348</ele>
        <time>2022-07-29T15:19:38.799Z</time>
      </trkpt>
      <trkpt lat="43.71541" lon="1.41032">
        <ele>172.928169</ele>
        <time>2022-07-29T15:19:40.811Z</time>
      </trkpt>
      <trkpt lat="43.71529" lon="1.41032">
        <ele>172.940189</ele>
        <time>2022-07-29T15:19:42.792Z</time>
      </trkpt>
      <trkpt lat="43.71517" lon="1.41033">
        <ele>172.951823</ele>
        <time>2022-07-29T15:19:44.797Z</time>
      </trkpt>
      <trkpt lat="43.71505" lon="1.41034">
        <ele>172.96365</ele>
        <time>2022-07-29T15:19:46.810Z</time>
      </trkpt>
      <trkpt lat="43.71493" lon="1.41035">
        <ele>172.975763</ele>
        <time>2022-07-29T15:19:48.802Z</time>
      </trkpt>
      <trkpt lat="43.71481" lon="1.41035">
        <ele>172.987676</ele>
        <time>2022-07-29T15:19:50.802Z</time>
      </trkpt>
      <trkpt lat="43.71469" lon="1.41036">
        <ele>172.999391</ele>
        <time>2022-07-29T15:19:52.789Z</time>
      </trkpt>
      <trkpt lat="43.71457" lon="1.41035">
        <ele>173.011302</ele>
        <time>2022-07-29T15:19:54.791Z</time>
      </trkpt>
      <trkpt lat="43.71444" lon="1.41035">
        <ele>173.023311</ele>
        <time>2022-07-29T15:19:56.803Z</time>
      </trkpt>
      <trkpt lat="43.71432" lon="1.41035">
        <ele>173.035224</ele>
        <time>2022-07-29T15:19:58.809Z</time>
      </trkpt>
      <trkpt lat="43.7142" lon="1.41034">
        <ele>173.047136</ele>
        <time>2022-07-29T15:20:00.792Z</time>
      </trkpt>
      <trkpt lat="43.71408" lon="1.41033">
        <ele>173.059065</ele>
        <time>2022-07-29T15:20:02.799Z</time>
      </trkpt>
      <trkpt lat="43.71396" lon="1.41032">
        <ele>173.080384</ele>
        <time>2022-07-29T15:20:04.817Z</time>
      </trkpt>
      <trkpt lat="43.71384" lon="1.41032">
        <ele>173.102246</ele>
        <time>2022-07-29T15:20:06.809Z</time>
      </trkpt>
      <trkpt lat="43.71371" lon="1.41033">
        <ele>173.124542</ele>
        <time>2022-07-29T15:20:08.796Z</time>
      </trkpt>
      <trkpt lat="43.71359" lon="1.41036">
        <ele>173.147163</ele>
        <time>2022-07-29T15:20:10.804Z</time>
      </trkpt>
      <trkpt lat="43.71347" lon="1.41039">
        <ele>173.169572</ele>
        <time>2022-07-29T15:20:12.793Z</time>
      </trkpt>
      <trkpt lat="43.71335" lon="1.41041">
        <ele>173.191783</ele>
        <time>2022-07-29T15:20:14.794Z</time>
      </trkpt>
      <trkpt lat="43.71323" lon="1.41043">
        <ele>173.213707</ele>
        <time>2022-07-29T15:20:16.787Z</time>
      </trkpt>
      <trkpt lat="43.7131" lon="1.41045">
        <ele>173.235813</ele>
        <time>2022-07-29T15:20:18.793Z</time>
      </trkpt>
      <trkpt lat="43.71299" lon="1.41042">
        <ele>173.257643</ele>
        <time>2022-07-29T15:20:20.799Z</time>
      </trkpt>
      <trkpt lat="43.71287" lon="1.4104">
        <ele>173.278925</ele>
        <time>2022-07-29T15:20:22.807Z</time>
      </trkpt>
      <trkpt lat="43.71275" lon="1.41039">
        <ele>173.300449</ele>
        <time>2022-07-29T15:20:24.804Z</time>
      </trkpt>
      <trkpt lat="43.71263" lon="1.41039">
        <ele>173.322313</ele>
        <time>2022-07-29T15:20:26.810Z</time>
      </trkpt>
      <trkpt lat="43.71251" lon="1.41041">
        <ele>173.34422</ele>
        <time>2022-07-29T15:20:28.783Z</time>
      </trkpt>
      <trkpt lat="43.71239" lon="1.41043">
        <ele>173.365877</ele>
        <time>2022-07-29T15:20:30.801Z</time>
      </trkpt>
      <trkpt lat="43.71227" lon="1.41045">
        <ele>173.390903</ele>
        <time>2022-07-29T15:20:32.828Z</time>
      </trkpt>
      <trkpt lat="43.71215" lon="1.41047">
        <ele>173.437148</ele>
        <time>2022-07-29T15:20:34.798Z</time>
      </trkpt>
      <trkpt lat="43.71203" lon="1.41048">
        <ele>173.48282</ele>
        <time>2022-07-29T15:20:36.813Z</time>
      </trkpt>
      <trkpt lat="43.71191" lon="1.41048">
        <ele>173.528358</ele>
        <time>2022-07-29T15:20:38.802Z</time>
      </trkpt>
      <trkpt lat="43.71179" lon="1.41046">
        <ele>173.574434</ele>
        <time>2022-07-29T15:20:40.811Z</time>
      </trkpt>
      <trkpt lat="43.71167" lon="1.41045">
        <ele>173.621757</ele>
        <time>2022-07-29T15:20:42.813Z</time>
      </trkpt>
      <trkpt lat="43.71154" lon="1.41043">
        <ele>173.669142</ele>
        <time>2022-07-29T15:20:44.803Z</time>
      </trkpt>
      <trkpt lat="43.71142" lon="1.41041">
        <ele>173.71634</ele>
        <time>2022-07-29T15:20:46.813Z</time>
      </trkpt>
      <trkpt lat="43.7113" lon="1.41041">
        <ele>173.762639</ele>
        <time>2022-07-29T15:20:48.803Z</time>
      </trkpt>
      <trkpt lat="43.71118" lon="1.41041">
        <ele>173.808938</ele>
        <time>2022-07-29T15:20:50.804Z</time>
      </trkpt>
      <trkpt lat="43.71106" lon="1.41041">
        <ele>173.855234</ele>
        <time>2022-07-29T15:20:52.790Z</time>
      </trkpt>
      <trkpt lat="43.71094" lon="1.41041">
        <ele>173.901533</ele>
        <time>2022-07-29T15:20:54.806Z</time>
      </trkpt>
      <trkpt lat="43.71082" lon="1.41042">
        <ele>173.948372</ele>
        <time>2022-07-29T15:20:56.788Z</time>
      </trkpt>
      <trkpt lat="43.71069" lon="1.41044">
        <ele>173.995188</ele>
        <time>2022-07-29T15:20:58.796Z</time>
      </trkpt>
      <trkpt lat="43.71057" lon="1.41045">
        <ele>174.042005</ele>
        <time>2022-07-29T15:21:00.843Z</time>
      </trkpt>
      <trkpt lat="43.71045" lon="1.41046">
        <ele>174.082125</ele>
        <time>2022-07-29T15:21:02.805Z</time>
      </trkpt>
      <trkpt lat="43.71032" lon="1.41048">
        <ele>174.107957</ele>
        <time>2022-07-29T15:21:04.784Z</time>
      </trkpt>
      <trkpt lat="43.7102" lon="1.4105">
        <ele>174.133625</ele>
        <time>2022-07-29T15:21:06.806Z</time>
      </trkpt>
      <trkpt lat="43.71008" lon="1.41051">
        <ele>174.159457</ele>
        <time>2022-07-29T15:21:08.793Z</time>
      </trkpt>
      <trkpt lat="43.70996" lon="1.41052">
        <ele>174.185462</ele>
        <time>2022-07-29T15:21:10.791Z</time>
      </trkpt>
      <trkpt lat="43.70984" lon="1.41055">
        <ele>174.210787</ele>
        <time>2022-07-29T15:21:12.799Z</time>
      </trkpt>
      <trkpt lat="43.70971" lon="1.41057">
        <ele>174.237002</ele>
        <time>2022-07-29T15:21:14.793Z</time>
      </trkpt>
      <trkpt lat="43.70959" lon="1.4106">
        <ele>174.263676</ele>
        <time>2022-07-29T15:21:16.801Z</time>
      </trkpt>
      <trkpt lat="43.70946" lon="1.41063">
        <ele>174.289712</ele>
        <time>2022-07-29T15:21:18.794Z</time>
      </trkpt>
      <trkpt lat="43.70934" lon="1.41066">
        <ele>174.315123</ele>
        <time>2022-07-29T15:21:20.812Z</time>
      </trkpt>
      <trkpt lat="43.70922" lon="1.41068">
        <ele>174.34024</ele>
        <time>2022-07-29T15:21:22.837Z</time>
      </trkpt>
      <trkpt lat="43.70911" lon="1.4107">
        <ele>174.365045</ele>
        <time>2022-07-29T15:21:24.811Z</time>
      </trkpt>
      <trkpt lat="43.70899" lon="1.41073">
        <ele>174.38979</ele>
        <time>2022-07-29T15:21:26.830Z</time>
      </trkpt>
      <trkpt lat="43.70887" lon="1.41073">
        <ele>174.414895</ele>
        <time>2022-07-29T15:21:28.828Z</time>
      </trkpt>
      <trkpt lat="43.70875" lon="1.41071">
        <ele>174.4397</ele>
        <time>2022-07-29T15:21:30.803Z</time>
      </trkpt>
      <trkpt lat="43.70863" lon="1.41069">
        <ele>174.43754</ele>
        <time>2022-07-29T15:21:32.799Z</time>
      </trkpt>
      <trkpt lat="43.70851" lon="1.41066">
        <ele>174.417709</ele>
        <time>2022-07-29T15:21:34.797Z</time>
      </trkpt>
      <trkpt lat="43.70839" lon="1.41063">
        <ele>174.39834</ele>
        <time>2022-07-29T15:21:36.793Z</time>
      </trkpt>
      <trkpt lat="43.70827" lon="1.41062">
        <ele>174.378727</ele>
        <time>2022-07-29T15:21:38.808Z</time>
      </trkpt>
      <trkpt lat="43.70815" lon="1.41063">
        <ele>174.359123</ele>
        <time>2022-07-29T15:21:40.856Z</time>
      </trkpt>
      <trkpt lat="43.70803" lon="1.41064">
        <ele>174.339621</ele>
        <time>2022-07-29T15:21:42.790Z</time>
      </trkpt>
      <trkpt lat="43.7079" lon="1.41067">
        <ele>174.319494</ele>
        <time>2022-07-29T15:21:44.801Z</time>
      </trkpt>
      <trkpt lat="43.70778" lon="1.4107">
        <ele>174.298977</ele>
        <time>2022-07-29T15:21:46.804Z</time>
      </trkpt>
      <trkpt lat="43.70765" lon="1.41072">
        <ele>174.278461</ele>
        <time>2022-07-29T15:21:48.803Z</time>
      </trkpt>
      <trkpt lat="43.70753" lon="1.41075">
        <ele>174.258396</ele>
        <time>2022-07-29T15:21:50.795Z</time>
      </trkpt>
      <trkpt lat="43.7074" lon="1.41076">
        <ele>174.238445</ele>
        <time>2022-07-29T15:21:52.804Z</time>
      </trkpt>
      <trkpt lat="43.70728" lon="1.41076">
        <ele>174.21818</ele>
        <time>2022-07-29T15:21:54.791Z</time>
      </trkpt>
      <trkpt lat="43.70715" lon="1.41077">
        <ele>174.197455</ele>
        <time>2022-07-29T15:21:56.793Z</time>
      </trkpt>
      <trkpt lat="43.70702" lon="1.41077">
        <ele>174.177216</ele>
        <time>2022-07-29T15:21:58.782Z</time>
      </trkpt>
      <trkpt lat="43.7069" lon="1.41077">
        <ele>174.167938</ele>
        <time>2022-07-29T15:22:00.799Z</time>
      </trkpt>
      <trkpt lat="43.70678" lon="1.41077">
        <ele>174.21569</ele>
        <time>2022-07-29T15:22:02.801Z</time>
      </trkpt>
      <trkpt lat="43.70666" lon="1.41076">
        <ele>174.263888</ele>
        <time>2022-07-29T15:22:04.802Z</time>
      </trkpt>
      <trkpt lat="43.70654" lon="1.41074">
        <ele>174.311228</ele>
        <time>2022-07-29T15:22:06.839Z</time>
      </trkpt>
      <trkpt lat="43.70642" lon="1.41071">
        <ele>174.358727</ele>
        <time>2022-07-29T15:22:08.804Z</time>
      </trkpt>
      <trkpt lat="43.7063" lon="1.4107">
        <ele>174.406226</ele>
        <time>2022-07-29T15:22:10.801Z</time>
      </trkpt>
      <trkpt lat="43.70618" lon="1.4107">
        <ele>174.453976</ele>
        <time>2022-07-29T15:22:12.794Z</time>
      </trkpt>
      <trkpt lat="43.70606" lon="1.41073">
        <ele>174.501174</ele>
        <time>2022-07-29T15:22:14.796Z</time>
      </trkpt>
      <trkpt lat="43.70594" lon="1.41074">
        <ele>174.548674</ele>
        <time>2022-07-29T15:22:16.806Z</time>
      </trkpt>
      <trkpt lat="43.70582" lon="1.41075">
        <ele>174.59607</ele>
        <time>2022-07-29T15:22:18.802Z</time>
      </trkpt>
      <trkpt lat="43.7057" lon="1.41076">
        <ele>174.643963</ele>
        <time>2022-07-29T15:22:20.797Z</time>
      </trkpt>
      <trkpt lat="43.70558" lon="1.41078">
        <ele>174.690877</ele>
        <time>2022-07-29T15:22:22.817Z</time>
      </trkpt>
      <trkpt lat="43.70546" lon="1.4108">
        <ele>174.73854</ele>
        <time>2022-07-29T15:22:24.786Z</time>
      </trkpt>
      <trkpt lat="43.70534" lon="1.41082">
        <ele>174.78542</ele>
        <time>2022-07-29T15:22:26.809Z</time>
      </trkpt>
      <trkpt lat="43.70522" lon="1.41085">
        <ele>174.834089</ele>
        <time>2022-07-29T15:22:28.787Z</time>
      </trkpt>
      <trkpt lat="43.7051" lon="1.41087">
        <ele>174.875005</ele>
        <time>2022-07-29T15:22:30.792Z</time>
      </trkpt>
      <trkpt lat="43.70498" lon="1.41088">
        <ele>174.895255</ele>
        <time>2022-07-29T15:22:32.798Z</time>
      </trkpt>
      <trkpt lat="43.70485" lon="1.41091">
        <ele>174.916589</ele>
        <time>2022-07-29T15:22:34.806Z</time>
      </trkpt>
      <trkpt lat="43.70473" lon="1.41094">
        <ele>174.93706</ele>
        <time>2022-07-29T15:22:36.806Z</time>
      </trkpt>
      <trkpt lat="43.70461" lon="1.41096">
        <ele>174.956234</ele>
        <time>2022-07-29T15:22:38.825Z</time>
      </trkpt>
      <trkpt lat="43.70449" lon="1.41098">
        <ele>174.97556</ele>
        <time>2022-07-29T15:22:40.796Z</time>
      </trkpt>
      <trkpt lat="43.70437" lon="1.41102">
        <ele>174.995293</ele>
        <time>2022-07-29T15:22:42.800Z</time>
      </trkpt>
      <trkpt lat="43.70426" lon="1.41106">
        <ele>175.01492</ele>
        <time>2022-07-29T15:22:44.794Z</time>
      </trkpt>
      <trkpt lat="43.70414" lon="1.4111">
        <ele>175.034604</ele>
        <time>2022-07-29T15:22:46.789Z</time>
      </trkpt>
      <trkpt lat="43.70402" lon="1.41115">
        <ele>175.054956</ele>
        <time>2022-07-29T15:22:48.783Z</time>
      </trkpt>
      <trkpt lat="43.7039" lon="1.41121">
        <ele>175.075153</ele>
        <time>2022-07-29T15:22:50.785Z</time>
      </trkpt>
      <trkpt lat="43.70379" lon="1.41128">
        <ele>175.095158</ele>
        <time>2022-07-29T15:22:52.786Z</time>
      </trkpt>
      <trkpt lat="43.70368" lon="1.41135">
        <ele>175.114866</ele>
        <time>2022-07-29T15:22:54.805Z</time>
      </trkpt>
      <trkpt lat="43.70358" lon="1.41143">
        <ele>175.134591</ele>
        <time>2022-07-29T15:22:56.813Z</time>
      </trkpt>
      <trkpt lat="43.70347" lon="1.41151">
        <ele>175.154683</ele>
        <time>2022-07-29T15:22:58.818Z</time>
      </trkpt>
      <trkpt lat="43.70336" lon="1.4116">
        <ele>175.170272</ele>
        <time>2022-07-29T15:23:00.779Z</time>
      </trkpt>
      <trkpt lat="43.70326" lon="1.41169">
        <ele>175.182154</ele>
        <time>2022-07-29T15:23:02.793Z</time>
      </trkpt>
      <trkpt lat="43.70316" lon="1.41179">
        <ele>175.19392</ele>
        <time>2022-07-29T15:23:04.786Z</time>
      </trkpt>
      <trkpt lat="43.70306" lon="1.41189">
        <ele>175.205756</ele>
        <time>2022-07-29T15:23:06.802Z</time>
      </trkpt>
      <trkpt lat="43.70297" lon="1.41201">
        <ele>175.217493</ele>
        <time>2022-07-29T15:23:08.829Z</time>
      </trkpt>
      <trkpt lat="43.70289" lon="1.41213">
        <ele>175.229523</ele>
        <time>2022-07-29T15:23:10.789Z</time>
      </trkpt>
      <trkpt lat="43.7028" lon="1.41225">
        <ele>175.241622</ele>
        <time>2022-07-29T15:23:12.791Z</time>
      </trkpt>
      <trkpt lat="43.70271" lon="1.41237">
        <ele>175.253574</ele>
        <time>2022-07-29T15:23:14.792Z</time>
      </trkpt>
      <trkpt lat="43.70262" lon="1.4125">
        <ele>175.265468</ele>
        <time>2022-07-29T15:23:16.799Z</time>
      </trkpt>
      <trkpt lat="43.70254" lon="1.41261">
        <ele>175.277303</ele>
        <time>2022-07-29T15:23:18.807Z</time>
      </trkpt>
      <trkpt lat="43.70245" lon="1.41273">
        <ele>175.288999</ele>
        <time>2022-07-29T15:23:20.790Z</time>
      </trkpt>
      <trkpt lat="43.70236" lon="1.41285">
        <ele>175.300925</ele>
        <time>2022-07-29T15:23:22.804Z</time>
      </trkpt>
      <trkpt lat="43.70227" lon="1.41297">
        <ele>175.313087</ele>
        <time>2022-07-29T15:23:24.816Z</time>
      </trkpt>
      <trkpt lat="43.70218" lon="1.41309">
        <ele>175.325249</ele>
        <time>2022-07-29T15:23:26.781Z</time>
      </trkpt>
      <trkpt lat="43.70209" lon="1.4132">
        <ele>175.337245</ele>
        <time>2022-07-29T15:23:28.789Z</time>
      </trkpt>
      <trkpt lat="43.70199" lon="1.41332">
        <ele>175.370426</ele>
        <time>2022-07-29T15:23:30.795Z</time>
      </trkpt>
      <trkpt lat="43.7019" lon="1.41343">
        <ele>175.403063</ele>
        <time>2022-07-29T15:23:32.814Z</time>
      </trkpt>
      <trkpt lat="43.70181" lon="1.41354">
        <ele>175.435364</ele>
        <time>2022-07-29T15:23:34.806Z</time>
      </trkpt>
      <trkpt lat="43.70172" lon="1.41365">
        <ele>175.467546</ele>
        <time>2022-07-29T15:23:36.803Z</time>
      </trkpt>
      <trkpt lat="43.70162" lon="1.41376">
        <ele>175.500049</ele>
        <time>2022-07-29T15:23:38.826Z</time>
      </trkpt>
      <trkpt lat="43.70152" lon="1.41385">
        <ele>175.532682</ele>
        <time>2022-07-29T15:23:40.802Z</time>
      </trkpt>
      <trkpt lat="43.70142" lon="1.41395">
        <ele>175.565318</ele>
        <time>2022-07-29T15:23:42.798Z</time>
      </trkpt>
      <trkpt lat="43.70133" lon="1.41405">
        <ele>175.597649</ele>
        <time>2022-07-29T15:23:44.807Z</time>
      </trkpt>
      <trkpt lat="43.70123" lon="1.41416">
        <ele>175.63011</ele>
        <time>2022-07-29T15:23:46.801Z</time>
      </trkpt>
      <trkpt lat="43.70115" lon="1.41428">
        <ele>175.662503</ele>
        <time>2022-07-29T15:23:48.804Z</time>
      </trkpt>
      <trkpt lat="43.70106" lon="1.4144">
        <ele>175.694984</ele>
        <time>2022-07-29T15:23:50.805Z</time>
      </trkpt>
      <trkpt lat="43.70098" lon="1.41452">
        <ele>175.727241</ele>
        <time>2022-07-29T15:23:52.812Z</time>
      </trkpt>
      <trkpt lat="43.70089" lon="1.41464">
        <ele>175.760369</ele>
        <time>2022-07-29T15:23:54.786Z</time>
      </trkpt>
      <trkpt lat="43.7008" lon="1.41477">
        <ele>175.794386</ele>
        <time>2022-07-29T15:23:56.791Z</time>
      </trkpt>
      <trkpt lat="43.7007" lon="1.41488">
        <ele>175.814481</ele>
        <time>2022-07-29T15:23:58.789Z</time>
      </trkpt>
      <trkpt lat="43.7006" lon="1.41498">
        <ele>175.809529</ele>
        <time>2022-07-29T15:24:00.781Z</time>
      </trkpt>
      <trkpt lat="43.70051" lon="1.41509">
        <ele>175.804648</ele>
        <time>2022-07-29T15:24:02.809Z</time>
      </trkpt>
      <trkpt lat="43.70041" lon="1.41519">
        <ele>175.799819</ele>
        <time>2022-07-29T15:24:04.811Z</time>
      </trkpt>
      <trkpt lat="43.70032" lon="1.41529">
        <ele>175.795035</ele>
        <time>2022-07-29T15:24:06.790Z</time>
      </trkpt>
      <trkpt lat="43.70022" lon="1.41539">
        <ele>175.790154</ele>
        <time>2022-07-29T15:24:08.795Z</time>
      </trkpt>
      <trkpt lat="43.70013" lon="1.4155">
        <ele>175.785186</ele>
        <time>2022-07-29T15:24:10.784Z</time>
      </trkpt>
      <trkpt lat="43.70004" lon="1.41562">
        <ele>175.780218</ele>
        <time>2022-07-29T15:24:12.798Z</time>
      </trkpt>
      <trkpt lat="43.69996" lon="1.41574">
        <ele>175.775413</ele>
        <time>2022-07-29T15:24:14.795Z</time>
      </trkpt>
      <trkpt lat="43.69988" lon="1.41586">
        <ele>175.770635</ele>
        <time>2022-07-29T15:24:16.800Z</time>
      </trkpt>
      <trkpt lat="43.69979" lon="1.41598">
        <ele>175.765745</ele>
        <time>2022-07-29T15:24:18.806Z</time>
      </trkpt>
      <trkpt lat="43.6997" lon="1.4161">
        <ele>175.760829</ele>
        <time>2022-07-29T15:24:20.782Z</time>
      </trkpt>
      <trkpt lat="43.69962" lon="1.41621">
        <ele>175.755982</ele>
        <time>2022-07-29T15:24:22.803Z</time>
      </trkpt>
      <trkpt lat="43.69952" lon="1.41632">
        <ele>175.751112</ele>
        <time>2022-07-29T15:24:24.802Z</time>
      </trkpt>
      <trkpt lat="43.69943" lon="1.41642">
        <ele>175.746313</ele>
        <time>2022-07-29T15:24:26.797Z</time>
      </trkpt>
      <trkpt lat="43.69933" lon="1.41652">
        <ele>175.761942</ele>
        <time>2022-07-29T15:24:28.793Z</time>
      </trkpt>
      <trkpt lat="43.69923" lon="1.41662">
        <ele>175.796022</ele>
        <time>2022-07-29T15:24:30.808Z</time>
      </trkpt>
      <trkpt lat="43.69914" lon="1.41672">
        <ele>175.830711</ele>
        <time>2022-07-29T15:24:32.813Z</time>
      </trkpt>
      <trkpt lat="43.69905" lon="1.41683">
        <ele>175.864918</ele>
        <time>2022-07-29T15:24:34.794Z</time>
      </trkpt>
      <trkpt lat="43.69895" lon="1.41692">
        <ele>175.898974</ele>
        <time>2022-07-29T15:24:36.820Z</time>
      </trkpt>
      <trkpt lat="43.69886" lon="1.41703">
        <ele>175.933305</ele>
        <time>2022-07-29T15:24:38.803Z</time>
      </trkpt>
      <trkpt lat="43.69877" lon="1.41715">
        <ele>175.968192</ele>
        <time>2022-07-29T15:24:40.791Z</time>
      </trkpt>
      <trkpt lat="43.69868" lon="1.41726">
        <ele>176.002922</ele>
        <time>2022-07-29T15:24:42.823Z</time>
      </trkpt>
      <trkpt lat="43.6986" lon="1.41738">
        <ele>176.037665</ele>
        <time>2022-07-29T15:24:44.798Z</time>
      </trkpt>
      <trkpt lat="43.69851" lon="1.4175">
        <ele>176.07282</ele>
        <time>2022-07-29T15:24:46.811Z</time>
      </trkpt>
      <trkpt lat="43.69842" lon="1.41761">
        <ele>176.107483</ele>
        <time>2022-07-29T15:24:48.799Z</time>
      </trkpt>
      <trkpt lat="43.69833" lon="1.41773">
        <ele>176.142146</ele>
        <time>2022-07-29T15:24:50.786Z</time>
      </trkpt>
      <trkpt lat="43.69824" lon="1.41784">
        <ele>176.177588</ele>
        <time>2022-07-29T15:24:52.798Z</time>
      </trkpt>
      <trkpt lat="43.69815" lon="1.41796">
        <ele>176.213582</ele>
        <time>2022-07-29T15:24:54.787Z</time>
      </trkpt>
      <trkpt lat="43.69805" lon="1.41807">
        <ele>176.24924</ele>
        <time>2022-07-29T15:24:56.801Z</time>
      </trkpt>
      <trkpt lat="43.69796" lon="1.41818">
        <ele>176.272892</ele>
        <time>2022-07-29T15:24:58.833Z</time>
      </trkpt>
      <trkpt lat="43.69786" lon="1.4183">
        <ele>176.291953</ele>
        <time>2022-07-29T15:25:00.818Z</time>
      </trkpt>
      <trkpt lat="43.69777" lon="1.41841">
        <ele>176.310972</ele>
        <time>2022-07-29T15:25:02.803Z</time>
      </trkpt>
      <trkpt lat="43.69768" lon="1.41853">
        <ele>176.329839</ele>
        <time>2022-07-29T15:25:04.827Z</time>
      </trkpt>
      <trkpt lat="43.69759" lon="1.41863">
        <ele>176.348534</ele>
        <time>2022-07-29T15:25:06.832Z</time>
      </trkpt>
      <trkpt lat="43.69749" lon="1.41873">
        <ele>176.367052</ele>
        <time>2022-07-29T15:25:08.804Z</time>
      </trkpt>
      <trkpt lat="43.69739" lon="1.41883">
        <ele>176.385897</ele>
        <time>2022-07-29T15:25:10.796Z</time>
      </trkpt>
      <trkpt lat="43.6973" lon="1.41894">
        <ele>176.404243</ele>
        <time>2022-07-29T15:25:12.806Z</time>
      </trkpt>
      <trkpt lat="43.69721" lon="1.41904">
        <ele>176.422798</ele>
        <time>2022-07-29T15:25:14.806Z</time>
      </trkpt>
      <trkpt lat="43.69712" lon="1.41915">
        <ele>176.441236</ele>
        <time>2022-07-29T15:25:16.817Z</time>
      </trkpt>
      <trkpt lat="43.69702" lon="1.41925">
        <ele>176.459551</ele>
        <time>2022-07-29T15:25:18.797Z</time>
      </trkpt>
      <trkpt lat="43.69693" lon="1.41935">
        <ele>176.477467</ele>
        <time>2022-07-29T15:25:20.823Z</time>
      </trkpt>
      <trkpt lat="43.69684" lon="1.41945">
        <ele>176.495763</ele>
        <time>2022-07-29T15:25:22.797Z</time>
      </trkpt>
      <trkpt lat="43.69675" lon="1.41956">
        <ele>176.513821</ele>
        <time>2022-07-29T15:25:24.811Z</time>
      </trkpt>
      <trkpt lat="43.69666" lon="1.41967">
        <ele>176.532735</ele>
        <time>2022-07-29T15:25:26.808Z</time>
      </trkpt>
      <trkpt lat="43.69656" lon="1.41978">
        <ele>176.543757</ele>
        <time>2022-07-29T15:25:28.800Z</time>
      </trkpt>
      <trkpt lat="43.69647" lon="1.41989">
        <ele>176.553181</ele>
        <time>2022-07-29T15:25:30.812Z</time>
      </trkpt>
      <trkpt lat="43.69638" lon="1.42">
        <ele>176.562507</ele>
        <time>2022-07-29T15:25:32.796Z</time>
      </trkpt>
      <trkpt lat="43.69629" lon="1.42012">
        <ele>176.571965</ele>
        <time>2022-07-29T15:25:34.807Z</time>
      </trkpt>
      <trkpt lat="43.6962" lon="1.42024">
        <ele>176.581779</ele>
        <time>2022-07-29T15:25:36.803Z</time>
      </trkpt>
      <trkpt lat="43.6961" lon="1.42037">
        <ele>176.591745</ele>
        <time>2022-07-29T15:25:38.806Z</time>
      </trkpt>
      <trkpt lat="43.69601" lon="1.42049">
        <ele>176.601569</ele>
        <time>2022-07-29T15:25:40.805Z</time>
      </trkpt>
      <trkpt lat="43.69593" lon="1.42062">
        <ele>176.611039</ele>
        <time>2022-07-29T15:25:42.795Z</time>
      </trkpt>
      <trkpt lat="43.69585" lon="1.42075">
        <ele>176.620239</ele>
        <time>2022-07-29T15:25:44.809Z</time>
      </trkpt>
      <trkpt lat="43.69577" lon="1.42086">
        <ele>176.629528</ele>
        <time>2022-07-29T15:25:46.789Z</time>
      </trkpt>
      <trkpt lat="43.69567" lon="1.42097">
        <ele>176.638938</ele>
        <time>2022-07-29T15:25:48.787Z</time>
      </trkpt>
      <trkpt lat="43.69558" lon="1.42108">
        <ele>176.648116</ele>
        <time>2022-07-29T15:25:50.809Z</time>
      </trkpt>
      <trkpt lat="43.69549" lon="1.42119">
        <ele>176.657362</ele>
        <time>2022-07-29T15:25:52.794Z</time>
      </trkpt>
      <trkpt lat="43.6954" lon="1.42129">
        <ele>176.666548</ele>
        <time>2022-07-29T15:25:54.812Z</time>
      </trkpt>
      <trkpt lat="43.6953" lon="1.4214">
        <ele>176.681722</ele>
        <time>2022-07-29T15:25:56.795Z</time>
      </trkpt>
      <trkpt lat="43.69521" lon="1.42151">
        <ele>176.72074</ele>
        <time>2022-07-29T15:25:58.802Z</time>
      </trkpt>
      <trkpt lat="43.69512" lon="1.42162">
        <ele>176.759521</ele>
        <time>2022-07-29T15:26:00.812Z</time>
      </trkpt>
      <trkpt lat="43.69504" lon="1.42174">
        <ele>176.797526</ele>
        <time>2022-07-29T15:26:02.796Z</time>
      </trkpt>
      <trkpt lat="43.69497" lon="1.42186">
        <ele>176.834358</ele>
        <time>2022-07-29T15:26:04.812Z</time>
      </trkpt>
      <trkpt lat="43.69489" lon="1.42198">
        <ele>176.87035</ele>
        <time>2022-07-29T15:26:06.811Z</time>
      </trkpt>
      <trkpt lat="43.69481" lon="1.42209">
        <ele>176.907725</ele>
        <time>2022-07-29T15:26:08.799Z</time>
      </trkpt>
      <trkpt lat="43.69471" lon="1.42219">
        <ele>176.944976</ele>
        <time>2022-07-29T15:26:10.788Z</time>
      </trkpt>
      <trkpt lat="43.69462" lon="1.42231">
        <ele>176.984846</ele>
        <time>2022-07-29T15:26:12.793Z</time>
      </trkpt>
      <trkpt lat="43.69455" lon="1.42247">
        <ele>177.026549</ele>
        <time>2022-07-29T15:26:14.794Z</time>
      </trkpt>
      <trkpt lat="43.69447" lon="1.4226">
        <ele>177.067108</ele>
        <time>2022-07-29T15:26:16.845Z</time>
      </trkpt>
      <trkpt lat="43.69438" lon="1.42273">
        <ele>177.107282</ele>
        <time>2022-07-29T15:26:18.814Z</time>
      </trkpt>
      <trkpt lat="43.69429" lon="1.42284">
        <ele>177.146692</ele>
        <time>2022-07-29T15:26:20.801Z</time>
      </trkpt>
      <trkpt lat="43.69421" lon="1.42297">
        <ele>177.18547</ele>
        <time>2022-07-29T15:26:22.810Z</time>
      </trkpt>
      <trkpt lat="43.69413" lon="1.42309">
        <ele>177.224279</ele>
        <time>2022-07-29T15:26:24.800Z</time>
      </trkpt>
      <trkpt lat="43.69404" lon="1.42321">
        <ele>177.24185</ele>
        <time>2022-07-29T15:26:26.810Z</time>
      </trkpt>
      <trkpt lat="43.69396" lon="1.42334">
        <ele>177.230365</ele>
        <time>2022-07-29T15:26:28.806Z</time>
      </trkpt>
      <trkpt lat="43.69388" lon="1.42345">
        <ele>177.219115</ele>
        <time>2022-07-29T15:26:30.801Z</time>
      </trkpt>
      <trkpt lat="43.69379" lon="1.42358">
        <ele>177.207189</ele>
        <time>2022-07-29T15:26:32.793Z</time>
      </trkpt>
      <trkpt lat="43.69371" lon="1.42371">
        <ele>177.196045</ele>
        <time>2022-07-29T15:26:34.807Z</time>
      </trkpt>
      <trkpt lat="43.69364" lon="1.42385">
        <ele>177.184532</ele>
        <time>2022-07-29T15:26:36.777Z</time>
      </trkpt>
      <trkpt lat="43.69358" lon="1.42399">
        <ele>177.1736</ele>
        <time>2022-07-29T15:26:38.800Z</time>
      </trkpt>
      <trkpt lat="43.6935" lon="1.42412">
        <ele>177.161908</ele>
        <time>2022-07-29T15:26:40.810Z</time>
      </trkpt>
      <trkpt lat="43.69343" lon="1.42426">
        <ele>177.150668</ele>
        <time>2022-07-29T15:26:42.811Z</time>
      </trkpt>
      <trkpt lat="43.69336" lon="1.4244">
        <ele>177.139402</ele>
        <time>2022-07-29T15:26:44.826Z</time>
      </trkpt>
      <trkpt lat="43.6933" lon="1.42454">
        <ele>177.128193</ele>
        <time>2022-07-29T15:26:46.790Z</time>
      </trkpt>
      <trkpt lat="43.69324" lon="1.42468">
        <ele>177.117034</ele>
        <time>2022-07-29T15:26:48.799Z</time>
      </trkpt>
      <trkpt lat="43.69317" lon="1.42482">
        <ele>177.105817</ele>
        <time>2022-07-29T15:26:50.799Z</time>
      </trkpt>
      <trkpt lat="43.69311" lon="1.42497">
        <ele>177.094061</ele>
        <time>2022-07-29T15:26:52.799Z</time>
      </trkpt>
      <trkpt lat="43.69302" lon="1.4251">
        <ele>177.082684</ele>
        <time>2022-07-29T15:26:54.804Z</time>
      </trkpt>
      <trkpt lat="43.69293" lon="1.4252">
        <ele>177.096906</ele>
        <time>2022-07-29T15:26:56.808Z</time>
      </trkpt>
      <trkpt lat="43.69283" lon="1.4253">
        <ele>177.124873</ele>
        <time>2022-07-29T15:26:58.801Z</time>
      </trkpt>
      <trkpt lat="43.69273" lon="1.4254">
        <ele>177.153116</ele>
        <time>2022-07-29T15:27:00.799Z</time>
      </trkpt>
      <trkpt lat="43.69262" lon="1.42548">
        <ele>177.181054</ele>
        <time>2022-07-29T15:27:02.808Z</time>
      </trkpt>
      <trkpt lat="43.6925" lon="1.42556">
        <ele>177.210513</ele>
        <time>2022-07-29T15:27:04.796Z</time>
      </trkpt>
      <trkpt lat="43.69239" lon="1.42564">
        <ele>177.23957</ele>
        <time>2022-07-29T15:27:06.793Z</time>
      </trkpt>
      <trkpt lat="43.69228" lon="1.42572">
        <ele>177.268152</ele>
        <time>2022-07-29T15:27:08.801Z</time>
      </trkpt>
      <trkpt lat="43.69217" lon="1.4258">
        <ele>177.29571</ele>
        <time>2022-07-29T15:27:10.795Z</time>
      </trkpt>
      <trkpt lat="43.69205" lon="1.42587">
        <ele>177.32325</ele>
        <time>2022-07-29T15:27:12.804Z</time>
      </trkpt>
      <trkpt lat="43.69193" lon="1.4259">
        <ele>177.350598</ele>
        <time>2022-07-29T15:27:14.811Z</time>
      </trkpt>
      <trkpt lat="43.69181" lon="1.42592">
        <ele>177.377972</ele>
        <time>2022-07-29T15:27:16.805Z</time>
      </trkpt>
      <trkpt lat="43.69169" lon="1.42595">
        <ele>177.40621</ele>
        <time>2022-07-29T15:27:18.807Z</time>
      </trkpt>
      <trkpt lat="43.69157" lon="1.42597">
        <ele>177.434338</ele>
        <time>2022-07-29T15:27:20.795Z</time>
      </trkpt>
      <trkpt lat="43.69144" lon="1.426">
        <ele>177.463124</ele>
        <time>2022-07-29T15:27:22.808Z</time>
      </trkpt>
      <trkpt lat="43.69131" lon="1.42604">
        <ele>177.509207</ele>
        <time>2022-07-29T15:27:24.788Z</time>
      </trkpt>
      <trkpt lat="43.69118" lon="1.42608">
        <ele>177.600554</ele>
        <time>2022-07-29T15:27:26.785Z</time>
      </trkpt>
      <trkpt lat="43.69107" lon="1.42613">
        <ele>177.68454</ele>
        <time>2022-07-29T15:27:28.809Z</time>
      </trkpt>
      <trkpt lat="43.69097" lon="1.42623">
        <ele>177.765291</ele>
        <time>2022-07-29T15:27:30.795Z</time>
      </trkpt>
      <trkpt lat="43.69088" lon="1.42637">
        <ele>177.856253</ele>
        <time>2022-07-29T15:27:32.805Z</time>
      </trkpt>
      <trkpt lat="43.69078" lon="1.42646">
        <ele>177.941959</ele>
        <time>2022-07-29T15:27:34.790Z</time>
      </trkpt>
      <trkpt lat="43.69067" lon="1.42653">
        <ele>178.023802</ele>
        <time>2022-07-29T15:27:36.814Z</time>
      </trkpt>
      <trkpt lat="43.69055" lon="1.42656">
        <ele>178.108354</ele>
        <time>2022-07-29T15:27:38.791Z</time>
      </trkpt>
      <trkpt lat="43.69042" lon="1.42656">
        <ele>178.191477</ele>
        <time>2022-07-29T15:27:40.802Z</time>
      </trkpt>
      <trkpt lat="43.6903" lon="1.42657">
        <ele>178.278311</ele>
        <time>2022-07-29T15:27:42.777Z</time>
      </trkpt>
      <trkpt lat="43.69017" lon="1.42661">
        <ele>178.366584</ele>
        <time>2022-07-29T15:27:44.793Z</time>
      </trkpt>
      <trkpt lat="43.69004" lon="1.42663">
        <ele>178.453257</ele>
        <time>2022-07-29T15:27:46.810Z</time>
      </trkpt>
      <trkpt lat="43.68992" lon="1.42667">
        <ele>178.540398</ele>
        <time>2022-07-29T15:27:48.797Z</time>
      </trkpt>
      <trkpt lat="43.68979" lon="1.4267">
        <ele>178.627544</ele>
        <time>2022-07-29T15:27:50.800Z</time>
      </trkpt>
      <trkpt lat="43.68967" lon="1.42675">
        <ele>178.705469</ele>
        <time>2022-07-29T15:27:52.809Z</time>
      </trkpt>
      <trkpt lat="43.68956" lon="1.42682">
        <ele>178.666203</ele>
        <time>2022-07-29T15:27:54.798Z</time>
      </trkpt>
      <trkpt lat="43.68945" lon="1.4269">
        <ele>178.627287</ele>
        <time>2022-07-29T15:27:56.795Z</time>
      </trkpt>
      <trkpt lat="43.68935" lon="1.42697">
        <ele>178.589721</ele>
        <time>2022-07-29T15:27:58.814Z</time>
      </trkpt>
      <trkpt lat="43.68924" lon="1.42705">
        <ele>178.551197</ele>
        <time>2022-07-29T15:28:00.810Z</time>
      </trkpt>
      <trkpt lat="43.68913" lon="1.42713">
        <ele>178.513204</ele>
        <time>2022-07-29T15:28:02.801Z</time>
      </trkpt>
      <trkpt lat="43.68903" lon="1.42721">
        <ele>178.47446</ele>
        <time>2022-07-29T15:28:04.782Z</time>
      </trkpt>
      <trkpt lat="43.68892" lon="1.42728">
        <ele>178.436671</ele>
        <time>2022-07-29T15:28:06.784Z</time>
      </trkpt>
      <trkpt lat="43.68882" lon="1.42731">
        <ele>178.402384</ele>
        <time>2022-07-29T15:28:08.787Z</time>
      </trkpt>
      <trkpt lat="43.68871" lon="1.42735">
        <ele>178.366698</ele>
        <time>2022-07-29T15:28:10.792Z</time>
      </trkpt>
      <trkpt lat="43.6886" lon="1.42732">
        <ele>178.330483</ele>
        <time>2022-07-29T15:28:12.787Z</time>
      </trkpt>
      <trkpt lat="43.68849" lon="1.42725">
        <ele>178.292604</ele>
        <time>2022-07-29T15:28:14.788Z</time>
      </trkpt>
      <trkpt lat="43.68839" lon="1.42718">
        <ele>178.25461</ele>
        <time>2022-07-29T15:28:16.772Z</time>
      </trkpt>
      <trkpt lat="43.68828" lon="1.42712">
        <ele>178.217207</ele>
        <time>2022-07-29T15:28:18.795Z</time>
      </trkpt>
      <trkpt lat="43.68817" lon="1.42705">
        <ele>178.178065</ele>
        <time>2022-07-29T15:28:20.805Z</time>
      </trkpt>
      <trkpt lat="43.68805" lon="1.42698">
        <ele>178.138413</ele>
        <time>2022-07-29T15:28:22.823Z</time>
      </trkpt>
      <trkpt lat="43.68798" lon="1.42687">
        <ele>178.112139</ele>
        <time>2022-07-29T15:28:24.800Z</time>
      </trkpt>
      <trkpt lat="43.68806" lon="1.42676">
        <ele>178.087976</ele>
        <time>2022-07-29T15:28:26.788Z</time>
      </trkpt>
      <trkpt lat="43.68817" lon="1.42671">
        <ele>178.061292</ele>
        <time>2022-07-29T15:28:28.788Z</time>
      </trkpt>
      <trkpt lat="43.68828" lon="1.42665">
        <ele>178.035604</ele>
        <time>2022-07-29T15:28:30.796Z</time>
      </trkpt>
      <trkpt lat="43.68832" lon="1.42654">
        <ele>178.014897</ele>
        <time>2022-07-29T15:28:32.792Z</time>
      </trkpt>
      <trkpt lat="43.68832" lon="1.42639">
        <ele>177.991867</ele>
        <time>2022-07-29T15:28:34.783Z</time>
      </trkpt>
      <trkpt lat="43.68831" lon="1.42623">
        <ele>177.965823</ele>
        <time>2022-07-29T15:28:36.801Z</time>
      </trkpt>
      <trkpt lat="43.68828" lon="1.42608">
        <ele>177.940138</ele>
        <time>2022-07-29T15:28:38.783Z</time>
      </trkpt>
      <trkpt lat="43.68822" lon="1.42595">
        <ele>177.914811</ele>
        <time>2022-07-29T15:28:40.815Z</time>
      </trkpt>
      <trkpt lat="43.68815" lon="1.42582">
        <ele>177.88935</ele>
        <time>2022-07-29T15:28:42.797Z</time>
      </trkpt>
      <trkpt lat="43.68806" lon="1.42571">
        <ele>177.86304</ele>
        <time>2022-07-29T15:28:44.801Z</time>
      </trkpt>
      <trkpt lat="43.68795" lon="1.42566">
        <ele>177.836989</ele>
        <time>2022-07-29T15:28:46.791Z</time>
      </trkpt>
      <trkpt lat="43.68783" lon="1.42564">
        <ele>177.810935</ele>
        <time>2022-07-29T15:28:48.801Z</time>
      </trkpt>
      <trkpt lat="43.68772" lon="1.42562">
        <ele>177.784972</ele>
        <time>2022-07-29T15:28:50.791Z</time>
      </trkpt>
      <trkpt lat="43.6876" lon="1.4256">
        <ele>177.759197</ele>
        <time>2022-07-29T15:28:52.811Z</time>
      </trkpt>
      <trkpt lat="43.68748" lon="1.4256">
        <ele>177.732432</ele>
        <time>2022-07-29T15:28:54.788Z</time>
      </trkpt>
      <trkpt lat="43.68736" lon="1.42561">
        <ele>177.794101</ele>
        <time>2022-07-29T15:28:56.802Z</time>
      </trkpt>
      <trkpt lat="43.68724" lon="1.42568">
        <ele>177.864715</ele>
        <time>2022-07-29T15:28:58.802Z</time>
      </trkpt>
      <trkpt lat="43.68715" lon="1.42576">
        <ele>177.927381</ele>
        <time>2022-07-29T15:29:00.810Z</time>
      </trkpt>
      <trkpt lat="43.68704" lon="1.42585">
        <ele>177.996361</ele>
        <time>2022-07-29T15:29:02.797Z</time>
      </trkpt>
      <trkpt lat="43.68692" lon="1.42589">
        <ele>178.064486</ele>
        <time>2022-07-29T15:29:04.796Z</time>
      </trkpt>
      <trkpt lat="43.68681" lon="1.42594">
        <ele>178.131139</ele>
        <time>2022-07-29T15:29:06.810Z</time>
      </trkpt>
      <trkpt lat="43.68671" lon="1.42603">
        <ele>178.197668</ele>
        <time>2022-07-29T15:29:08.796Z</time>
      </trkpt>
      <trkpt lat="43.68662" lon="1.42614">
        <ele>178.261671</ele>
        <time>2022-07-29T15:29:10.800Z</time>
      </trkpt>
      <trkpt lat="43.68654" lon="1.42626">
        <ele>178.327368</ele>
        <time>2022-07-29T15:29:12.801Z</time>
      </trkpt>
      <trkpt lat="43.68645" lon="1.42637">
        <ele>178.393202</ele>
        <time>2022-07-29T15:29:14.801Z</time>
      </trkpt>
      <trkpt lat="43.68636" lon="1.42648">
        <ele>178.460171</ele>
        <time>2022-07-29T15:29:16.817Z</time>
      </trkpt>
      <trkpt lat="43.68626" lon="1.42658">
        <ele>178.526361</ele>
        <time>2022-07-29T15:29:18.801Z</time>
      </trkpt>
      <trkpt lat="43.68617" lon="1.42669">
        <ele>178.593982</ele>
        <time>2022-07-29T15:29:20.783Z</time>
      </trkpt>
      <trkpt lat="43.68608" lon="1.4268">
        <ele>178.660009</ele>
        <time>2022-07-29T15:29:22.801Z</time>
      </trkpt>
      <trkpt lat="43.68598" lon="1.42691">
        <ele>178.725451</ele>
        <time>2022-07-29T15:29:24.798Z</time>
      </trkpt>
      <trkpt lat="43.6859" lon="1.42704">
        <ele>178.750282</ele>
        <time>2022-07-29T15:29:26.801Z</time>
      </trkpt>
      <trkpt lat="43.68581" lon="1.42715">
        <ele>178.774453</ele>
        <time>2022-07-29T15:29:28.810Z</time>
      </trkpt>
      <trkpt lat="43.68572" lon="1.42726">
        <ele>178.798489</ele>
        <time>2022-07-29T15:29:30.790Z</time>
      </trkpt>
      <trkpt lat="43.68562" lon="1.42738">
        <ele>178.823145</ele>
        <time>2022-07-29T15:29:32.792Z</time>
      </trkpt>
      <trkpt lat="43.68553" lon="1.4275">
        <ele>178.84814</ele>
        <time>2022-07-29T15:29:34.763Z</time>
      </trkpt>
      <trkpt lat="43.68543" lon="1.42761">
        <ele>178.873299</ele>
        <time>2022-07-29T15:29:36.799Z</time>
      </trkpt>
      <trkpt lat="43.68534" lon="1.42772">
        <ele>178.897578</ele>
        <time>2022-07-29T15:29:38.792Z</time>
      </trkpt>
      <trkpt lat="43.68524" lon="1.42782">
        <ele>178.922324</ele>
        <time>2022-07-29T15:29:40.811Z</time>
      </trkpt>
      <trkpt lat="43.68514" lon="1.42793">
        <ele>178.946783</ele>
        <time>2022-07-29T15:29:42.801Z</time>
      </trkpt>
      <trkpt lat="43.68504" lon="1.42803">
        <ele>178.971829</ele>
        <time>2022-07-29T15:29:44.790Z</time>
      </trkpt>
      <trkpt lat="43.68495" lon="1.42814">
        <ele>178.995437</ele>
        <time>2022-07-29T15:29:46.792Z</time>
      </trkpt>
      <trkpt lat="43.68486" lon="1.42825">
        <ele>179.019324</ele>
        <time>2022-07-29T15:29:48.788Z</time>
      </trkpt>
      <trkpt lat="43.68475" lon="1.42833">
        <ele>179.043713</ele>
        <time>2022-07-29T15:29:50.796Z</time>
      </trkpt>
      <trkpt lat="43.68464" lon="1.42841">
        <ele>179.068276</ele>
        <time>2022-07-29T15:29:52.792Z</time>
      </trkpt>
      <trkpt lat="43.68454" lon="1.4285">
        <ele>179.09278</ele>
        <time>2022-07-29T15:29:54.790Z</time>
      </trkpt>
      <trkpt lat="43.68444" lon="1.42862">
        <ele>179.117443</ele>
        <time>2022-07-29T15:29:56.817Z</time>
      </trkpt>
      <trkpt lat="43.68435" lon="1.42873">
        <ele>179.142593</ele>
        <time>2022-07-29T15:29:58.810Z</time>
      </trkpt>
      <trkpt lat="43.68425" lon="1.42884">
        <ele>179.167073</ele>
        <time>2022-07-29T15:30:00.801Z</time>
      </trkpt>
      <trkpt lat="43.68416" lon="1.42895">
        <ele>179.191344</ele>
        <time>2022-07-29T15:30:02.791Z</time>
      </trkpt>
      <trkpt lat="43.68406" lon="1.42906">
        <ele>179.215515</ele>
        <time>2022-07-29T15:30:04.802Z</time>
      </trkpt>
      <trkpt lat="43.68397" lon="1.42917">
        <ele>179.239829</ele>
        <time>2022-07-29T15:30:06.805Z</time>
      </trkpt>
      <trkpt lat="43.68388" lon="1.42928">
        <ele>179.264062</ele>
        <time>2022-07-29T15:30:08.809Z</time>
      </trkpt>
      <trkpt lat="43.68379" lon="1.42939">
        <ele>179.288332</ele>
        <time>2022-07-29T15:30:10.810Z</time>
      </trkpt>
      <trkpt lat="43.68369" lon="1.4295">
        <ele>179.312776</ele>
        <time>2022-07-29T15:30:12.790Z</time>
      </trkpt>
      <trkpt lat="43.68359" lon="1.42961">
        <ele>179.337012</ele>
        <time>2022-07-29T15:30:14.774Z</time>
      </trkpt>
      <trkpt lat="43.6835" lon="1.42972">
        <ele>179.361488</ele>
        <time>2022-07-29T15:30:16.805Z</time>
      </trkpt>
      <trkpt lat="43.68341" lon="1.42982">
        <ele>179.385262</ele>
        <time>2022-07-29T15:30:18.797Z</time>
      </trkpt>
      <trkpt lat="43.68332" lon="1.42993">
        <ele>179.408792</ele>
        <time>2022-07-29T15:30:20.798Z</time>
      </trkpt>
      <trkpt lat="43.68322" lon="1.43004">
        <ele>179.432631</ele>
        <time>2022-07-29T15:30:22.792Z</time>
      </trkpt>
      <trkpt lat="43.68313" lon="1.43013">
        <ele>179.450409</ele>
        <time>2022-07-29T15:30:24.792Z</time>
      </trkpt>
      <trkpt lat="43.68304" lon="1.43025">
        <ele>179.467533</ele>
        <time>2022-07-29T15:30:26.810Z</time>
      </trkpt>
      <trkpt lat="43.68294" lon="1.43033">
        <ele>179.484257</ele>
        <time>2022-07-29T15:30:28.804Z</time>
      </trkpt>
      <trkpt lat="43.68285" lon="1.43044">
        <ele>179.500237</ele>
        <time>2022-07-29T15:30:30.801Z</time>
      </trkpt>
      <trkpt lat="43.68276" lon="1.43056">
        <ele>179.517978</ele>
        <time>2022-07-29T15:30:32.813Z</time>
      </trkpt>
      <trkpt lat="43.68266" lon="1.43066">
        <ele>179.534867</ele>
        <time>2022-07-29T15:30:34.811Z</time>
      </trkpt>
      <trkpt lat="43.68258" lon="1.43077">
        <ele>179.550922</ele>
        <time>2022-07-29T15:30:36.828Z</time>
      </trkpt>
      <trkpt lat="43.68251" lon="1.4309">
        <ele>179.567146</ele>
        <time>2022-07-29T15:30:38.788Z</time>
      </trkpt>
      <trkpt lat="43.68242" lon="1.43104">
        <ele>179.586634</ele>
        <time>2022-07-29T15:30:40.797Z</time>
      </trkpt>
      <trkpt lat="43.68232" lon="1.43116">
        <ele>179.605406</ele>
        <time>2022-07-29T15:30:42.801Z</time>
      </trkpt>
      <trkpt lat="43.68222" lon="1.43127">
        <ele>179.623112</ele>
        <time>2022-07-29T15:30:44.796Z</time>
      </trkpt>
      <trkpt lat="43.68213" lon="1.43139">
        <ele>179.641021</ele>
        <time>2022-07-29T15:30:46.793Z</time>
      </trkpt>
      <trkpt lat="43.68204" lon="1.4315">
        <ele>179.658138</ele>
        <time>2022-07-29T15:30:48.809Z</time>
      </trkpt>
      <trkpt lat="43.68194" lon="1.43162">
        <ele>179.675831</ele>
        <time>2022-07-29T15:30:50.807Z</time>
      </trkpt>
      <trkpt lat="43.68185" lon="1.43175">
        <ele>179.690599</ele>
        <time>2022-07-29T15:30:52.819Z</time>
      </trkpt>
      <trkpt lat="43.68175" lon="1.43188">
        <ele>179.697316</ele>
        <time>2022-07-29T15:30:54.810Z</time>
      </trkpt>
      <trkpt lat="43.68166" lon="1.432">
        <ele>179.703575</ele>
        <time>2022-07-29T15:30:56.810Z</time>
      </trkpt>
      <trkpt lat="43.68157" lon="1.43211">
        <ele>179.709806</ele>
        <time>2022-07-29T15:30:58.791Z</time>
      </trkpt>
      <trkpt lat="43.68149" lon="1.43223">
        <ele>179.715937</ele>
        <time>2022-07-29T15:31:00.805Z</time>
      </trkpt>
      <trkpt lat="43.68139" lon="1.43235">
        <ele>179.722255</ele>
        <time>2022-07-29T15:31:02.797Z</time>
      </trkpt>
      <trkpt lat="43.6813" lon="1.43245">
        <ele>179.728437</ele>
        <time>2022-07-29T15:31:04.793Z</time>
      </trkpt>
      <trkpt lat="43.68121" lon="1.43257">
        <ele>179.734817</ele>
        <time>2022-07-29T15:31:06.792Z</time>
      </trkpt>
      <trkpt lat="43.68112" lon="1.43269">
        <ele>179.741138</ele>
        <time>2022-07-29T15:31:08.798Z</time>
      </trkpt>
      <trkpt lat="43.68104" lon="1.43281">
        <ele>179.747176</ele>
        <time>2022-07-29T15:31:10.810Z</time>
      </trkpt>
      <trkpt lat="43.68096" lon="1.43294">
        <ele>179.753384</ele>
        <time>2022-07-29T15:31:12.789Z</time>
      </trkpt>
      <trkpt lat="43.68088" lon="1.43306">
        <ele>179.759362</ele>
        <time>2022-07-29T15:31:14.790Z</time>
      </trkpt>
      <trkpt lat="43.6808" lon="1.43319">
        <ele>179.765298</ele>
        <time>2022-07-29T15:31:16.803Z</time>
      </trkpt>
      <trkpt lat="43.68073" lon="1.43332">
        <ele>179.771533</ele>
        <time>2022-07-29T15:31:18.811Z</time>
      </trkpt>
      <trkpt lat="43.68064" lon="1.43346">
        <ele>179.778284</ele>
        <time>2022-07-29T15:31:20.795Z</time>
      </trkpt>
      <trkpt lat="43.68057" lon="1.43361">
        <ele>179.820036</ele>
        <time>2022-07-29T15:31:22.797Z</time>
      </trkpt>
      <trkpt lat="43.68059" lon="1.43379">
        <ele>179.870306</ele>
        <time>2022-07-29T15:31:24.805Z</time>
      </trkpt>
      <trkpt lat="43.68054" lon="1.43395">
        <ele>179.917987</ele>
        <time>2022-07-29T15:31:27.833Z</time>
      </trkpt>
      <trkpt lat="43.68046" lon="1.43402">
        <ele>179.952978</ele>
        <time>2022-07-29T15:31:29.787Z</time>
      </trkpt>
      <trkpt lat="43.68035" lon="1.43412">
        <ele>180.002137</ele>
        <time>2022-07-29T15:31:31.794Z</time>
      </trkpt>
      <trkpt lat="43.68024" lon="1.43419">
        <ele>180.049781</ele>
        <time>2022-07-29T15:31:33.792Z</time>
      </trkpt>
      <trkpt lat="43.68014" lon="1.43429">
        <ele>180.094354</ele>
        <time>2022-07-29T15:31:35.798Z</time>
      </trkpt>
      <trkpt lat="43.68005" lon="1.4344">
        <ele>180.138527</ele>
        <time>2022-07-29T15:31:37.804Z</time>
      </trkpt>
      <trkpt lat="43.67998" lon="1.43454">
        <ele>180.185118</ele>
        <time>2022-07-29T15:31:39.814Z</time>
      </trkpt>
      <trkpt lat="43.67989" lon="1.43466">
        <ele>180.231935</ele>
        <time>2022-07-29T15:31:41.802Z</time>
      </trkpt>
      <trkpt lat="43.6798" lon="1.43477">
        <ele>180.277486</ele>
        <time>2022-07-29T15:31:43.791Z</time>
      </trkpt>
      <trkpt lat="43.67971" lon="1.43489">
        <ele>180.323129</ele>
        <time>2022-07-29T15:31:45.798Z</time>
      </trkpt>
      <trkpt lat="43.67963" lon="1.43501">
        <ele>180.36826</ele>
        <time>2022-07-29T15:31:47.797Z</time>
      </trkpt>
      <trkpt lat="43.67954" lon="1.43513">
        <ele>180.415013</ele>
        <time>2022-07-29T15:31:49.804Z</time>
      </trkpt>
      <trkpt lat="43.67946" lon="1.43526">
        <ele>180.447175</ele>
        <time>2022-07-29T15:31:51.803Z</time>
      </trkpt>
      <trkpt lat="43.67938" lon="1.4354">
        <ele>180.415057</ele>
        <time>2022-07-29T15:31:53.802Z</time>
      </trkpt>
      <trkpt lat="43.67929" lon="1.43553">
        <ele>180.383046</ele>
        <time>2022-07-29T15:31:55.801Z</time>
      </trkpt>
      <trkpt lat="43.67921" lon="1.43566">
        <ele>180.351132</ele>
        <time>2022-07-29T15:31:57.816Z</time>
      </trkpt>
      <trkpt lat="43.67913" lon="1.43579">
        <ele>180.319549</ele>
        <time>2022-07-29T15:31:59.800Z</time>
      </trkpt>
      <trkpt lat="43.67905" lon="1.43592">
        <ele>180.287299</ele>
        <time>2022-07-29T15:32:01.818Z</time>
      </trkpt>
      <trkpt lat="43.67896" lon="1.43604">
        <ele>180.255342</ele>
        <time>2022-07-29T15:32:03.811Z</time>
      </trkpt>
      <trkpt lat="43.67887" lon="1.43615">
        <ele>180.224242</ele>
        <time>2022-07-29T15:32:05.831Z</time>
      </trkpt>
      <trkpt lat="43.67876" lon="1.43623">
        <ele>180.193322</ele>
        <time>2022-07-29T15:32:07.819Z</time>
      </trkpt>
      <trkpt lat="43.67867" lon="1.43633">
        <ele>180.162777</ele>
        <time>2022-07-29T15:32:09.816Z</time>
      </trkpt>
      <trkpt lat="43.67858" lon="1.43645">
        <ele>180.132798</ele>
        <time>2022-07-29T15:32:11.808Z</time>
      </trkpt>
      <trkpt lat="43.6785" lon="1.43657">
        <ele>180.102119</ele>
        <time>2022-07-29T15:32:13.816Z</time>
      </trkpt>
      <trkpt lat="43.67841" lon="1.43668">
        <ele>180.071092</ele>
        <time>2022-07-29T15:32:15.832Z</time>
      </trkpt>
      <trkpt lat="43.67832" lon="1.43679">
        <ele>180.040184</ele>
        <time>2022-07-29T15:32:17.825Z</time>
      </trkpt>
      <trkpt lat="43.67823" lon="1.43691">
        <ele>180.009635</ele>
        <time>2022-07-29T15:32:19.799Z</time>
      </trkpt>
      <trkpt lat="43.67815" lon="1.43703">
        <ele>180.013022</ele>
        <time>2022-07-29T15:32:21.797Z</time>
      </trkpt>
      <trkpt lat="43.67806" lon="1.43713">
        <ele>180.046057</ele>
        <time>2022-07-29T15:32:23.801Z</time>
      </trkpt>
      <trkpt lat="43.67797" lon="1.43725">
        <ele>180.078885</ele>
        <time>2022-07-29T15:32:25.814Z</time>
      </trkpt>
      <trkpt lat="43.67789" lon="1.43735">
        <ele>180.110967</ele>
        <time>2022-07-29T15:32:27.804Z</time>
      </trkpt>
      <trkpt lat="43.6778" lon="1.43747">
        <ele>180.143632</ele>
        <time>2022-07-29T15:32:29.813Z</time>
      </trkpt>
      <trkpt lat="43.67771" lon="1.43756">
        <ele>180.176127</ele>
        <time>2022-07-29T15:32:31.828Z</time>
      </trkpt>
      <trkpt lat="43.67762" lon="1.43765">
        <ele>180.208384</ele>
        <time>2022-07-29T15:32:33.847Z</time>
      </trkpt>
      <trkpt lat="43.67751" lon="1.43772">
        <ele>180.241716</ele>
        <time>2022-07-29T15:32:35.835Z</time>
      </trkpt>
      <trkpt lat="43.6774" lon="1.43779">
        <ele>180.275381</ele>
        <time>2022-07-29T15:32:37.808Z</time>
      </trkpt>
      <trkpt lat="43.67729" lon="1.43787">
        <ele>180.310151</ele>
        <time>2022-07-29T15:32:39.812Z</time>
      </trkpt>
      <trkpt lat="43.67718" lon="1.43796">
        <ele>180.344517</ele>
        <time>2022-07-29T15:32:41.816Z</time>
      </trkpt>
      <trkpt lat="43.6771" lon="1.43803">
        <ele>180.373438</ele>
        <time>2022-07-29T15:32:43.801Z</time>
      </trkpt>
      <trkpt lat="43.67701" lon="1.43811">
        <ele>180.401944</ele>
        <time>2022-07-29T15:32:46.805Z</time>
      </trkpt>
      <trkpt lat="43.67693" lon="1.43818">
        <ele>180.429027</ele>
        <time>2022-07-29T15:32:50.798Z</time>
      </trkpt>
      <trkpt lat="43.67683" lon="1.43828">
        <ele>180.464166</ele>
        <time>2022-07-29T15:32:54.813Z</time>
      </trkpt>
      <trkpt lat="43.67671" lon="1.43835">
        <ele>180.498825</ele>
        <time>2022-07-29T15:32:57.792Z</time>
      </trkpt>
      <trkpt lat="43.67662" lon="1.43842">
        <ele>180.509204</ele>
        <time>2022-07-29T15:32:59.799Z</time>
      </trkpt>
      <trkpt lat="43.67655" lon="1.4385">
        <ele>180.519125</ele>
        <time>2022-07-29T15:33:02.816Z</time>
      </trkpt>
      <trkpt lat="43.67646" lon="1.43859">
        <ele>180.530696</ele>
        <time>2022-07-29T15:33:06.812Z</time>
      </trkpt>
      <trkpt lat="43.67635" lon="1.43865">
        <ele>180.542036</ele>
        <time>2022-07-29T15:33:09.809Z</time>
      </trkpt>
      <trkpt lat="43.67627" lon="1.43871">
        <ele>180.551334</ele>
        <time>2022-07-29T15:33:11.827Z</time>
      </trkpt>
      <trkpt lat="43.67619" lon="1.4388">
        <ele>180.562161</ele>
        <time>2022-07-29T15:33:15.817Z</time>
      </trkpt>
      <trkpt lat="43.6761" lon="1.43884">
        <ele>180.571517</ele>
        <time>2022-07-29T15:33:19.815Z</time>
      </trkpt>
      <trkpt lat="43.67601" lon="1.43889">
        <ele>180.58125</ele>
        <time>2022-07-29T15:33:23.814Z</time>
      </trkpt>
      <trkpt lat="43.67592" lon="1.43897">
        <ele>180.593133</ele>
        <time>2022-07-29T15:33:27.796Z</time>
      </trkpt>
      <trkpt lat="43.67585" lon="1.43908">
        <ele>180.603796</ele>
        <time>2022-07-29T15:33:30.808Z</time>
      </trkpt>
      <trkpt lat="43.67576" lon="1.43923">
        <ele>180.618396</ele>
        <time>2022-07-29T15:33:33.803Z</time>
      </trkpt>
      <trkpt lat="43.67568" lon="1.43937">
        <ele>180.631054</ele>
        <time>2022-07-29T15:33:35.828Z</time>
      </trkpt>
      <trkpt lat="43.67561" lon="1.43952">
        <ele>180.644036</ele>
        <time>2022-07-29T15:33:37.805Z</time>
      </trkpt>
      <trkpt lat="43.67556" lon="1.43965">
        <ele>180.655603</ele>
        <time>2022-07-29T15:33:39.815Z</time>
      </trkpt>
      <trkpt lat="43.67549" lon="1.43981">
        <ele>180.669197</ele>
        <time>2022-07-29T15:33:41.809Z</time>
      </trkpt>
      <trkpt lat="43.67542" lon="1.43996">
        <ele>180.682358</ele>
        <time>2022-07-29T15:33:43.805Z</time>
      </trkpt>
      <trkpt lat="43.67536" lon="1.44011">
        <ele>180.709033</ele>
        <time>2022-07-29T15:33:45.826Z</time>
      </trkpt>
      <trkpt lat="43.67532" lon="1.44027">
        <ele>180.735504</ele>
        <time>2022-07-29T15:33:47.822Z</time>
      </trkpt>
      <trkpt lat="43.67525" lon="1.44042">
        <ele>180.76258</ele>
        <time>2022-07-29T15:33:49.833Z</time>
      </trkpt>
      <trkpt lat="43.67519" lon="1.44058">
        <ele>180.790208</ele>
        <time>2022-07-29T15:33:51.817Z</time>
      </trkpt>
      <trkpt lat="43.67515" lon="1.44073">
        <ele>180.816923</ele>
        <time>2022-07-29T15:33:53.820Z</time>
      </trkpt>
      <trkpt lat="43.67509" lon="1.44089">
        <ele>180.844299</ele>
        <time>2022-07-29T15:33:55.805Z</time>
      </trkpt>
      <trkpt lat="43.67504" lon="1.44105">
        <ele>180.871497</ele>
        <time>2022-07-29T15:33:57.835Z</time>
      </trkpt>
      <trkpt lat="43.67499" lon="1.44122">
        <ele>180.899556</ele>
        <time>2022-07-29T15:33:59.816Z</time>
      </trkpt>
      <trkpt lat="43.67494" lon="1.44139">
        <ele>180.928027</ele>
        <time>2022-07-29T15:34:01.824Z</time>
      </trkpt>
      <trkpt lat="43.67489" lon="1.44155">
        <ele>180.956272</ele>
        <time>2022-07-29T15:34:03.831Z</time>
      </trkpt>
      <trkpt lat="43.67485" lon="1.44172">
        <ele>180.984294</ele>
        <time>2022-07-29T15:34:05.833Z</time>
      </trkpt>
      <trkpt lat="43.67481" lon="1.44189">
        <ele>181.011951</ele>
        <time>2022-07-29T15:34:07.832Z</time>
      </trkpt>
      <trkpt lat="43.67477" lon="1.44205">
        <ele>181.038302</ele>
        <time>2022-07-29T15:34:09.818Z</time>
      </trkpt>
      <trkpt lat="43.67474" lon="1.44222">
        <ele>181.066225</ele>
        <time>2022-07-29T15:34:11.817Z</time>
      </trkpt>
      <trkpt lat="43.6747" lon="1.44239">
        <ele>181.116708</ele>
        <time>2022-07-29T15:34:13.839Z</time>
      </trkpt>
      <trkpt lat="43.67467" lon="1.44256">
        <ele>181.172533</ele>
        <time>2022-07-29T15:34:15.827Z</time>
      </trkpt>
      <trkpt lat="43.67464" lon="1.44273">
        <ele>181.227432</ele>
        <time>2022-07-29T15:34:17.851Z</time>
      </trkpt>
      <trkpt lat="43.67462" lon="1.44289">
        <ele>181.28113</ele>
        <time>2022-07-29T15:34:19.836Z</time>
      </trkpt>
      <trkpt lat="43.67461" lon="1.44306">
        <ele>181.333724</ele>
        <time>2022-07-29T15:34:21.843Z</time>
      </trkpt>
      <trkpt lat="43.67459" lon="1.44322">
        <ele>181.386667</ele>
        <time>2022-07-29T15:34:23.845Z</time>
      </trkpt>
      <trkpt lat="43.67458" lon="1.44338">
        <ele>181.439439</ele>
        <time>2022-07-29T15:34:25.832Z</time>
      </trkpt>
      <trkpt lat="43.67456" lon="1.44355">
        <ele>181.491479</ele>
        <time>2022-07-29T15:34:27.831Z</time>
      </trkpt>
      <trkpt lat="43.67456" lon="1.44371">
        <ele>181.545573</ele>
        <time>2022-07-29T15:34:29.819Z</time>
      </trkpt>
      <trkpt lat="43.67455" lon="1.44388">
        <ele>181.599963</ele>
        <time>2022-07-29T15:34:31.819Z</time>
      </trkpt>
      <trkpt lat="43.67454" lon="1.44406">
        <ele>181.655071</ele>
        <time>2022-07-29T15:34:33.816Z</time>
      </trkpt>
      <trkpt lat="43.67453" lon="1.44423">
        <ele>181.710468</ele>
        <time>2022-07-29T15:34:35.829Z</time>
      </trkpt>
      <trkpt lat="43.67452" lon="1.4444">
        <ele>181.765929</ele>
        <time>2022-07-29T15:34:37.818Z</time>
      </trkpt>
      <trkpt lat="43.67451" lon="1.44457">
        <ele>181.821037</ele>
        <time>2022-07-29T15:34:39.824Z</time>
      </trkpt>
      <trkpt lat="43.67451" lon="1.44475">
        <ele>181.884778</ele>
        <time>2022-07-29T15:34:41.860Z</time>
      </trkpt>
      <trkpt lat="43.6745" lon="1.44492">
        <ele>181.983146</ele>
        <time>2022-07-29T15:34:43.806Z</time>
      </trkpt>
      <trkpt lat="43.6745" lon="1.44509">
        <ele>182.080947</ele>
        <time>2022-07-29T15:34:45.829Z</time>
      </trkpt>
      <trkpt lat="43.67449" lon="1.44527">
        <ele>182.179456</ele>
        <time>2022-07-29T15:34:47.828Z</time>
      </trkpt>
      <trkpt lat="43.67448" lon="1.44544">
        <ele>182.279566</ele>
        <time>2022-07-29T15:34:49.840Z</time>
      </trkpt>
      <trkpt lat="43.67447" lon="1.44562">
        <ele>182.378541</ele>
        <time>2022-07-29T15:34:51.827Z</time>
      </trkpt>
      <trkpt lat="43.67447" lon="1.44579">
        <ele>182.476383</ele>
        <time>2022-07-29T15:34:53.845Z</time>
      </trkpt>
      <trkpt lat="43.67446" lon="1.44595">
        <ele>182.569078</ele>
        <time>2022-07-29T15:34:55.846Z</time>
      </trkpt>
      <trkpt lat="43.67444" lon="1.4461">
        <ele>182.655008</ele>
        <time>2022-07-29T15:34:57.826Z</time>
      </trkpt>
      <trkpt lat="43.67442" lon="1.44625">
        <ele>182.743735</ele>
        <time>2022-07-29T15:34:59.829Z</time>
      </trkpt>
      <trkpt lat="43.67441" lon="1.44641">
        <ele>182.834706</ele>
        <time>2022-07-29T15:35:01.835Z</time>
      </trkpt>
      <trkpt lat="43.67439" lon="1.44657">
        <ele>182.925211</ele>
        <time>2022-07-29T15:35:03.838Z</time>
      </trkpt>
      <trkpt lat="43.67442" lon="1.44673">
        <ele>183.014851</ele>
        <time>2022-07-29T15:35:06.833Z</time>
      </trkpt>
      <trkpt lat="43.67443" lon="1.44685">
        <ele>183.087089</ele>
        <time>2022-07-29T15:35:08.819Z</time>
      </trkpt>
      <trkpt lat="43.67444" lon="1.44701">
        <ele>183.178694</ele>
        <time>2022-07-29T15:35:10.823Z</time>
      </trkpt>
      <trkpt lat="43.67445" lon="1.44718">
        <ele>183.274573</ele>
        <time>2022-07-29T15:35:12.810Z</time>
      </trkpt>
      <trkpt lat="43.67446" lon="1.44732">
        <ele>183.323137</ele>
        <time>2022-07-29T15:35:14.838Z</time>
      </trkpt>
      <trkpt lat="43.6745" lon="1.44745">
        <ele>183.370349</ele>
        <time>2022-07-29T15:35:19.819Z</time>
      </trkpt>
      <trkpt lat="43.67449" lon="1.44759">
        <ele>183.419449</ele>
        <time>2022-07-29T15:35:23.825Z</time>
      </trkpt>
      <trkpt lat="43.67452" lon="1.44778">
        <ele>183.482977</ele>
        <time>2022-07-29T15:35:26.850Z</time>
      </trkpt>
      <trkpt lat="43.67454" lon="1.44794">
        <ele>183.537635</ele>
        <time>2022-07-29T15:35:28.794Z</time>
      </trkpt>
      <trkpt lat="43.67456" lon="1.44811">
        <ele>183.596229</ele>
        <time>2022-07-29T15:35:30.826Z</time>
      </trkpt>
      <trkpt lat="43.67458" lon="1.44828">
        <ele>183.655091</ele>
        <time>2022-07-29T15:35:32.816Z</time>
      </trkpt>
      <trkpt lat="43.6746" lon="1.44846">
        <ele>183.714945</ele>
        <time>2022-07-29T15:35:34.811Z</time>
      </trkpt>
      <trkpt lat="43.67464" lon="1.44863">
        <ele>183.77439</ele>
        <time>2022-07-29T15:35:36.812Z</time>
      </trkpt>
      <trkpt lat="43.67467" lon="1.4488">
        <ele>183.832812</ele>
        <time>2022-07-29T15:35:38.806Z</time>
      </trkpt>
      <trkpt lat="43.67471" lon="1.44896">
        <ele>183.888825</ele>
        <time>2022-07-29T15:35:40.832Z</time>
      </trkpt>
      <trkpt lat="43.67475" lon="1.4491">
        <ele>183.940421</ele>
        <time>2022-07-29T15:35:42.827Z</time>
      </trkpt>
      <trkpt lat="43.67478" lon="1.44925">
        <ele>183.989455</ele>
        <time>2022-07-29T15:35:45.848Z</time>
      </trkpt>
      <trkpt lat="43.67481" lon="1.44937">
        <ele>184.033886</ele>
        <time>2022-07-29T15:35:49.810Z</time>
      </trkpt>
      <trkpt lat="43.67485" lon="1.4495">
        <ele>184.082966</ele>
        <time>2022-07-29T15:35:53.818Z</time>
      </trkpt>
      <trkpt lat="43.67489" lon="1.44963">
        <ele>184.116438</ele>
        <time>2022-07-29T15:35:57.833Z</time>
      </trkpt>
      <trkpt lat="43.67493" lon="1.44975">
        <ele>184.131515</ele>
        <time>2022-07-29T15:36:03.834Z</time>
      </trkpt>
      <trkpt lat="43.67498" lon="1.44988">
        <ele>184.147134</ele>
        <time>2022-07-29T15:36:06.804Z</time>
      </trkpt>
      <trkpt lat="43.67503" lon="1.44999">
        <ele>184.161583</ele>
        <time>2022-07-29T15:36:08.804Z</time>
      </trkpt>
      <trkpt lat="43.67504" lon="1.45012">
        <ele>184.17661</ele>
        <time>2022-07-29T15:36:10.820Z</time>
      </trkpt>
      <trkpt lat="43.67494" lon="1.45021">
        <ele>184.194322</ele>
        <time>2022-07-29T15:36:12.795Z</time>
      </trkpt>
      <trkpt lat="43.67483" lon="1.4503">
        <ele>184.213745</ele>
        <time>2022-07-29T15:36:14.815Z</time>
      </trkpt>
      <trkpt lat="43.67472" lon="1.45038">
        <ele>184.233574</ele>
        <time>2022-07-29T15:36:16.827Z</time>
      </trkpt>
      <trkpt lat="43.67461" lon="1.45048">
        <ele>184.253557</ele>
        <time>2022-07-29T15:36:18.811Z</time>
      </trkpt>
      <trkpt lat="43.67455" lon="1.45064">
        <ele>184.273507</ele>
        <time>2022-07-29T15:36:20.811Z</time>
      </trkpt>
      <trkpt lat="43.67451" lon="1.45081">
        <ele>184.293823</ele>
        <time>2022-07-29T15:36:22.818Z</time>
      </trkpt>
      <trkpt lat="43.67447" lon="1.45099">
        <ele>184.313713</ele>
        <time>2022-07-29T15:36:24.857Z</time>
      </trkpt>
      <trkpt lat="43.67448" lon="1.45117">
        <ele>184.333675</ele>
        <time>2022-07-29T15:36:26.822Z</time>
      </trkpt>
      <trkpt lat="43.67454" lon="1.45133">
        <ele>184.353554</ele>
        <time>2022-07-29T15:36:28.816Z</time>
      </trkpt>
      <trkpt lat="43.6746" lon="1.45147">
        <ele>184.372746</ele>
        <time>2022-07-29T15:36:30.821Z</time>
      </trkpt>
      <trkpt lat="43.67466" lon="1.45162">
        <ele>184.386341</ele>
        <time>2022-07-29T15:36:32.817Z</time>
      </trkpt>
      <trkpt lat="43.67471" lon="1.45177">
        <ele>184.386786</ele>
        <time>2022-07-29T15:36:34.833Z</time>
      </trkpt>
      <trkpt lat="43.67476" lon="1.45193">
        <ele>184.387228</ele>
        <time>2022-07-29T15:36:36.812Z</time>
      </trkpt>
      <trkpt lat="43.67481" lon="1.45207">
        <ele>184.387674</ele>
        <time>2022-07-29T15:36:38.826Z</time>
      </trkpt>
      <trkpt lat="43.67488" lon="1.45221">
        <ele>184.388111</ele>
        <time>2022-07-29T15:36:40.844Z</time>
      </trkpt>
      <trkpt lat="43.67488" lon="1.45236">
        <ele>184.388513</ele>
        <time>2022-07-29T15:36:42.834Z</time>
      </trkpt>
      <trkpt lat="43.67478" lon="1.45244">
        <ele>184.388937</ele>
        <time>2022-07-29T15:36:44.835Z</time>
      </trkpt>
      <trkpt lat="43.67467" lon="1.45252">
        <ele>184.389401</ele>
        <time>2022-07-29T15:36:46.833Z</time>
      </trkpt>
      <trkpt lat="43.67455" lon="1.45259">
        <ele>184.389857</ele>
        <time>2022-07-29T15:36:48.820Z</time>
      </trkpt>
      <trkpt lat="43.67443" lon="1.45264">
        <ele>184.390334</ele>
        <time>2022-07-29T15:36:50.817Z</time>
      </trkpt>
      <trkpt lat="43.6743" lon="1.4527">
        <ele>184.390831</ele>
        <time>2022-07-29T15:36:52.831Z</time>
      </trkpt>
      <trkpt lat="43.67418" lon="1.45279">
        <ele>184.391327</ele>
        <time>2022-07-29T15:36:54.828Z</time>
      </trkpt>
      <trkpt lat="43.67406" lon="1.45286">
        <ele>184.391814</ele>
        <time>2022-07-29T15:36:56.815Z</time>
      </trkpt>
      <trkpt lat="43.67394" lon="1.45294">
        <ele>184.392301</ele>
        <time>2022-07-29T15:36:58.821Z</time>
      </trkpt>
      <trkpt lat="43.67382" lon="1.45301">
        <ele>184.392792</ele>
        <time>2022-07-29T15:37:00.830Z</time>
      </trkpt>
      <trkpt lat="43.67369" lon="1.45306">
        <ele>184.335962</ele>
        <time>2022-07-29T15:37:02.837Z</time>
      </trkpt>
      <trkpt lat="43.67356" lon="1.45303">
        <ele>184.272409</ele>
        <time>2022-07-29T15:37:04.832Z</time>
      </trkpt>
      <trkpt lat="43.67343" lon="1.453">
        <ele>184.208113</ele>
        <time>2022-07-29T15:37:06.817Z</time>
      </trkpt>
      <trkpt lat="43.6733" lon="1.45297">
        <ele>184.144176</ele>
        <time>2022-07-29T15:37:08.826Z</time>
      </trkpt>
      <trkpt lat="43.67317" lon="1.45297">
        <ele>184.082162</ele>
        <time>2022-07-29T15:37:10.816Z</time>
      </trkpt>
      <trkpt lat="43.67305" lon="1.45302">
        <ele>184.022504</ele>
        <time>2022-07-29T15:37:12.810Z</time>
      </trkpt>
      <trkpt lat="43.67295" lon="1.45308">
        <ele>183.966497</ele>
        <time>2022-07-29T15:37:14.815Z</time>
      </trkpt>
      <trkpt lat="43.67284" lon="1.45312">
        <ele>183.912734</ele>
        <time>2022-07-29T15:37:16.820Z</time>
      </trkpt>
      <trkpt lat="43.67275" lon="1.45315">
        <ele>183.865298</ele>
        <time>2022-07-29T15:37:18.813Z</time>
      </trkpt>
      <trkpt lat="43.67267" lon="1.45308">
        <ele>183.819482</ele>
        <time>2022-07-29T15:37:20.829Z</time>
      </trkpt>
      <trkpt lat="43.67262" lon="1.45296">
        <ele>183.772227</ele>
        <time>2022-07-29T15:37:22.816Z</time>
      </trkpt>
      <trkpt lat="43.67257" lon="1.45283">
        <ele>183.720933</ele>
        <time>2022-07-29T15:37:24.791Z</time>
      </trkpt>
      <trkpt lat="43.67251" lon="1.45268">
        <ele>183.662466</ele>
        <time>2022-07-29T15:37:26.829Z</time>
      </trkpt>
      <trkpt lat="43.67244" lon="1.45254">
        <ele>183.600868</ele>
        <time>2022-07-29T15:37:28.828Z</time>
      </trkpt>
      <trkpt lat="43.67239" lon="1.45237">
        <ele>183.538761</ele>
        <time>2022-07-29T15:37:30.839Z</time>
      </trkpt>
      <trkpt lat="43.67235" lon="1.45221">
        <ele>183.460581</ele>
        <time>2022-07-29T15:37:32.810Z</time>
      </trkpt>
      <trkpt lat="43.67232" lon="1.45204">
        <ele>183.376959</ele>
        <time>2022-07-29T15:37:34.829Z</time>
      </trkpt>
      <trkpt lat="43.67228" lon="1.45188">
        <ele>183.295185</ele>
        <time>2022-07-29T15:37:36.815Z</time>
      </trkpt>
      <trkpt lat="43.67224" lon="1.45172">
        <ele>183.213573</ele>
        <time>2022-07-29T15:37:38.821Z</time>
      </trkpt>
      <trkpt lat="43.67221" lon="1.45158">
        <ele>183.140666</ele>
        <time>2022-07-29T15:37:40.818Z</time>
      </trkpt>
      <trkpt lat="43.67218" lon="1.45145">
        <ele>183.074871</ele>
        <time>2022-07-29T15:37:42.823Z</time>
      </trkpt>
      <trkpt lat="43.67215" lon="1.45132">
        <ele>183.009177</ele>
        <time>2022-07-29T15:37:44.807Z</time>
      </trkpt>
      <trkpt lat="43.67207" lon="1.45121">
        <ele>182.929772</ele>
        <time>2022-07-29T15:37:47.808Z</time>
      </trkpt>
      <trkpt lat="43.67194" lon="1.45127">
        <ele>182.839218</ele>
        <time>2022-07-29T15:37:50.812Z</time>
      </trkpt>
      <trkpt lat="43.67184" lon="1.45133">
        <ele>182.763959</ele>
        <time>2022-07-29T15:37:52.827Z</time>
      </trkpt>
      <trkpt lat="43.67173" lon="1.4514">
        <ele>182.683595</ele>
        <time>2022-07-29T15:37:54.809Z</time>
      </trkpt>
      <trkpt lat="43.67162" lon="1.45145">
        <ele>182.602562</ele>
        <time>2022-07-29T15:37:56.815Z</time>
      </trkpt>
      <trkpt lat="43.67151" lon="1.45136">
        <ele>182.518767</ele>
        <time>2022-07-29T15:37:58.814Z</time>
      </trkpt>
      <trkpt lat="43.67139" lon="1.45131">
        <ele>182.436303</ele>
        <time>2022-07-29T15:38:00.809Z</time>
      </trkpt>
      <trkpt lat="43.67127" lon="1.45138">
        <ele>182.34835</ele>
        <time>2022-07-29T15:38:02.834Z</time>
      </trkpt>
      <trkpt lat="43.67115" lon="1.45147">
        <ele>182.252731</ele>
        <time>2022-07-29T15:38:04.813Z</time>
      </trkpt>
      <trkpt lat="43.67103" lon="1.45154">
        <ele>182.153254</ele>
        <time>2022-07-29T15:38:06.807Z</time>
      </trkpt>
      <trkpt lat="43.67091" lon="1.45161">
        <ele>182.056486</ele>
        <time>2022-07-29T15:38:08.818Z</time>
      </trkpt>
      <trkpt lat="43.67079" lon="1.45162">
        <ele>181.970825</ele>
        <time>2022-07-29T15:38:10.828Z</time>
      </trkpt>
      <trkpt lat="43.6707" lon="1.45148">
        <ele>181.869551</ele>
        <time>2022-07-29T15:38:12.809Z</time>
      </trkpt>
      <trkpt lat="43.67059" lon="1.45142">
        <ele>181.781305</ele>
        <time>2022-07-29T15:38:14.817Z</time>
      </trkpt>
      <trkpt lat="43.67049" lon="1.45149">
        <ele>181.697588</ele>
        <time>2022-07-29T15:38:16.832Z</time>
      </trkpt>
      <trkpt lat="43.67038" lon="1.45156">
        <ele>181.606437</ele>
        <time>2022-07-29T15:38:18.843Z</time>
      </trkpt>
      <trkpt lat="43.67026" lon="1.45162">
        <ele>181.514589</ele>
        <time>2022-07-29T15:38:20.829Z</time>
      </trkpt>
      <trkpt lat="43.67015" lon="1.45161">
        <ele>181.426883</ele>
        <time>2022-07-29T15:38:22.821Z</time>
      </trkpt>
      <trkpt lat="43.67009" lon="1.45146">
        <ele>181.338778</ele>
        <time>2022-07-29T15:38:24.830Z</time>
      </trkpt>
      <trkpt lat="43.67005" lon="1.45131">
        <ele>181.248191</ele>
        <time>2022-07-29T15:38:26.825Z</time>
      </trkpt>
      <trkpt lat="43.66999" lon="1.45117">
        <ele>181.161277</ele>
        <time>2022-07-29T15:38:28.822Z</time>
      </trkpt>
      <trkpt lat="43.66992" lon="1.45103">
        <ele>181.070865</ele>
        <time>2022-07-29T15:38:30.873Z</time>
      </trkpt>
      <trkpt lat="43.66985" lon="1.45089">
        <ele>180.978723</ele>
        <time>2022-07-29T15:38:32.799Z</time>
      </trkpt>
      <trkpt lat="43.66978" lon="1.45075">
        <ele>180.964151</ele>
        <time>2022-07-29T15:38:34.815Z</time>
      </trkpt>
      <trkpt lat="43.66972" lon="1.45062">
        <ele>180.951996</ele>
        <time>2022-07-29T15:38:36.817Z</time>
      </trkpt>
      <trkpt lat="43.66965" lon="1.45049">
        <ele>180.940301</ele>
        <time>2022-07-29T15:38:38.827Z</time>
      </trkpt>
      <trkpt lat="43.66959" lon="1.45037">
        <ele>180.928417</ele>
        <time>2022-07-29T15:38:40.822Z</time>
      </trkpt>
      <trkpt lat="43.66954" lon="1.45022">
        <ele>180.915669</ele>
        <time>2022-07-29T15:38:42.810Z</time>
      </trkpt>
      <trkpt lat="43.66948" lon="1.45007">
        <ele>180.902982</ele>
        <time>2022-07-29T15:38:44.815Z</time>
      </trkpt>
      <trkpt lat="43.66943" lon="1.44992">
        <ele>180.889979</ele>
        <time>2022-07-29T15:38:46.822Z</time>
      </trkpt>
      <trkpt lat="43.66937" lon="1.44978">
        <ele>180.877444</ele>
        <time>2022-07-29T15:38:48.813Z</time>
      </trkpt>
      <trkpt lat="43.66932" lon="1.44963">
        <ele>180.864723</ele>
        <time>2022-07-29T15:38:50.811Z</time>
      </trkpt>
      <trkpt lat="43.66924" lon="1.44951">
        <ele>180.851932</ele>
        <time>2022-07-29T15:38:52.818Z</time>
      </trkpt>
      <trkpt lat="43.66913" lon="1.44942">
        <ele>180.83891</ele>
        <time>2022-07-29T15:38:54.835Z</time>
      </trkpt>
      <trkpt lat="43.66901" lon="1.44938">
        <ele>180.825804</ele>
        <time>2022-07-29T15:38:56.806Z</time>
      </trkpt>
      <trkpt lat="43.66889" lon="1.44935">
        <ele>180.812449</ele>
        <time>2022-07-29T15:38:58.861Z</time>
      </trkpt>
      <trkpt lat="43.66877" lon="1.44931">
        <ele>180.79887</ele>
        <time>2022-07-29T15:39:00.820Z</time>
      </trkpt>
      <trkpt lat="43.66864" lon="1.44929">
        <ele>180.78524</ele>
        <time>2022-07-29T15:39:02.804Z</time>
      </trkpt>
      <trkpt lat="43.66852" lon="1.44925">
        <ele>180.812628</ele>
        <time>2022-07-29T15:39:04.813Z</time>
      </trkpt>
      <trkpt lat="43.6684" lon="1.44922">
        <ele>180.840622</ele>
        <time>2022-07-29T15:39:06.837Z</time>
      </trkpt>
      <trkpt lat="43.66827" lon="1.44919">
        <ele>180.868424</ele>
        <time>2022-07-29T15:39:08.821Z</time>
      </trkpt>
      <trkpt lat="43.66816" lon="1.44915">
        <ele>180.895185</ele>
        <time>2022-07-29T15:39:10.820Z</time>
      </trkpt>
      <trkpt lat="43.66805" lon="1.4491">
        <ele>180.922221</ele>
        <time>2022-07-29T15:39:12.820Z</time>
      </trkpt>
      <trkpt lat="43.66793" lon="1.44903">
        <ele>180.950468</ele>
        <time>2022-07-29T15:39:14.812Z</time>
      </trkpt>
      <trkpt lat="43.66782" lon="1.44895">
        <ele>180.978791</ele>
        <time>2022-07-29T15:39:16.822Z</time>
      </trkpt>
      <trkpt lat="43.66772" lon="1.44886">
        <ele>181.00629</ele>
        <time>2022-07-29T15:39:18.809Z</time>
      </trkpt>
      <trkpt lat="43.66761" lon="1.44878">
        <ele>181.033492</ele>
        <time>2022-07-29T15:39:20.817Z</time>
      </trkpt>
      <trkpt lat="43.66749" lon="1.44875">
        <ele>181.061104</ele>
        <time>2022-07-29T15:39:22.817Z</time>
      </trkpt>
      <trkpt lat="43.66737" lon="1.44872">
        <ele>181.088463</ele>
        <time>2022-07-29T15:39:24.809Z</time>
      </trkpt>
      <trkpt lat="43.66725" lon="1.44869">
        <ele>181.115704</ele>
        <time>2022-07-29T15:39:26.835Z</time>
      </trkpt>
      <trkpt lat="43.66713" lon="1.44865">
        <ele>181.142975</ele>
        <time>2022-07-29T15:39:28.799Z</time>
      </trkpt>
      <trkpt lat="43.66702" lon="1.44863">
        <ele>181.170139</ele>
        <time>2022-07-29T15:39:30.802Z</time>
      </trkpt>
      <trkpt lat="43.66689" lon="1.4486">
        <ele>181.206377</ele>
        <time>2022-07-29T15:39:32.801Z</time>
      </trkpt>
      <trkpt lat="43.66679" lon="1.4486">
        <ele>181.261287</ele>
        <time>2022-07-29T15:39:34.822Z</time>
      </trkpt>
      <trkpt lat="43.66669" lon="1.44863">
        <ele>181.30874</ele>
        <time>2022-07-29T15:39:38.829Z</time>
      </trkpt>
      <trkpt lat="43.66659" lon="1.44859">
        <ele>181.363322</ele>
        <time>2022-07-29T15:39:41.830Z</time>
      </trkpt>
      <trkpt lat="43.66648" lon="1.44859">
        <ele>181.418272</ele>
        <time>2022-07-29T15:39:43.844Z</time>
      </trkpt>
      <trkpt lat="43.66636" lon="1.44855">
        <ele>181.479221</ele>
        <time>2022-07-29T15:39:45.835Z</time>
      </trkpt>
      <trkpt lat="43.66626" lon="1.44845">
        <ele>181.543044</ele>
        <time>2022-07-29T15:39:47.823Z</time>
      </trkpt>
      <trkpt lat="43.66618" lon="1.44831">
        <ele>181.604803</ele>
        <time>2022-07-29T15:39:49.835Z</time>
      </trkpt>
      <trkpt lat="43.6661" lon="1.44819">
        <ele>181.666442</ele>
        <time>2022-07-29T15:39:51.840Z</time>
      </trkpt>
      <trkpt lat="43.66602" lon="1.44806">
        <ele>181.725771</ele>
        <time>2022-07-29T15:39:53.827Z</time>
      </trkpt>
      <trkpt lat="43.66595" lon="1.44794">
        <ele>181.787359</ele>
        <time>2022-07-29T15:39:55.805Z</time>
      </trkpt>
      <trkpt lat="43.66587" lon="1.44781">
        <ele>181.847236</ele>
        <time>2022-07-29T15:39:57.833Z</time>
      </trkpt>
      <trkpt lat="43.66579" lon="1.44769">
        <ele>181.905482</ele>
        <time>2022-07-29T15:39:59.830Z</time>
      </trkpt>
      <trkpt lat="43.6657" lon="1.44757">
        <ele>181.967389</ele>
        <time>2022-07-29T15:40:01.815Z</time>
      </trkpt>
      <trkpt lat="43.66562" lon="1.44747">
        <ele>182.024806</ele>
        <time>2022-07-29T15:40:03.825Z</time>
      </trkpt>
      <trkpt lat="43.66554" lon="1.44736">
        <ele>182.082343</ele>
        <time>2022-07-29T15:40:05.832Z</time>
      </trkpt>
      <trkpt lat="43.66544" lon="1.44727">
        <ele>182.127627</ele>
        <time>2022-07-29T15:40:07.841Z</time>
      </trkpt>
      <trkpt lat="43.66534" lon="1.44721">
        <ele>182.171876</ele>
        <time>2022-07-29T15:40:09.827Z</time>
      </trkpt>
      <trkpt lat="43.66524" lon="1.44715">
        <ele>182.212578</ele>
        <time>2022-07-29T15:40:11.812Z</time>
      </trkpt>
      <trkpt lat="43.66515" lon="1.4471">
        <ele>182.247707</ele>
        <time>2022-07-29T15:40:14.814Z</time>
      </trkpt>
      <trkpt lat="43.66507" lon="1.44725">
        <ele>182.298619</ele>
        <time>2022-07-29T15:40:18.813Z</time>
      </trkpt>
      <trkpt lat="43.66502" lon="1.44739">
        <ele>182.342256</ele>
        <time>2022-07-29T15:40:20.841Z</time>
      </trkpt>
      <trkpt lat="43.66497" lon="1.44754">
        <ele>182.389029</ele>
        <time>2022-07-29T15:40:22.826Z</time>
      </trkpt>
      <trkpt lat="43.6649" lon="1.44769">
        <ele>182.435942</ele>
        <time>2022-07-29T15:40:24.819Z</time>
      </trkpt>
      <trkpt lat="43.66484" lon="1.44785">
        <ele>182.484276</ele>
        <time>2022-07-29T15:40:26.831Z</time>
      </trkpt>
      <trkpt lat="43.66477" lon="1.448">
        <ele>182.532473</ele>
        <time>2022-07-29T15:40:28.814Z</time>
      </trkpt>
      <trkpt lat="43.6647" lon="1.44815">
        <ele>182.582797</ele>
        <time>2022-07-29T15:40:30.829Z</time>
      </trkpt>
      <trkpt lat="43.66464" lon="1.44832">
        <ele>182.634639</ele>
        <time>2022-07-29T15:40:32.833Z</time>
      </trkpt>
      <trkpt lat="43.66458" lon="1.4485">
        <ele>182.687633</ele>
        <time>2022-07-29T15:40:34.829Z</time>
      </trkpt>
      <trkpt lat="43.66453" lon="1.44868">
        <ele>182.741716</ele>
        <time>2022-07-29T15:40:36.855Z</time>
      </trkpt>
      <trkpt lat="43.6645" lon="1.44888">
        <ele>182.794564</ele>
        <time>2022-07-29T15:40:38.813Z</time>
      </trkpt>
      <trkpt lat="43.66443" lon="1.44905">
        <ele>182.845463</ele>
        <time>2022-07-29T15:40:40.820Z</time>
      </trkpt>
      <trkpt lat="43.66435" lon="1.44921">
        <ele>182.894745</ele>
        <time>2022-07-29T15:40:42.816Z</time>
      </trkpt>
      <trkpt lat="43.66433" lon="1.4494">
        <ele>182.943653</ele>
        <time>2022-07-29T15:40:44.844Z</time>
      </trkpt>
      <trkpt lat="43.66429" lon="1.44958">
        <ele>182.989614</ele>
        <time>2022-07-29T15:40:46.822Z</time>
      </trkpt>
      <trkpt lat="43.66424" lon="1.44974">
        <ele>183.034441</ele>
        <time>2022-07-29T15:40:48.822Z</time>
      </trkpt>
      <trkpt lat="43.66419" lon="1.4499">
        <ele>183.080145</ele>
        <time>2022-07-29T15:40:50.831Z</time>
      </trkpt>
      <trkpt lat="43.66414" lon="1.45007">
        <ele>183.125793</ele>
        <time>2022-07-29T15:40:52.822Z</time>
      </trkpt>
      <trkpt lat="43.66411" lon="1.45024">
        <ele>183.170468</ele>
        <time>2022-07-29T15:40:54.822Z</time>
      </trkpt>
      <trkpt lat="43.66406" lon="1.4504">
        <ele>183.214599</ele>
        <time>2022-07-29T15:40:56.830Z</time>
      </trkpt>
      <trkpt lat="43.664" lon="1.45055">
        <ele>183.256701</ele>
        <time>2022-07-29T15:40:58.848Z</time>
      </trkpt>
      <trkpt lat="43.66395" lon="1.4507">
        <ele>183.298475</ele>
        <time>2022-07-29T15:41:00.816Z</time>
      </trkpt>
      <trkpt lat="43.66392" lon="1.45085">
        <ele>183.338935</ele>
        <time>2022-07-29T15:41:02.813Z</time>
      </trkpt>
      <trkpt lat="43.66389" lon="1.45098">
        <ele>183.373024</ele>
        <time>2022-07-29T15:41:04.834Z</time>
      </trkpt>
      <trkpt lat="43.66382" lon="1.45112">
        <ele>183.406241</ele>
        <time>2022-07-29T15:41:06.817Z</time>
      </trkpt>
      <trkpt lat="43.66376" lon="1.45125">
        <ele>183.406108</ele>
        <time>2022-07-29T15:41:08.838Z</time>
      </trkpt>
      <trkpt lat="43.6637" lon="1.45139">
        <ele>183.405967</ele>
        <time>2022-07-29T15:41:10.804Z</time>
      </trkpt>
      <trkpt lat="43.66364" lon="1.45152">
        <ele>183.405835</ele>
        <time>2022-07-29T15:41:12.809Z</time>
      </trkpt>
      <trkpt lat="43.66358" lon="1.45165">
        <ele>183.4057</ele>
        <time>2022-07-29T15:41:14.849Z</time>
      </trkpt>
      <trkpt lat="43.6636" lon="1.45181">
        <ele>183.405567</ele>
        <time>2022-07-29T15:41:16.822Z</time>
      </trkpt>
      <trkpt lat="43.66359" lon="1.45194">
        <ele>183.405453</ele>
        <time>2022-07-29T15:41:18.833Z</time>
      </trkpt>
      <trkpt lat="43.66354" lon="1.45207">
        <ele>183.40532</ele>
        <time>2022-07-29T15:41:20.810Z</time>
      </trkpt>
      <trkpt lat="43.66349" lon="1.45223">
        <ele>183.405173</ele>
        <time>2022-07-29T15:41:22.796Z</time>
      </trkpt>
      <trkpt lat="43.66345" lon="1.4524">
        <ele>183.405024</ele>
        <time>2022-07-29T15:41:24.821Z</time>
      </trkpt>
      <trkpt lat="43.66338" lon="1.45253">
        <ele>183.404877</ele>
        <time>2022-07-29T15:41:26.830Z</time>
      </trkpt>
      <trkpt lat="43.66332" lon="1.45265">
        <ele>183.40475</ele>
        <time>2022-07-29T15:41:28.821Z</time>
      </trkpt>
      <trkpt lat="43.66325" lon="1.45279">
        <ele>183.404609</ele>
        <time>2022-07-29T15:41:30.825Z</time>
      </trkpt>
      <trkpt lat="43.66318" lon="1.45293">
        <ele>183.404465</ele>
        <time>2022-07-29T15:41:32.834Z</time>
      </trkpt>
      <trkpt lat="43.66311" lon="1.45306">
        <ele>183.404321</ele>
        <time>2022-07-29T15:41:34.809Z</time>
      </trkpt>
      <trkpt lat="43.66305" lon="1.45322">
        <ele>183.404171</ele>
        <time>2022-07-29T15:41:36.814Z</time>
      </trkpt>
      <trkpt lat="43.663" lon="1.45336">
        <ele>183.411557</ele>
        <time>2022-07-29T15:41:38.801Z</time>
      </trkpt>
      <trkpt lat="43.66292" lon="1.4535">
        <ele>183.42172</ele>
        <time>2022-07-29T15:41:40.823Z</time>
      </trkpt>
      <trkpt lat="43.66285" lon="1.45364">
        <ele>183.431686</ele>
        <time>2022-07-29T15:41:42.822Z</time>
      </trkpt>
      <trkpt lat="43.66279" lon="1.45379">
        <ele>183.44157</ele>
        <time>2022-07-29T15:41:44.835Z</time>
      </trkpt>
      <trkpt lat="43.66274" lon="1.45395">
        <ele>183.451913</ele>
        <time>2022-07-29T15:41:46.814Z</time>
      </trkpt>
      <trkpt lat="43.66269" lon="1.45412">
        <ele>183.462486</ele>
        <time>2022-07-29T15:41:48.801Z</time>
      </trkpt>
      <trkpt lat="43.66264" lon="1.45428">
        <ele>183.472627</ele>
        <time>2022-07-29T15:41:50.817Z</time>
      </trkpt>
      <trkpt lat="43.6626" lon="1.45444">
        <ele>183.482817</ele>
        <time>2022-07-29T15:41:52.808Z</time>
      </trkpt>
      <trkpt lat="43.66257" lon="1.4546">
        <ele>183.491951</ele>
        <time>2022-07-29T15:41:54.818Z</time>
      </trkpt>
      <trkpt lat="43.66254" lon="1.45475">
        <ele>183.501185</ele>
        <time>2022-07-29T15:41:56.829Z</time>
      </trkpt>
      <trkpt lat="43.66249" lon="1.4549">
        <ele>183.51089</ele>
        <time>2022-07-29T15:41:58.869Z</time>
      </trkpt>
      <trkpt lat="43.66244" lon="1.45505">
        <ele>183.520617</ele>
        <time>2022-07-29T15:42:00.841Z</time>
      </trkpt>
      <trkpt lat="43.6624" lon="1.45521">
        <ele>183.53042</ele>
        <time>2022-07-29T15:42:02.841Z</time>
      </trkpt>
      <trkpt lat="43.66236" lon="1.45536">
        <ele>183.539877</ele>
        <time>2022-07-29T15:42:04.837Z</time>
      </trkpt>
      <trkpt lat="43.66231" lon="1.45552">
        <ele>183.548145</ele>
        <time>2022-07-29T15:42:06.839Z</time>
      </trkpt>
      <trkpt lat="43.66226" lon="1.45568">
        <ele>183.533781</ele>
        <time>2022-07-29T15:42:08.830Z</time>
      </trkpt>
      <trkpt lat="43.66222" lon="1.45584">
        <ele>183.519667</ele>
        <time>2022-07-29T15:42:10.843Z</time>
      </trkpt>
      <trkpt lat="43.66217" lon="1.45599">
        <ele>183.505529</ele>
        <time>2022-07-29T15:42:12.839Z</time>
      </trkpt>
      <trkpt lat="43.66212" lon="1.45615">
        <ele>183.491613</ele>
        <time>2022-07-29T15:42:14.842Z</time>
      </trkpt>
      <trkpt lat="43.66205" lon="1.4563">
        <ele>183.477585</ele>
        <time>2022-07-29T15:42:16.851Z</time>
      </trkpt>
      <trkpt lat="43.66194" lon="1.45632">
        <ele>183.464787</ele>
        <time>2022-07-29T15:42:18.826Z</time>
      </trkpt>
      <trkpt lat="43.66185" lon="1.45622">
        <ele>183.451675</ele>
        <time>2022-07-29T15:42:20.827Z</time>
      </trkpt>
      <trkpt lat="43.66176" lon="1.4561">
        <ele>183.437886</ele>
        <time>2022-07-29T15:42:22.841Z</time>
      </trkpt>
      <trkpt lat="43.66168" lon="1.45598">
        <ele>183.424371</ele>
        <time>2022-07-29T15:42:24.859Z</time>
      </trkpt>
      <trkpt lat="43.6616" lon="1.45587">
        <ele>183.411813</ele>
        <time>2022-07-29T15:42:26.873Z</time>
      </trkpt>
      <trkpt lat="43.66151" lon="1.45578">
        <ele>183.398342</ele>
        <time>2022-07-29T15:42:28.833Z</time>
      </trkpt>
      <trkpt lat="43.6614" lon="1.45569">
        <ele>183.38435</ele>
        <time>2022-07-29T15:42:30.829Z</time>
      </trkpt>
      <trkpt lat="43.6613" lon="1.4556">
        <ele>183.370643</ele>
        <time>2022-07-29T15:42:32.840Z</time>
      </trkpt>
      <trkpt lat="43.66119" lon="1.4555">
        <ele>183.355698</ele>
        <time>2022-07-29T15:42:34.823Z</time>
      </trkpt>
      <trkpt lat="43.66108" lon="1.45543">
        <ele>183.386543</ele>
        <time>2022-07-29T15:42:36.806Z</time>
      </trkpt>
      <trkpt lat="43.66097" lon="1.45536">
        <ele>183.561168</ele>
        <time>2022-07-29T15:42:38.825Z</time>
      </trkpt>
      <trkpt lat="43.66085" lon="1.45532">
        <ele>183.738774</ele>
        <time>2022-07-29T15:42:40.834Z</time>
      </trkpt>
      <trkpt lat="43.66072" lon="1.45536">
        <ele>183.919605</ele>
        <time>2022-07-29T15:42:42.834Z</time>
      </trkpt>
      <trkpt lat="43.66061" lon="1.45533">
        <ele>184.078487</ele>
        <time>2022-07-29T15:42:44.839Z</time>
      </trkpt>
      <trkpt lat="43.6605" lon="1.45526">
        <ele>184.25663</ele>
        <time>2022-07-29T15:42:46.839Z</time>
      </trkpt>
      <trkpt lat="43.66039" lon="1.45518">
        <ele>184.43179</ele>
        <time>2022-07-29T15:42:48.827Z</time>
      </trkpt>
      <trkpt lat="43.66029" lon="1.4551">
        <ele>184.607969</ele>
        <time>2022-07-29T15:42:50.824Z</time>
      </trkpt>
      <trkpt lat="43.66019" lon="1.455">
        <ele>184.77766</ele>
        <time>2022-07-29T15:42:52.871Z</time>
      </trkpt>
      <trkpt lat="43.6601" lon="1.45491">
        <ele>184.937038</ele>
        <time>2022-07-29T15:42:54.846Z</time>
      </trkpt>
      <trkpt lat="43.66" lon="1.45483">
        <ele>185.099782</ele>
        <time>2022-07-29T15:42:56.822Z</time>
      </trkpt>
      <trkpt lat="43.6599" lon="1.45477">
        <ele>185.264852</ele>
        <time>2022-07-29T15:42:58.832Z</time>
      </trkpt>
      <trkpt lat="43.6598" lon="1.4547">
        <ele>185.426496</ele>
        <time>2022-07-29T15:43:00.822Z</time>
      </trkpt>
      <trkpt lat="43.65972" lon="1.45459">
        <ele>185.581686</ele>
        <time>2022-07-29T15:43:02.841Z</time>
      </trkpt>
      <trkpt lat="43.65964" lon="1.45451">
        <ele>185.724521</ele>
        <time>2022-07-29T15:43:05.835Z</time>
      </trkpt>
      <trkpt lat="43.65954" lon="1.45451">
        <ele>185.865316</ele>
        <time>2022-07-29T15:43:07.821Z</time>
      </trkpt>
      <trkpt lat="43.65942" lon="1.45454">
        <ele>185.930614</ele>
        <time>2022-07-29T15:43:09.839Z</time>
      </trkpt>
      <trkpt lat="43.6593" lon="1.45463">
        <ele>185.939065</ele>
        <time>2022-07-29T15:43:11.846Z</time>
      </trkpt>
      <trkpt lat="43.65917" lon="1.4547">
        <ele>185.947292</ele>
        <time>2022-07-29T15:43:13.839Z</time>
      </trkpt>
      <trkpt lat="43.65903" lon="1.45471">
        <ele>185.955655</ele>
        <time>2022-07-29T15:43:15.845Z</time>
      </trkpt>
      <trkpt lat="43.65889" lon="1.45473">
        <ele>185.963916</ele>
        <time>2022-07-29T15:43:17.825Z</time>
      </trkpt>
      <trkpt lat="43.65876" lon="1.45475">
        <ele>185.972095</ele>
        <time>2022-07-29T15:43:19.853Z</time>
      </trkpt>
      <trkpt lat="43.65862" lon="1.45478">
        <ele>185.980399</ele>
        <time>2022-07-29T15:43:21.836Z</time>
      </trkpt>
      <trkpt lat="43.65849" lon="1.45482">
        <ele>185.988768</ele>
        <time>2022-07-29T15:43:23.835Z</time>
      </trkpt>
      <trkpt lat="43.65835" lon="1.45486">
        <ele>185.996853</ele>
        <time>2022-07-29T15:43:25.836Z</time>
      </trkpt>
      <trkpt lat="43.65823" lon="1.4549">
        <ele>186.004442</ele>
        <time>2022-07-29T15:43:27.815Z</time>
      </trkpt>
      <trkpt lat="43.65813" lon="1.45494">
        <ele>186.010996</ele>
        <time>2022-07-29T15:43:29.826Z</time>
      </trkpt>
      <trkpt lat="43.65802" lon="1.45496">
        <ele>186.017575</ele>
        <time>2022-07-29T15:43:31.801Z</time>
      </trkpt>
      <trkpt lat="43.6579" lon="1.4549">
        <ele>186.024868</ele>
        <time>2022-07-29T15:43:33.844Z</time>
      </trkpt>
      <trkpt lat="43.65778" lon="1.45486">
        <ele>186.032255</ele>
        <time>2022-07-29T15:43:35.829Z</time>
      </trkpt>
      <trkpt lat="43.65766" lon="1.45484">
        <ele>185.920253</ele>
        <time>2022-07-29T15:43:37.878Z</time>
      </trkpt>
      <trkpt lat="43.65753" lon="1.45481">
        <ele>185.777195</ele>
        <time>2022-07-29T15:43:39.846Z</time>
      </trkpt>
      <trkpt lat="43.6574" lon="1.45479">
        <ele>185.629223</ele>
        <time>2022-07-29T15:43:41.832Z</time>
      </trkpt>
      <trkpt lat="43.65727" lon="1.45475">
        <ele>185.474908</ele>
        <time>2022-07-29T15:43:43.818Z</time>
      </trkpt>
      <trkpt lat="43.65713" lon="1.4547">
        <ele>185.313246</ele>
        <time>2022-07-29T15:43:45.846Z</time>
      </trkpt>
      <trkpt lat="43.65699" lon="1.45464">
        <ele>185.145031</ele>
        <time>2022-07-29T15:43:47.832Z</time>
      </trkpt>
      <trkpt lat="43.65684" lon="1.45458">
        <ele>184.974039</ele>
        <time>2022-07-29T15:43:49.818Z</time>
      </trkpt>
      <trkpt lat="43.6567" lon="1.45452">
        <ele>184.805825</ele>
        <time>2022-07-29T15:43:51.819Z</time>
      </trkpt>
      <trkpt lat="43.65655" lon="1.45446">
        <ele>184.638687</ele>
        <time>2022-07-29T15:43:53.830Z</time>
      </trkpt>
      <trkpt lat="43.65641" lon="1.4544">
        <ele>184.472625</ele>
        <time>2022-07-29T15:43:55.838Z</time>
      </trkpt>
      <trkpt lat="43.65627" lon="1.45434">
        <ele>184.306644</ele>
        <time>2022-07-29T15:43:57.828Z</time>
      </trkpt>
      <trkpt lat="43.65614" lon="1.45427">
        <ele>184.142539</ele>
        <time>2022-07-29T15:43:59.860Z</time>
      </trkpt>
      <trkpt lat="43.656" lon="1.45422">
        <ele>184.012662</ele>
        <time>2022-07-29T15:44:01.831Z</time>
      </trkpt>
      <trkpt lat="43.65586" lon="1.45417">
        <ele>184.031832</ele>
        <time>2022-07-29T15:44:03.832Z</time>
      </trkpt>
      <trkpt lat="43.65572" lon="1.45412">
        <ele>184.051344</ele>
        <time>2022-07-29T15:44:05.822Z</time>
      </trkpt>
      <trkpt lat="43.65559" lon="1.45407">
        <ele>184.070446</ele>
        <time>2022-07-29T15:44:07.827Z</time>
      </trkpt>
      <trkpt lat="43.65545" lon="1.45402">
        <ele>184.089487</ele>
        <time>2022-07-29T15:44:09.813Z</time>
      </trkpt>
      <trkpt lat="43.65532" lon="1.45398">
        <ele>184.108677</ele>
        <time>2022-07-29T15:44:11.843Z</time>
      </trkpt>
      <trkpt lat="43.65518" lon="1.45393">
        <ele>184.127875</ele>
        <time>2022-07-29T15:44:13.852Z</time>
      </trkpt>
      <trkpt lat="43.65504" lon="1.45388">
        <ele>184.146916</ele>
        <time>2022-07-29T15:44:15.825Z</time>
      </trkpt>
      <trkpt lat="43.65491" lon="1.45384">
        <ele>184.166197</ele>
        <time>2022-07-29T15:44:17.835Z</time>
      </trkpt>
      <trkpt lat="43.65478" lon="1.45377">
        <ele>184.185014</ele>
        <time>2022-07-29T15:44:19.831Z</time>
      </trkpt>
      <trkpt lat="43.65465" lon="1.45373">
        <ele>184.20242</ele>
        <time>2022-07-29T15:44:21.835Z</time>
      </trkpt>
      <trkpt lat="43.65454" lon="1.45369">
        <ele>184.218438</ele>
        <time>2022-07-29T15:44:23.833Z</time>
      </trkpt>
      <trkpt lat="43.65444" lon="1.45365">
        <ele>184.233079</ele>
        <time>2022-07-29T15:44:25.812Z</time>
      </trkpt>
      <trkpt lat="43.65438" lon="1.45355">
        <ele>184.246082</ele>
        <time>2022-07-29T15:44:27.815Z</time>
      </trkpt>
      <trkpt lat="43.65443" lon="1.45341">
        <ele>184.242481</ele>
        <time>2022-07-29T15:44:29.811Z</time>
      </trkpt>
      <trkpt lat="43.65453" lon="1.45331">
        <ele>184.207749</ele>
        <time>2022-07-29T15:44:31.810Z</time>
      </trkpt>
      <trkpt lat="43.65462" lon="1.4532">
        <ele>184.174288</ele>
        <time>2022-07-29T15:44:33.821Z</time>
      </trkpt>
      <trkpt lat="43.65472" lon="1.45309">
        <ele>184.14028</ele>
        <time>2022-07-29T15:44:35.828Z</time>
      </trkpt>
      <trkpt lat="43.65481" lon="1.45298">
        <ele>184.106229</ele>
        <time>2022-07-29T15:44:37.838Z</time>
      </trkpt>
      <trkpt lat="43.65491" lon="1.45288">
        <ele>184.071914</ele>
        <time>2022-07-29T15:44:39.812Z</time>
      </trkpt>
      <trkpt lat="43.65501" lon="1.45278">
        <ele>184.03814</ele>
        <time>2022-07-29T15:44:41.838Z</time>
      </trkpt>
      <trkpt lat="43.6551" lon="1.45267">
        <ele>184.005041</ele>
        <time>2022-07-29T15:44:43.817Z</time>
      </trkpt>
      <trkpt lat="43.65517" lon="1.45253">
        <ele>183.971862</ele>
        <time>2022-07-29T15:44:45.826Z</time>
      </trkpt>
      <trkpt lat="43.65525" lon="1.4524">
        <ele>183.937505</ele>
        <time>2022-07-29T15:44:47.840Z</time>
      </trkpt>
      <trkpt lat="43.65534" lon="1.4523">
        <ele>183.904563</ele>
        <time>2022-07-29T15:44:49.800Z</time>
      </trkpt>
      <trkpt lat="43.65544" lon="1.45219">
        <ele>183.87069</ele>
        <time>2022-07-29T15:44:51.843Z</time>
      </trkpt>
      <trkpt lat="43.65553" lon="1.45209">
        <ele>183.837476</ele>
        <time>2022-07-29T15:44:53.816Z</time>
      </trkpt>
      <trkpt lat="43.65563" lon="1.45199">
        <ele>183.803457</ele>
        <time>2022-07-29T15:44:55.832Z</time>
      </trkpt>
      <trkpt lat="43.65572" lon="1.45188">
        <ele>183.770337</ele>
        <time>2022-07-29T15:44:57.817Z</time>
      </trkpt>
      <trkpt lat="43.65581" lon="1.45177">
        <ele>183.786443</ele>
        <time>2022-07-29T15:44:59.834Z</time>
      </trkpt>
      <trkpt lat="43.6559" lon="1.45166">
        <ele>183.829718</ele>
        <time>2022-07-29T15:45:01.836Z</time>
      </trkpt>
      <trkpt lat="43.65598" lon="1.45156">
        <ele>183.871218</ele>
        <time>2022-07-29T15:45:03.826Z</time>
      </trkpt>
      <trkpt lat="43.65603" lon="1.45142">
        <ele>183.913036</ele>
        <time>2022-07-29T15:45:05.834Z</time>
      </trkpt>
      <trkpt lat="43.65602" lon="1.45125">
        <ele>183.957043</ele>
        <time>2022-07-29T15:45:07.822Z</time>
      </trkpt>
      <trkpt lat="43.65596" lon="1.45111">
        <ele>184.000638</ele>
        <time>2022-07-29T15:45:09.818Z</time>
      </trkpt>
      <trkpt lat="43.65587" lon="1.451">
        <ele>184.044476</ele>
        <time>2022-07-29T15:45:11.851Z</time>
      </trkpt>
      <trkpt lat="43.65579" lon="1.45088">
        <ele>184.088055</ele>
        <time>2022-07-29T15:45:13.834Z</time>
      </trkpt>
      <trkpt lat="43.65571" lon="1.45077">
        <ele>184.128344</ele>
        <time>2022-07-29T15:45:15.821Z</time>
      </trkpt>
      <trkpt lat="43.65562" lon="1.45066">
        <ele>184.172595</ele>
        <time>2022-07-29T15:45:18.825Z</time>
      </trkpt>
      <trkpt lat="43.65555" lon="1.45055">
        <ele>184.211115</ele>
        <time>2022-07-29T15:45:20.835Z</time>
      </trkpt>
      <trkpt lat="43.65547" lon="1.45043">
        <ele>184.254764</ele>
        <time>2022-07-29T15:45:22.822Z</time>
      </trkpt>
      <trkpt lat="43.65539" lon="1.45032">
        <ele>184.295918</ele>
        <time>2022-07-29T15:45:24.840Z</time>
      </trkpt>
      <trkpt lat="43.65533" lon="1.45022">
        <ele>184.330741</ele>
        <time>2022-07-29T15:45:26.831Z</time>
      </trkpt>
      <trkpt lat="43.65525" lon="1.45015">
        <ele>184.364927</ele>
        <time>2022-07-29T15:45:28.820Z</time>
      </trkpt>
      <trkpt lat="43.65519" lon="1.45003">
        <ele>184.403285</ele>
        <time>2022-07-29T15:45:30.821Z</time>
      </trkpt>
      <trkpt lat="43.65511" lon="1.44991">
        <ele>184.411387</ele>
        <time>2022-07-29T15:45:32.832Z</time>
      </trkpt>
      <trkpt lat="43.65503" lon="1.44978">
        <ele>184.398174</ele>
        <time>2022-07-29T15:45:34.822Z</time>
      </trkpt>
      <trkpt lat="43.65494" lon="1.44966">
        <ele>184.385376</ele>
        <time>2022-07-29T15:45:36.841Z</time>
      </trkpt>
      <trkpt lat="43.65486" lon="1.44953">
        <ele>184.372282</ele>
        <time>2022-07-29T15:45:38.820Z</time>
      </trkpt>
      <trkpt lat="43.65479" lon="1.4494">
        <ele>184.359676</ele>
        <time>2022-07-29T15:45:40.828Z</time>
      </trkpt>
      <trkpt lat="43.65478" lon="1.44924">
        <ele>184.347471</ele>
        <time>2022-07-29T15:45:42.830Z</time>
      </trkpt>
      <trkpt lat="43.65483" lon="1.4491">
        <ele>184.335051</ele>
        <time>2022-07-29T15:45:44.836Z</time>
      </trkpt>
      <trkpt lat="43.6549" lon="1.44895">
        <ele>184.321894</ele>
        <time>2022-07-29T15:45:46.824Z</time>
      </trkpt>
      <trkpt lat="43.65497" lon="1.44881">
        <ele>184.308807</ele>
        <time>2022-07-29T15:45:48.846Z</time>
      </trkpt>
      <trkpt lat="43.65504" lon="1.44867">
        <ele>184.29621</ele>
        <time>2022-07-29T15:45:50.850Z</time>
      </trkpt>
      <trkpt lat="43.65509" lon="1.44852">
        <ele>184.283242</ele>
        <time>2022-07-29T15:45:52.828Z</time>
      </trkpt>
      <trkpt lat="43.65514" lon="1.44837">
        <ele>184.27059</ele>
        <time>2022-07-29T15:45:54.848Z</time>
      </trkpt>
      <trkpt lat="43.65519" lon="1.44822">
        <ele>184.258125</ele>
        <time>2022-07-29T15:45:56.874Z</time>
      </trkpt>
      <trkpt lat="43.65528" lon="1.44811">
        <ele>184.245683</ele>
        <time>2022-07-29T15:45:58.862Z</time>
      </trkpt>
      <trkpt lat="43.65536" lon="1.44799">
        <ele>184.232879</ele>
        <time>2022-07-29T15:46:00.883Z</time>
      </trkpt>
      <trkpt lat="43.65544" lon="1.44786">
        <ele>184.230064</ele>
        <time>2022-07-29T15:46:02.864Z</time>
      </trkpt>
      <trkpt lat="43.65551" lon="1.44772">
        <ele>184.230064</ele>
        <time>2022-07-29T15:46:04.840Z</time>
      </trkpt>
      <trkpt lat="43.65558" lon="1.44758">
        <ele>184.230064</ele>
        <time>2022-07-29T15:46:06.820Z</time>
      </trkpt>
      <trkpt lat="43.65565" lon="1.44744">
        <ele>184.230064</ele>
        <time>2022-07-29T15:46:08.811Z</time>
      </trkpt>
      <trkpt lat="43.65572" lon="1.44731">
        <ele>184.230064</ele>
        <time>2022-07-29T15:46:10.830Z</time>
      </trkpt>
      <trkpt lat="43.65578" lon="1.44717">
        <ele>184.230064</ele>
        <time>2022-07-29T15:46:12.824Z</time>
      </trkpt>
      <trkpt lat="43.65585" lon="1.44703">
        <ele>184.230064</ele>
        <time>2022-07-29T15:46:14.838Z</time>
      </trkpt>
      <trkpt lat="43.65593" lon="1.4469">
        <ele>184.230064</ele>
        <time>2022-07-29T15:46:16.817Z</time>
      </trkpt>
      <trkpt lat="43.65599" lon="1.44676">
        <ele>184.230064</ele>
        <time>2022-07-29T15:46:18.851Z</time>
      </trkpt>
      <trkpt lat="43.65605" lon="1.44664">
        <ele>184.230064</ele>
        <time>2022-07-29T15:46:20.847Z</time>
      </trkpt>
      <trkpt lat="43.65605" lon="1.44648">
        <ele>184.230064</ele>
        <time>2022-07-29T15:46:23.824Z</time>
      </trkpt>
      <trkpt lat="43.65597" lon="1.4464">
        <ele>184.230064</ele>
        <time>2022-07-29T15:46:26.838Z</time>
      </trkpt>
      <trkpt lat="43.65591" lon="1.44616">
        <ele>134</ele>
        <time>2022-07-29T15:46:29.830Z</time>
      </trkpt>
    </trkseg>
  </trk>
</gpx>